# Wetter Temperatur Luftdruck Luftfeuchtigkeit Sichtweite Windgeschwindigkeit Windrichtung Zeit
1 Clouds 3 1023 92 0 0.45 247 22:25 24.01.2020
2 Clouds 3 1023 92 0 0.89 292 21:43 24.01.2020
3 Clouds 3 1023 91 0 10.47 255 21:21 24.01.2020
4 Clouds 3 1023 91 0 10.47 255 21:21 24.01.2020
5 Clouds 3 1023 91 0 1.34 225 20:59 24.01.2020
6 Clouds 3 1023 91 0 10.47 255 20:40 24.01.2020
7 Clouds 3 1023 91 0 0.45 270 20:20 24.01.2020
8 Clouds 3 1023 91 0 10.3 250 19:57 24.01.2020
9 Clouds 3 1023 91 0 0.45 225 19:38 24.01.2020
10 Clouds 3 1023 91 0 0.89 225 19:20 24.01.2020
11 Clouds 3 1022 90 0 10.3 250 18:43 24.01.2020
12 Clouds 3 1023 90 0 0.45 225 18:24 24.01.2020
13 Clouds 4 1023 90 0 0.89 247 17:56 24.01.2020
14 Clouds 4 1023 90 0 10.3 250 17:38 24.01.2020
15 Clouds 4 1023 89 0 0.89 247 17:18 24.01.2020
16 Clouds 4 1023 89 0 0.45 225 16:39 24.01.2020
17 Clouds 4 1023 89 0 0.89 225 16:21 24.01.2020
18 Clouds 4 1023 89 0 8.58 250 15:43 24.01.2020
19 Clouds 4 1023 89 0 8.58 250 15:23 24.01.2020
20 Clouds 5 1022 89 0 0.89 270 14:59 24.01.2020
21 Clouds 4 1022 89 0 8.58 250 14:40 24.01.2020
22 Clouds 4 1022 89 0 0.89 270 14:22 24.01.2020
23 Clouds 5 1023 89 0 0.45 225 13:43 24.01.2020
24 Clouds 5 1023 89 0 0.89 225 13:23 24.01.2020
25 Clouds 4 1023 89 0 1.34 225 12:45 24.01.2020
26 Clouds 4 1023 89 0 1.34 225 12:45 24.01.2020
27 Clouds 4 1024 89 0 1.34 225 12:23 24.01.2020
28 Clouds 4 1024 90 0 9.17 256 11:58 24.01.2020
29 Clouds 4 1024 90 0 0.45 225 11:39 24.01.2020
30 Clouds 4 1025 90 0 9.36 254 11:18 24.01.2020
31 Clouds 3 1025 89 0 9.36 254 10:43 24.01.2020
32 Clouds 3 1025 89 0 1.34 202 10:21 24.01.2020
33 Clouds 3 1025 89 0 1.34 225 09:55 24.01.2020
34 Clouds 3 1025 90 0 0.89 270 09:37 24.01.2020
35 Clouds 3 1025 89 0 9.36 254 09:18 24.01.2020
36 Clouds 3 1025 89 0 0.45 247 08:40 24.01.2020
37 Clouds 3 1025 89 0 0.45 225 08:19 24.01.2020
38 Clouds 3 1025 89 0 0.89 247 07:49 24.01.2020
39 Clouds 3 1025 89 0 0.45 292 07:28 24.01.2020
40 Clouds 3 1025 90 0 0.45 247 06:46 24.01.2020
41 Clouds 3 1025 90 0 1.34 225 06:28 24.01.2020
42 Clouds 3 1026 89 0 1.79 247 05:43 24.01.2020
43 Clouds 3 1026 89 0 0.89 247 04:52 24.01.2020
44 Clouds 4 1028 89 0 0.45 247 02:53 24.01.2020
45 Clouds 4 1028 89 0 0.45 270 02:23 24.01.2020
46 Clouds 4 1028 89 0 0.89 247 01:40 24.01.2020
47 Clouds 4 1028 88 0 0.89 270 01:19 24.01.2020
48 Clouds 4 1029 88 0 0.89 270 00:19 24.01.2020
49 Clouds 4 1029 88 0 8.49 247 23:45 23.01.2020
50 Clouds 4 1029 88 0 8.49 247 23:45 23.01.2020
51 Clouds 4 1029 88 0 0.45 270 23:27 23.01.2020
52 Clouds 4 1030 88 0 8.64 241 22:59 23.01.2020
53 Clouds 4 1030 88 0 8.64 241 22:37 23.01.2020
54 Clouds 4 1030 88 0 8.64 241 22:37 23.01.2020
55 Clouds 4 1030 88 0 0.45 315 22:19 23.01.2020
56 Clouds 4 1025 89 0 8.64 241 21:57 23.01.2020
57 Clouds 4 1030 88 0 8.64 241 21:38 23.01.2020
58 Clouds 4 1030 88 0 0.45 270 21:20 23.01.2020
59 Clouds 4 1031 88 0 8.64 241 20:58 23.01.2020
60 Clouds 4 1031 88 0 0.45 270 20:38 23.01.2020
61 Rain 4 1031 89 0 0.45 270 20:19 23.01.2020
62 Rain 4 1031 89 0 0.45 292 19:54 23.01.2020
63 Rain 4 1031 89 0 8.71 254 19:36 23.01.2020
64 Rain 4 1031 89 0 8.71 254 19:18 23.01.2020
65 Rain 4 1032 89 0 0.45 247 18:41 23.01.2020
66 Rain 4 1032 89 0 8.71 254 18:20 23.01.2020
67 Rain 4 1032 89 0 8.71 254 18:20 23.01.2020
68 Rain 4 1032 89 0 0.45 292 17:58 23.01.2020
69 Rain 4 1032 90 0 8.71 254 17:40 23.01.2020
70 Clouds 4 1032 90 0 9.45 252 17:19 23.01.2020
71 Clouds 4 1032 90 0 9.45 252 16:56 23.01.2020
72 Clouds 4 1032 90 0 9.45 252 16:36 23.01.2020
73 Clouds 4 1032 90 0 0.45 292 16:18 23.01.2020
74 Clouds 4 1032 90 0 9.45 252 15:54 23.01.2020
75 Clouds 4 1033 90 0 9.45 252 15:36 23.01.2020
76 Clouds 4 1033 91 0 0.45 270 15:18 23.01.2020
77 Clouds 4 1033 91 0 1.34 292 14:54 23.01.2020
78 Clouds 4 1033 92 0 0.45 292 14:36 23.01.2020
79 Clouds 4 1033 92 0 0.89 292 14:18 23.01.2020
80 Clouds 4 1034 93 0 0.45 270 13:39 23.01.2020
81 Clouds 4 1034 93 0 0.45 292 13:20 23.01.2020
82 Clouds 4 1035 93 0 8.62 254 12:47 23.01.2020
83 Clouds 4 1035 93 0 8.78 252 12:25 23.01.2020
84 Clouds 4 1035 94 0 1.34 292 11:59 23.01.2020
85 Clouds 4 1036 94 0 0.45 292 11:39 23.01.2020
86 Clouds 4 1036 94 0 0.45 270 11:19 23.01.2020
87 Clouds 4 1036 94 0 0.45 270 11:19 23.01.2020
88 Clouds 4 1036 94 0 0.89 292 10:45 23.01.2020
89 Clouds 4 1037 94 0 0.45 270 10:23 23.01.2020
90 Clouds 5 1031 88 0 7.64 264 09:59 23.01.2020
91 Clouds 3 1037 93 0 7.64 264 09:39 23.01.2020
92 Clouds 3 1037 94 0 7.64 264 09:20 23.01.2020
93 Clouds 3 1037 94 0 7.64 264 08:42 23.01.2020
94 Clouds 3 1037 94 0 8.04 257 08:24 23.01.2020
95 Clouds 3 1036 94 0 0.45 247 07:49 23.01.2020
96 Clouds 3 1036 93 0 6.43 262 07:27 23.01.2020
97 Clouds 3 1037 93 0 6.43 262 06:54 23.01.2020
98 Clouds 2 1037 93 0 6.43 262 06:24 23.01.2020
99 Clouds 2 1037 93 0 6.43 262 05:58 23.01.2020
100 Clear 1 1037 93 0 4.64 266 04:24 23.01.2020
101 Clear 1 1037 92 0 4.64 266 02:48 23.01.2020
102 Clear 1 1038 92 0 3.64 282 01:50 23.01.2020
103 Clear 1 1038 92 0 0.45 270 00:41 23.01.2020
104 Clear 1 1038 92 0 2.25 284 00:20 23.01.2020
105 Clear 1 1038 91 0 2.25 284 23:45 22.01.2020
106 Clear 1 1038 91 0 2.25 284 23:27 22.01.2020
107 Clear 2 1037 92 0 3.92 329 22:43 22.01.2020
108 Clear 2 1037 92 0 3.92 329 22:24 22.01.2020
109 Clear 5 1032 86 0 3.92 329 21:58 22.01.2020
110 Clear 3 1037 92 0 0.45 315 21:36 22.01.2020
111 Clear 3 1037 92 0 0.45 315 21:36 22.01.2020
112 Clear 2 1036 92 0 3.92 329 21:18 22.01.2020
113 Clear 2 1036 91 0 3.92 329 20:41 22.01.2020
114 Clear 2 1036 91 0 3.92 329 20:41 22.01.2020
115 Clear 2 1036 91 0 0.45 292 20:23 22.01.2020
116 Clouds 3 1036 91 0 0.89 292 19:59 22.01.2020
117 Clouds 3 1035 91 0 0.45 292 19:41 22.01.2020
118 Clouds 3 1035 91 0 0.89 292 19:20 22.01.2020
119 Clouds 3 1035 90 0 5.29 333 18:58 22.01.2020
120 Clouds 3 1035 90 0 5.29 333 18:39 22.01.2020
121 Clouds 3 1035 90 0 0.45 292 18:21 22.01.2020
122 Clouds 4 1035 90 0 0.45 292 17:57 22.01.2020
123 Clouds 4 1034 90 0 1.34 292 17:39 22.01.2020
124 Clouds 4 1034 89 0 0.89 292 17:19 22.01.2020
125 Clouds 4 1034 89 0 1.34 337 16:54 22.01.2020
126 Clouds 4 1034 88 0 0.89 315 16:36 22.01.2020
127 Clouds 5 1034 87 0 0.89 315 16:18 22.01.2020
128 Clouds 6 1033 87 0 0.89 315 15:41 22.01.2020
129 Clouds 6 1033 86 0 1.34 315 15:23 22.01.2020
130 Clouds 6 1033 85 0 0.45 315 14:59 22.01.2020
131 Clouds 6 1033 85 0 6.2 316 14:38 22.01.2020
132 Clouds 6 1033 86 0 1.79 292 14:20 22.01.2020
133 Clouds 6 1033 86 0 0.45 292 13:56 22.01.2020
134 Clouds 6 1033 86 0 0.45 337 13:37 22.01.2020
135 Clouds 6 1033 86 0 1.79 315 13:19 22.01.2020
136 Clouds 7 1033 86 0 0.45 292 12:56 22.01.2020
137 Clouds 7 1033 86 0 0.45 292 12:56 22.01.2020
138 Clouds 7 1033 86 0 1.34 22 12:38 22.01.2020
139 Clouds 6 1033 86 0 0.45 315 12:19 22.01.2020
140 Clouds 6 1033 85 0 2.68 315 11:56 22.01.2020
141 Clouds 7 1033 86 0 2.24 315 11:38 22.01.2020
142 Clouds 6 1033 87 0 1.79 337 11:19 22.01.2020
143 Clouds 6 1033 87 0 1.79 292 10:45 22.01.2020
144 Clouds 6 1033 88 0 0.89 292 10:21 22.01.2020
145 Clouds 6 1033 89 0 0.89 292 09:58 22.01.2020
146 Clouds 6 1033 89 0 1.34 315 09:40 22.01.2020
147 Clouds 6 1032 89 0 2.24 315 09:21 22.01.2020
148 Clouds 6 1032 89 0 1.34 315 08:55 22.01.2020
149 Clouds 6 1032 90 0 1.79 315 08:36 22.01.2020
150 Rain 6 1032 91 0 2.68 315 08:18 22.01.2020
151 Rain 6 1032 91 0 1.79 292 07:44 22.01.2020
152 Rain 6 1032 92 0 0.89 292 07:26 22.01.2020
153 Rain 6 1032 93 0 1.79 292 06:34 22.01.2020
154 Rain 6 1032 93 0 2.68 315 05:54 22.01.2020
155 Clouds 6 1033 93 0 1.34 292 04:25 22.01.2020
156 Clouds 5 1032 93 0 2.24 292 03:26 22.01.2020
157 Clouds 5 1033 93 0 1.34 270 02:42 22.01.2020
158 Clouds 5 1034 92 0 12.94 272 00:47 22.01.2020
159 Clouds 5 1035 92 0 1.79 292 00:28 22.01.2020
160 Clouds 5 1035 91 0 1.34 292 23:57 21.01.2020
161 Clouds 5 1035 91 0 0.89 292 23:37 21.01.2020
162 Rain 5 1035 91 0 0.45 292 23:19 21.01.2020
163 Rain 5 1036 90 0 0.89 292 22:41 21.01.2020
164 Rain 5 1036 90 0 0.89 315 22:23 21.01.2020
165 Rain 6 1036 89 0 0.45 292 21:58 21.01.2020
166 Rain 6 1036 89 0 1.34 292 21:39 21.01.2020
167 Rain 6 1037 89 0 1.79 292 21:20 21.01.2020
168 Rain 6 1037 89 0 1.34 292 20:57 21.01.2020
169 Rain 6 1037 89 0 0.45 292 20:39 21.01.2020
170 Clouds 6 1037 89 0 1.79 270 20:20 21.01.2020
171 Clouds 6 1037 89 0 0.45 292 19:58 21.01.2020
172 Clouds 5 1037 89 0 0.89 292 19:39 21.01.2020
173 Clouds 5 1037 89 0 1.79 292 19:21 21.01.2020
174 Clouds 5 1037 89 0 1.34 270 18:57 21.01.2020
175 Clouds 5 1037 89 0 1.34 315 18:39 21.01.2020
176 Clouds 5 1038 89 0 1.79 292 18:20 21.01.2020
177 Clouds 5 1038 89 0 1.79 270 17:56 21.01.2020
178 Clouds 5 1038 89 0 0.45 292 17:38 21.01.2020
179 Clouds 5 1038 88 0 0.45 292 17:18 21.01.2020
180 Clouds 5 1038 88 0 0.89 270 16:38 21.01.2020
181 Clouds 6 1038 88 0 1.34 292 16:19 21.01.2020
182 Clouds 6 1038 88 0 1.34 292 16:19 21.01.2020
183 Clouds 6 1039 88 0 0.45 292 15:59 21.01.2020
184 Clouds 6 1039 88 0 0.89 225 15:38 21.01.2020
185 Clouds 6 1039 88 0 0.89 292 15:19 21.01.2020
186 Clouds 5 1039 88 0 0.89 292 14:40 21.01.2020
187 Clouds 5 1039 88 0 2.24 292 14:21 21.01.2020
188 Clouds 5 1038 89 0 0.89 225 13:43 21.01.2020
189 Clouds 5 1039 88 0 12.52 265 13:21 21.01.2020
190 Clouds 5 1040 88 0 1.34 292 12:59 21.01.2020
191 Clouds 4 1040 88 0 1.34 315 12:41 21.01.2020
192 Clouds 4 1041 88 0 0.45 292 12:23 21.01.2020
193 Clouds 4 1041 88 0 1.34 292 11:56 21.01.2020
194 Clouds 4 1041 88 0 0.45 292 11:37 21.01.2020
195 Clouds 4 1041 88 0 1.34 292 11:18 21.01.2020
196 Clouds 4 1041 89 0 0.89 247 10:42 21.01.2020
197 Clouds 4 1041 89 0 0.45 292 10:23 21.01.2020
198 Clouds 4 1041 89 0 0.45 292 10:23 21.01.2020
199 Clouds 4 1041 89 0 0.45 292 10:23 21.01.2020
200 Clouds 4 1041 89 0 0.89 292 09:56 21.01.2020
201 Clouds 4 1041 89 0 0.45 292 09:38 21.01.2020
202 Clouds 4 1041 89 0 0.45 292 09:19 21.01.2020
203 Clouds 3 1041 89 0 0.89 247 08:41 21.01.2020
204 Clouds 3 1041 89 0 1.79 292 08:22 21.01.2020
205 Clouds 3 1041 90 0 0.45 292 07:43 21.01.2020
206 Clouds 3 1041 90 0 0.89 292 07:24 21.01.2020
207 Clouds 3 1041 91 0 1.79 292 06:57 21.01.2020
208 Clouds 3 1041 91 0 1.79 292 06:38 21.01.2020
209 Clouds 3 1041 91 0 1.79 292 05:55 21.01.2020
210 Clouds 3 1041 91 0 0.89 270 05:32 21.01.2020
211 Clouds 3 1042 91 0 0.89 292 04:38 21.01.2020
212 Clouds 3 1043 91 0 0.45 292 02:27 21.01.2020
213 Clouds 3 1043 91 0 11.01 260 01:36 21.01.2020
214 Clouds 3 1044 91 0 0.45 225 00:45 21.01.2020
215 Clouds 3 1044 91 0 11.12 258 00:25 21.01.2020
216 Clouds 3 1044 91 0 0.89 247 23:56 20.01.2020
217 Clouds 3 1044 91 0 0.45 225 23:36 20.01.2020
218 Clear 3 1045 91 0 0.89 270 23:18 20.01.2020
219 Clear 3 1045 91 0 0.45 225 22:54 20.01.2020
220 Clear 4 1045 91 0 1.79 225 22:36 20.01.2020
221 Clear 4 1045 91 0 0.89 225 22:18 20.01.2020
222 Clear 4 1045 91 0 11.11 255 21:54 20.01.2020
223 Clear 4 1045 91 0 0.45 225 21:36 20.01.2020
224 Clear 4 1045 91 0 0.89 225 21:18 20.01.2020
225 Clear 4 1046 91 0 0.89 225 20:42 20.01.2020
226 Clouds 4 1046 91 0 10.91 251 20:20 20.01.2020
227 Clouds 4 1046 91 0 0.89 225 19:58 20.01.2020
228 Clouds 4 1046 91 0 0.45 247 19:40 20.01.2020
229 Clouds 4 1046 91 0 10.91 251 19:19 20.01.2020
230 Clouds 4 1046 92 0 0.45 247 18:56 20.01.2020
231 Clouds 4 1046 92 0 0.89 315 18:38 20.01.2020
232 Clouds 4 1046 92 0 0.45 292 18:19 20.01.2020
233 Clouds 4 1046 92 0 0.45 292 18:19 20.01.2020
234 Clouds 4 1046 92 0 10.91 251 17:39 20.01.2020
235 Clouds 4 1046 92 0 0.89 225 17:19 20.01.2020
236 Clouds 4 1046 92 0 0.45 225 16:47 20.01.2020
237 Clouds 4 1046 92 0 0.45 225 16:47 20.01.2020
238 Clouds 4 1047 92 0 0.89 225 16:26 20.01.2020
239 Clouds 5 1047 93 0 1.34 225 15:59 20.01.2020
240 Clouds 5 1047 93 0 1.34 225 15:59 20.01.2020
241 Clouds 5 1047 93 0 1.34 225 15:40 20.01.2020
242 Clouds 5 1047 93 0 0.45 225 15:22 20.01.2020
243 Clouds 5 1042 87 0 10.55 253 14:59 20.01.2020
244 Clouds 5 1047 93 0 1.34 225 14:40 20.01.2020
245 Clouds 5 1048 93 0 9.13 252 14:21 20.01.2020
246 Clouds 5 1048 94 0 0.45 225 13:57 20.01.2020
247 Clouds 5 1048 94 0 1.79 225 13:38 20.01.2020
248 Clouds 5 1048 94 0 0.45 225 13:20 20.01.2020
249 Clouds 4 1049 94 0 0.89 247 12:42 20.01.2020
250 Clouds 4 1049 94 0 9.44 253 12:23 20.01.2020
251 Clouds 4 1048 94 0 9.44 253 11:56 20.01.2020
252 Clouds 4 1049 94 0 0.89 292 11:37 20.01.2020
253 Clouds 4 1049 94 0 0.89 292 11:18 20.01.2020
254 Clouds 4 1049 93 0 7.39 258 10:46 20.01.2020
255 Clouds 3 1049 93 0 0.45 292 10:21 20.01.2020
256 Clouds 3 1048 93 0 7.39 258 09:42 20.01.2020
257 Clouds 2 1048 93 0 0.45 292 09:24 20.01.2020
258 Clouds 2 1048 93 0 7.39 258 08:56 20.01.2020
259 Clouds 2 1048 93 0 0.45 292 08:35 20.01.2020
260 Clouds 2 1048 93 0 5.91 261 07:59 20.01.2020
261 Clouds 2 1048 92 0 0.45 292 07:41 20.01.2020
262 Clouds 2 1048 92 0 0.89 270 07:21 20.01.2020
263 Clouds 1 1047 92 0 5.91 261 06:44 20.01.2020
264 Clouds 1 1047 92 0 5.91 261 06:24 20.01.2020
265 Clouds 1 1047 91 0 5.91 261 05:41 20.01.2020
266 Clouds 1 1047 91 0 5.44 288 05:20 20.01.2020
267 Clouds 0 1047 91 0 5.44 288 04:24 20.01.2020
268 Clouds 0 1047 90 0 5.44 288 02:33 20.01.2020
269 Clear 0 1046 90 0 4.46 297 01:42 20.01.2020
270 Clear 0 1046 90 0 5.16 299 01:23 20.01.2020
271 Clear 0 1046 90 0 5.16 299 00:43 20.01.2020
272 Clear 0 1046 89 0 5.16 299 00:22 20.01.2020
273 Clear 1 1045 89 0 5.16 299 23:39 19.01.2020
274 Clear 1 1045 89 0 4.06 305 23:19 19.01.2020
275 Clear 1 1044 89 0 4.06 305 22:56 19.01.2020
276 Clear 1 1044 89 0 4.06 305 22:37 19.01.2020
277 Clear 1 1044 89 0 4.06 305 22:19 19.01.2020
278 Clear 1 1044 89 0 4.06 305 21:56 19.01.2020
279 Clear 1 1044 89 0 4.06 305 21:38 19.01.2020
280 Clear 1 1044 89 0 4.06 305 21:19 19.01.2020
281 Clear 2 1044 89 0 4.06 305 20:57 19.01.2020
282 Clear 2 1043 88 0 4.06 305 20:38 19.01.2020
283 Clear 2 1043 88 0 5.05 305 20:20 19.01.2020
284 Clear 3 1043 88 0 5.43 301 19:57 19.01.2020
285 Clear 3 1042 88 0 5.43 301 19:38 19.01.2020
286 Clear 3 1042 89 0 5.43 301 19:20 19.01.2020
287 Clear 4 1042 89 0 0.45 292 18:56 19.01.2020
288 Clear 4 1041 89 0 5.43 301 18:38 19.01.2020
289 Clear 4 1041 89 0 5.43 301 18:20 19.01.2020
290 Clear 4 1041 89 0 0.89 292 17:58 19.01.2020
291 Clear 4 1041 89 0 0.45 292 17:40 19.01.2020
292 Clear 4 1040 89 0 4.23 287 17:21 19.01.2020
293 Clear 4 1040 88 0 4.23 287 16:59 19.01.2020
294 Clear 4 1040 88 0 4.23 287 16:39 19.01.2020
295 Clear 4 1040 88 0 4.23 287 16:21 19.01.2020
296 Clear 4 1039 88 0 4.23 287 15:58 19.01.2020
297 Clear 4 1039 88 0 4.23 287 15:58 19.01.2020
298 Clear 4 1039 88 0 4.23 287 15:38 19.01.2020
299 Clear 5 1038 88 0 0.45 315 15:20 19.01.2020
300 Clear 5 1038 88 0 0.45 315 14:58 19.01.2020
301 Clear 5 1038 89 0 4.23 287 14:39 19.01.2020
302 Clear 5 1037 90 0 0.45 292 14:18 19.01.2020
303 Clear 5 1037 91 0 0.45 292 13:57 19.01.2020
304 Clear 5 1037 91 0 0.89 292 13:38 19.01.2020
305 Clear 5 1037 91 0 0.45 292 13:19 19.01.2020
306 Clear 4 1037 91 0 5.48 294 12:55 19.01.2020
307 Clear 4 1037 91 0 5.48 294 12:37 19.01.2020
308 Clear 4 1037 91 0 5.48 294 12:37 19.01.2020
309 Clear 4 1037 91 0 5.48 294 12:19 19.01.2020
310 Clear 3 1036 92 0 0.45 292 11:42 19.01.2020
311 Clear 5 1030 88 0 5.34 279 11:21 19.01.2020
312 Clear 3 1035 92 0 5.34 279 10:57 19.01.2020
313 Clear 3 1035 92 0 0.89 292 10:39 19.01.2020
314 Clear 2 1035 92 0 0.89 292 10:19 19.01.2020
315 Clear 2 1035 92 0 0.89 292 09:56 19.01.2020
316 Clear 2 1035 92 0 0.89 292 09:56 19.01.2020
317 Clear 2 1035 92 0 0.89 292 09:56 19.01.2020
318 Clear 2 1035 92 0 0.89 292 09:56 19.01.2020
319 Clear 2 1035 92 0 0.89 292 09:56 19.01.2020
320 Clear 2 1034 92 0 0.45 247 09:37 19.01.2020
321 Clear 1 1034 92 0 5.34 279 09:19 19.01.2020
322 Clear 1 1034 91 0 0.45 270 08:52 19.01.2020
323 Clear 1 1033 91 0 0.45 270 08:30 19.01.2020
324 Clear 1 1032 91 0 0.45 270 07:46 19.01.2020
325 Clear 1 1032 91 0 6.07 272 07:26 19.01.2020
326 Clear 1 1032 91 0 0.89 315 06:54 19.01.2020
327 Clear 1 1031 91 0 0.45 270 06:21 19.01.2020
328 Clouds 2 1029 90 0 6.79 273 03:51 19.01.2020
329 Clouds 3 1029 89 0 0.45 292 02:28 19.01.2020
330 Clouds 3 1028 88 0 1.34 247 01:38 19.01.2020
331 Clouds 3 1028 88 0 7.77 264 01:18 19.01.2020
332 Clouds 3 1028 88 0 7.77 264 01:18 19.01.2020
333 Clouds 4 1027 87 0 0.45 292 00:41 19.01.2020
334 Clouds 4 1027 87 0 0.45 292 00:41 19.01.2020
335 Clouds 4 1027 87 0 0.89 247 00:19 19.01.2020
336 Clouds 4 1027 87 0 7.77 264 23:42 18.01.2020
337 Clouds 4 1026 87 0 7.77 264 23:24 18.01.2020
338 Clouds 4 1026 86 0 10.18 252 22:58 18.01.2020
339 Clouds 4 1026 86 0 10.18 252 22:40 18.01.2020
340 Clouds 4 1026 86 0 0.45 270 22:21 18.01.2020
341 Clouds 4 1026 85 0 0.89 270 21:58 18.01.2020
342 Clouds 4 1026 85 0 0.45 270 21:38 18.01.2020
343 Clouds 4 1026 85 0 10.18 252 21:20 18.01.2020
344 Clouds 4 1026 85 0 10.18 252 21:20 18.01.2020
345 Clouds 4 1025 83 0 0.45 225 20:55 18.01.2020
346 Clouds 4 1025 83 0 0.45 247 20:36 18.01.2020
347 Clouds 5 1025 83 0 0.45 292 20:18 18.01.2020
348 Clouds 5 1025 82 0 0.45 225 19:42 18.01.2020
349 Clouds 5 1025 82 0 9.86 233 19:24 18.01.2020
350 Clouds 5 1025 81 0 0.89 225 18:43 18.01.2020
351 Clouds 5 1025 81 0 0.45 247 18:24 18.01.2020
352 Clouds 6 1024 81 0 1.34 225 17:58 18.01.2020
353 Clouds 6 1024 81 0 0.45 225 17:40 18.01.2020
354 Clouds 6 1024 81 0 0.45 247 17:20 18.01.2020
355 Clouds 5 1024 81 0 0.45 247 16:56 18.01.2020
356 Clouds 6 1024 81 0 0.89 225 16:38 18.01.2020
357 Clouds 6 1024 81 0 2.24 225 16:19 18.01.2020
358 Clouds 6 1024 80 0 0.89 225 15:44 18.01.2020
359 Clouds 6 1023 80 0 1.34 225 15:26 18.01.2020
360 Clouds 6 1023 79 0 0.89 225 14:59 18.01.2020
361 Clouds 6 1023 79 0 1.34 225 14:40 18.01.2020
362 Clouds 6 1023 78 0 0.45 247 14:19 18.01.2020
363 Clouds 7 1023 78 0 0.89 247 13:56 18.01.2020
364 Clouds 7 1023 77 0 0.45 225 13:36 18.01.2020
365 Clouds 7 1023 78 0 2.24 225 13:18 18.01.2020
366 Clouds 7 1023 78 0 2.24 225 13:18 18.01.2020
367 Clouds 7 1023 78 0 0.89 270 12:41 18.01.2020
368 Clouds 7 1023 79 0 0.89 247 12:21 18.01.2020
369 Clouds 7 1022 80 0 0.89 202 11:57 18.01.2020
370 Clouds 7 1023 80 0 0.89 225 11:38 18.01.2020
371 Clouds 6 1023 81 0 1.79 247 11:19 18.01.2020
372 Clouds 6 1023 82 0 10.97 234 10:43 18.01.2020
373 Clouds 6 1023 82 0 1.34 225 10:21 18.01.2020
374 Clouds 6 1023 82 0 1.34 225 09:55 18.01.2020
375 Clouds 6 1023 82 0 10.97 234 09:37 18.01.2020
376 Clouds 5 1022 82 0 0.89 315 09:18 18.01.2020
377 Clouds 6 1022 83 0 0.89 270 08:42 18.01.2020
378 Clouds 5 1022 83 0 0.45 247 08:20 18.01.2020
379 Clouds 5 1021 83 0 0.89 247 07:58 18.01.2020
380 Clouds 6 1021 82 0 1.34 292 07:37 18.01.2020
381 Clouds 6 1021 86 0 10.95 246 06:50 18.01.2020
382 Clouds 6 1020 85 0 1.34 292 06:27 18.01.2020
383 Clouds 6 1020 88 0 1.34 270 05:49 18.01.2020
384 Rain 6 1019 91 0 0.45 225 04:24 18.01.2020
385 Rain 6 1018 90 0 0.45 247 02:34 18.01.2020
386 Rain 5 1017 88 0 0.89 225 01:40 18.01.2020
387 Rain 4 1017 88 0 0.89 225 00:39 18.01.2020
388 Rain 4 1017 88 0 1.34 225 00:19 18.01.2020
389 Rain 4 1017 88 0 1.34 225 23:58 17.01.2020
390 Rain 4 1017 88 0 0.89 225 23:39 17.01.2020
391 Clouds 4 1017 88 0 0.89 202 23:18 17.01.2020
392 Clouds 3 1017 88 0 0.89 180 22:41 17.01.2020
393 Clouds 3 1017 87 0 0.89 180 22:20 17.01.2020
394 Clouds 3 1016 87 0 0.45 157 21:56 17.01.2020
395 Clouds 3 1017 87 0 0.45 157 21:37 17.01.2020
396 Clouds 3 1017 87 0 0.45 157 21:19 17.01.2020
397 Clouds 4 1017 86 0 0.89 157 20:43 17.01.2020
398 Clear 4 1017 86 0 0.89 157 20:21 17.01.2020
399 Clear 4 1017 86 0 0.89 157 20:21 17.01.2020
400 Clear 4 1017 86 0 0.45 180 19:58 17.01.2020
401 Clear 4 1018 86 0 0.89 157 19:39 17.01.2020
402 Clear 4 1018 86 0 0.89 157 19:20 17.01.2020
403 Clear 5 1018 85 0 0.89 157 18:58 17.01.2020
404 Clear 5 1018 85 0 1.34 180 18:40 17.01.2020
405 Clear 5 1018 85 0 0.89 180 18:21 17.01.2020
406 Clear 5 1018 84 0 1.34 157 17:54 17.01.2020
407 Clear 6 1019 84 0 0.89 180 17:36 17.01.2020
408 Clear 6 1019 84 0 0.89 157 17:18 17.01.2020
409 Clear 6 1019 84 0 0.89 180 16:41 17.01.2020
410 Clear 6 1019 84 0 1.79 180 16:19 17.01.2020
411 Clear 7 1019 84 0 1.34 180 15:48 17.01.2020
412 Clear 7 1019 84 0 0.89 157 15:26 17.01.2020
413 Clear 6 1015 81 0 7.56 169 14:54 17.01.2020
414 Clear 7 1020 84 0 0.89 157 14:36 17.01.2020
415 Clear 7 1020 84 0 1.79 157 14:18 17.01.2020
416 Clear 7 1021 84 0 0.89 157 13:39 17.01.2020
417 Clear 7 1021 85 0 0.89 157 13:20 17.01.2020
418 Clear 7 1022 85 0 0.89 157 12:45 17.01.2020
419 Clear 7 1022 86 0 0.89 157 12:23 17.01.2020
420 Clear 6 1023 88 0 0.89 157 11:41 17.01.2020
421 Clear 6 1023 88 0 1.34 157 11:19 17.01.2020
422 Clear 5 1024 89 0 1.34 157 10:55 17.01.2020
423 Clear 5 1024 90 0 1.79 157 10:36 17.01.2020
424 Clear 4 1025 90 0 1.34 135 10:18 17.01.2020
425 Clear 3 1025 90 0 1.34 135 09:42 17.01.2020
426 Clear 3 1025 90 0 0.89 157 09:21 17.01.2020
427 Clear 2 1026 90 0 0.45 157 08:55 17.01.2020
428 Clear 2 1026 90 0 0.89 135 08:37 17.01.2020
429 Clear 2 1026 90 0 0.89 135 08:18 17.01.2020
430 Clear 2 1026 90 0 1.34 135 07:43 17.01.2020
431 Clear 2 1026 90 0 1.79 180 07:25 17.01.2020
432 Clear 2 1026 90 0 1.34 135 06:51 17.01.2020
433 Clear 2 1026 90 0 0.89 135 06:30 17.01.2020
434 Clear 3 1027 89 0 0.89 180 04:27 17.01.2020
435 Clear 3 1028 89 0 0.89 157 02:56 17.01.2020
436 Clear 3 1028 89 0 0.89 157 02:32 17.01.2020
437 Clouds 3 1028 88 0 0.89 157 01:44 17.01.2020
438 Clouds 3 1028 88 0 0.89 157 01:25 17.01.2020
439 Clouds 3 1029 88 0 0.45 135 00:37 17.01.2020
440 Clouds 4 1029 88 0 0.45 135 00:19 17.01.2020
441 Clouds 3 1030 88 0 0.45 157 23:41 16.01.2020
442 Clouds 3 1030 88 0 0.45 157 23:22 16.01.2020
443 Clouds 3 1030 87 0 0.89 157 22:41 16.01.2020
444 Clouds 3 1030 87 0 0.45 157 22:21 16.01.2020
445 Clouds 3 1030 87 0 0.89 135 21:57 16.01.2020
446 Clouds 3 1031 87 0 0.89 180 21:38 16.01.2020
447 Clouds 3 1031 87 0 6.92 172 21:19 16.01.2020
448 Clouds 3 1031 87 0 0.45 180 20:58 16.01.2020
449 Clouds 3 1031 87 0 0.45 157 20:39 16.01.2020
450 Clouds 3 1031 87 0 0.45 157 20:19 16.01.2020
451 Clouds 3 1031 86 0 0.45 180 19:56 16.01.2020
452 Clouds 4 1031 86 0 0.45 180 19:38 16.01.2020
453 Clouds 4 1031 86 0 0.45 180 19:19 16.01.2020
454 Clouds 4 1031 85 0 0.45 180 18:55 16.01.2020
455 Clouds 4 1031 85 0 0.45 180 18:37 16.01.2020
456 Clouds 4 1031 85 0 0.45 180 18:37 16.01.2020
457 Clouds 4 1031 85 0 5.11 196 18:18 16.01.2020
458 Clouds 5 1031 85 0 0.45 202 17:42 16.01.2020
459 Clouds 5 1031 84 0 0.45 202 17:23 16.01.2020
460 Clouds 6 1031 84 0 0.45 202 16:57 16.01.2020
461 Clouds 6 1031 84 0 0.89 202 16:39 16.01.2020
462 Clouds 6 1031 83 0 0.89 225 16:20 16.01.2020
463 Clouds 7 1031 82 0 0.45 225 15:44 16.01.2020
464 Clouds 7 1031 82 0 0.45 225 15:44 16.01.2020
465 Clouds 7 1031 81 0 0.45 225 15:24 16.01.2020
466 Clouds 7 1031 81 0 0.45 225 15:24 16.01.2020
467 Clouds 8 1030 81 0 0.89 225 14:59 16.01.2020
468 Clouds 8 1030 81 0 0.45 225 14:41 16.01.2020
469 Clouds 9 1030 81 0 0.89 225 14:22 16.01.2020
470 Clear 8 1030 82 0 0.45 247 13:45 16.01.2020
471 Clear 8 1030 83 0 6.9 237 13:26 16.01.2020
472 Clear 8 1030 84 0 0.89 225 12:57 16.01.2020
473 Clear 8 1030 84 0 0.89 225 12:38 16.01.2020
474 Clear 8 1030 85 0 1.34 225 12:20 16.01.2020
475 Clear 7 1031 86 0 0.89 225 11:41 16.01.2020
476 Clear 7 1030 86 0 6.9 237 11:23 16.01.2020
477 Clear 7 1030 87 0 8.37 237 10:55 16.01.2020
478 Clear 6 1030 87 0 0.45 225 10:37 16.01.2020
479 Clear 6 1030 88 0 0.45 225 10:19 16.01.2020
480 Clear 6 1029 88 0 1.34 270 09:43 16.01.2020
481 Clear 5 1029 88 0 0.89 225 09:24 16.01.2020
482 Clear 5 1029 88 0 0.45 225 08:58 16.01.2020
483 Clear 4 1029 88 0 0.45 247 08:40 16.01.2020
484 Clouds 4 1029 88 0 0.45 225 08:20 16.01.2020
485 Clouds 5 1028 87 0 0.45 225 07:43 16.01.2020
486 Clouds 5 1027 87 0 0.89 225 07:24 16.01.2020
487 Clouds 5 1027 87 0 1.34 225 06:55 16.01.2020
488 Clouds 5 1027 88 0 0.45 225 06:35 16.01.2020
489 Clouds 5 1026 88 0 9.73 246 05:56 16.01.2020
490 Clouds 5 1026 88 0 0.45 270 05:25 16.01.2020
491 Clouds 5 1025 86 0 9.92 249 04:23 16.01.2020
492 Clouds 6 1024 86 0 0.45 225 03:27 16.01.2020
493 Clouds 6 1023 87 0 9.92 249 02:24 16.01.2020
494 Rain 8 1021 85 0 8.36 275 00:44 16.01.2020
495 Rain 8 1020 84 0 0.45 337 00:24 16.01.2020
496 Rain 9 1019 77 0 4.47 315 23:46 15.01.2020
497 Rain 10 1018 75 0 0.45 225 23:22 15.01.2020
498 Rain 10 1017 74 0 1.79 225 22:57 15.01.2020
499 Rain 10 1017 74 0 2.24 225 22:39 15.01.2020
500 Rain 10 1016 74 0 1.79 225 22:19 15.01.2020
501 Rain 10 1016 74 0 2.24 225 21:57 15.01.2020
502 Rain 10 1016 74 0 2.24 225 21:37 15.01.2020
503 Rain 10 1016 74 0 1.79 225 21:19 15.01.2020
504 Rain 10 1016 75 0 1.79 225 20:57 15.01.2020
505 Rain 10 1015 75 0 1.79 202 20:39 15.01.2020
506 Rain 10 1015 75 0 1.79 202 20:39 15.01.2020
507 Clouds 9 1015 75 0 1.79 202 20:20 15.01.2020
508 Clouds 9 1015 76 0 2.24 225 19:55 15.01.2020
509 Clouds 9 1015 76 0 1.79 202 19:37 15.01.2020
510 Clouds 9 1010 72 0 10.18 220 19:19 15.01.2020
511 Clouds 10 1014 75 0 2.24 202 18:56 15.01.2020
512 Clouds 10 1014 75 0 1.34 225 18:38 15.01.2020
513 Clouds 10 1014 75 0 2.24 202 18:19 15.01.2020
514 Clouds 10 1014 76 0 2.68 225 17:58 15.01.2020
515 Clouds 10 1014 76 0 2.24 202 17:38 15.01.2020
516 Clouds 10 1014 76 0 1.79 202 17:19 15.01.2020
517 Clouds 11 1014 76 0 1.79 202 16:41 15.01.2020
518 Clouds 11 1014 76 0 1.79 202 16:41 15.01.2020
519 Clouds 11 1014 76 0 1.79 180 16:22 15.01.2020
520 Clouds 11 1014 75 0 1.79 180 15:59 15.01.2020
521 Clouds 12 1014 74 0 1.79 225 15:41 15.01.2020
522 Clouds 12 1013 74 0 1.34 225 15:20 15.01.2020
523 Clouds 12 1013 73 0 2.68 225 14:44 15.01.2020
524 Clouds 12 1013 73 0 0.89 247 14:21 15.01.2020
525 Clouds 12 1013 74 0 2.24 202 13:56 15.01.2020
526 Clouds 12 1013 74 0 2.24 225 13:38 15.01.2020
527 Clouds 12 1013 74 0 2.24 225 13:19 15.01.2020
528 Clouds 12 1013 73 0 2.24 225 12:54 15.01.2020
529 Clouds 12 1013 73 0 2.24 225 12:36 15.01.2020
530 Clouds 12 1013 73 0 1.79 225 12:18 15.01.2020
531 Clouds 12 1013 75 0 3.13 225 11:38 15.01.2020
532 Clouds 12 1013 76 0 2.68 225 11:19 15.01.2020
533 Clouds 11 1013 80 0 2.24 225 10:47 15.01.2020
534 Clouds 11 1013 81 0 2.24 225 10:28 15.01.2020
535 Clouds 10 1013 82 0 2.24 225 09:58 15.01.2020
536 Clouds 9 1013 83 0 2.68 225 09:39 15.01.2020
537 Clouds 9 1013 83 0 1.79 202 09:19 15.01.2020
538 Clouds 9 1013 82 0 2.24 202 08:44 15.01.2020
539 Clouds 9 1013 82 0 2.24 225 08:24 15.01.2020
540 Clouds 9 1012 82 0 2.24 202 07:54 15.01.2020
541 Clouds 9 1012 83 0 1.79 247 07:33 15.01.2020
542 Clouds 9 1012 83 0 2.24 225 06:52 15.01.2020
543 Clouds 9 1012 83 0 2.24 225 06:28 15.01.2020
544 Clouds 9 1011 84 0 1.79 202 04:57 15.01.2020
545 Clouds 9 1011 82 0 2.24 225 03:20 15.01.2020
546 Clouds 9 1011 82 0 2.24 180 01:48 15.01.2020
547 Clouds 9 1011 82 0 1.79 225 01:21 15.01.2020
548 Clouds 8 1010 82 0 1.79 202 00:37 15.01.2020
549 Clouds 8 1010 82 0 1.79 225 00:19 15.01.2020
550 Clouds 8 1010 81 0 1.79 202 23:46 14.01.2020
551 Clouds 8 1010 81 0 1.79 202 23:27 14.01.2020
552 Clouds 8 1010 82 0 1.79 202 22:57 14.01.2020
553 Clouds 8 1010 82 0 1.79 180 22:39 14.01.2020
554 Clouds 8 1010 83 0 2.24 202 22:18 14.01.2020
555 Clouds 8 1010 83 0 2.68 180 21:57 14.01.2020
556 Clouds 8 1010 83 0 1.34 202 21:39 14.01.2020
557 Clouds 8 1010 83 0 1.79 202 21:19 14.01.2020
558 Clouds 8 1010 84 0 1.79 202 20:54 14.01.2020
559 Clouds 8 1011 84 0 1.79 202 20:36 14.01.2020
560 Clouds 8 1011 85 0 1.34 202 20:18 14.01.2020
561 Clouds 8 1011 85 0 1.79 202 19:55 14.01.2020
562 Clouds 8 1011 85 0 1.34 180 19:37 14.01.2020
563 Clouds 9 1011 85 0 1.34 180 19:18 14.01.2020
564 Clouds 9 1011 85 0 1.34 202 18:41 14.01.2020
565 Clouds 9 1011 85 0 1.34 202 18:20 14.01.2020
566 Clouds 9 1011 85 0 1.79 180 17:58 14.01.2020
567 Clouds 9 1011 85 0 1.79 180 17:37 14.01.2020
568 Rain 9 1011 86 0 1.79 202 17:18 14.01.2020
569 Rain 9 1011 86 0 1.79 225 16:54 14.01.2020
570 Rain 9 1011 86 0 1.79 225 16:36 14.01.2020
571 Rain 9 1011 86 0 2.68 180 16:18 14.01.2020
572 Rain 9 1011 86 0 1.79 202 15:42 14.01.2020
573 Rain 8 1010 87 0 2.24 225 15:19 14.01.2020
574 Rain 9 1010 87 0 2.24 225 14:46 14.01.2020
575 Rain 8 1010 87 0 1.79 202 14:23 14.01.2020
576 Rain 8 1010 88 0 1.79 202 13:59 14.01.2020
577 Rain 8 1009 88 0 1.79 225 13:40 14.01.2020
578 Rain 8 1010 89 0 2.24 225 13:19 14.01.2020
579 Rain 8 1010 89 0 2.24 225 13:19 14.01.2020
580 Rain 8 1009 90 0 2.24 202 12:42 14.01.2020
581 Rain 7 1009 90 0 1.79 202 12:23 14.01.2020
582 Rain 7 1010 91 0 2.68 202 11:57 14.01.2020
583 Rain 7 1010 91 0 1.79 202 11:39 14.01.2020
584 Rain 6 1010 92 0 1.79 180 11:20 14.01.2020
585 Rain 6 1010 91 0 1.79 180 10:56 14.01.2020
586 Rain 6 1010 91 0 2.24 180 10:37 14.01.2020
587 Rain 5 1010 91 0 1.79 180 10:19 14.01.2020
588 Rain 4 1010 91 0 1.34 180 09:42 14.01.2020
589 Rain 4 1010 91 0 1.34 180 09:23 14.01.2020
590 Rain 4 1010 92 0 2.24 180 08:58 14.01.2020
591 Rain 4 1010 92 0 1.79 180 08:39 14.01.2020
592 Clouds 4 1010 92 0 1.79 180 08:20 14.01.2020
593 Clouds 3 1011 91 0 1.79 157 07:46 14.01.2020
594 Clouds 3 1011 92 0 1.34 157 07:18 14.01.2020
595 Clouds 3 1011 92 0 1.79 180 06:42 14.01.2020
596 Clouds 3 1012 92 0 1.79 180 05:57 14.01.2020
597 Clouds 3 1013 92 0 1.34 180 04:50 14.01.2020
598 Clouds 3 1014 92 0 1.34 157 03:46 14.01.2020
599 Clouds 2 1015 92 0 1.34 180 02:33 14.01.2020
600 Clouds 3 1017 92 0 0.89 157 01:19 14.01.2020
601 Clouds 3 1017 92 0 1.34 157 00:47 14.01.2020
602 Clouds 3 1017 91 0 0.89 157 00:21 14.01.2020
603 Clouds 3 1018 91 0 0.45 180 23:44 13.01.2020
604 Clouds 3 1018 91 0 0.89 180 23:19 13.01.2020
605 Clouds 3 1018 91 0 0.89 157 22:57 13.01.2020
606 Clouds 3 1018 91 0 0.89 157 22:39 13.01.2020
607 Clouds 3 1018 91 0 0.89 180 22:19 13.01.2020
608 Clouds 3 1018 91 0 0.89 180 21:55 13.01.2020
609 Clouds 3 1019 91 0 0.45 157 21:37 13.01.2020
610 Clouds 3 1019 90 0 0.89 180 21:18 13.01.2020
611 Clouds 3 1019 90 0 0.45 180 20:56 13.01.2020
612 Clouds 3 1019 90 0 0.45 180 20:38 13.01.2020
613 Rain 3 1020 90 0 0.89 180 20:19 13.01.2020
614 Rain 4 1020 90 0 4.78 215 19:41 13.01.2020
615 Rain 4 1020 90 0 0.45 180 19:21 13.01.2020
616 Rain 4 1020 90 0 0.45 180 18:59 13.01.2020
617 Rain 4 1020 90 0 0.45 180 18:40 13.01.2020
618 Rain 4 1020 90 0 0.45 180 18:20 13.01.2020
619 Rain 4 1020 90 0 0.45 180 18:20 13.01.2020
620 Rain 4 1020 90 0 0.45 180 18:20 13.01.2020
621 Rain 4 1020 89 0 0.45 180 17:59 13.01.2020
622 Rain 4 1020 89 0 0.45 180 17:40 13.01.2020
623 Clouds 4 1020 89 0 0.89 180 17:21 13.01.2020
624 Clouds 4 1020 89 0 0.89 180 17:21 13.01.2020
625 Clouds 5 1020 88 0 0.45 202 16:55 13.01.2020
626 Clouds 5 1020 89 0 0.45 202 16:36 13.01.2020
627 Clouds 6 1020 88 0 0.45 202 16:18 13.01.2020
628 Clouds 6 1021 88 0 1.34 225 15:42 13.01.2020
629 Clouds 7 1021 88 0 0.89 180 15:22 13.01.2020
630 Clouds 7 1021 88 0 0.89 202 14:57 13.01.2020
631 Clouds 7 1021 88 0 0.45 202 14:37 13.01.2020
632 Clouds 7 1021 88 0 0.89 202 14:18 13.01.2020
633 Clouds 7 1021 88 0 0.89 225 13:40 13.01.2020
634 Clouds 7 1021 88 0 0.89 225 13:40 13.01.2020
635 Clouds 7 1022 88 0 0.89 225 13:22 13.01.2020
636 Clouds 7 1022 89 0 6.19 244 12:58 13.01.2020
637 Clouds 7 1022 89 0 0.45 247 12:40 13.01.2020
638 Clouds 7 1022 90 0 0.89 225 12:21 13.01.2020
639 Clouds 7 1022 91 0 0.89 225 11:56 13.01.2020
640 Clouds 7 1022 91 0 0.45 225 11:37 13.01.2020
641 Clouds 7 1023 92 0 7.64 242 11:18 13.01.2020
642 Clouds 6 1023 92 0 0.89 202 10:55 13.01.2020
643 Clouds 6 1023 92 0 0.45 225 10:36 13.01.2020
644 Clouds 6 1023 92 0 0.89 247 10:18 13.01.2020
645 Clouds 6 1023 92 0 0.89 247 10:18 13.01.2020
646 Clouds 6 1022 92 0 0.89 247 09:42 13.01.2020
647 Clouds 6 1022 92 0 7.64 242 09:23 13.01.2020
648 Clouds 6 1022 92 0 7.64 242 08:44 13.01.2020
649 Clouds 6 1022 93 0 8.43 256 08:22 13.01.2020
650 Clouds 6 1022 93 0 8.19 254 07:59 13.01.2020
651 Clouds 6 1022 93 0 8.19 254 07:41 13.01.2020
652 Clouds 6 1021 93 0 8.19 254 07:19 13.01.2020
653 Clouds 6 1021 93 0 8.19 254 06:37 13.01.2020
654 Clouds 6 1021 93 0 8.19 254 05:37 13.01.2020
655 Clouds 6 1021 92 0 8.32 271 04:26 13.01.2020
656 Clouds 7 1021 92 0 8.32 271 03:38 13.01.2020
657 Clouds 7 1020 92 0 8.32 271 02:49 13.01.2020
658 Clouds 7 1020 92 0 0.45 292 02:30 13.01.2020
659 Clouds 7 1020 92 0 0.45 292 02:30 13.01.2020
660 Rain 7 1019 92 0 0.45 292 01:33 13.01.2020
661 Clouds 7 1018 92 0 1.79 270 00:44 13.01.2020
662 Clouds 7 1018 92 0 1.34 292 00:26 13.01.2020
663 Clouds 7 1018 90 0 0.89 225 23:57 12.01.2020
664 Clouds 7 1018 90 0 0.45 247 23:39 12.01.2020
665 Rain 7 1017 90 0 0.89 315 23:21 12.01.2020
666 Rain 6 1017 90 0 0.45 225 22:43 12.01.2020
667 Rain 6 1017 90 0 0.45 225 22:43 12.01.2020
668 Rain 6 1017 90 0 1.79 225 22:25 12.01.2020
669 Rain 6 1017 90 0 1.79 225 21:59 12.01.2020
670 Rain 6 1016 90 0 0.89 247 21:40 12.01.2020
671 Rain 6 1016 90 0 2.24 247 21:20 12.01.2020
672 Rain 6 1017 90 0 0.45 247 20:59 12.01.2020
673 Rain 5 1017 90 0 1.34 225 20:39 12.01.2020
674 Rain 5 1017 90 0 1.79 225 20:21 12.01.2020
675 Rain 4 1017 90 0 2.24 225 19:57 12.01.2020
676 Rain 4 1017 90 0 1.34 225 19:38 12.01.2020
677 Rain 4 1017 90 0 1.79 225 19:19 12.01.2020
678 Rain 4 1017 90 0 1.79 225 19:19 12.01.2020
679 Rain 4 1017 89 0 1.79 202 18:58 12.01.2020
680 Rain 4 1017 89 0 2.24 225 18:40 12.01.2020
681 Rain 4 1017 89 0 1.79 225 18:22 12.01.2020
682 Rain 4 1018 89 0 2.24 225 17:59 12.01.2020
683 Rain 4 1018 88 0 1.79 225 17:41 12.01.2020
684 Rain 4 1018 88 0 1.79 225 17:19 12.01.2020
685 Rain 4 1018 88 0 1.34 202 16:57 12.01.2020
686 Rain 5 1018 88 0 0.89 225 16:37 12.01.2020
687 Rain 5 1018 88 0 1.79 225 16:19 12.01.2020
688 Rain 5 1018 86 0 1.34 225 15:43 12.01.2020
689 Rain 6 1018 86 0 1.34 225 15:25 12.01.2020
690 Rain 6 1018 85 0 1.34 225 14:59 12.01.2020
691 Rain 6 1018 85 0 1.79 225 14:41 12.01.2020
692 Rain 6 1019 85 0 1.34 225 14:21 12.01.2020
693 Rain 6 1019 85 0 1.79 225 13:56 12.01.2020
694 Rain 6 1019 85 0 1.34 225 13:38 12.01.2020
695 Rain 6 1019 85 0 1.34 225 13:20 12.01.2020
696 Rain 6 1019 85 0 1.34 225 13:20 12.01.2020
697 Rain 6 1019 85 0 1.79 225 12:44 12.01.2020
698 Rain 6 1019 85 0 1.79 225 12:21 12.01.2020
699 Rain 6 1020 85 0 1.79 225 11:59 12.01.2020
700 Rain 6 1020 85 0 1.79 225 11:59 12.01.2020
701 Rain 6 1020 85 0 2.24 247 11:40 12.01.2020
702 Rain 6 1020 85 0 1.79 225 11:22 12.01.2020
703 Rain 6 1020 86 0 1.79 225 10:56 12.01.2020
704 Rain 6 1021 86 0 2.24 225 10:37 12.01.2020
705 Rain 6 1021 86 0 1.79 225 10:18 12.01.2020
706 Rain 5 1021 86 0 1.79 225 09:41 12.01.2020
707 Rain 5 1021 86 0 1.79 225 09:22 12.01.2020
708 Rain 5 1021 86 0 1.34 225 08:48 12.01.2020
709 Rain 5 1021 86 0 1.79 225 08:24 12.01.2020
710 Clouds 5 1021 86 0 2.68 202 07:49 12.01.2020
711 Clouds 4 1021 86 0 1.79 225 07:30 12.01.2020
712 Clouds 4 1022 86 0 2.24 225 06:59 12.01.2020
713 Clouds 4 1022 86 0 2.24 225 06:59 12.01.2020
714 Clouds 4 1022 86 0 1.79 225 06:38 12.01.2020
715 Clouds 4 1022 86 0 1.79 225 05:55 12.01.2020
716 Clouds 4 1023 86 0 1.79 225 04:56 12.01.2020
717 Clouds 4 1024 85 0 1.79 225 03:43 12.01.2020
718 Clouds 5 1024 85 0 1.79 225 02:52 12.01.2020
719 Clouds 5 1025 85 0 0.45 225 02:27 12.01.2020
720 Clouds 4 1025 85 0 1.79 202 01:35 12.01.2020
721 Clouds 4 1025 86 0 1.79 225 00:49 12.01.2020
722 Clouds 4 1025 86 0 1.79 225 00:22 12.01.2020
723 Clouds 4 1025 86 0 1.79 225 00:22 12.01.2020
724 Clouds 4 1026 86 0 1.34 225 23:59 11.01.2020
725 Clouds 4 1026 86 0 1.79 225 23:41 11.01.2020
726 Clouds 4 1026 86 0 2.24 225 23:18 11.01.2020
727 Clouds 5 1021 81 0 11.89 232 22:56 11.01.2020
728 -273 0 0 0 0 0 22:38 11.01.2020
729 Clouds 4 1027 86 0 1.79 225 22:20 11.01.2020
730 Clouds 4 1027 86 0 1.34 225 21:54 11.01.2020
731 Clouds 4 1027 86 0 1.79 225 21:36 11.01.2020
732 Clouds 4 1027 86 0 1.34 225 21:18 11.01.2020
733 Clouds 4 1028 87 0 1.79 225 20:39 11.01.2020
734 Clouds 4 1028 87 0 1.79 225 20:20 11.01.2020
735 Clouds 4 1028 87 0 1.79 225 19:58 11.01.2020
736 Clouds 4 1028 87 0 1.79 225 19:38 11.01.2020
737 Clouds 4 1028 87 0 1.79 225 19:20 11.01.2020
738 Clouds 4 1028 88 0 1.79 225 18:57 11.01.2020
739 Clouds 4 1029 88 0 2.24 225 18:37 11.01.2020
740 Clouds 4 1029 87 0 1.79 225 18:19 11.01.2020
741 Clouds 4 1029 87 0 2.24 225 17:57 11.01.2020
742 Clouds 5 1024 83 0 11.06 224 17:39 11.01.2020
743 Clouds 5 1025 81 0 9.73 219 17:19 11.01.2020
744 Clouds 5 1025 81 0 9.73 219 16:44 11.01.2020
745 Clouds 5 1025 81 0 9.73 219 16:25 11.01.2020
746 Clouds 5 1025 81 0 9.73 219 15:58 11.01.2020
747 Clouds 5 1025 81 0 9.73 219 15:40 11.01.2020
748 Clouds 5 1025 81 0 9.73 219 15:20 11.01.2020
749 Clouds 5 1025 81 0 9.73 219 14:56 11.01.2020
750 Clouds 5 1025 81 0 9.73 219 14:37 11.01.2020
751 Clouds 5 1027 82 0 7.99 221 14:19 11.01.2020
752 Clouds 6 1032 91 0 0.89 225 13:39 11.01.2020
753 Clouds 6 1032 91 0 0.89 225 13:20 11.01.2020
754 Clouds 6 1032 91 0 0.89 225 12:57 11.01.2020
755 Clouds 6 1032 91 0 0.89 225 12:38 11.01.2020
756 Clouds 6 1032 91 0 0.89 225 12:20 11.01.2020
757 Clouds 5 1027 83 0 8.05 220 11:46 11.01.2020
758 Clouds 5 1027 83 0 8.05 220 11:25 11.01.2020
759 Clouds 5 1027 83 0 6.29 243 10:50 11.01.2020
760 Clouds 5 1027 83 0 6.29 243 10:30 11.01.2020
761 Clouds 5 1027 83 0 6.29 243 09:57 11.01.2020
762 Clouds 5 1027 83 0 6.29 243 09:37 11.01.2020
763 Clouds 5 1027 83 0 6.29 243 09:19 11.01.2020
764 Clouds 5 1027 83 0 6.29 243 08:42 11.01.2020
765 Clouds 5 1027 91 0 7.26 292 08:21 11.01.2020
766 Clouds 5 1027 91 0 7.26 292 07:44 11.01.2020
767 Clouds 5 1027 91 0 7.26 292 07:25 11.01.2020
768 Clouds 5 1027 91 0 7.26 292 06:50 11.01.2020
769 Clouds 5 1027 91 0 7.26 292 05:40 11.01.2020
770 Clouds 6 1024 94 0 3.35 317 04:46 11.01.2020
771 Clouds 6 1024 94 0 3.35 317 04:27 11.01.2020
772 Clouds 6 1024 94 0 3.35 317 02:49 11.01.2020
773 Clouds 6 1024 94 0 3.35 317 02:49 11.01.2020
774 Clouds 6 1024 94 0 3.35 317 02:27 11.01.2020
775 Rain 6 1022 94 0 5.95 322 01:43 11.01.2020
776 Rain 6 1022 95 0 5 332 01:19 11.01.2020
777 Rain 6 1022 95 0 5 332 00:40 11.01.2020
778 Rain 6 1022 95 0 5 332 23:59 10.01.2020
779 Rain 6 1022 95 0 5 332 23:40 10.01.2020
780 Rain 6 1017 93 0 7.27 326 23:22 10.01.2020
781 Rain 6 1017 93 0 7.27 326 22:58 10.01.2020
782 Rain 6 1017 93 0 7.27 326 22:40 10.01.2020
783 Rain 6 1017 93 0 7.27 326 22:20 10.01.2020
784 Rain 6 1017 93 0 7.27 326 21:57 10.01.2020
785 Rain 6 1017 93 0 7.27 326 21:37 10.01.2020
786 Rain 6 1017 93 0 7.27 326 21:19 10.01.2020
787 Rain 6 1017 93 0 7.27 326 20:43 10.01.2020
788 Rain 6 1017 93 0 7.27 326 20:24 10.01.2020
789 Rain 6 1013 94 0 10.53 316 19:59 10.01.2020
790 Rain 6 1013 94 0 10.53 316 19:38 10.01.2020
791 Rain 6 1013 94 0 10.53 316 19:19 10.01.2020
792 Rain 6 1013 94 0 10.53 316 18:43 10.01.2020
793 Rain 6 1013 94 0 10.53 316 18:19 10.01.2020
794 Rain 6 1013 94 0 10.53 316 17:58 10.01.2020
795 Rain 6 1013 94 0 10.53 316 17:39 10.01.2020
796 Clouds 7 1010 84 0 8.04 249 17:20 10.01.2020
797 Clouds 7 1010 84 0 8.04 249 16:59 10.01.2020
798 Clouds 7 1010 84 0 8.04 249 16:39 10.01.2020
799 Clouds 7 1010 84 0 8.04 249 16:20 10.01.2020
800 Clouds 7 1010 84 0 8.04 249 15:56 10.01.2020
801 Clouds 7 1010 84 0 8.04 249 15:37 10.01.2020
802 Clouds 7 1010 84 0 8.04 249 15:18 10.01.2020
803 Clouds 7 1010 84 0 8.04 249 14:56 10.01.2020
804 Clouds 7 1010 84 0 8.04 249 14:38 10.01.2020
805 Rain 7 1009 91 0 7.12 256 14:19 10.01.2020
806 Rain 7 1009 91 0 7.12 256 13:44 10.01.2020
807 Rain 7 1009 91 0 7.12 256 13:26 10.01.2020
808 Rain 7 1009 91 0 7.12 256 13:26 10.01.2020
809 Rain 7 1009 89 0 10.49 258 12:59 10.01.2020
810 Rain 7 1009 89 0 10.49 258 12:40 10.01.2020
811 Rain 7 1009 89 0 10.49 258 12:21 10.01.2020
812 Rain 7 1009 89 0 10.49 258 11:57 10.01.2020
813 Rain 7 1009 89 0 10.49 258 11:39 10.01.2020
814 Rain 8 1008 97 0 7.92 249 11:19 10.01.2020
815 Rain 8 1008 97 0 7.92 249 10:59 10.01.2020
816 Rain 10 1012 94 0 0.45 225 10:38 10.01.2020
817 Rain 10 1012 94 0 0.45 225 10:19 10.01.2020
818 Rain 10 1012 94 0 0.45 225 09:46 10.01.2020
819 Rain 10 1012 94 0 0.45 225 09:26 10.01.2020
820 Rain 10 1012 93 0 0.45 225 08:57 10.01.2020
821 Rain 9 1012 93 0 7.92 249 08:38 10.01.2020
822 Rain 9 1012 93 0 1.34 225 08:20 10.01.2020
823 Rain 9 1011 93 0 1.34 225 07:41 10.01.2020
824 Rain 9 1011 93 0 1.34 225 07:22 10.01.2020
825 Rain 9 1011 93 0 0.89 202 06:42 10.01.2020
826 Rain 9 1011 93 0 1.34 202 06:24 10.01.2020
827 Rain 9 1011 93 0 0.89 202 05:33 10.01.2020
828 Rain 9 1011 93 0 0.89 202 05:33 10.01.2020
829 Clouds 9 1012 93 0 0.89 202 03:34 10.01.2020
830 Clouds 9 1012 93 0 0.89 202 02:54 10.01.2020
831 Clouds 9 1012 93 0 0.89 180 02:36 10.01.2020
832 Clouds 9 1012 93 0 0.89 202 01:34 10.01.2020
833 Rain 9 1012 93 0 0.89 202 00:57 10.01.2020
834 Rain 9 1012 93 0 0.89 202 00:38 10.01.2020
835 Rain 9 1012 93 0 1.34 225 23:57 09.01.2020
836 Rain 9 1012 93 0 0.89 225 23:38 09.01.2020
837 Rain 9 1012 93 0 0.89 225 23:38 09.01.2020
838 Rain 9 1012 93 0 0.89 225 23:38 09.01.2020
839 Rain 9 1012 93 0 0.89 225 23:38 09.01.2020
840 Rain 9 1012 93 0 0.89 225 23:19 09.01.2020
841 Rain 9 1012 93 0 0.89 202 22:57 09.01.2020
842 Rain 9 1012 93 0 0.89 225 22:37 09.01.2020
843 Rain 9 1012 93 0 0.89 225 22:18 09.01.2020
844 Rain 9 1012 93 0 0.89 225 21:56 09.01.2020
845 Rain 9 1012 93 0 0.89 225 21:37 09.01.2020
846 Rain 9 1012 93 0 0.89 225 21:37 09.01.2020
847 Rain 9 1013 93 0 1.34 225 21:18 09.01.2020
848 Rain 9 1013 93 0 0.89 225 20:56 09.01.2020
849 Rain 9 1013 93 0 1.34 225 20:38 09.01.2020
850 Rain 9 1013 93 0 1.34 225 20:19 09.01.2020
851 Rain 9 1013 93 0 1.34 225 20:19 09.01.2020
852 Rain 9 1013 93 0 1.34 225 20:19 09.01.2020
853 Rain 9 1012 93 0 1.34 225 19:56 09.01.2020
854 Rain 9 1012 93 0 1.34 225 19:37 09.01.2020
855 Rain 9 1013 93 0 1.34 225 19:18 09.01.2020
856 Rain 9 1012 93 0 1.34 225 18:54 09.01.2020
857 Rain 9 1013 93 0 1.34 202 18:36 09.01.2020
858 Rain 8 1013 93 0 1.79 225 18:18 09.01.2020
859 Rain 8 1013 93 0 1.34 202 17:41 09.01.2020
860 Rain 8 1013 93 0 1.34 180 17:18 09.01.2020
861 Rain 8 1013 93 0 1.34 202 16:48 09.01.2020
862 Rain 8 1013 93 0 1.34 202 16:24 09.01.2020
863 Rain 8 1013 93 0 0.89 202 15:59 09.01.2020
864 Rain 8 1013 93 0 1.79 180 15:40 09.01.2020
865 Rain 8 1014 93 0 1.79 180 15:19 09.01.2020
866 Rain 8 1014 93 0 1.79 180 14:42 09.01.2020
867 Rain 8 1014 94 0 1.34 202 14:22 09.01.2020
868 Rain 8 1014 94 0 1.79 202 13:57 09.01.2020
869 Rain 8 1015 94 0 1.34 202 13:39 09.01.2020
870 Rain 8 1015 94 0 1.34 202 13:20 09.01.2020
871 Rain 8 1015 94 0 1.79 180 12:59 09.01.2020
872 Rain 8 1016 94 0 1.34 180 12:40 09.01.2020
873 Rain 8 1016 94 0 1.34 180 12:40 09.01.2020
874 Rain 8 1016 94 0 1.34 180 12:20 09.01.2020
875 Rain 8 1017 94 0 0.89 157 11:57 09.01.2020
876 Rain 7 1018 94 0 0.89 157 11:38 09.01.2020
877 Rain 7 1019 94 0 0.89 180 11:20 09.01.2020
878 Rain 7 1020 94 0 1.34 157 10:44 09.01.2020
879 Rain 6 1020 93 0 0.89 135 10:22 09.01.2020
880 Rain 6 1020 93 0 0.89 135 09:59 09.01.2020
881 Rain 6 1020 93 0 1.34 135 09:39 09.01.2020
882 Rain 6 1021 93 0 1.34 135 09:21 09.01.2020
883 Rain 6 1021 93 0 0.45 135 08:55 09.01.2020
884 Rain 6 1022 93 0 0.45 135 08:37 09.01.2020
885 Clouds 5 1022 93 0 0.45 135 08:19 09.01.2020
886 Clouds 5 1022 93 0 0.45 135 07:42 09.01.2020
887 Clouds 4 1022 92 0 0.45 157 07:24 09.01.2020
888 Clouds 4 1023 92 0 0.45 157 06:39 09.01.2020
889 Clouds 4 1023 92 0 0.45 157 06:20 09.01.2020
890 Clouds 4 1023 92 0 3.8 182 05:50 09.01.2020
891 Clouds 4 1023 92 0 3.8 182 05:50 09.01.2020
892 Clouds 3 1024 92 0 0.45 180 04:45 09.01.2020
893 Clouds 3 1025 92 0 3.41 251 03:54 09.01.2020
894 Clouds 3 1025 92 0 3.41 251 02:55 09.01.2020
895 Clouds 4 1025 92 0 3.41 251 02:30 09.01.2020
896 Clouds 5 1025 92 0 5.16 268 01:40 09.01.2020
897 Clouds 6 1025 93 0 0.45 270 00:44 09.01.2020
898 Clouds 6 1025 93 0 4.7 277 00:22 09.01.2020
899 Clouds 6 1025 93 0 4.7 277 23:58 08.01.2020
900 Clouds 7 1025 93 0 4.7 277 23:38 08.01.2020
901 Clouds 7 1025 93 0 6.55 272 23:19 08.01.2020
902 Clouds 7 1024 93 0 6.55 272 22:40 08.01.2020
903 Clouds 7 1024 93 0 6.55 272 22:40 08.01.2020
904 Clouds 7 1024 93 0 6.55 272 22:21 08.01.2020
905 Clouds 8 1024 93 0 0.45 292 21:58 08.01.2020
906 Clouds 8 1024 93 0 0.45 292 21:40 08.01.2020
907 Clouds 8 1024 93 0 0.45 292 21:20 08.01.2020
908 Clouds 8 1024 93 0 6.55 272 20:59 08.01.2020
909 Clouds 8 1024 93 0 0.89 270 20:40 08.01.2020
910 Clouds 8 1024 93 0 7.3 265 20:20 08.01.2020
911 Clouds 8 1024 93 0 7.3 265 20:20 08.01.2020
912 Clouds 8 1023 93 0 0.45 247 19:58 08.01.2020
913 Clouds 8 1023 93 0 0.45 225 19:38 08.01.2020
914 Clouds 8 1023 93 0 0.45 247 19:19 08.01.2020
915 Clouds 8 1023 93 0 0.45 247 18:57 08.01.2020
916 Clouds 8 1023 93 0 7.64 266 18:38 08.01.2020
917 Clouds 8 1023 93 0 7.64 266 18:19 08.01.2020
918 Clouds 8 1023 93 0 7.64 266 17:56 08.01.2020
919 Clouds 8 1023 93 0 7.64 266 17:38 08.01.2020
920 Clouds 8 1023 93 0 0.45 247 17:19 08.01.2020
921 Clouds 8 1022 93 0 0.45 270 16:55 08.01.2020
922 Clouds 8 1022 93 0 9.64 256 16:37 08.01.2020
923 Clouds 8 1022 92 0 9.64 256 16:18 08.01.2020
924 Clouds 8 1022 92 0 0.45 225 15:44 08.01.2020
925 Clouds 8 1022 92 0 9.64 256 15:21 08.01.2020
926 Clouds 8 1021 92 0 0.89 225 14:58 08.01.2020
927 Clouds 8 1021 92 0 0.89 225 14:58 08.01.2020
928 Clouds 8 1021 92 0 1.79 225 14:40 08.01.2020
929 Clouds 8 1021 92 0 0.89 247 14:20 08.01.2020
930 Clouds 7 1021 92 0 0.45 270 13:41 08.01.2020
931 Rain 7 1021 92 0 0.45 247 13:21 08.01.2020
932 Rain 7 1021 92 0 0.45 247 13:21 08.01.2020
933 Rain 7 1021 91 0 0.89 247 12:55 08.01.2020
934 Rain 7 1021 91 0 0.45 247 12:36 08.01.2020
935 Rain 7 1021 91 0 0.89 247 12:18 08.01.2020
936 Rain 6 1021 91 0 0.89 225 11:47 08.01.2020
937 Clouds 6 1021 91 0 2.68 225 11:19 08.01.2020
938 Clouds 6 1021 91 0 2.24 225 10:59 08.01.2020
939 Clouds 6 1021 91 0 2.24 225 10:59 08.01.2020
940 Clouds 6 1021 90 0 2.24 202 10:40 08.01.2020
941 Clouds 6 1021 90 0 1.79 225 10:21 08.01.2020
942 Clouds 6 1021 90 0 1.79 225 10:21 08.01.2020
943 Clouds 6 1022 90 0 1.79 225 09:43 08.01.2020
944 Clouds 6 1022 89 0 2.24 225 09:20 08.01.2020
945 Clouds 6 1022 88 0 1.79 225 08:59 08.01.2020
946 Clouds 6 1021 88 0 2.68 225 08:41 08.01.2020
947 Rain 6 1022 87 0 2.24 225 08:22 08.01.2020
948 Rain 6 1021 87 0 2.24 225 07:58 08.01.2020
949 Rain 6 1021 86 0 1.79 225 07:39 08.01.2020
950 Rain 6 1021 86 0 2.24 225 07:18 08.01.2020
951 Rain 6 1022 86 0 2.68 225 06:41 08.01.2020
952 Rain 5 1022 87 0 2.68 225 05:56 08.01.2020
953 Rain 5 1022 88 0 2.68 225 05:26 08.01.2020
954 Rain 5 1022 87 0 1.79 202 04:37 08.01.2020
955 Rain 5 1024 90 0 2.24 202 02:46 08.01.2020
956 Rain 5 1024 90 0 2.24 202 02:28 08.01.2020
957 Clouds 5 1024 91 0 1.79 202 01:57 08.01.2020
958 Clouds 4 1025 91 0 1.79 202 01:32 08.01.2020
959 Clouds 4 1025 92 0 1.34 180 00:51 08.01.2020
960 Clouds 4 1026 92 0 1.34 202 00:23 08.01.2020
961 Clouds 4 1027 92 0 1.34 225 23:46 07.01.2020
962 Clouds 4 1027 92 0 1.79 202 23:21 07.01.2020
963 Clouds 3 1027 91 0 0.89 202 22:56 07.01.2020
964 Clouds 3 1027 91 0 0.89 202 22:37 07.01.2020
965 Clouds 3 1027 91 0 1.79 225 22:19 07.01.2020
966 Clouds 3 1027 91 0 0.89 202 21:42 07.01.2020
967 Clouds 4 1027 92 0 0.89 225 21:22 07.01.2020
968 Clouds 3 1027 91 0 0.89 225 20:58 07.01.2020
969 Clouds 3 1028 92 0 0.89 225 20:40 07.01.2020
970 Clouds 4 1028 92 0 1.34 225 20:22 07.01.2020
971 Clouds 4 1028 91 0 0.89 225 19:58 07.01.2020
972 Clouds 4 1028 91 0 0.89 225 19:38 07.01.2020
973 Clouds 4 1028 91 0 0.89 225 19:19 07.01.2020
974 Clouds 4 1028 91 0 0.89 225 18:56 07.01.2020
975 Clouds 5 1028 92 0 0.89 202 18:38 07.01.2020
976 Clouds 5 1028 92 0 8.77 241 18:18 07.01.2020
977 Clouds 5 1028 92 0 0.89 225 17:57 07.01.2020
978 Clouds 5 1028 92 0 8.77 241 17:37 07.01.2020
979 Clouds 5 1028 92 0 8.96 248 17:19 07.01.2020
980 Clouds 5 1028 92 0 0.89 225 16:55 07.01.2020
981 Clouds 5 1028 92 0 8.96 248 16:37 07.01.2020
982 Clouds 5 1028 92 0 8.96 248 16:18 07.01.2020
983 Clouds 5 1028 92 0 0.45 247 15:43 07.01.2020
984 Clouds 5 1027 92 0 0.89 225 15:24 07.01.2020
985 Clouds 5 1027 92 0 0.89 225 15:24 07.01.2020
986 Clouds 6 1022 90 0 8.96 248 14:59 07.01.2020
987 Clouds 5 1027 92 0 0.45 225 14:41 07.01.2020
988 Clouds 5 1027 92 0 0.45 247 14:22 07.01.2020
989 Clouds 5 1027 92 0 0.45 247 14:22 07.01.2020
990 Clouds 4 1027 92 0 0.45 225 13:56 07.01.2020
991 Clouds 4 1027 92 0 8.14 243 13:37 07.01.2020
992 Clouds 4 1026 92 0 0.45 247 13:18 07.01.2020
993 Clouds 4 1027 91 0 0.45 225 12:40 07.01.2020
994 Clouds 4 1027 91 0 0.45 225 12:40 07.01.2020
995 Clouds 3 1026 91 0 8.36 239 12:19 07.01.2020
996 Clouds 3 1026 91 0 0.89 225 11:43 07.01.2020
997 Clouds 3 1027 91 0 0.89 225 11:23 07.01.2020
998 Clouds 2 1026 91 0 0.45 225 10:59 07.01.2020
999 Clouds 2 1026 90 0 0.45 225 10:40 07.01.2020
1000 Clouds 2 1026 90 0 0.45 225 10:40 07.01.2020
1001 Clouds 2 1026 90 0 0.45 225 10:22 07.01.2020
1002 Clouds 2 1026 90 0 7.43 240 09:56 07.01.2020
1003 Clouds 2 1026 90 0 0.45 202 09:37 07.01.2020
1004 Clouds 1 1025 90 0 7.43 240 09:19 07.01.2020
1005 Clouds 1 1025 90 0 0.45 202 08:42 07.01.2020
1006 Clouds 1 1025 90 0 0.45 202 08:21 07.01.2020
1007 Clouds 1 1024 90 0 0.89 202 07:51 07.01.2020
1008 Clouds 1 1024 89 0 0.89 202 07:26 07.01.2020
1009 Clouds 1 1024 89 0 0.89 225 06:53 07.01.2020
1010 Clouds 1 1023 90 0 0.89 225 06:32 07.01.2020
1011 Clouds 2 1023 89 0 0.89 180 05:49 07.01.2020
1012 Clouds 3 1023 90 0 0.89 180 04:31 07.01.2020
1013 Clouds 4 1023 91 0 0.89 180 03:26 07.01.2020
1014 Clouds 4 1024 91 0 0.89 180 02:21 07.01.2020
1015 Clouds 4 1024 91 0 0.89 180 01:51 07.01.2020
1016 Clouds 4 1023 91 0 0.89 180 01:28 07.01.2020
1017 Clouds 4 1024 92 0 0.45 180 00:37 07.01.2020
1018 Clouds 4 1024 92 0 0.45 180 00:18 07.01.2020
1019 Clouds 4 1024 92 0 0.45 180 23:39 06.01.2020
1020 Clouds 4 1024 92 0 0.45 180 23:21 06.01.2020
1021 Clouds 4 1025 92 0 0.89 180 22:58 06.01.2020
1022 Clouds 4 1025 92 0 0.89 180 22:39 06.01.2020
1023 Clouds 5 1020 85 0 6.81 216 22:21 06.01.2020
1024 Clouds 4 1025 92 0 0.45 180 21:56 06.01.2020
1025 Clouds 4 1025 92 0 0.45 202 21:38 06.01.2020
1026 Clouds 4 1026 92 0 0.89 202 21:19 06.01.2020
1027 Clouds 4 1026 92 0 0.45 202 20:56 06.01.2020
1028 Clouds 4 1026 92 0 0.45 202 20:37 06.01.2020
1029 Clouds 5 1026 92 0 0.89 225 20:19 06.01.2020
1030 Clouds 5 1026 92 0 0.89 225 19:55 06.01.2020
1031 Clouds 5 1026 92 0 0.89 202 19:37 06.01.2020
1032 Clouds 5 1026 92 0 0.45 225 19:19 06.01.2020
1033 Clouds 5 1026 92 0 0.89 225 18:45 06.01.2020
1034 Clouds 5 1026 92 0 0.89 225 18:21 06.01.2020
1035 Clouds 5 1027 91 0 0.45 225 17:57 06.01.2020
1036 Clouds 5 1027 91 0 0.45 225 17:37 06.01.2020
1037 Clouds 5 1027 91 0 0.89 225 17:18 06.01.2020
1038 Clouds 5 1027 91 0 0.45 225 16:44 06.01.2020
1039 Clouds 5 1027 91 0 0.45 225 16:24 06.01.2020
1040 Clouds 5 1027 91 0 6.41 235 15:59 06.01.2020
1041 Clouds 5 1022 93 0 6.41 235 15:38 06.01.2020
1042 Clouds 5 1028 91 0 6.41 235 15:18 06.01.2020
1043 Clouds 6 1028 91 0 0.45 247 14:56 06.01.2020
1044 Clouds 6 1028 91 0 0.89 270 14:37 06.01.2020
1045 Rain 5 1024 92 0 7.5 238 14:18 06.01.2020
1046 Rain 5 1024 92 0 7.5 238 14:18 06.01.2020
1047 Rain 6 1028 91 0 0.89 225 13:41 06.01.2020
1048 Rain 6 1028 91 0 7.79 239 13:22 06.01.2020
1049 Rain 5 1029 91 0 0.45 292 12:59 06.01.2020
1050 Rain 5 1029 91 0 0.89 292 12:41 06.01.2020
1051 Rain 5 1029 91 0 0.45 292 12:20 06.01.2020
1052 Rain 5 1029 91 0 0.45 292 12:20 06.01.2020
1053 Rain 5 1029 92 0 0.89 225 11:56 06.01.2020
1054 Rain 5 1029 91 0 0.45 225 11:38 06.01.2020
1055 Rain 4 1029 91 0 0.45 247 11:20 06.01.2020
1056 Rain 4 1029 91 0 0.45 247 11:20 06.01.2020
1057 Rain 4 1029 92 0 0.89 225 10:43 06.01.2020
1058 Rain 4 1030 92 0 0.45 225 10:24 06.01.2020
1059 Rain 4 1030 92 0 1.34 225 09:57 06.01.2020
1060 Rain 4 1030 92 0 1.34 225 09:37 06.01.2020
1061 Rain 4 1030 92 0 0.89 225 09:19 06.01.2020
1062 Rain 4 1030 92 0 0.45 225 08:42 06.01.2020
1063 Rain 4 1030 92 0 1.34 225 08:23 06.01.2020
1064 Clouds 4 1030 91 0 0.89 225 07:48 06.01.2020
1065 Clouds 4 1030 91 0 0.45 225 07:23 06.01.2020
1066 Clouds 4 1030 91 0 8.74 244 06:44 06.01.2020
1067 Clouds 4 1030 91 0 8.74 244 06:18 06.01.2020
1068 Clouds 4 1030 91 0 0.89 225 05:40 06.01.2020
1069 Clouds 4 1031 92 0 9.69 247 04:30 06.01.2020
1070 Clouds 4 1031 92 0 0.45 225 03:58 06.01.2020
1071 Clouds 4 1031 92 0 0.89 202 02:46 06.01.2020
1072 Clouds 4 1032 92 0 0.45 225 02:22 06.01.2020
1073 Clouds 4 1032 92 0 0.45 247 01:43 06.01.2020
1074 Clouds 4 1032 92 0 0.89 247 01:21 06.01.2020
1075 Clouds 4 1032 92 0 1.79 225 00:41 06.01.2020
1076 Clouds 4 1032 91 0 0.89 225 00:19 06.01.2020
1077 Clouds 3 1033 91 0 0.89 225 23:41 05.01.2020
1078 Clouds 3 1033 91 0 0.89 225 23:22 05.01.2020
1079 Clouds 3 1033 91 0 9.2 230 22:55 05.01.2020
1080 Clouds 3 1033 91 0 0.89 225 22:37 05.01.2020
1081 Clouds 3 1033 91 0 0.89 247 22:19 05.01.2020
1082 Clouds 3 1033 91 0 0.89 225 21:54 05.01.2020
1083 Clouds 3 1033 91 0 0.89 225 21:36 05.01.2020
1084 Clouds 3 1034 90 0 0.89 225 21:18 05.01.2020
1085 Clouds 3 1034 90 0 0.89 225 21:18 05.01.2020
1086 Clouds 2 1034 90 0 1.34 225 20:54 05.01.2020
1087 Clouds 2 1034 90 0 1.79 225 20:36 05.01.2020
1088 Clouds 2 1034 90 0 1.79 225 20:36 05.01.2020
1089 Clouds 2 1034 90 0 1.34 225 20:18 05.01.2020
1090 Rain 2 1034 89 0 1.34 225 19:54 05.01.2020
1091 Rain 2 1034 89 0 1.34 225 19:36 05.01.2020
1092 Rain 2 1035 88 0 1.34 225 19:18 05.01.2020
1093 Rain 2 1035 88 0 1.34 225 18:54 05.01.2020
1094 Rain 2 1035 88 0 1.34 225 18:36 05.01.2020
1095 Rain 2 1035 88 0 0.89 225 18:18 05.01.2020
1096 Rain 2 1035 88 0 0.89 202 17:39 05.01.2020
1097 Clouds 2 1035 88 0 0.89 202 17:20 05.01.2020
1098 Clouds 2 1035 88 0 0.89 225 16:58 05.01.2020
1099 Clouds 2 1035 88 0 0.45 202 16:40 05.01.2020
1100 Clouds 2 1035 88 0 0.45 202 16:20 05.01.2020
1101 Clouds 2 1035 88 0 0.89 225 15:41 05.01.2020
1102 Clouds 2 1035 88 0 0.89 202 15:22 05.01.2020
1103 Clouds 3 1036 89 0 0.89 225 14:58 05.01.2020
1104 Clouds 3 1036 89 0 0.89 225 14:40 05.01.2020
1105 Clouds 3 1036 89 0 0.45 202 14:22 05.01.2020
1106 Clouds 3 1036 89 0 0.45 225 13:59 05.01.2020
1107 Clouds 3 1036 89 0 0.45 225 13:39 05.01.2020
1108 Clouds 3 1036 90 0 0.89 202 13:21 05.01.2020
1109 Clouds 3 1036 90 0 0.45 247 12:57 05.01.2020
1110 Clouds 3 1036 90 0 0.45 247 12:57 05.01.2020
1111 Clouds 3 1036 90 0 0.45 247 12:39 05.01.2020
1112 Clouds 3 1036 90 0 0.45 247 12:39 05.01.2020
1113 Clouds 2 1036 90 0 0.45 270 12:21 05.01.2020
1114 Clouds 2 1036 90 0 0.45 270 12:21 05.01.2020
1115 Clouds 2 1036 90 0 6.47 252 11:55 05.01.2020
1116 Clouds 2 1037 90 0 6.47 252 11:37 05.01.2020
1117 Clear 2 1037 90 0 5.96 287 11:19 05.01.2020
1118 Clear 2 1037 90 0 0.89 270 10:55 05.01.2020
1119 Clear 1 1037 90 0 5.96 287 10:36 05.01.2020
1120 Clear 1 1037 90 0 5.96 287 10:36 05.01.2020
1121 Clear 1 1037 90 0 0.45 247 10:18 05.01.2020
1122 Clear 0 1037 90 0 5.96 287 09:41 05.01.2020
1123 Clear 0 1037 90 0 0.45 292 09:21 05.01.2020
1124 Clear -1 1037 90 0 5.96 287 08:46 05.01.2020
1125 Clear -1 1036 89 0 5.74 281 08:27 05.01.2020
1126 Clear -1 1036 89 0 6.86 295 07:55 05.01.2020
1127 Clear -1 1036 89 0 6.86 295 07:35 05.01.2020
1128 Clear 0 1035 89 0 6.86 295 06:58 05.01.2020
1129 Clear 1 1034 89 0 6.86 295 05:58 05.01.2020
1130 Clear 1 1034 89 0 6.86 295 05:30 05.01.2020
1131 Clear 1 1034 89 0 0.89 292 04:43 05.01.2020
1132 Clear 0 1033 87 0 7.12 317 03:47 05.01.2020
1133 Clear 1 1032 86 0 0.89 315 02:46 05.01.2020
1134 Clear 1 1032 86 0 1.79 315 02:22 05.01.2020
1135 Clear 2 1031 87 0 0.89 292 01:46 05.01.2020
1136 Clear 2 1030 86 0 0.45 0 01:18 05.01.2020
1137 Clear 2 1030 86 0 8.87 326 00:41 05.01.2020
1138 Clear 2 1030 86 0 8.87 326 00:23 05.01.2020
1139 Clear 2 1029 86 0 0.45 0 23:59 04.01.2020
1140 Clear 2 1029 85 0 8.87 326 23:39 04.01.2020
1141 Clear 2 1029 85 0 10.5 326 23:19 04.01.2020
1142 Clear 2 1028 84 0 0.45 0 22:40 04.01.2020
1143 Clear 2 1028 84 0 0.45 0 22:40 04.01.2020
1144 Clear 2 1028 84 0 10.5 326 22:21 04.01.2020
1145 Clear 3 1027 84 0 0.45 337 21:57 04.01.2020
1146 Clear 3 1027 84 0 0.45 337 21:57 04.01.2020
1147 Clear 3 1027 84 0 0.89 315 21:39 04.01.2020
1148 Clear 3 1026 83 0 1.79 315 21:20 04.01.2020
1149 Clear 3 1026 83 0 1.79 315 21:20 04.01.2020
1150 Clear 3 1026 83 0 1.34 292 20:58 04.01.2020
1151 Clear 3 1025 82 0 1.34 315 20:39 04.01.2020
1152 Clear 3 1025 82 0 1.34 315 20:39 04.01.2020
1153 Clear 3 1025 82 0 1.79 337 20:21 04.01.2020
1154 Clear 3 1024 82 0 0.89 292 19:56 04.01.2020
1155 Clear 3 1024 82 0 1.79 315 19:38 04.01.2020
1156 Clear 3 1023 82 0 0.89 315 19:19 04.01.2020
1157 Clear 3 1023 82 0 0.89 337 18:54 04.01.2020
1158 Clear 3 1022 82 0 0.45 270 18:36 04.01.2020
1159 Clear 4 1021 82 0 13.93 325 18:18 04.01.2020
1160 Clear 4 1021 82 0 13.93 325 18:18 04.01.2020
1161 Clear 4 1021 83 0 13.93 325 17:41 04.01.2020
1162 Clear 4 1020 83 0 0.45 22 17:23 04.01.2020
1163 Clear 4 1020 83 0 0.89 315 16:58 04.01.2020
1164 Clear 4 1019 82 0 0.89 315 16:39 04.01.2020
1165 Clear 4 1019 82 0 1.34 292 16:21 04.01.2020
1166 Clear 4 1018 82 0 2.24 315 15:55 04.01.2020
1167 Clear 4 1018 82 0 2.68 315 15:37 04.01.2020
1168 Clear 4 1017 82 0 1.34 292 15:18 04.01.2020
1169 Clear 4 1017 83 0 2.24 315 14:42 04.01.2020
1170 Clear 4 1017 83 0 2.24 315 14:42 04.01.2020
1171 Rain 4 1017 83 0 2.68 315 14:20 04.01.2020
1172 Rain 4 1016 85 0 3.58 315 13:59 04.01.2020
1173 Rain 4 1016 86 0 1.79 315 13:38 04.01.2020
1174 Rain 4 1016 91 0 2.68 315 13:19 04.01.2020
1175 Snow 3 1016 91 0 2.68 337 12:57 04.01.2020
1176 Snow 3 1015 91 0 1.79 315 12:39 04.01.2020
1177 Snow 3 1015 89 0 1.34 292 12:19 04.01.2020
1178 Snow 3 1016 87 0 1.34 315 11:57 04.01.2020
1179 Snow 5 1014 90 0 1.34 292 11:38 04.01.2020
1180 Rain 6 1014 88 0 2.24 270 11:18 04.01.2020
1181 Rain 6 1016 88 0 1.34 202 10:41 04.01.2020
1182 Rain 6 1016 89 0 0.45 0 10:22 04.01.2020
1183 Rain 4 1017 89 0 1.79 247 09:50 04.01.2020
1184 Rain 4 1017 90 0 0.89 292 09:26 04.01.2020
1185 Rain 4 1017 90 0 0.89 270 08:58 04.01.2020
1186 Rain 4 1017 90 0 0.89 247 08:39 04.01.2020
1187 Clouds 4 1018 90 0 0.89 315 08:20 04.01.2020
1188 Clouds 4 1018 90 0 0.89 225 07:42 04.01.2020
1189 Clouds 4 1018 90 0 1.34 292 07:19 04.01.2020
1190 Clouds 4 1019 90 0 1.79 225 06:33 04.01.2020
1191 Clear 3 1019 90 0 1.34 292 05:19 04.01.2020
1192 Clear 3 1019 91 0 0.89 337 04:34 04.01.2020
1193 Clear 3 1019 91 0 14.71 272 03:43 04.01.2020
1194 Clear 3 1020 91 0 14.71 272 03:18 04.01.2020
1195 Clouds 3 1020 91 0 0.89 292 02:21 04.01.2020
1196 Clouds 3 1020 91 0 0.89 292 02:21 04.01.2020
1197 Clouds 3 1020 91 0 0.89 292 01:55 04.01.2020
1198 Clouds 3 1019 91 0 12.3 281 01:31 04.01.2020
1199 Clouds 4 1019 92 0 1.79 292 00:44 04.01.2020
1200 Clouds 3 1019 92 0 1.79 292 00:23 04.01.2020
1201 Clouds 3 1019 92 0 0.89 292 23:46 03.01.2020
1202 Clouds 3 1018 91 0 0.45 292 23:25 03.01.2020
1203 Rain 6 1013 80 0 9.15 297 22:54 03.01.2020
1204 Rain 3 1018 91 0 0.45 292 22:36 03.01.2020
1205 Rain 4 1018 92 0 9.15 297 22:18 03.01.2020
1206 Rain 4 1017 92 0 0.45 292 21:54 03.01.2020
1207 Rain 4 1017 92 0 0.89 292 21:36 03.01.2020
1208 Rain 4 1017 92 0 0.45 315 21:18 03.01.2020
1209 Rain 4 1016 92 0 9.15 297 20:42 03.01.2020
1210 Rain 4 1016 92 0 7.7 340 20:19 03.01.2020
1211 Rain 4 1016 92 0 7.7 340 19:58 03.01.2020
1212 Rain 5 1015 93 0 7.7 340 19:39 03.01.2020
1213 Rain 6 1015 93 0 0.89 337 19:21 03.01.2020
1214 Rain 6 1014 92 0 0.89 225 18:44 03.01.2020
1215 Rain 6 1014 92 0 7.7 340 18:26 03.01.2020
1216 Rain 6 1014 92 0 0.89 225 17:57 03.01.2020
1217 Rain 6 1014 92 0 7.7 340 17:39 03.01.2020
1218 Rain 6 1014 92 0 0.45 247 17:19 03.01.2020
1219 Rain 6 1014 92 0 1.34 225 16:43 03.01.2020
1220 Rain 6 1014 92 0 0.89 225 16:24 03.01.2020
1221 Rain 6 1014 92 0 0.89 225 15:58 03.01.2020
1222 Rain 6 1014 92 0 0.89 225 15:40 03.01.2020
1223 Rain 5 1014 91 0 1.34 225 15:18 03.01.2020
1224 Rain 5 1014 91 0 0.89 225 14:39 03.01.2020
1225 Rain 5 1015 91 0 0.89 225 14:20 03.01.2020
1226 Rain 5 1015 91 0 1.79 225 13:57 03.01.2020
1227 Rain 5 1015 91 0 1.34 247 13:38 03.01.2020
1228 Rain 4 1015 91 0 1.79 225 13:20 03.01.2020
1229 Rain 4 1015 90 0 1.34 247 12:40 03.01.2020
1230 Rain 4 1016 90 0 1.79 225 12:21 03.01.2020
1231 Rain 4 1017 90 0 1.79 225 11:49 03.01.2020
1232 Rain 4 1016 90 0 2.68 225 11:30 03.01.2020
1233 Rain 4 1017 89 0 1.79 225 10:57 03.01.2020
1234 Rain 4 1017 89 0 2.24 225 10:38 03.01.2020
1235 Rain 4 1017 89 0 2.24 225 10:20 03.01.2020
1236 Rain 4 1018 89 0 2.24 225 09:54 03.01.2020
1237 Rain 4 1018 89 0 1.79 225 09:36 03.01.2020
1238 Rain 3 1018 89 0 1.79 225 09:18 03.01.2020
1239 Rain 3 1018 89 0 2.24 225 08:44 03.01.2020
1240 Rain 3 1018 89 0 1.34 225 08:21 03.01.2020
1241 Rain 3 1019 90 0 2.24 202 07:43 03.01.2020
1242 Rain 3 1019 90 0 1.79 202 07:19 03.01.2020
1243 Rain 3 1019 90 0 1.79 202 06:59 03.01.2020
1244 Rain 3 1019 90 0 1.79 180 06:40 03.01.2020
1245 Rain 3 1019 90 0 1.79 202 06:22 03.01.2020
1246 Rain 3 1019 90 0 1.79 202 06:22 03.01.2020
1247 Rain 3 1019 90 0 1.79 202 06:22 03.01.2020
1248 Clouds 3 1020 91 0 1.79 225 04:59 03.01.2020
1249 Clouds 2 1022 91 0 1.79 225 03:38 03.01.2020
1250 Clouds 2 1022 91 0 1.34 180 02:53 03.01.2020
1251 Clouds 2 1022 91 0 1.34 180 02:53 03.01.2020
1252 Clouds 2 1023 91 0 0.89 202 01:51 03.01.2020
1253 Clouds 1 1023 91 0 0.89 202 01:31 03.01.2020
1254 Clouds 1 1024 90 0 0.89 225 00:43 03.01.2020
1255 Clouds 1 1024 90 0 1.34 225 00:24 03.01.2020
1256 Clouds 1 1024 90 0 1.34 225 23:39 02.01.2020
1257 Clear 1 1025 91 0 10.41 240 23:20 02.01.2020
1258 Clear 0 1025 90 0 10.41 240 22:59 02.01.2020
1259 Clear 1 1025 90 0 1.79 225 22:41 02.01.2020
1260 Clear 0 1025 89 0 1.34 247 22:20 02.01.2020
1261 Clear 0 1025 88 0 1.34 270 21:57 02.01.2020
1262 Clear 0 1025 87 0 0.45 225 21:38 02.01.2020
1263 Clear 0 1025 86 0 0.45 225 21:19 02.01.2020
1264 Clear 0 1025 86 0 0.45 247 20:56 02.01.2020
1265 Clear 0 1025 85 0 0.89 247 20:37 02.01.2020
1266 Clear 1 1025 85 0 0.89 225 20:19 02.01.2020
1267 Clear 1 1025 85 0 9.08 236 19:54 02.01.2020
1268 Clear 1 1025 85 0 9.08 236 19:36 02.01.2020
1269 Clear 1 1025 85 0 0.45 247 19:18 02.01.2020
1270 Clear 1 1025 85 0 0.45 247 18:54 02.01.2020
1271 Clear 1 1025 85 0 0.45 247 18:36 02.01.2020
1272 Clear 1 1025 85 0 0.45 225 18:18 02.01.2020
1273 Clear 1 1025 85 0 0.89 225 17:55 02.01.2020
1274 Clear 1 1025 85 0 0.45 225 17:36 02.01.2020
1275 Clear 1 1026 84 0 0.45 225 17:18 02.01.2020
1276 Clear 1 1026 83 0 0.45 225 16:41 02.01.2020
1277 Clear 1 1026 83 0 7.93 233 16:21 02.01.2020
1278 Clear 2 1026 83 0 0.45 225 15:59 02.01.2020
1279 Clear 2 1026 83 0 7.93 233 15:40 02.01.2020
1280 Clear 2 1026 83 0 7.93 233 15:40 02.01.2020
1281 Clear 3 1026 83 0 0.45 225 15:22 02.01.2020
1282 Clear 3 1027 83 0 0.45 225 14:57 02.01.2020
1283 Clear 3 1027 83 0 0.89 225 14:37 02.01.2020
1284 Clear 3 1027 84 0 0.45 225 14:18 02.01.2020
1285 Clear 3 1027 84 0 0.45 225 13:55 02.01.2020
1286 Clear 3 1027 85 0 8.2 241 13:36 02.01.2020
1287 Clear 3 1028 85 0 0.45 225 12:59 02.01.2020
1288 Clear 3 1028 86 0 0.89 225 12:40 02.01.2020
1289 Clear 3 1028 86 0 0.45 225 12:20 02.01.2020
1290 Clear 2 1029 88 0 8.2 241 11:41 02.01.2020
1291 Clear 2 1029 88 0 8.64 238 11:21 02.01.2020
1292 Clear 1 1030 89 0 0.89 225 10:46 02.01.2020
1293 Clear 1 1030 89 0 0.45 225 10:27 02.01.2020
1294 Clear 0 1030 89 0 0.89 247 09:56 02.01.2020
1295 Clear 0 1030 89 0 0.45 225 09:35 02.01.2020
1296 Clear -1 1030 89 0 0.89 225 08:58 02.01.2020
1297 Clear -1 1030 89 0 0.89 225 08:39 02.01.2020
1298 Clouds -1 1030 89 0 7.99 244 08:19 02.01.2020
1299 Clouds -1 1030 89 0 7.99 244 07:47 02.01.2020
1300 Clouds -1 1030 89 0 0.45 225 07:26 02.01.2020
1301 Clouds -1 1030 89 0 0.45 225 06:41 02.01.2020
1302 Clouds -1 1030 89 0 0.45 225 06:41 02.01.2020
1303 Clouds -1 1030 89 0 0.45 225 05:40 02.01.2020
1304 Clouds -1 1031 90 0 8.54 252 04:34 02.01.2020
1305 Clouds -1 1031 90 0 0.89 225 03:29 02.01.2020
1306 Clear -1 1031 90 0 0.89 225 02:21 02.01.2020
1307 Clear -1 1031 90 0 0.89 225 01:53 02.01.2020
1308 Clear -1 1031 90 0 0.89 225 01:53 02.01.2020
1309 Clear -1 1031 90 0 0.45 225 01:25 02.01.2020
1310 Clear -1 1032 90 0 0.45 225 00:49 02.01.2020
1311 Clear -1 1032 90 0 8.47 245 00:26 02.01.2020
1312 Clear -1 1032 90 0 8.47 245 00:26 02.01.2020
1313 Clear -1 1032 90 0 0.45 247 23:43 01.01.2020
1314 Clear -1 1032 90 0 0.45 247 23:43 01.01.2020
1315 Clear 0 1032 90 0 8.47 245 23:23 01.01.2020
1316 Clear 0 1032 90 0 0.45 247 22:39 01.01.2020
1317 Clear 0 1032 90 0 8.52 253 22:21 01.01.2020
1318 Clear 0 1033 90 0 8.52 253 21:59 01.01.2020
1319 Clear 0 1033 90 0 8.52 253 21:40 01.01.2020
1320 Clear 0 1033 90 0 8.52 253 21:21 01.01.2020
1321 Clear 0 1033 90 0 8.52 253 20:58 01.01.2020
1322 Clear 0 1033 90 0 0.45 247 20:39 01.01.2020
1323 Clear 0 1033 90 0 0.45 270 20:20 01.01.2020
1324 Clear 1 1033 90 0 9.57 258 19:57 01.01.2020
1325 Clear 1 1033 90 0 9.57 258 19:39 01.01.2020
1326 Clear 1 1033 90 0 9.57 258 19:20 01.01.2020
1327 Clear 1 1034 90 0 0.45 292 18:57 01.01.2020
1328 Clear 2 1034 90 0 0.45 270 18:38 01.01.2020
1329 Clear 1 1034 90 0 0.45 292 18:20 01.01.2020
1330 Clear 1 1034 90 0 0.89 292 17:58 01.01.2020
1331 Clear 1 1034 89 0 9.57 258 17:40 01.01.2020
1332 Clear 1 1034 88 0 0.45 292 17:20 01.01.2020
1333 Clear 1 1034 88 0 10.29 259 16:58 01.01.2020
1334 Clear 1 1034 87 0 0.45 292 16:38 01.01.2020
1335 Clear 1 1034 87 0 10.29 259 16:19 01.01.2020
1336 Clear 2 1034 87 0 0.89 292 15:57 01.01.2020
1337 Clear 2 1034 87 0 0.89 292 15:57 01.01.2020
1338 Clear 2 1034 86 0 10.29 259 15:37 01.01.2020
1339 Clear 3 1034 86 0 1.34 292 15:19 01.01.2020
1340 Clear 4 1029 85 0 10.29 259 14:56 01.01.2020
1341 Clear 3 1034 86 0 0.89 225 14:37 01.01.2020
1342 Clear 3 1034 86 0 0.45 292 14:19 01.01.2020
1343 Clear 3 1035 86 0 0.89 292 13:55 01.01.2020
1344 Clear 3 1035 86 0 1.79 315 13:36 01.01.2020
1345 Clear 4 1035 87 0 9.68 265 13:18 01.01.2020
1346 Clear 4 1035 87 0 0.89 292 12:54 01.01.2020
1347 Clear 4 1035 87 0 1.34 270 12:36 01.01.2020
1348 Clear 4 1035 89 0 1.34 292 12:18 01.01.2020
1349 Clear 3 1035 89 0 0.45 292 11:41 01.01.2020
1350 Clear 3 1036 90 0 0.89 292 11:21 01.01.2020
1351 Clear 3 1036 90 0 0.89 292 11:21 01.01.2020
1352 Clear 3 1036 91 0 8.99 278 10:56 01.01.2020
1353 Clear 3 1036 91 0 0.45 247 10:38 01.01.2020
1354 Clear 3 1036 91 0 0.45 270 10:19 01.01.2020
1355 Clear 3 1036 92 0 0.45 270 09:42 01.01.2020
1356 Clear 2 1036 92 0 0.89 292 09:22 01.01.2020
1357 Clear 2 1036 92 0 8.99 278 08:57 01.01.2020
1358 Clear 2 1036 92 0 0.45 247 08:39 01.01.2020
1359 Clear 2 1036 92 0 0.45 247 08:20 01.01.2020
1360 Clear 2 1036 92 0 8.92 285 07:58 01.01.2020
1361 Clear 1 1036 92 0 0.45 292 07:40 01.01.2020
1362 Clear 5 1031 85 0 8.92 285 07:20 01.01.2020
1363 Clear 1 1036 91 0 0.45 270 06:40 01.01.2020
1364 Clear 5 1031 85 0 8.92 285 06:18 01.01.2020
1365 Clear 5 1031 84 0 8.3 287 04:36 01.01.2020
1366 Clear 1 1035 90 0 8.3 287 03:41 01.01.2020
1367 Clear 1 1036 90 0 8.3 287 03:22 01.01.2020
1368 Clear 2 1036 90 0 8.3 287 02:54 01.01.2020
1369 Clear 2 1035 90 0 0.89 315 02:30 01.01.2020
1370 Clouds 2 1035 90 0 0.89 292 01:45 01.01.2020
1371 Clouds 2 1035 90 0 0.89 292 01:23 01.01.2020
1372 Clouds 2 1035 90 0 1.34 292 00:56 01.01.2020
1373 Clouds 2 1035 90 0 1.34 292 00:37 01.01.2020
1374 Clouds 1 1035 89 0 0.45 292 00:18 01.01.2020
1375 Clouds 1 1035 88 0 0.45 292 23:39 31.12.2019
1376 Clouds 5 1031 81 0 7.9 300 23:19 31.12.2019
1377 Clouds 5 1031 81 0 7.9 300 22:57 31.12.2019
1378 Clouds 5 1031 81 0 7.9 300 22:38 31.12.2019
1379 Clouds 1 1035 87 0 7.9 300 22:18 31.12.2019
1380 Clouds 1 1035 87 0 7.9 300 21:54 31.12.2019
1381 Clouds 2 1035 88 0 7.9 300 21:36 31.12.2019
1382 Clouds 2 1034 87 0 0.45 292 21:18 31.12.2019
1383 Clouds 3 1035 88 0 0.89 292 20:40 31.12.2019
1384 Clouds 3 1035 88 0 1.34 315 20:21 31.12.2019
1385 Clear 3 1035 87 0 1.34 292 19:59 31.12.2019
1386 Clear 3 1034 86 0 0.89 292 19:40 31.12.2019
1387 Clear 3 1034 86 0 0.45 292 19:22 31.12.2019
1388 Clear 3 1034 87 0 0.89 292 18:58 31.12.2019
1389 Clear 3 1034 86 0 1.34 292 18:40 31.12.2019
1390 Clear 4 1034 86 0 0.45 292 18:20 31.12.2019
1391 Clear 4 1033 85 0 0.89 292 17:56 31.12.2019
1392 Clear 4 1033 85 0 1.34 292 17:38 31.12.2019
1393 Clear 4 1033 85 0 0.89 292 17:19 31.12.2019
1394 Clear 4 1032 85 0 1.34 292 16:57 31.12.2019
1395 Clear 4 1032 84 0 0.89 292 16:38 31.12.2019
1396 Clear 5 1032 84 0 2.24 292 16:19 31.12.2019
1397 Clear 6 1027 80 0 8.43 299 15:56 31.12.2019
1398 Clear 5 1032 84 0 2.24 292 15:38 31.12.2019
1399 Clear 5 1032 84 0 2.24 292 15:38 31.12.2019
1400 Clear 6 1031 83 0 1.79 315 15:20 31.12.2019
1401 Clear 6 1031 83 0 1.34 337 14:58 31.12.2019
1402 Clear 6 1031 82 0 1.79 315 14:38 31.12.2019
1403 Clear 7 1030 81 0 1.79 315 14:19 31.12.2019
1404 Clear 7 1030 81 0 1.79 315 13:57 31.12.2019
1405 Clear 7 1030 80 0 2.24 292 13:39 31.12.2019
1406 Clear 7 1029 80 0 1.79 270 13:21 31.12.2019
1407 Clear 7 1029 81 0 1.79 337 12:58 31.12.2019
1408 Clear 7 1029 81 0 1.79 315 12:40 31.12.2019
1409 Clear 7 1029 82 0 1.79 315 12:20 31.12.2019
1410 Clear 7 1029 82 0 1.79 292 11:56 31.12.2019
1411 Clear 7 1029 83 0 2.68 315 11:38 31.12.2019
1412 Clear 6 1028 84 0 2.68 292 11:20 31.12.2019
1413 Clear 6 1028 84 0 2.68 315 10:57 31.12.2019
1414 Clear 6 1028 84 0 1.79 292 10:38 31.12.2019
1415 Clear 6 1027 84 0 1.79 292 10:20 31.12.2019
1416 Clear 6 1027 84 0 2.68 337 09:59 31.12.2019
1417 Clear 6 1027 84 0 1.79 292 09:39 31.12.2019
1418 Clear 6 1025 84 0 3.13 337 09:20 31.12.2019
1419 Clear 6 1025 84 0 2.24 337 08:57 31.12.2019
1420 Clear 6 1025 84 0 2.68 292 08:39 31.12.2019
1421 Clouds 6 1024 85 0 1.79 292 08:19 31.12.2019
1422 Clouds 6 1024 85 0 1.34 315 07:43 31.12.2019
1423 Clouds 6 1024 85 0 2.68 315 07:20 31.12.2019
1424 Clouds 6 1024 84 0 2.68 292 06:50 31.12.2019
1425 Clouds 6 1023 84 0 2.24 45 05:57 31.12.2019
1426 Rain 7 1023 89 0 1.79 315 04:29 31.12.2019
1427 Rain 6 1022 90 0 4.02 315 03:38 31.12.2019
1428 Rain 7 1018 85 0 11.6 295 02:55 31.12.2019
1429 Clouds 5 1022 84 0 1.34 270 02:19 31.12.2019
1430 Clouds 5 1022 82 0 0.45 292 01:48 31.12.2019
1431 Clouds 5 1022 81 0 1.79 292 01:27 31.12.2019
1432 Clouds 4 1022 77 0 0.89 315 00:46 31.12.2019
1433 Clouds 4 1022 77 0 0.45 270 00:22 31.12.2019
1434 Clouds 4 1022 73 0 1.34 292 23:57 30.12.2019
1435 Clouds 4 1022 71 0 0.89 292 23:38 30.12.2019
1436 Clouds 4 1022 66 0 0.45 270 23:20 30.12.2019
1437 Clouds 4 1023 64 0 1.34 292 22:58 30.12.2019
1438 Clouds 4 1022 62 0 1.34 292 22:40 30.12.2019
1439 Clouds 4 1022 61 0 0.89 270 22:20 30.12.2019
1440 Clouds 4 1022 59 0 0.89 292 21:57 30.12.2019
1441 Clouds 4 1022 58 0 1.34 270 21:39 30.12.2019
1442 Clouds 4 1022 58 0 1.34 270 21:39 30.12.2019
1443 Clouds 4 1022 56 0 0.45 337 21:19 30.12.2019
1444 Clouds 4 1022 55 0 0.45 270 20:58 30.12.2019
1445 Clouds 5 1022 55 0 1.34 247 20:40 30.12.2019
1446 Clear 4 1023 55 0 0.89 292 20:20 30.12.2019
1447 Clear 5 1023 55 0 0.89 270 19:58 30.12.2019
1448 Clear 5 1023 55 0 0.89 225 19:39 30.12.2019
1449 Clear 4 1023 57 0 1.34 225 19:19 30.12.2019
1450 Clear 4 1023 58 0 1.79 225 18:59 30.12.2019
1451 Clear 4 1023 58 0 0.89 225 18:40 30.12.2019
1452 Clear 5 1024 57 0 0.45 247 18:20 30.12.2019
1453 Clear 5 1024 57 0 0.45 247 18:20 30.12.2019
1454 Clear 5 1024 57 0 1.34 225 17:57 30.12.2019
1455 Clear 5 1024 57 0 0.89 225 17:39 30.12.2019
1456 Clear 5 1024 57 0 0.45 225 17:19 30.12.2019
1457 Clear 5 1024 58 0 0.45 225 16:58 30.12.2019
1458 Clear 5 1025 58 0 1.34 225 16:37 30.12.2019
1459 Clear 5 1025 58 0 0.89 225 16:19 30.12.2019
1460 Clear 6 1025 57 0 0.89 225 15:56 30.12.2019
1461 Clear 6 1025 56 0 0.89 315 15:37 30.12.2019
1462 Clear 7 1025 53 0 0.89 270 15:19 30.12.2019
1463 Clear 7 1025 52 0 0.45 292 14:43 30.12.2019
1464 Clouds 7 1026 51 0 0.89 247 14:21 30.12.2019
1465 Clouds 7 1026 53 0 12.9 252 13:59 30.12.2019
1466 Clouds 7 1026 53 0 0.45 292 13:40 30.12.2019
1467 Clouds 7 1026 52 0 0.45 225 13:22 30.12.2019
1468 Clouds 6 1026 56 0 13.02 251 12:57 30.12.2019
1469 Clouds 6 1026 57 0 0.45 247 12:37 30.12.2019
1470 Clouds 6 1027 58 0 1.34 225 12:18 30.12.2019
1471 Clouds 6 1027 58 0 1.34 225 12:18 30.12.2019
1472 Clouds 6 1028 57 0 0.89 247 11:46 30.12.2019
1473 Clouds 6 1028 58 0 0.89 247 11:22 30.12.2019
1474 Clouds 5 1028 58 0 0.45 247 10:59 30.12.2019
1475 Clouds 5 1028 57 0 1.79 247 10:40 30.12.2019
1476 Clouds 5 1028 58 0 1.34 247 10:20 30.12.2019
1477 Clouds 5 1029 58 0 1.79 225 09:44 30.12.2019
1478 Clouds 5 1029 57 0 0.89 225 09:21 30.12.2019
1479 Clouds 5 1029 57 0 1.79 225 08:57 30.12.2019
1480 Clouds 4 1029 58 0 1.79 225 08:39 30.12.2019
1481 Clouds 4 1029 59 0 0.89 225 08:21 30.12.2019
1482 Clouds 4 1029 61 0 1.79 225 07:53 30.12.2019
1483 Clouds 4 1030 64 0 1.34 225 07:32 30.12.2019
1484 Clouds 4 1030 64 0 0.45 225 06:39 30.12.2019
1485 Clouds 3 1031 72 0 2.24 225 04:45 30.12.2019
1486 Clouds 2 1032 74 0 2.24 225 03:52 30.12.2019
1487 Clouds 2 1033 75 0 2.24 225 02:47 30.12.2019
1488 Clouds 2 1033 75 0 1.79 225 02:29 30.12.2019
1489 Clouds 2 1034 76 0 2.24 225 01:47 30.12.2019
1490 Clouds 2 1034 76 0 2.24 225 01:19 30.12.2019
1491 Clouds 2 1034 77 0 2.68 225 00:42 30.12.2019
1492 Clouds 2 1035 79 0 0.89 202 23:59 29.12.2019
1493 Clouds 2 1035 79 0 1.34 225 23:38 29.12.2019
1494 Clouds 1 1036 80 0 1.34 225 23:20 29.12.2019
1495 Clouds 1 1036 80 0 1.79 225 22:42 29.12.2019
1496 Clouds 4 1030 66 0 10.43 231 22:22 29.12.2019
1497 Clouds 2 1036 79 0 2.24 225 21:58 29.12.2019
1498 Clouds 2 1036 79 0 1.79 225 21:40 29.12.2019
1499 Clouds 1 1037 80 0 1.79 225 21:20 29.12.2019
1500 Clouds 1 1037 80 0 1.79 225 21:20 29.12.2019
1501 Clouds 1 1037 81 0 1.34 225 20:57 29.12.2019
1502 Clouds 1 1037 81 0 1.79 225 20:39 29.12.2019
1503 Clouds 1 1038 81 0 1.34 202 20:20 29.12.2019
1504 Clouds 1 1038 81 0 2.24 225 19:58 29.12.2019
1505 Clouds 1 1038 81 0 1.34 202 19:40 29.12.2019
1506 Clouds 1 1038 81 0 1.34 202 19:21 29.12.2019
1507 Clouds 1 1038 81 0 1.79 180 18:57 29.12.2019
1508 Clouds 1 1038 81 0 1.34 225 18:38 29.12.2019
1509 Clouds 1 1038 82 0 1.34 202 18:19 29.12.2019
1510 Clouds 1 1038 83 0 1.34 202 17:58 29.12.2019
1511 Clouds 1 1039 83 0 0.89 202 17:39 29.12.2019
1512 Clouds 1 1039 83 0 1.34 225 17:20 29.12.2019
1513 Clouds 1 1039 83 0 1.34 225 16:56 29.12.2019
1514 Clouds 1 1039 83 0 1.79 225 16:38 29.12.2019
1515 Clouds 1 1039 83 0 1.34 225 16:20 29.12.2019
1516 Clouds 1 1039 82 0 1.79 225 15:58 29.12.2019
1517 Clouds 1 1040 82 0 1.34 225 15:39 29.12.2019
1518 Clouds 1 1039 82 0 1.34 202 15:20 29.12.2019
1519 Clouds 1 1040 82 0 1.34 225 14:58 29.12.2019
1520 Clouds 1 1040 82 0 0.89 225 14:39 29.12.2019
1521 Clouds 1 1040 81 0 1.34 225 14:18 29.12.2019
1522 Clouds 1 1040 81 0 1.34 202 13:57 29.12.2019
1523 Clouds 1 1040 81 0 1.79 225 13:39 29.12.2019
1524 Clouds 1 1040 81 0 0.89 202 13:20 29.12.2019
1525 Clouds 1 1041 82 0 1.34 225 12:46 29.12.2019
1526 Clouds 1 1041 82 0 1.34 225 12:28 29.12.2019
1527 Clouds 1 1042 82 0 1.34 225 11:59 29.12.2019
1528 Clouds 1 1042 82 0 1.34 202 11:40 29.12.2019
1529 Clouds 1 1042 83 0 1.34 225 11:20 29.12.2019
1530 Clouds 1 1043 83 0 2.24 180 10:56 29.12.2019
1531 Clouds 0 1043 83 0 0.89 225 10:37 29.12.2019
1532 Clouds 0 1043 84 0 1.34 180 10:18 29.12.2019
1533 Clouds -1 1043 84 0 1.34 202 09:44 29.12.2019
1534 Clouds -1 1043 84 0 1.34 225 09:26 29.12.2019
1535 Clouds -1 1043 84 0 1.34 225 08:52 29.12.2019
1536 Clouds -1 1043 84 0 0.89 202 08:29 29.12.2019
1537 Clouds -1 1043 85 0 1.34 225 07:59 29.12.2019
1538 Clouds -1 1043 85 0 1.34 225 07:32 29.12.2019
1539 Clouds -1 1043 85 0 0.89 225 06:59 29.12.2019
1540 Clouds -1 1043 85 0 1.34 225 06:27 29.12.2019
1541 Clouds -1 1044 85 0 0.89 225 05:55 29.12.2019
1542 Clouds -1 1045 85 0 0.45 180 04:47 29.12.2019
1543 Clouds -1 1045 85 0 0.89 180 04:28 29.12.2019
1544 Clouds -1 1045 86 0 1.34 180 03:32 29.12.2019
1545 Clouds -1 1045 85 0 0.45 202 02:27 29.12.2019
1546 Clouds -1 1045 85 0 0.45 202 01:47 29.12.2019
1547 Clouds -1 1045 85 0 5.85 224 01:28 29.12.2019
1548 Clouds -1 1046 85 0 0.45 202 00:45 29.12.2019
1549 Clouds -1 1046 84 0 5.85 220 00:24 29.12.2019
1550 Clouds -1 1046 84 0 5.85 220 23:55 28.12.2019
1551 Clouds -1 1047 84 0 5.85 220 23:37 28.12.2019
1552 Clouds -1 1047 84 0 4.49 213 23:18 28.12.2019
1553 Clouds -1 1046 84 0 0.45 202 22:37 28.12.2019
1554 Clouds -1 1047 84 0 0.45 292 22:18 28.12.2019
1555 Clouds -1 1047 84 0 4.49 213 21:56 28.12.2019
1556 Clouds -1 1047 83 0 4.49 213 21:37 28.12.2019
1557 Clouds -1 1047 83 0 4.49 213 21:19 28.12.2019
1558 Clouds -1 1048 83 0 4.49 213 20:42 28.12.2019
1559 Clouds -1 1048 82 0 4.51 222 20:23 28.12.2019
1560 Clouds -1 1047 82 0 2.86 222 19:59 28.12.2019
1561 Clouds -1 1047 82 0 2.86 222 19:41 28.12.2019
1562 Clouds -1 1047 82 0 2.86 222 19:23 28.12.2019
1563 Clouds -1 1047 81 0 2.86 222 18:59 28.12.2019
1564 Clouds -1 1047 81 0 2.86 222 18:40 28.12.2019
1565 Clouds 0 1047 81 0 2.86 222 18:20 28.12.2019
1566 Clouds 0 1047 81 0 2.86 222 17:58 28.12.2019
1567 Clouds 0 1047 80 0 2.86 222 17:39 28.12.2019
1568 Clouds 1 1047 80 0 0.64 177 17:20 28.12.2019
1569 Clouds 1 1047 79 0 0.64 177 16:48 28.12.2019
1570 Clouds 1 1047 79 0 0.64 177 16:26 28.12.2019
1571 Clouds 1 1047 77 0 0.45 292 15:57 28.12.2019
1572 Clouds 1 1047 77 0 0.64 177 15:39 28.12.2019
1573 Clouds 2 1047 77 0 0.64 177 15:21 28.12.2019
1574 Clouds 2 1047 77 0 0.45 315 14:46 28.12.2019
1575 Clouds 2 1047 77 0 0.45 337 14:24 28.12.2019
1576 Clouds 2 1047 77 0 0.89 0 13:58 28.12.2019
1577 Clouds 2 1047 77 0 0.45 292 13:39 28.12.2019
1578 Clouds 2 1047 76 0 0.45 315 13:20 28.12.2019
1579 Clouds 2 1047 76 0 0.45 315 13:20 28.12.2019
1580 Clouds 3 1047 76 0 0.75 30 12:56 28.12.2019
1581 Clouds 3 1047 76 0 0.75 30 12:37 28.12.2019
1582 Clouds 3 1047 76 0 0.75 30 12:19 28.12.2019
1583 Clouds 2 1047 77 0 0.75 30 11:40 28.12.2019
1584 Clear 2 1047 77 0 0.89 0 11:21 28.12.2019
1585 Clear 2 1047 77 0 2.14 9 10:55 28.12.2019
1586 Clear 2 1047 78 0 2.14 9 10:36 28.12.2019
1587 Clear 2 1047 77 0 0.45 22 10:18 28.12.2019
1588 Clear 2 1047 77 0 0.45 22 10:18 28.12.2019
1589 Clear 2 1047 78 0 2.14 9 09:45 28.12.2019
1590 Clear 2 1046 77 0 2.14 9 09:23 28.12.2019
1591 Clear 2 1046 77 0 2.14 9 08:58 28.12.2019
1592 Clear 2 1046 77 0 0.89 22 08:39 28.12.2019
1593 Clouds 2 1046 75 0 2.19 28 08:20 28.12.2019
1594 Clouds 2 1046 74 0 2.19 28 07:43 28.12.2019
1595 Clouds 2 1045 74 0 0.45 45 06:59 28.12.2019
1596 Clouds 2 1045 74 0 0.89 22 05:45 28.12.2019
1597 Clouds 2 1045 75 0 0.45 45 03:48 28.12.2019
1598 Clouds 2 1044 77 0 4.15 30 02:50 28.12.2019
1599 Clouds 2 1044 80 0 0.45 45 02:20 28.12.2019
1600 Clouds 2 1043 82 0 0.45 45 01:54 28.12.2019
1601 Clouds 2 1043 79 0 2.24 45 01:22 28.12.2019
1602 Clouds 2 1042 76 0 0.45 45 00:45 28.12.2019
1603 Clouds 2 1043 76 0 0.89 45 00:27 28.12.2019
1604 Clouds 2 1043 75 0 4.94 17 23:58 27.12.2019
1605 Clouds 2 1043 74 0 0.45 45 23:38 27.12.2019
1606 Clouds 2 1042 76 0 0.89 45 23:18 27.12.2019
1607 Clouds 3 1038 70 0 5.86 358 22:55 27.12.2019
1608 Clouds 2 1041 82 0 5.86 358 22:37 27.12.2019
1609 Clouds 2 1041 82 0 5.86 358 22:19 27.12.2019
1610 Clouds 2 1041 82 0 5.86 358 21:43 27.12.2019
1611 Clouds 2 1041 82 0 5.86 358 21:24 27.12.2019
1612 Clouds 2 1041 82 0 0.89 22 20:57 27.12.2019
1613 Clouds 2 1041 81 0 0.89 45 20:38 27.12.2019
1614 Clouds 3 1040 80 0 0.45 45 20:20 27.12.2019
1615 Clouds 3 1036 72 0 4.91 24 19:41 27.12.2019
1616 Clouds 3 1038 84 0 4.91 24 19:20 27.12.2019
1617 Clouds 3 1038 84 0 4.91 24 18:57 27.12.2019
1618 Clouds 3 1038 84 0 4.91 24 18:37 27.12.2019
1619 Clouds 3 1038 84 0 4.91 24 18:19 27.12.2019
1620 Clouds 3 1036 72 0 4.91 24 17:55 27.12.2019
1621 Clouds 3 1037 87 0 1.79 22 17:37 27.12.2019
1622 Clouds 3 1037 87 0 1.79 22 17:18 27.12.2019
1623 Clouds 3 1037 87 0 1.79 22 16:44 27.12.2019
1624 Clouds 3 1037 87 0 1.79 22 16:26 27.12.2019
1625 Clouds 3 1037 87 0 0.89 45 15:59 27.12.2019
1626 Clouds 3 1037 86 0 1.34 45 15:40 27.12.2019
1627 Clouds 3 1033 76 0 6.83 31 15:20 27.12.2019
1628 Clouds 3 1033 76 0 6.83 31 14:57 27.12.2019
1629 Clouds 3 1033 76 0 6.83 31 14:38 27.12.2019
1630 Snow 3 1031 78 0 7.61 37 14:20 27.12.2019
1631 Snow 3 1031 78 0 7.61 37 13:48 27.12.2019
1632 Snow 3 1034 89 0 7.61 37 13:25 27.12.2019
1633 Snow 3 1034 89 0 6.39 34 12:58 27.12.2019
1634 Snow 3 1034 89 0 6.39 34 12:39 27.12.2019
1635 Snow 3 1034 89 0 6.39 34 12:21 27.12.2019
1636 Snow 3 1034 88 0 6.39 34 11:44 27.12.2019
1637 Snow 3 1034 88 0 0.89 45 11:24 27.12.2019
1638 Rain 3 1033 91 0 0.45 22 10:56 27.12.2019
1639 Rain 3 1033 91 0 0.45 22 10:38 27.12.2019
1640 Rain 3 1033 91 0 0.45 22 10:20 27.12.2019
1641 Rain 3 1033 91 0 0.45 22 09:43 27.12.2019
1642 Rain 3 1031 91 0 0.45 45 09:21 27.12.2019
1643 Rain 3 1031 91 0 0.45 45 08:58 27.12.2019
1644 Rain 3 1031 91 0 0.45 45 08:36 27.12.2019
1645 Clouds 3 1031 91 0 0.45 45 07:52 27.12.2019
1646 Clouds 3 1030 90 0 0.45 22 07:33 27.12.2019
1647 Clouds 3 1030 89 0 6.41 18 06:38 27.12.2019
1648 Clouds 2 1030 88 0 0.45 315 05:38 27.12.2019
1649 Clouds 2 1029 87 0 5.17 28 03:47 27.12.2019
1650 Clouds 2 1029 87 0 5.17 28 03:47 27.12.2019
1651 Clouds 2 1029 86 0 0.89 0 02:23 27.12.2019
1652 Clouds 3 1028 87 0 1.34 22 01:42 27.12.2019
1653 Clouds 3 1028 87 0 1.34 22 01:20 27.12.2019
1654 Clouds 3 1028 88 0 0.89 22 00:46 27.12.2019
1655 Clouds 3 1028 88 0 0.45 45 00:24 27.12.2019
1656 Clouds 3 1028 88 0 5.12 7 23:42 26.12.2019
1657 Clouds 3 1028 87 0 5.12 7 23:24 26.12.2019
1658 Clouds 4 1027 85 0 5.09 351 22:58 26.12.2019
1659 Clouds 4 1027 84 0 5.09 351 22:38 26.12.2019
1660 Clouds 4 1027 87 0 5.09 351 22:18 26.12.2019
1661 Clouds 4 1027 88 0 5.09 351 21:39 26.12.2019
1662 Clouds 4 1027 88 0 5.09 351 21:21 26.12.2019
1663 Clouds 4 1027 88 0 5.09 351 20:54 26.12.2019
1664 Clouds 4 1027 88 0 5.09 351 20:36 26.12.2019
1665 Clouds 4 1027 88 0 5.23 342 20:18 26.12.2019
1666 Clouds 4 1027 88 0 5.23 342 20:18 26.12.2019
1667 Clouds 4 1026 88 0 5.23 342 19:54 26.12.2019
1668 Clouds 4 1026 88 0 0.45 315 19:36 26.12.2019
1669 Clouds 4 1026 88 0 0.45 315 19:18 26.12.2019
1670 Clouds 4 1026 88 0 0.45 315 19:18 26.12.2019
1671 Clouds 4 1026 87 0 5.23 342 18:55 26.12.2019
1672 Clouds 4 1026 88 0 5.23 342 18:36 26.12.2019
1673 Clouds 4 1026 87 0 5.23 342 18:18 26.12.2019
1674 Clouds 4 1026 87 0 5.23 342 17:41 26.12.2019
1675 Clouds 4 1026 87 0 0.45 0 17:21 26.12.2019
1676 Clouds 4 1026 87 0 4.29 324 16:49 26.12.2019
1677 Clouds 4 1026 87 0 4.29 324 16:26 26.12.2019
1678 Clouds 5 1026 87 0 4.29 324 15:57 26.12.2019
1679 Clouds 5 1026 87 0 4.29 324 15:38 26.12.2019
1680 Clouds 5 1025 86 0 0.89 315 15:19 26.12.2019
1681 Clouds 5 1025 86 0 0.45 315 14:41 26.12.2019
1682 Clouds 5 1025 87 0 4.29 324 14:23 26.12.2019
1683 Clouds 6 1025 87 0 0.89 292 13:55 26.12.2019
1684 Clouds 6 1025 88 0 0.89 315 13:36 26.12.2019
1685 Clouds 6 1025 89 0 0.89 315 13:18 26.12.2019
1686 Clouds 6 1025 90 0 0.45 315 12:45 26.12.2019
1687 Clouds 6 1025 91 0 1.79 292 12:25 26.12.2019
1688 Clouds 6 1025 92 0 0.89 315 11:59 26.12.2019
1689 Clouds 6 1025 93 0 0.89 315 11:40 26.12.2019
1690 Clouds 6 1025 93 0 0.45 292 11:22 26.12.2019
1691 Clouds 5 1025 93 0 0.45 292 10:51 26.12.2019
1692 Clouds 5 1025 93 0 0.45 292 10:27 26.12.2019
1693 Clouds 5 1025 93 0 0.45 270 09:59 26.12.2019
1694 Clouds 5 1025 93 0 0.89 270 09:41 26.12.2019
1695 Clouds 4 1025 93 0 0.45 292 09:22 26.12.2019
1696 Clouds 4 1024 93 0 6.38 305 08:40 26.12.2019
1697 Clouds 4 1024 93 0 6.91 296 08:21 26.12.2019
1698 Clouds 4 1024 93 0 0.45 292 07:46 26.12.2019
1699 Clouds 4 1024 93 0 0.45 292 07:26 26.12.2019
1700 Clouds 4 1024 93 0 6.75 295 06:44 26.12.2019
1701 Clouds 4 1024 93 0 0.45 292 06:25 26.12.2019
1702 Clouds 4 1024 93 0 0.89 292 05:43 26.12.2019
1703 Clouds 4 1024 93 0 0.89 292 05:43 26.12.2019
1704 Clear 4 1024 93 0 0.45 270 04:38 26.12.2019
1705 Clear 4 1024 92 0 0.45 292 03:46 26.12.2019
1706 Clear 4 1024 92 0 7.82 286 02:49 26.12.2019
1707 Clear 4 1024 92 0 0.45 292 02:31 26.12.2019
1708 Clear 4 1024 92 0 0.45 292 02:31 26.12.2019
1709 Clouds 4 1024 92 0 0.45 292 01:45 26.12.2019
1710 Clouds 4 1024 92 0 0.45 292 01:26 26.12.2019
1711 Clouds 4 1024 91 0 0.45 292 00:48 26.12.2019
1712 Clouds 4 1023 91 0 8.37 281 00:24 26.12.2019
1713 Clouds 4 1023 91 0 8.37 281 00:24 26.12.2019
1714 Clouds 4 1023 91 0 0.45 247 23:58 25.12.2019
1715 Clouds 4 1023 91 0 8.37 281 23:38 25.12.2019
1716 Clouds 4 1023 90 0 5.79 277 23:20 25.12.2019
1717 Clouds 4 1023 91 0 0.45 292 22:57 25.12.2019
1718 Clouds 4 1023 91 0 0.45 292 22:38 25.12.2019
1719 Clouds 4 1023 91 0 0.45 292 22:38 25.12.2019
1720 Clouds 4 1023 91 0 1.34 315 22:19 25.12.2019
1721 Clouds 4 1023 91 0 1.34 315 21:57 25.12.2019
1722 Clouds 4 1023 91 0 1.34 315 21:39 25.12.2019
1723 Clouds 4 1023 92 0 0.45 315 21:19 25.12.2019
1724 Clouds 4 1022 92 0 1.34 315 20:54 25.12.2019
1725 Clouds 4 1022 92 0 0.45 337 20:36 25.12.2019
1726 Rain 4 1022 92 0 0.89 315 20:18 25.12.2019
1727 Rain 5 1022 92 0 1.34 292 19:42 25.12.2019
1728 Rain 5 1022 93 0 0.45 315 19:23 25.12.2019
1729 Rain 5 1022 93 0 0.45 315 18:58 25.12.2019
1730 Rain 5 1022 93 0 1.34 292 18:36 25.12.2019
1731 Rain 5 1021 92 0 0.89 315 18:18 25.12.2019
1732 Rain 6 1021 92 0 0.45 292 17:40 25.12.2019
1733 Clouds 6 1021 92 0 5.21 285 17:19 25.12.2019
1734 Clouds 6 1021 92 0 0.45 315 16:57 25.12.2019
1735 Clouds 6 1021 92 0 0.45 315 16:37 25.12.2019
1736 Clouds 6 1020 92 0 0.45 315 16:18 25.12.2019
1737 Clouds 6 1020 92 0 5.21 285 15:57 25.12.2019
1738 Clouds 6 1020 92 0 0.45 315 15:38 25.12.2019
1739 Clouds 6 1020 93 0 5.21 285 15:20 25.12.2019
1740 Clouds 6 1019 93 0 5.21 285 14:57 25.12.2019
1741 Clouds 6 1019 93 0 5.21 285 14:39 25.12.2019
1742 Clouds 6 1019 93 0 0.89 315 14:20 25.12.2019
1743 Clouds 6 1018 93 0 0.45 315 13:44 25.12.2019
1744 Clouds 6 1018 93 0 4.11 290 13:21 25.12.2019
1745 Clouds 6 1018 93 0 0.89 315 12:57 25.12.2019
1746 Clouds 6 1018 93 0 3.45 287 12:38 25.12.2019
1747 Clouds 6 1018 93 0 3.45 287 12:38 25.12.2019
1748 Clouds 5 1018 93 0 0.45 315 12:19 25.12.2019
1749 Clouds 5 1017 92 0 0.45 315 11:43 25.12.2019
1750 Clouds 5 1017 92 0 3.45 287 11:22 25.12.2019
1751 Clouds 5 1017 92 0 0.45 315 10:59 25.12.2019
1752 Clouds 5 1017 92 0 0.45 292 10:37 25.12.2019
1753 Clouds 5 1016 92 0 0.89 315 10:19 25.12.2019
1754 Clouds 5 1016 92 0 1.75 331 09:45 25.12.2019
1755 Clouds 4 1016 92 0 1.75 331 09:27 25.12.2019
1756 Clouds 4 1015 92 0 1.75 331 08:47 25.12.2019
1757 Clouds 4 1015 92 0 1.75 331 08:28 25.12.2019
1758 Rain 4 1014 92 0 2.62 236 07:49 25.12.2019
1759 Rain 4 1014 92 0 2.62 236 07:31 25.12.2019
1760 Rain 4 1014 91 0 2.62 236 06:49 25.12.2019
1761 Rain 4 1014 91 0 2.62 236 06:22 25.12.2019
1762 Rain 4 1013 91 0 0.34 206 05:18 25.12.2019
1763 Rain 4 1013 91 0 0.34 206 04:39 25.12.2019
1764 Rain 4 1013 91 0 0.34 206 04:20 25.12.2019
1765 Rain 4 1012 91 0 0.34 206 03:41 25.12.2019
1766 Rain 4 1012 91 0 0.34 206 02:51 25.12.2019
1767 Rain 4 1012 91 0 1.63 110 02:20 25.12.2019
1768 Rain 4 1011 91 0 0.5 176 01:25 25.12.2019
1769 Rain 4 1011 91 0 0.5 176 00:54 25.12.2019
1770 Rain 4 1011 91 0 0.5 176 00:32 25.12.2019
1771 Rain 4 1011 91 0 0.5 176 23:57 24.12.2019
1772 Rain 4 1011 91 0 0.5 176 23:38 24.12.2019
1773 Rain 4 1011 91 0 0.45 157 23:20 24.12.2019
1774 Rain 4 1010 91 0 0.45 157 22:41 24.12.2019
1775 Rain 4 1010 91 0 0.45 157 22:21 24.12.2019
1776 Rain 4 1010 90 0 2.6 156 21:44 24.12.2019
1777 Rain 4 1010 90 0 2.6 156 21:44 24.12.2019
1778 Rain 4 1010 90 0 2.6 156 21:23 24.12.2019
1779 Rain 4 1010 90 0 2.6 156 20:59 24.12.2019
1780 Rain 4 1010 90 0 2.6 156 20:41 24.12.2019
1781 Clouds 4 1010 90 0 3.06 171 20:19 24.12.2019
1782 Clouds 4 1010 90 0 2.91 181 20:19 24.12.2019
1783 Clouds 4 1010 90 0 0.45 202 19:45 24.12.2019
1784 Clouds 5 1010 90 0 3.06 171 19:22 24.12.2019
1785 Clouds 5 1010 90 0 3.06 171 18:58 24.12.2019
1786 Clouds 4 1010 90 0 3.06 171 18:40 24.12.2019
1787 Clouds 5 1010 89 0 0.45 202 18:18 24.12.2019
1788 Clouds 5 1010 89 0 3.06 171 17:42 24.12.2019
1789 Clouds 5 1010 89 0 4.18 206 17:21 24.12.2019
1790 Clouds 6 1010 89 0 4.18 206 16:58 24.12.2019
1791 Clouds 6 1010 89 0 4.18 206 16:58 24.12.2019
1792 Clouds 6 1010 89 0 4.18 206 16:39 24.12.2019
1793 Clouds 6 1010 89 0 4.18 206 16:39 24.12.2019
1794 Clouds 6 1010 89 0 4.18 206 16:20 24.12.2019
1795 Clouds 6 1011 89 0 4.18 206 15:57 24.12.2019
1796 Clouds 6 1010 89 0 0.45 202 15:37 24.12.2019
1797 Clouds 6 1011 90 0 0.45 202 15:19 24.12.2019
1798 Clouds 7 1011 90 0 0.45 202 14:58 24.12.2019
1799 Clouds 7 1011 90 0 0.89 202 14:39 24.12.2019
1800 Clouds 7 1011 90 0 0.89 202 14:21 24.12.2019
1801 Clouds 7 1011 90 0 0.89 202 14:21 24.12.2019
1802 Clouds 7 1011 90 0 0.45 225 13:56 24.12.2019
1803 Clouds 7 1011 90 0 0.89 225 13:37 24.12.2019
1804 Clouds 7 1012 90 0 0.45 225 13:19 24.12.2019
1805 Clouds 7 1012 90 0 0.45 225 13:19 24.12.2019
1806 Clouds 7 1012 90 0 0.89 225 12:56 24.12.2019
1807 Clouds 7 1012 90 0 0.89 225 12:56 24.12.2019
1808 Clouds 7 1012 90 0 0.45 225 12:37 24.12.2019
1809 Clouds 7 1012 90 0 0.89 225 12:19 24.12.2019
1810 Clouds 7 1012 90 0 0.89 225 12:19 24.12.2019
1811 Clouds 7 1012 90 0 0.89 225 12:19 24.12.2019
1812 Clouds 6 1012 91 0 0.45 225 11:56 24.12.2019
1813 Clouds 6 1013 91 0 0.45 225 11:37 24.12.2019
1814 Clouds 6 1013 91 0 0.45 225 11:37 24.12.2019
1815 Clouds 6 1013 91 0 0.45 225 11:19 24.12.2019
1816 Clouds 6 1013 91 0 0.89 225 10:56 24.12.2019
1817 Clouds 6 1013 91 0 7.73 233 10:37 24.12.2019
1818 Clouds 6 1013 91 0 0.89 247 10:19 24.12.2019
1819 Clouds 6 1013 91 0 0.89 225 09:55 24.12.2019
1820 Clouds 6 1014 91 0 0.89 225 09:37 24.12.2019
1821 Clouds 6 1013 91 0 0.45 247 09:19 24.12.2019
1822 Clouds 6 1014 91 0 7.73 233 08:46 24.12.2019
1823 Clouds 6 1014 91 0 0.89 225 08:24 24.12.2019
1824 Clouds 6 1014 91 0 0.45 270 07:46 24.12.2019
1825 Clouds 6 1013 91 0 0.45 247 07:27 24.12.2019
1826 Clouds 6 1014 91 0 8.88 248 06:59 24.12.2019
1827 Clouds 6 1014 91 0 8.88 248 06:39 24.12.2019
1828 Clouds 6 1014 91 0 0.45 270 06:19 24.12.2019
1829 Clouds 6 1013 92 0 8.88 248 05:49 24.12.2019
1830 Clouds 6 1013 92 0 0.89 247 05:18 24.12.2019
1831 Clouds 6 1013 92 0 0.45 292 03:55 24.12.2019
1832 Clouds 6 1013 91 0 0.89 247 03:33 24.12.2019
1833 Clouds 5 1013 91 0 0.45 270 02:28 24.12.2019
1834 Clouds 4 1012 90 0 0.45 270 01:53 24.12.2019
1835 Clouds 5 1012 90 0 8.4 252 01:25 24.12.2019
1836 Clouds 5 1012 90 0 8.4 252 00:56 24.12.2019
1837 Clouds 5 1012 90 0 0.45 270 00:37 24.12.2019
1838 Clouds 6 1012 90 0 8.4 252 00:19 24.12.2019
1839 Clouds 6 1011 90 0 0.45 270 23:42 23.12.2019
1840 Clouds 6 1011 90 0 0.89 270 23:24 23.12.2019
1841 Clouds 6 1011 90 0 0.45 270 22:57 23.12.2019
1842 Clouds 6 1011 90 0 0.89 270 22:38 23.12.2019
1843 Clouds 6 1010 90 0 0.45 270 22:20 23.12.2019
1844 Clouds 6 1010 90 0 8.79 252 21:56 23.12.2019
1845 Clouds 6 1010 90 0 8.79 252 21:37 23.12.2019
1846 Clouds 6 1010 90 0 8.79 252 21:37 23.12.2019
1847 Clouds 6 1010 90 0 0.45 292 21:19 23.12.2019
1848 Clouds 6 1010 90 0 0.45 292 20:58 23.12.2019
1849 Clouds 6 1009 90 0 8.79 252 20:40 23.12.2019
1850 Clouds 6 1009 90 0 8.41 240 20:19 23.12.2019
1851 Clouds 6 1009 90 0 8.41 240 19:58 23.12.2019
1852 Clouds 6 1009 90 0 8.41 240 19:40 23.12.2019
1853 Clouds 6 1008 90 0 8.41 240 19:21 23.12.2019
1854 Clouds 6 1008 90 0 8.41 240 18:58 23.12.2019
1855 Clouds 7 1008 90 0 0.45 270 18:39 23.12.2019
1856 Clouds 7 1008 91 0 8.41 240 18:20 23.12.2019
1857 Clouds 7 1008 91 0 0.45 270 17:59 23.12.2019
1858 Clouds 7 1007 91 0 8.41 240 17:40 23.12.2019
1859 Rain 7 1007 91 0 0.45 270 17:19 23.12.2019
1860 Rain 7 1007 91 0 8.85 248 16:57 23.12.2019
1861 Rain 6 1007 91 0 8.85 248 16:39 23.12.2019
1862 Rain 6 1006 91 0 0.45 292 16:19 23.12.2019
1863 Rain 6 1006 91 0 0.45 292 16:19 23.12.2019
1864 Rain 7 1006 91 0 0.45 270 15:58 23.12.2019
1865 Rain 7 1006 91 0 0.45 292 15:37 23.12.2019
1866 Rain 7 1005 91 0 0.45 292 15:19 23.12.2019
1867 Rain 7 1001 86 0 8.85 248 14:56 23.12.2019
1868 Rain 7 1005 92 0 0.89 270 14:38 23.12.2019
1869 Clouds 7 1004 92 0 7.8 248 14:19 23.12.2019
1870 Clouds 7 1004 92 0 7.8 248 14:19 23.12.2019
1871 Clouds 7 1004 93 0 0.89 270 13:57 23.12.2019
1872 Clouds 7 1004 93 0 0.45 292 13:39 23.12.2019
1873 Clouds 7 1004 94 0 0.89 292 13:20 23.12.2019
1874 Rain 7 1003 94 0 1.34 315 12:55 23.12.2019
1875 Rain 7 1003 94 0 0.89 315 12:36 23.12.2019
1876 Rain 7 1003 94 0 0.89 292 12:18 23.12.2019
1877 Rain 6 1002 94 0 0.89 292 11:42 23.12.2019
1878 Rain 6 1002 94 0 0.89 292 11:42 23.12.2019
1879 Rain 6 1002 94 0 0.45 292 11:24 23.12.2019
1880 Rain 6 1002 94 0 4.95 198 10:56 23.12.2019
1881 Rain 6 1002 94 0 0.89 225 10:38 23.12.2019
1882 Rain 5 1002 94 0 0.45 180 10:20 23.12.2019
1883 Rain 5 1002 94 0 0.45 180 09:58 23.12.2019
1884 Rain 5 1002 94 0 0.89 180 09:39 23.12.2019
1885 Rain 5 1001 94 0 0.45 157 09:20 23.12.2019
1886 Rain 4 1001 94 0 0.45 157 08:55 23.12.2019
1887 Rain 4 1001 94 0 0.45 157 08:37 23.12.2019
1888 Rain 4 1000 94 0 0.45 157 08:18 23.12.2019
1889 Rain 4 1000 94 0 0.45 157 07:43 23.12.2019
1890 Rain 4 1000 94 0 0.45 157 07:20 23.12.2019
1891 Rain 4 999 94 0 0.45 135 06:51 23.12.2019
1892 Rain 4 999 94 0 0.45 135 06:24 23.12.2019
1893 Rain 4 998 94 0 0.45 135 05:49 23.12.2019
1894 Clouds 4 998 94 0 5.64 143 05:22 23.12.2019
1895 Clouds 4 998 94 0 0.45 157 04:27 23.12.2019
1896 Clouds 4 997 94 0 0.45 157 02:56 23.12.2019
1897 Clouds 4 997 94 0 0.89 157 02:32 23.12.2019
1898 Rain 4 996 94 0 0.89 135 01:56 23.12.2019
1899 Rain 4 997 94 0 0.89 135 01:38 23.12.2019
1900 Rain 4 996 94 0 1.34 157 01:19 23.12.2019
1901 Rain 4 996 94 0 0.89 135 00:41 23.12.2019
1902 Rain 3 996 94 0 1.34 135 00:19 23.12.2019
1903 Rain 3 996 94 0 0.45 135 23:39 22.12.2019
1904 Rain 3 996 94 0 0.45 135 23:39 22.12.2019
1905 Rain 4 996 94 0 0.45 135 23:21 22.12.2019
1906 Rain 4 996 94 0 0.89 157 22:58 22.12.2019
1907 Rain 4 996 94 0 0.89 135 22:39 22.12.2019
1908 Rain 4 995 94 0 0.89 135 22:19 22.12.2019
1909 Rain 4 995 94 0 0.89 135 21:57 22.12.2019
1910 Rain 4 995 94 0 1.34 135 21:39 22.12.2019
1911 Rain 4 995 94 0 0.89 135 21:21 22.12.2019
1912 Rain 4 995 94 0 0.89 135 20:58 22.12.2019
1913 Rain 4 995 94 0 1.34 135 20:38 22.12.2019
1914 Clouds 4 995 94 0 1.34 135 20:18 22.12.2019
1915 Clouds 4 995 94 0 1.34 135 19:56 22.12.2019
1916 Clouds 4 995 94 0 1.34 112 19:37 22.12.2019
1917 Clouds 4 995 94 0 0.45 135 19:19 22.12.2019
1918 Clouds 4 995 94 0 0.45 135 18:41 22.12.2019
1919 Clouds 4 995 94 0 0.89 135 18:23 22.12.2019
1920 Clouds 4 995 94 0 0.89 135 17:56 22.12.2019
1921 Clouds 4 994 94 0 1.34 157 17:38 22.12.2019
1922 Clouds 4 994 94 0 0.89 135 17:19 22.12.2019
1923 Clouds 4 994 94 0 0.89 135 16:57 22.12.2019
1924 Clouds 4 994 94 0 0.89 135 16:38 22.12.2019
1925 Clouds 4 994 94 0 1.34 135 16:20 22.12.2019
1926 Clouds 4 994 94 0 1.34 135 15:56 22.12.2019
1927 Clouds 4 994 94 0 1.34 135 15:38 22.12.2019
1928 Clouds 4 994 94 0 0.89 135 15:19 22.12.2019
1929 Clouds 4 994 94 0 1.79 135 14:55 22.12.2019
1930 Clouds 3 994 94 0 0.89 135 14:37 22.12.2019
1931 Clouds 3 994 94 0 0.89 157 14:18 22.12.2019
1932 Clouds 3 994 94 0 1.79 135 13:55 22.12.2019
1933 Clouds 3 994 94 0 1.79 135 13:36 22.12.2019
1934 Clouds 3 994 94 0 1.79 135 13:36 22.12.2019
1935 Clouds 3 994 94 0 0.89 135 13:18 22.12.2019
1936 Clouds 3 994 94 0 0.89 135 12:56 22.12.2019
1937 Clouds 3 994 94 0 1.34 157 12:37 22.12.2019
1938 Clouds 3 994 94 0 1.34 135 12:18 22.12.2019
1939 Clouds 3 994 94 0 1.79 135 11:56 22.12.2019
1940 Clouds 3 994 94 0 1.34 135 11:38 22.12.2019
1941 Clouds 3 994 94 0 1.34 135 11:18 22.12.2019
1942 Clouds 3 994 94 0 1.34 135 10:55 22.12.2019
1943 Clouds 3 994 94 0 1.34 135 10:36 22.12.2019
1944 Clouds 3 994 94 0 1.34 135 10:18 22.12.2019
1945 Clouds 3 994 94 0 0.89 135 09:57 22.12.2019
1946 Clouds 3 994 94 0 0.89 135 09:38 22.12.2019
1947 Clouds 2 994 94 0 1.34 157 09:20 22.12.2019
1948 Clouds 2 993 94 0 0.89 135 08:42 22.12.2019
1949 Clouds 2 993 94 0 1.34 135 08:22 22.12.2019
1950 Clouds 2 993 94 0 0.89 135 07:43 22.12.2019
1951 Clouds 2 993 93 0 0.89 135 07:21 22.12.2019
1952 Clouds 1 993 93 0 0.89 135 06:52 22.12.2019
1953 Clouds 1 993 93 0 0.89 135 06:25 22.12.2019
1954 Clouds 5 988 88 0 6.29 146 05:32 22.12.2019
1955 Clouds 5 989 90 0 6.23 148 04:46 22.12.2019
1956 Clouds 5 989 90 0 6.23 148 04:25 22.12.2019
1957 Clouds 5 989 90 0 6.23 148 02:45 22.12.2019
1958 Clouds 5 990 90 0 5.26 167 02:20 22.12.2019
1959 Clouds 2 994 91 0 0.89 135 01:31 22.12.2019
1960 Clouds 2 994 91 0 0.45 135 00:56 22.12.2019
1961 Clouds 2 994 91 0 0.45 135 00:36 22.12.2019
1962 Clouds 2 995 91 0 0.45 135 00:18 22.12.2019
1963 Clouds 2 995 91 0 0.45 135 23:40 21.12.2019
1964 Clear 3 995 91 0 0.45 135 23:21 21.12.2019
1965 Clear 3 995 91 0 0.89 135 22:57 21.12.2019
1966 Clear 3 995 91 0 0.45 157 22:37 21.12.2019
1967 Clear 3 995 91 0 0.45 157 22:18 21.12.2019
1968 Clear 3 995 91 0 0.45 157 21:54 21.12.2019
1969 Clear 3 995 90 0 0.45 157 21:36 21.12.2019
1970 Clear 3 995 90 0 0.45 157 21:18 21.12.2019
1971 Clear 3 995 90 0 4.93 170 20:56 21.12.2019
1972 Clear 4 995 90 0 4.93 170 20:37 21.12.2019
1973 Clouds 4 995 90 0 5.55 193 20:19 21.12.2019
1974 Clouds 4 995 90 0 5.55 193 19:55 21.12.2019
1975 Clouds 4 996 90 0 0.45 180 19:36 21.12.2019
1976 Clouds 5 996 91 0 0.45 180 19:18 21.12.2019
1977 Clouds 5 996 90 0 0.89 180 18:41 21.12.2019
1978 Clouds 5 996 90 0 0.89 180 18:23 21.12.2019
1979 Clouds 5 996 90 0 0.45 180 17:56 21.12.2019
1980 Clouds 6 996 90 0 0.45 180 17:38 21.12.2019
1981 Clouds 6 996 90 0 0.89 180 17:20 21.12.2019
1982 Clouds 6 997 89 0 0.45 180 16:57 21.12.2019
1983 Clouds 6 997 89 0 0.45 180 16:38 21.12.2019
1984 Clouds 6 996 90 0 0.45 202 16:18 21.12.2019
1985 Clouds 7 996 90 0 3.51 219 15:56 21.12.2019
1986 Clouds 8 996 90 0 3.51 219 15:37 21.12.2019
1987 Clouds 8 996 90 0 3.51 219 15:18 21.12.2019
1988 Clouds 8 997 90 0 0.45 225 14:43 21.12.2019
1989 Clouds 8 997 90 0 0.45 225 14:24 21.12.2019
1990 Clouds 8 997 91 0 0.89 225 13:59 21.12.2019
1991 Clouds 8 997 91 0 0.89 225 13:40 21.12.2019
1992 Clouds 8 997 91 0 0.45 225 13:20 21.12.2019
1993 Clouds 8 997 91 0 0.89 225 12:57 21.12.2019
1994 Clouds 8 997 91 0 0.45 225 12:39 21.12.2019
1995 Clouds 8 997 92 0 0.89 225 12:21 21.12.2019
1996 Clouds 8 996 92 0 0.45 225 11:57 21.12.2019
1997 Clouds 8 997 92 0 5.22 240 11:39 21.12.2019
1998 Clouds 8 997 93 0 6.35 240 11:21 21.12.2019
1999 Clouds 7 996 92 0 6.35 240 10:42 21.12.2019
2000 Clouds 7 996 92 0 6.35 240 10:23 21.12.2019
2001 Clouds 7 996 92 0 6.35 240 09:59 21.12.2019
2002 Clouds 7 996 92 0 6.35 240 09:41 21.12.2019
2003 Clouds 7 996 92 0 6.35 240 09:20 21.12.2019
2004 Clouds 7 996 92 0 0.45 270 08:56 21.12.2019
2005 Clouds 7 996 93 0 0.45 270 08:37 21.12.2019
2006 Clouds 7 996 93 0 7.47 253 08:18 21.12.2019
2007 Clouds 7 995 92 0 7.47 253 07:41 21.12.2019
2008 Clouds 7 995 92 0 7.47 253 07:21 21.12.2019
2009 Clouds 7 995 92 0 7.47 253 06:43 21.12.2019
2010 Clouds 7 995 92 0 7.47 253 06:25 21.12.2019
2011 Clouds 7 995 92 0 7.47 253 05:47 21.12.2019
2012 Clouds 7 995 92 0 7.47 253 05:47 21.12.2019
2013 Rain 7 994 93 0 0.89 292 04:58 21.12.2019
2014 Rain 7 994 92 0 0.45 225 03:57 21.12.2019
2015 Rain 7 994 92 0 0.89 225 02:51 21.12.2019
2016 Clouds 7 993 92 0 0.89 202 01:57 21.12.2019
2017 Clouds 7 993 92 0 1.34 202 01:27 21.12.2019
2018 Clouds 7 993 92 0 0.89 180 00:52 21.12.2019
2019 Clouds 6 993 93 0 1.34 180 00:32 21.12.2019
2020 Clouds 6 993 92 0 0.89 180 23:59 20.12.2019
2021 Clouds 6 993 92 0 0.45 180 23:38 20.12.2019
2022 Clouds 6 993 93 0 0.45 180 23:18 20.12.2019
2023 Clouds 6 993 93 0 0.89 180 22:41 20.12.2019
2024 Clouds 6 994 93 0 0.89 202 22:21 20.12.2019
2025 Clouds 6 994 93 0 0.89 180 21:59 20.12.2019
2026 Clouds 6 994 93 0 0.89 180 21:40 20.12.2019
2027 Clouds 6 994 93 0 0.89 180 21:20 20.12.2019
2028 Clouds 6 994 93 0 0.45 157 20:55 20.12.2019
2029 Clouds 6 994 93 0 0.45 157 20:36 20.12.2019
2030 Clouds 6 994 93 0 0.45 157 20:18 20.12.2019
2031 Clouds 6 995 93 0 5.4 161 19:41 20.12.2019
2032 Clouds 6 994 93 0 0.45 157 19:20 20.12.2019
2033 Clouds 6 994 93 0 0.89 135 18:58 20.12.2019
2034 Clouds 6 995 93 0 0.89 135 18:38 20.12.2019
2035 Clouds 5 995 93 0 0.89 135 18:20 20.12.2019
2036 Clouds 5 995 93 0 0.45 135 17:54 20.12.2019
2037 Clouds 5 996 93 0 0.89 157 17:36 20.12.2019
2038 Clear 6 996 93 0 0.89 135 17:18 20.12.2019
2039 Clear 6 996 93 0 1.34 135 16:40 20.12.2019
2040 Clear 5 997 93 0 0.89 135 16:20 20.12.2019
2041 Clear 5 997 93 0 0.89 135 15:57 20.12.2019
2042 Clear 6 997 93 0 1.34 157 15:39 20.12.2019
2043 Clear 6 997 93 0 0.45 157 15:20 20.12.2019
2044 Clear 6 998 93 0 0.89 157 14:59 20.12.2019
2045 Clear 6 998 93 0 0.45 157 14:40 20.12.2019
2046 Clear 6 998 93 0 0.45 135 14:22 20.12.2019
2047 Clear 6 998 93 0 0.89 135 13:56 20.12.2019
2048 Clear 7 999 93 0 0.89 135 13:36 20.12.2019
2049 Clear 6 999 93 0 1.34 157 13:18 20.12.2019
2050 Clear 6 999 93 0 0.45 157 12:55 20.12.2019
2051 Clear 6 1000 93 0 0.89 180 12:36 20.12.2019
2052 Clear 6 1000 93 0 0.89 180 12:18 20.12.2019
2053 Clear 6 1001 93 0 0.89 157 11:56 20.12.2019
2054 Clear 6 1001 93 0 0.89 157 11:37 20.12.2019
2055 Clear 6 1001 93 0 0.89 135 11:18 20.12.2019
2056 Clear 6 1001 93 0 1.34 135 10:54 20.12.2019
2057 Clear 5 1002 93 0 0.89 157 10:36 20.12.2019
2058 Clear 5 1003 93 0 0.89 157 10:18 20.12.2019
2059 Clear 5 1003 93 0 0.89 135 09:41 20.12.2019
2060 Clear 5 1003 93 0 0.45 157 09:21 20.12.2019
2061 Clear 5 1003 93 0 0.45 157 09:21 20.12.2019
2062 Clear 5 1003 93 0 0.89 157 08:54 20.12.2019
2063 Clear 5 1004 93 0 0.45 180 08:36 20.12.2019
2064 Clouds 5 1005 93 0 0.89 180 08:18 20.12.2019
2065 Clouds 5 1005 93 0 0.89 180 07:41 20.12.2019
2066 Clouds 5 1004 93 0 0.45 157 07:23 20.12.2019
2067 Clouds 5 1005 93 0 0.89 157 06:55 20.12.2019
2068 Clouds 5 1005 93 0 0.89 157 06:36 20.12.2019
2069 Clouds 5 1005 93 0 0.89 157 06:18 20.12.2019
2070 Clouds 5 1006 93 0 1.34 157 05:45 20.12.2019
2071 Clouds 5 1007 93 0 0.89 135 04:46 20.12.2019
2072 Clouds 5 1009 93 0 1.34 180 03:33 20.12.2019
2073 Clouds 5 1009 93 0 0.45 157 02:45 20.12.2019
2074 Clouds 5 1010 92 0 1.34 157 01:55 20.12.2019
2075 Clouds 5 1010 92 0 0.89 135 01:35 20.12.2019
2076 Clouds 5 1010 93 0 0.89 135 00:54 20.12.2019
2077 Clouds 5 1011 93 0 0.89 135 00:35 20.12.2019
2078 Clouds 5 1012 93 0 0.45 157 23:57 19.12.2019
2079 Clouds 5 1013 92 0 0.45 157 23:39 19.12.2019
2080 Clouds 5 1013 92 0 0.89 157 23:19 19.12.2019
2081 Clouds 5 1013 92 0 0.89 157 23:19 19.12.2019
2082 Clouds 4 1013 92 0 0.89 157 22:40 19.12.2019
2083 Clouds 4 1013 92 0 0.89 135 22:22 19.12.2019
2084 Clouds 4 1014 92 0 0.89 135 21:57 19.12.2019
2085 Clouds 4 1014 92 0 0.89 135 21:39 19.12.2019
2086 Clouds 5 1014 92 0 1.34 157 21:19 19.12.2019
2087 Clouds 5 1015 92 0 1.79 157 20:57 19.12.2019
2088 Clouds 5 1015 92 0 1.34 135 20:38 19.12.2019
2089 Clouds 5 1015 92 0 1.79 135 20:20 19.12.2019
2090 Clouds 5 1016 92 0 1.34 157 19:58 19.12.2019
2091 Clouds 5 1016 92 0 1.79 157 19:40 19.12.2019
2092 Clouds 5 1016 92 0 1.79 135 19:19 19.12.2019
2093 Clouds 5 1016 92 0 1.79 135 19:19 19.12.2019
2094 Clouds 5 1016 92 0 1.79 135 19:19 19.12.2019
2095 Clouds 5 1016 92 0 1.79 135 18:58 19.12.2019
2096 Clouds 5 1017 92 0 1.79 157 18:40 19.12.2019
2097 Clouds 5 1017 92 0 0.89 157 18:19 19.12.2019
2098 Clouds 5 1017 92 0 0.89 135 17:56 19.12.2019
2099 Clouds 5 1018 92 0 1.34 157 17:38 19.12.2019
2100 Clouds 5 1018 92 0 0.89 135 17:18 19.12.2019
2101 Clouds 5 1018 92 0 1.34 135 16:56 19.12.2019
2102 Clouds 5 1018 92 0 1.34 157 16:37 19.12.2019
2103 Clouds 5 1018 92 0 1.79 157 16:19 19.12.2019
2104 Clouds 5 1019 92 0 0.89 157 15:57 19.12.2019
2105 Clouds 5 1019 92 0 1.34 135 15:38 19.12.2019
2106 Clouds 5 1019 92 0 0.89 135 15:19 19.12.2019
2107 Clouds 6 1019 92 0 1.34 135 14:57 19.12.2019
2108 Clouds 6 1019 92 0 0.89 157 14:38 19.12.2019
2109 Clouds 6 1019 92 0 1.34 157 14:18 19.12.2019
2110 Clouds 6 1020 92 0 0.89 157 13:39 19.12.2019
2111 Clouds 6 1021 93 0 1.34 135 13:20 19.12.2019
2112 Clouds 6 1021 93 0 0.89 135 12:58 19.12.2019
2113 Clouds 6 1021 93 0 1.79 157 12:40 19.12.2019
2114 Clouds 6 1022 93 0 1.34 157 12:19 19.12.2019
2115 Clouds 5 1022 93 0 1.34 157 11:59 19.12.2019
2116 Clouds 5 1022 93 0 1.79 135 11:41 19.12.2019
2117 Clouds 5 1022 93 0 1.34 135 11:19 19.12.2019
2118 Clouds 4 1023 93 0 1.79 157 10:59 19.12.2019
2119 Clouds 4 1023 93 0 1.34 135 10:38 19.12.2019
2120 Clouds 4 1023 93 0 1.34 135 10:38 19.12.2019
2121 Clouds 3 1023 92 0 1.34 135 10:20 19.12.2019
2122 Clouds 3 1023 92 0 1.79 157 09:56 19.12.2019
2123 Clouds 2 1024 92 0 1.34 135 09:37 19.12.2019
2124 Clouds 2 1024 92 0 1.34 135 09:19 19.12.2019
2125 Clouds 6 1018 85 0 8.94 152 08:55 19.12.2019
2126 Clouds 6 1018 85 0 8.94 152 08:37 19.12.2019
2127 Clouds 2 1024 92 0 0.89 135 08:18 19.12.2019
2128 Clouds 2 1024 92 0 0.89 135 07:54 19.12.2019
2129 Clouds 2 1024 92 0 1.34 157 07:36 19.12.2019
2130 Clouds 2 1024 92 0 1.34 135 07:18 19.12.2019
2131 Clouds 2 1024 91 0 0.89 135 06:42 19.12.2019
2132 Clouds 1 1024 91 0 0.89 135 06:23 19.12.2019
2133 Clouds 2 1024 91 0 0.89 135 05:45 19.12.2019
2134 Clouds 2 1025 90 0 0.89 135 05:20 19.12.2019
2135 Clouds 2 1025 90 0 0.45 135 03:58 19.12.2019
2136 Clouds 2 1025 89 0 0.45 202 02:30 19.12.2019
2137 Clouds 2 1026 89 0 0.45 202 01:27 19.12.2019
2138 Clouds 2 1025 89 0 4.02 203 00:59 19.12.2019
2139 Clouds 2 1025 89 0 4.02 203 00:39 19.12.2019
2140 Clouds 2 1025 89 0 4.02 203 00:39 19.12.2019
2141 Clouds 2 1026 88 0 4.02 203 00:19 19.12.2019
2142 Clouds 2 1026 88 0 4.02 203 23:45 18.12.2019
2143 Clouds 2 1025 88 0 5.54 223 23:19 18.12.2019
2144 Clouds 2 1025 88 0 5.54 223 23:19 18.12.2019
2145 Clouds 2 1025 88 0 0.45 202 22:58 18.12.2019
2146 Clouds 3 1025 89 0 5.54 223 22:40 18.12.2019
2147 Clouds 2 1025 88 0 5.54 223 22:22 18.12.2019
2148 Clouds 2 1025 88 0 5.54 223 21:59 18.12.2019
2149 Clouds 2 1025 88 0 0.45 202 21:41 18.12.2019
2150 Clouds 2 1025 88 0 0.45 202 21:21 18.12.2019
2151 Clouds 2 1025 88 0 0.45 202 21:21 18.12.2019
2152 Clouds 2 1024 87 0 0.45 202 20:58 18.12.2019
2153 Clouds 3 1024 88 0 5.54 223 20:39 18.12.2019
2154 Clouds 3 1024 87 0 7.08 247 20:20 18.12.2019
2155 Clouds 3 1024 87 0 7.08 247 19:57 18.12.2019
2156 Clouds 3 1024 87 0 0.45 247 19:39 18.12.2019
2157 Clouds 3 1023 87 0 0.45 247 19:19 18.12.2019
2158 Clouds 4 1023 87 0 0.45 247 18:59 18.12.2019
2159 Clouds 4 1023 87 0 0.45 247 18:41 18.12.2019
2160 Clouds 4 1023 86 0 7.08 247 18:22 18.12.2019
2161 Clouds 4 1023 86 0 0.45 247 17:56 18.12.2019
2162 Clouds 4 1023 86 0 7.08 247 17:38 18.12.2019
2163 Clouds 4 1022 86 0 8.5 249 17:19 18.12.2019
2164 Clouds 5 1022 85 0 8.5 249 16:43 18.12.2019
2165 Clouds 5 1022 85 0 0.45 225 16:24 18.12.2019
2166 Clouds 6 1021 84 0 0.45 270 15:59 18.12.2019
2167 Clouds 6 1021 84 0 0.45 270 15:40 18.12.2019
2168 Clouds 6 1021 83 0 8.5 249 15:21 18.12.2019
2169 Clouds 7 1021 83 0 0.45 292 14:59 18.12.2019
2170 Clouds 7 1020 82 0 0.45 292 14:40 18.12.2019
2171 Clouds 7 1020 82 0 0.45 270 14:20 18.12.2019
2172 Clouds 7 1020 83 0 10.27 252 13:56 18.12.2019
2173 Clouds 7 1019 83 0 0.89 292 13:37 18.12.2019
2174 Clouds 7 1019 84 0 0.45 270 13:19 18.12.2019
2175 Clouds 7 1019 84 0 0.45 270 12:57 18.12.2019
2176 Clouds 8 1019 85 0 0.45 270 12:37 18.12.2019
2177 Clouds 7 1019 85 0 1.79 292 12:19 18.12.2019
2178 Clouds 7 1018 86 0 0.89 292 11:55 18.12.2019
2179 Clouds 7 1018 87 0 0.45 292 11:37 18.12.2019
2180 Clouds 6 1018 87 0 0.89 292 11:18 18.12.2019
2181 Clouds 6 1018 87 0 0.45 270 10:55 18.12.2019
2182 Clouds 6 1017 87 0 10.48 255 10:37 18.12.2019
2183 Clouds 6 1017 87 0 0.45 270 10:18 18.12.2019
2184 Clouds 6 1016 86 0 0.89 225 09:43 18.12.2019
2185 Clouds 6 1016 85 0 0.45 225 09:18 18.12.2019
2186 Clouds 6 1015 85 0 0.89 247 08:40 18.12.2019
2187 Rain 6 1014 84 0 0.89 315 08:21 18.12.2019
2188 Rain 7 1014 82 0 1.34 292 07:43 18.12.2019
2189 Rain 8 1013 83 0 1.79 292 07:23 18.12.2019
2190 Rain 8 1012 82 0 1.79 292 06:55 18.12.2019
2191 Rain 9 1011 82 0 2.24 292 06:27 18.12.2019
2192 Rain 11 1010 85 0 1.34 270 05:47 18.12.2019
2193 Rain 11 1008 86 0 0.89 225 04:57 18.12.2019
2194 Rain 11 1007 82 0 2.24 225 02:55 18.12.2019
2195 Rain 10 1007 82 0 1.79 225 02:36 18.12.2019
2196 Clouds 9 1006 82 0 1.79 225 02:18 18.12.2019
2197 Clouds 9 1006 83 0 1.79 202 01:40 18.12.2019
2198 Clouds 9 1006 84 0 1.79 180 01:21 18.12.2019
2199 Clouds 9 1006 84 0 1.79 180 00:41 18.12.2019
2200 Clouds 9 1006 84 0 1.79 180 00:23 18.12.2019
2201 Clouds 9 1006 84 0 1.79 180 00:23 18.12.2019
2202 Clouds 9 1007 84 0 1.34 180 23:57 17.12.2019
2203 Clouds 9 1007 83 0 1.34 180 23:38 17.12.2019
2204 Clouds 9 1007 83 0 0.89 180 23:19 17.12.2019
2205 Clouds 9 1008 82 0 1.34 202 22:56 17.12.2019
2206 Clouds 9 1008 83 0 1.34 180 22:38 17.12.2019
2207 Clouds 9 1008 83 0 1.34 202 22:19 17.12.2019
2208 Clouds 9 1008 84 0 1.34 180 21:55 17.12.2019
2209 Clouds 9 1008 84 0 1.34 202 21:37 17.12.2019
2210 Clouds 9 1008 84 0 0.89 202 21:19 17.12.2019
2211 Clouds 8 1008 86 0 1.79 202 20:57 17.12.2019
2212 Clouds 8 1008 86 0 0.89 180 20:38 17.12.2019
2213 Clouds 8 1008 86 0 1.34 180 20:18 17.12.2019
2214 Clouds 8 1008 86 0 1.34 180 20:18 17.12.2019
2215 Clouds 8 1008 87 0 1.79 180 19:56 17.12.2019
2216 Clouds 8 1008 87 0 1.34 180 19:37 17.12.2019
2217 Clouds 8 1008 87 0 1.34 157 19:18 17.12.2019
2218 Clouds 8 1008 87 0 0.89 180 18:54 17.12.2019
2219 Clouds 7 1008 88 0 0.89 180 18:36 17.12.2019
2220 Clouds 7 1008 88 0 1.34 180 18:18 17.12.2019
2221 Clouds 7 1008 88 0 1.34 180 18:18 17.12.2019
2222 Clouds 7 1008 87 0 0.89 180 17:42 17.12.2019
2223 Clouds 7 1008 87 0 0.89 180 17:21 17.12.2019
2224 Clouds 7 1008 87 0 0.89 180 16:56 17.12.2019
2225 Clouds 7 1008 87 0 1.79 180 16:38 17.12.2019
2226 Clouds 7 1008 87 0 0.89 180 16:19 17.12.2019
2227 Clouds 7 1008 87 0 0.89 180 15:58 17.12.2019
2228 Clouds 7 1008 87 0 1.34 180 15:37 17.12.2019
2229 Clouds 7 1008 87 0 0.45 180 15:19 17.12.2019
2230 Clouds 8 1008 86 0 0.89 180 14:56 17.12.2019
2231 Clouds 8 1007 86 0 0.45 180 14:37 17.12.2019
2232 Clouds 8 1007 86 0 0.89 180 14:18 17.12.2019
2233 Clouds 8 1007 86 0 0.89 202 13:56 17.12.2019
2234 Clouds 8 1007 86 0 0.89 180 13:38 17.12.2019
2235 Clouds 8 1007 87 0 1.34 180 13:19 17.12.2019
2236 Clouds 8 1007 88 0 0.89 180 12:56 17.12.2019
2237 Clouds 7 1007 88 0 0.89 180 12:37 17.12.2019
2238 Clouds 7 1007 89 0 0.89 180 12:18 17.12.2019
2239 Clouds 7 1007 90 0 0.89 202 11:56 17.12.2019
2240 Clouds 7 1007 90 0 1.34 180 11:36 17.12.2019
2241 Clouds 7 1008 90 0 0.45 202 11:18 17.12.2019
2242 Clouds 7 1008 90 0 0.45 202 11:18 17.12.2019
2243 Clouds 7 1008 90 0 0.45 202 11:18 17.12.2019
2244 Clouds 6 1008 91 0 1.34 180 10:55 17.12.2019
2245 Clouds 6 1008 91 0 1.34 180 10:37 17.12.2019
2246 Clouds 7 1003 88 0 6.59 177 10:18 17.12.2019
2247 Clouds 5 1007 92 0 0.89 157 09:42 17.12.2019
2248 Clouds 5 1008 92 0 1.34 157 09:21 17.12.2019
2249 Clouds 4 1008 92 0 1.34 157 08:58 17.12.2019
2250 Clouds 4 1008 92 0 0.89 157 08:40 17.12.2019
2251 Rain 4 1008 92 0 1.34 135 08:21 17.12.2019
2252 Rain 4 1008 92 0 1.34 135 07:58 17.12.2019
2253 Rain 4 1008 92 0 0.89 157 07:39 17.12.2019
2254 Rain 4 1008 92 0 0.89 135 07:20 17.12.2019
2255 Rain 4 1008 92 0 0.45 135 06:42 17.12.2019
2256 Rain 4 1008 92 0 0.89 135 06:24 17.12.2019
2257 Rain 4 1008 92 0 0.89 135 06:24 17.12.2019
2258 Rain 4 1009 91 0 0.45 135 05:41 17.12.2019
2259 Rain 5 1009 91 0 0.45 135 04:53 17.12.2019
2260 Rain 5 1010 91 0 0.45 135 03:51 17.12.2019
2261 Rain 6 1010 90 0 0.45 135 02:25 17.12.2019
2262 Clouds 6 1010 90 0 0.45 157 01:22 17.12.2019
2263 Clouds 6 1011 90 0 3.44 199 00:47 17.12.2019
2264 Clouds 6 1010 90 0 3.44 199 00:21 17.12.2019
2265 Clouds 6 1010 90 0 3.44 199 00:21 17.12.2019
2266 Clouds 6 1011 90 0 3.44 199 23:57 16.12.2019
2267 Clouds 6 1011 90 0 0.45 180 23:38 16.12.2019
2268 Clouds 6 1011 90 0 0.45 180 23:18 16.12.2019
2269 Clouds 6 1011 90 0 5.05 207 22:54 16.12.2019
2270 Clouds 6 1011 90 0 0.45 180 22:36 16.12.2019
2271 Clouds 7 1006 91 0 5.05 207 22:18 16.12.2019
2272 Clouds 6 1011 90 0 0.89 180 21:54 16.12.2019
2273 Clouds 6 1011 90 0 0.89 180 21:36 16.12.2019
2274 Clouds 6 1011 89 0 0.45 202 21:18 16.12.2019
2275 Clouds 6 1011 89 0 0.45 202 20:55 16.12.2019
2276 Clouds 6 1011 89 0 0.45 202 20:37 16.12.2019
2277 Clouds 6 1011 90 0 0.45 202 20:18 16.12.2019
2278 Clouds 6 1011 89 0 0.89 180 19:55 16.12.2019
2279 Clouds 6 1011 89 0 0.89 180 19:36 16.12.2019
2280 Clouds 6 1011 89 0 1.34 180 19:18 16.12.2019
2281 Clouds 6 1011 89 0 0.89 180 18:54 16.12.2019
2282 Clouds 6 1011 89 0 0.89 180 18:36 16.12.2019
2283 Clouds 6 1011 89 0 0.89 180 18:18 16.12.2019
2284 Clouds 6 1011 89 0 0.89 180 17:55 16.12.2019
2285 Clouds 6 1011 89 0 0.89 180 17:37 16.12.2019
2286 Clouds 6 1011 89 0 0.89 180 17:19 16.12.2019
2287 Clouds 6 1011 88 0 0.89 180 16:54 16.12.2019
2288 Clouds 5 1011 88 0 0.89 180 16:36 16.12.2019
2289 Clouds 5 1011 88 0 0.89 180 16:18 16.12.2019
2290 Clouds 6 1011 87 0 0.45 180 15:55 16.12.2019
2291 Clouds 6 1011 87 0 0.45 180 15:37 16.12.2019
2292 Clouds 6 1011 87 0 0.89 202 15:18 16.12.2019
2293 Clouds 6 1011 87 0 0.89 202 14:54 16.12.2019
2294 Clouds 6 1011 87 0 0.89 180 14:36 16.12.2019
2295 Clouds 6 1011 87 0 0.89 180 14:18 16.12.2019
2296 Clouds 6 1011 87 0 0.89 180 13:38 16.12.2019
2297 Clouds 6 1011 87 0 1.34 180 13:20 16.12.2019
2298 Clouds 5 1012 87 0 1.34 180 12:59 16.12.2019
2299 Clouds 5 1012 87 0 1.34 180 12:40 16.12.2019
2300 Clouds 5 1012 87 0 0.89 180 12:20 16.12.2019
2301 Clouds 5 1012 87 0 0.89 180 11:59 16.12.2019
2302 Clouds 5 1012 87 0 0.89 180 11:59 16.12.2019
2303 Clouds 5 1012 87 0 1.79 180 11:41 16.12.2019
2304 Clouds 4 1012 87 0 1.79 180 11:22 16.12.2019
2305 Clouds 4 1013 88 0 0.89 180 10:59 16.12.2019
2306 Clouds 4 1013 87 0 0.89 180 10:40 16.12.2019
2307 Clouds 3 1013 87 0 0.89 180 10:21 16.12.2019
2308 Clouds 3 1013 88 0 0.89 157 09:55 16.12.2019
2309 Clouds 3 1013 87 0 0.89 157 09:37 16.12.2019
2310 Clouds 3 1013 87 0 0.89 180 09:19 16.12.2019
2311 Clouds 3 1013 87 0 0.89 180 08:39 16.12.2019
2312 Clouds 3 1013 87 0 0.45 180 08:19 16.12.2019
2313 Clouds 3 1013 87 0 0.45 180 08:19 16.12.2019
2314 Clouds 3 1013 87 0 0.89 180 07:51 16.12.2019
2315 Clouds 3 1012 87 0 0.89 202 07:31 16.12.2019
2316 Clouds 3 1012 87 0 0.89 225 06:49 16.12.2019
2317 Clouds 3 1012 87 0 1.79 180 06:27 16.12.2019
2318 Clouds 3 1012 87 0 1.34 180 05:59 16.12.2019
2319 Clouds 3 1012 87 0 0.89 202 05:40 16.12.2019
2320 Clear 3 1012 87 0 0.89 202 05:22 16.12.2019
2321 Clear 4 1011 86 0 0.89 225 02:59 16.12.2019
2322 Rain 4 1010 85 0 0.89 225 01:46 16.12.2019
2323 Clouds 5 1009 85 0 0.45 225 00:57 16.12.2019
2324 Clouds 5 1009 84 0 0.45 225 00:38 16.12.2019
2325 Clouds 5 1009 84 0 0.45 225 00:19 16.12.2019
2326 Clouds 5 1008 84 0 0.45 292 23:43 15.12.2019
2327 Clouds 6 1008 84 0 10.37 251 23:25 15.12.2019
2328 Clear 6 1007 83 0 0.89 270 22:57 15.12.2019
2329 Clear 6 1007 83 0 0.45 270 22:38 15.12.2019
2330 Clear 6 1007 83 0 0.45 270 22:38 15.12.2019
2331 Clear 6 1007 83 0 12.44 255 22:19 15.12.2019
2332 Clear 6 1006 81 0 0.45 292 21:58 15.12.2019
2333 Clear 6 1006 81 0 12.44 255 21:38 15.12.2019
2334 Clear 6 1005 80 0 0.45 225 21:20 15.12.2019
2335 Clear 6 1005 79 0 0.45 225 20:58 15.12.2019
2336 Clear 6 1004 78 0 1.34 225 20:40 15.12.2019
2337 Clear 6 1004 78 0 0.45 247 20:21 15.12.2019
2338 Clear 6 1004 78 0 0.45 247 20:21 15.12.2019
2339 Clear 6 1004 78 0 0.45 247 20:21 15.12.2019
2340 Clouds 6 1004 77 0 1.34 225 19:58 15.12.2019
2341 Clear 6 1004 77 0 1.34 225 19:40 15.12.2019
2342 Clear 6 1003 77 0 0.89 292 19:20 15.12.2019
2343 Clouds 6 1002 77 0 2.24 270 18:58 15.12.2019
2344 Clouds 6 1002 78 0 0.89 247 18:39 15.12.2019
2345 Clear 6 1002 77 0 0.45 247 18:19 15.12.2019
2346 Clear 6 1001 76 0 2.24 225 17:57 15.12.2019
2347 Clouds 6 1001 75 0 3.13 225 17:38 15.12.2019
2348 Clear 6 1001 75 0 2.24 225 17:19 15.12.2019
2349 Clear 6 1000 76 0 1.79 225 16:59 15.12.2019
2350 Clear 6 1000 76 0 2.68 225 16:41 15.12.2019
2351 Clear 6 1000 75 0 1.79 247 16:21 15.12.2019
2352 Clear 7 1000 75 0 1.34 225 15:57 15.12.2019
2353 Clear 7 999 73 0 1.34 292 15:38 15.12.2019
2354 Clear 7 999 77 0 0.89 202 15:19 15.12.2019
2355 Clear 7 999 77 0 0.89 202 15:19 15.12.2019
2356 Clear 7 998 82 0 0.89 225 14:56 15.12.2019
2357 Clear 7 998 84 0 0.89 202 14:37 15.12.2019
2358 Rain 7 998 85 0 0.89 225 14:19 15.12.2019
2359 Rain 7 997 88 0 1.34 225 13:58 15.12.2019
2360 Rain 7 997 88 0 0.45 225 13:38 15.12.2019
2361 Rain 7 997 89 0 1.34 225 13:19 15.12.2019
2362 Rain 6 997 90 0 2.24 225 12:57 15.12.2019
2363 Rain 6 997 91 0 2.24 247 12:39 15.12.2019
2364 Rain 6 997 91 0 1.79 202 12:20 15.12.2019
2365 Rain 6 997 91 0 1.79 202 12:20 15.12.2019
2366 Rain 4 997 91 0 1.79 202 11:58 15.12.2019
2367 Rain 4 997 91 0 2.24 180 11:37 15.12.2019
2368 Clouds 4 997 90 0 2.68 180 11:19 15.12.2019
2369 Clouds 3 997 89 0 2.24 180 10:55 15.12.2019
2370 Clouds 3 997 89 0 1.79 180 10:37 15.12.2019
2371 Clouds 3 997 88 0 2.24 157 10:19 15.12.2019
2372 Clouds 3 998 88 0 1.79 135 09:41 15.12.2019
2373 Clouds 3 998 89 0 1.34 157 09:20 15.12.2019
2374 Clouds 2 999 89 0 0.89 157 08:59 15.12.2019
2375 Clouds 2 999 89 0 1.79 157 08:41 15.12.2019
2376 Clouds 2 999 89 0 1.34 180 08:22 15.12.2019
2377 Clouds 2 999 89 0 1.34 180 08:22 15.12.2019
2378 Clouds 2 999 89 0 1.79 180 07:56 15.12.2019
2379 Clouds 2 999 89 0 1.79 180 07:36 15.12.2019
2380 Clouds 2 1000 89 0 1.34 180 06:57 15.12.2019
2381 Clouds 2 1001 88 0 1.34 202 06:23 15.12.2019
2382 Clouds 2 1001 88 0 0.89 202 05:39 15.12.2019
2383 Rain 2 1001 88 0 0.89 202 05:19 15.12.2019
2384 Rain 3 1001 87 0 0.89 225 04:18 15.12.2019
2385 Rain 3 1000 88 0 11.94 245 02:35 15.12.2019
2386 Rain 4 999 88 0 1.79 247 01:57 15.12.2019
2387 Rain 4 999 88 0 0.45 247 01:39 15.12.2019
2388 Rain 4 998 88 0 0.45 292 01:18 15.12.2019
2389 Rain 4 998 88 0 1.34 247 00:47 15.12.2019
2390 Rain 4 997 89 0 1.79 225 00:29 15.12.2019
2391 Rain 4 997 89 0 1.34 225 23:41 14.12.2019
2392 Rain 4 996 90 0 1.34 225 23:22 14.12.2019
2393 Rain 4 996 90 0 1.34 225 22:59 14.12.2019
2394 Rain 4 996 90 0 1.34 225 22:41 14.12.2019
2395 Rain 6 989 77 0 13.45 239 22:22 14.12.2019
2396 Rain 4 995 90 0 1.34 225 21:58 14.12.2019
2397 Rain 4 994 90 0 1.34 225 21:39 14.12.2019
2398 Rain 4 994 91 0 0.89 225 21:19 14.12.2019
2399 Rain 4 994 91 0 1.79 225 20:59 14.12.2019
2400 Rain 4 994 91 0 2.24 225 20:41 14.12.2019
2401 Rain 3 994 91 0 0.89 225 20:20 14.12.2019
2402 Rain 3 994 91 0 1.34 225 19:57 14.12.2019
2403 Rain 3 993 91 0 1.79 225 19:39 14.12.2019
2404 Rain 3 993 91 0 1.34 225 19:20 14.12.2019
2405 Rain 3 993 91 0 1.34 225 18:56 14.12.2019
2406 Rain 3 993 91 0 1.79 225 18:38 14.12.2019
2407 Rain 3 993 91 0 1.79 225 18:20 14.12.2019
2408 Rain 3 992 91 0 1.34 225 17:54 14.12.2019
2409 Rain 3 992 91 0 1.34 225 17:36 14.12.2019
2410 Rain 3 992 91 0 1.34 225 17:18 14.12.2019
2411 Rain 3 992 91 0 0.89 202 16:40 14.12.2019
2412 Rain 3 991 91 0 0.89 225 16:19 14.12.2019
2413 Rain 3 991 91 0 0.45 247 15:55 14.12.2019
2414 Rain 3 991 91 0 1.34 225 15:36 14.12.2019
2415 Rain 3 991 91 0 0.89 225 15:18 14.12.2019
2416 Rain 3 990 91 0 0.89 225 14:54 14.12.2019
2417 Rain 3 990 91 0 1.34 225 14:36 14.12.2019
2418 Rain 3 990 91 0 0.89 225 14:18 14.12.2019
2419 Rain 3 989 92 0 0.89 180 13:42 14.12.2019
2420 Rain 3 989 92 0 1.34 202 13:19 14.12.2019
2421 Rain 3 989 92 0 1.34 202 13:19 14.12.2019
2422 Clouds 3 989 92 0 1.79 202 12:57 14.12.2019
2423 Clouds 3 989 92 0 1.34 202 12:38 14.12.2019
2424 Clouds 3 988 92 0 1.34 202 12:20 14.12.2019
2425 Clouds 3 988 92 0 1.34 180 11:58 14.12.2019
2426 Clouds 3 988 92 0 1.34 180 11:39 14.12.2019
2427 Rain 3 988 92 0 1.34 180 11:19 14.12.2019
2428 Rain 2 988 92 0 1.34 180 10:56 14.12.2019
2429 Rain 2 988 92 0 0.89 202 10:38 14.12.2019
2430 Rain 2 988 92 0 0.89 202 10:20 14.12.2019
2431 Rain 2 988 92 0 0.89 202 09:55 14.12.2019
2432 Rain 2 988 92 0 1.34 180 09:36 14.12.2019
2433 Rain 1 988 91 0 1.34 180 09:18 14.12.2019
2434 Rain 1 988 91 0 0.89 180 08:41 14.12.2019
2435 Rain 1 988 91 0 0.89 180 08:19 14.12.2019
2436 Rain 1 987 91 0 0.89 180 07:43 14.12.2019
2437 Rain 1 987 91 0 0.89 180 07:23 14.12.2019
2438 Rain 1 987 90 0 0.45 180 06:55 14.12.2019
2439 Rain 1 987 90 0 0.45 180 06:36 14.12.2019
2440 Rain 1 987 90 0 0.89 180 05:56 14.12.2019
2441 Clouds 1 987 90 0 0.89 180 04:42 14.12.2019
2442 Clouds 1 988 90 0 0.45 157 02:31 14.12.2019
2443 Clear 1 988 90 0 0.89 135 01:49 14.12.2019
2444 Clear 1 988 90 0 0.89 135 01:31 14.12.2019
2445 Clouds 2 988 90 0 0.89 135 00:45 14.12.2019
2446 Clouds 2 988 90 0 0.45 135 00:27 14.12.2019
2447 Clouds 2 988 90 0 0.45 135 23:54 13.12.2019
2448 Clouds 2 988 90 0 0.45 135 23:36 13.12.2019
2449 Clouds 2 989 90 0 0.89 135 23:18 13.12.2019
2450 Clouds 1 989 90 0 0.45 157 22:40 13.12.2019
2451 Clouds 1 989 90 0 0.89 135 22:19 13.12.2019
2452 Clouds 1 989 89 0 0.89 135 21:56 13.12.2019
2453 Clouds 1 989 89 0 0.89 135 21:37 13.12.2019
2454 Clouds 1 988 89 0 0.89 135 21:19 13.12.2019
2455 Clouds 1 988 89 0 0.45 135 20:42 13.12.2019
2456 Clear 1 988 89 0 0.45 135 20:23 13.12.2019
2457 Clouds 2 988 88 0 0.45 135 19:59 13.12.2019
2458 Clouds 2 988 89 0 0.45 135 19:41 13.12.2019
2459 Clouds 2 988 88 0 0.89 135 19:22 13.12.2019
2460 Clouds 2 989 88 0 0.45 157 18:59 13.12.2019
2461 Clouds 2 989 88 0 0.89 157 18:41 13.12.2019
2462 Clouds 2 988 89 0 0.45 135 18:19 13.12.2019
2463 Clouds 2 988 88 0 0.89 135 17:57 13.12.2019
2464 Clouds 2 989 89 0 0.89 135 17:38 13.12.2019
2465 Clear 2 989 89 0 0.89 135 17:18 13.12.2019
2466 Clear 2 989 89 0 0.89 135 16:54 13.12.2019
2467 Clear 2 988 89 0 0.89 135 16:36 13.12.2019
2468 Clear 2 988 89 0 1.34 157 16:18 13.12.2019
2469 Clear 2 988 89 0 1.34 157 15:38 13.12.2019
2470 Clear 2 988 89 0 1.79 135 15:20 13.12.2019
2471 Clear 4 984 84 0 8.9 126 14:55 13.12.2019
2472 Clear 2 988 90 0 1.34 135 14:36 13.12.2019
2473 Clouds 2 988 90 0 2.24 135 14:18 13.12.2019
2474 Clouds 1 989 90 0 1.34 135 13:41 13.12.2019
2475 Clouds 2 989 90 0 2.24 135 13:21 13.12.2019
2476 Clear 2 989 89 0 1.79 135 12:45 13.12.2019
2477 Clear 2 989 90 0 1.79 135 12:24 13.12.2019
2478 Clear 2 990 90 0 1.79 135 11:59 13.12.2019
2479 Clear 2 990 90 0 1.79 135 11:41 13.12.2019
2480 Clear 2 990 91 0 1.34 135 11:23 13.12.2019
2481 Clear 1 991 91 0 1.79 135 10:56 13.12.2019
2482 Clear 1 991 92 0 1.79 135 10:38 13.12.2019
2483 Clear 1 991 92 0 1.34 135 10:19 13.12.2019
2484 Clear 0 992 92 0 1.79 135 09:41 13.12.2019
2485 Clear 0 992 92 0 0.89 135 09:20 13.12.2019
2486 Clear 0 992 92 0 1.34 135 08:44 13.12.2019
2487 Clear 0 992 92 0 1.79 135 08:26 13.12.2019
2488 Clouds 0 993 92 0 1.79 157 07:48 13.12.2019
2489 Clouds 1 993 92 0 1.34 135 07:25 13.12.2019
2490 Clouds 1 993 92 0 2.24 135 06:57 13.12.2019
2491 Clouds 1 994 92 0 1.79 135 06:31 13.12.2019
2492 Clouds 1 994 91 0 0.89 135 05:51 13.12.2019
2493 Clouds 1 995 91 0 0.89 135 05:31 13.12.2019
2494 Clouds 1 995 91 0 1.34 135 04:53 13.12.2019
2495 Clouds 1 997 91 0 1.79 135 03:52 13.12.2019
2496 Clouds 2 998 91 0 1.34 135 02:35 13.12.2019
2497 Clouds 2 998 91 0 1.34 157 01:51 13.12.2019
2498 Clouds 2 999 91 0 0.89 135 01:27 13.12.2019
2499 Clouds 3 1000 91 0 1.34 135 00:47 13.12.2019
2500 Clouds 3 1000 91 0 0.89 157 00:26 13.12.2019
2501 Clouds 3 1001 91 0 0.89 157 23:42 12.12.2019
2502 Clouds 3 1001 91 0 1.34 157 23:24 12.12.2019
2503 Clouds 3 1001 91 0 0.89 157 22:56 12.12.2019
2504 Clouds 3 1001 91 0 0.89 157 22:38 12.12.2019
2505 Clouds 3 1001 91 0 0.89 157 22:38 12.12.2019
2506 Clouds 3 1002 91 0 0.89 157 22:20 12.12.2019
2507 Clouds 3 1002 91 0 0.45 180 21:56 12.12.2019
2508 Clouds 3 1002 91 0 0.89 180 21:37 12.12.2019
2509 Clouds 3 1002 91 0 0.89 180 21:19 12.12.2019
2510 Clouds 3 1003 91 0 1.34 180 20:59 12.12.2019
2511 Clouds 3 1003 91 0 0.89 180 20:40 12.12.2019
2512 Clouds 3 1003 91 0 1.34 180 20:21 12.12.2019
2513 Clouds 3 1003 91 0 1.34 180 19:56 12.12.2019
2514 Clouds 3 1003 91 0 0.89 157 19:37 12.12.2019
2515 Clouds 3 1003 91 0 0.89 180 19:18 12.12.2019
2516 Clouds 3 1003 91 0 0.89 180 18:56 12.12.2019
2517 Clouds 3 1003 91 0 1.79 180 18:38 12.12.2019
2518 Clouds 3 1003 91 0 0.89 180 18:19 12.12.2019
2519 Clouds 3 1004 91 0 0.89 180 17:57 12.12.2019
2520 Clouds 3 1003 91 0 0.89 180 17:38 12.12.2019
2521 Clouds 3 1004 91 0 0.89 180 17:19 12.12.2019
2522 Clouds 3 1004 91 0 0.89 180 16:55 12.12.2019
2523 Clouds 3 1004 91 0 0.89 180 16:37 12.12.2019
2524 Clouds 3 1004 91 0 0.89 180 16:18 12.12.2019
2525 Clouds 3 1004 91 0 0.89 202 15:54 12.12.2019
2526 Clouds 3 1004 91 0 0.89 202 15:36 12.12.2019
2527 Clouds 3 1004 91 0 0.89 202 15:18 12.12.2019
2528 Clouds 3 1004 91 0 0.89 225 14:38 12.12.2019
2529 Clouds 3 1004 91 0 0.89 225 14:19 12.12.2019
2530 Clouds 4 1005 91 0 0.89 225 13:57 12.12.2019
2531 Clouds 4 1005 91 0 0.45 225 13:38 12.12.2019
2532 Clouds 4 1005 92 0 0.89 225 13:20 12.12.2019
2533 Clouds 3 1005 91 0 0.89 225 12:57 12.12.2019
2534 Clouds 3 1005 91 0 0.89 225 12:38 12.12.2019
2535 Clouds 3 1005 91 0 0.45 225 12:20 12.12.2019
2536 Clouds 3 1005 91 0 0.89 225 11:55 12.12.2019
2537 Clouds 5 1000 86 0 7.31 220 11:37 12.12.2019
2538 Rain 3 1005 91 0 6.64 232 11:19 12.12.2019
2539 Rain 2 1005 91 0 0.89 225 10:55 12.12.2019
2540 Rain 2 1005 91 0 0.89 225 10:37 12.12.2019
2541 Rain 2 1005 91 0 0.45 202 10:18 12.12.2019
2542 Rain 2 1005 91 0 0.45 202 10:18 12.12.2019
2543 Rain 2 1005 91 0 0.45 225 09:41 12.12.2019
2544 Rain 1 1005 91 0 0.89 202 09:23 12.12.2019
2545 Rain 1 1005 91 0 0.89 225 08:56 12.12.2019
2546 Rain 1 1005 91 0 0.89 225 08:38 12.12.2019
2547 Rain 1 1005 91 0 0.89 225 08:20 12.12.2019
2548 Rain 1 1005 91 0 0.89 202 07:46 12.12.2019
2549 Rain 1 1005 91 0 0.45 202 07:25 12.12.2019
2550 Rain 1 1005 91 0 0.45 180 06:54 12.12.2019
2551 Rain 1 1005 91 0 0.45 180 06:33 12.12.2019
2552 Rain 1 1006 90 0 0.45 157 05:39 12.12.2019
2553 Rain 1 1006 90 0 0.45 157 04:52 12.12.2019
2554 Rain 2 1006 91 0 0.45 157 03:37 12.12.2019
2555 Rain 2 1007 91 0 0.45 157 02:39 12.12.2019
2556 Rain 2 1007 91 0 5.76 186 02:20 12.12.2019
2557 Rain 2 1007 91 0 0.45 157 01:43 12.12.2019
2558 Rain 2 1007 91 0 4.9 185 01:24 12.12.2019
2559 Rain 2 1008 91 0 0.89 180 00:47 12.12.2019
2560 Rain 2 1008 91 0 1.34 157 00:20 12.12.2019
2561 Rain 2 1009 90 0 0.45 180 23:44 11.12.2019
2562 Rain 2 1009 90 0 0.45 180 23:21 11.12.2019
2563 Rain 2 1009 90 0 0.89 180 22:58 11.12.2019
2564 Rain 2 1009 90 0 0.89 202 22:39 11.12.2019
2565 Rain 3 1004 93 0 6.63 193 22:20 11.12.2019
2566 Rain 2 1009 90 0 0.45 180 21:59 11.12.2019
2567 Rain 2 1010 90 0 0.89 180 21:39 11.12.2019
2568 Rain 2 1010 90 0 0.89 180 21:20 11.12.2019
2569 Rain 2 1010 90 0 0.89 180 20:57 11.12.2019
2570 Rain 2 1010 90 0 0.89 157 20:39 11.12.2019
2571 Rain 2 1010 90 0 0.89 180 20:19 11.12.2019
2572 Rain 2 1010 90 0 0.89 180 19:58 11.12.2019
2573 Rain 2 1010 90 0 0.89 180 19:40 11.12.2019
2574 Rain 2 1010 90 0 0.89 157 19:21 11.12.2019
2575 Rain 2 1011 90 0 1.34 180 18:57 11.12.2019
2576 Rain 2 1011 90 0 0.89 180 18:38 11.12.2019
2577 Rain 2 1011 90 0 1.34 180 18:18 11.12.2019
2578 Rain 2 1011 90 0 0.89 180 17:55 11.12.2019
2579 Rain 2 1011 90 0 0.89 180 17:37 11.12.2019
2580 Rain 2 1012 90 0 0.89 180 17:18 11.12.2019
2581 Rain 2 1012 90 0 1.34 180 16:55 11.12.2019
2582 Rain 2 1012 90 0 0.89 180 16:36 11.12.2019
2583 Rain 2 1012 90 0 1.34 180 16:18 11.12.2019
2584 Rain 2 1012 90 0 1.34 180 15:55 11.12.2019
2585 Rain 2 1012 90 0 1.34 180 15:36 11.12.2019
2586 Rain 2 1012 90 0 1.34 202 15:18 11.12.2019
2587 Rain 3 1012 90 0 1.34 180 14:54 11.12.2019
2588 Rain 3 1012 90 0 1.34 180 14:36 11.12.2019
2589 Rain 2 1013 89 0 1.79 180 14:18 11.12.2019
2590 Rain 2 1013 89 0 0.89 180 13:42 11.12.2019
2591 Rain 2 1013 89 0 0.89 180 13:21 11.12.2019
2592 Rain 2 1013 88 0 1.79 202 12:57 11.12.2019
2593 Rain 2 1014 88 0 1.79 180 12:39 11.12.2019
2594 Rain 3 1014 89 0 1.79 202 12:21 11.12.2019
2595 Rain 3 1014 89 0 1.79 202 12:21 11.12.2019
2596 Rain 3 1014 89 0 1.79 180 11:58 11.12.2019
2597 Rain 3 1014 89 0 2.24 180 11:39 11.12.2019
2598 Rain 2 1014 89 0 1.34 180 11:19 11.12.2019
2599 Rain 2 1014 89 0 1.34 180 11:19 11.12.2019
2600 Rain 2 1015 88 0 1.79 180 10:57 11.12.2019
2601 Rain 2 1015 88 0 1.79 180 10:39 11.12.2019
2602 Rain 2 1015 88 0 1.79 180 10:39 11.12.2019
2603 Rain 2 1015 87 0 1.79 180 10:20 11.12.2019
2604 Rain 2 1015 87 0 1.79 180 10:20 11.12.2019
2605 Rain 3 1015 87 0 2.24 180 09:55 11.12.2019
2606 Rain 2 1015 87 0 1.79 202 09:37 11.12.2019
2607 Rain 2 1015 87 0 1.79 180 09:19 11.12.2019
2608 Rain 2 1015 86 0 1.79 180 08:55 11.12.2019
2609 Rain 2 1015 86 0 1.79 180 08:36 11.12.2019
2610 Rain 2 1015 85 0 1.79 180 08:18 11.12.2019
2611 Rain 2 1015 85 0 1.34 180 07:42 11.12.2019
2612 Rain 2 1015 85 0 1.34 180 07:42 11.12.2019
2613 Rain 2 1015 85 0 1.79 180 07:22 11.12.2019
2614 Rain 2 1016 84 0 1.79 180 06:45 11.12.2019
2615 Rain 3 1016 83 0 1.34 202 06:24 11.12.2019
2616 Rain 2 1016 83 0 2.24 202 05:53 11.12.2019
2617 Rain 2 1016 84 0 2.24 202 05:28 11.12.2019
2618 Clouds 2 1016 84 0 2.68 180 04:48 11.12.2019
2619 Clouds 2 1017 86 0 2.24 180 03:18 11.12.2019
2620 Clouds 2 1018 87 0 1.79 180 02:31 11.12.2019
2621 Clouds 1 1019 88 0 1.79 157 01:21 11.12.2019
2622 Clouds 1 1020 89 0 0.89 180 00:37 11.12.2019
2623 Clouds 1 1020 89 0 1.34 157 00:18 11.12.2019
2624 Clouds 1 1021 89 0 1.79 180 23:43 10.12.2019
2625 Clouds 1 1022 89 0 0.89 180 23:22 10.12.2019
2626 Clouds 1 1022 89 0 0.89 180 22:56 10.12.2019
2627 Clouds 1 1022 89 0 1.79 180 22:38 10.12.2019
2628 Clouds 1 1023 89 0 0.89 180 22:20 10.12.2019
2629 Clouds 1 1023 88 0 0.89 180 21:54 10.12.2019
2630 Clouds 1 1023 88 0 0.89 180 21:36 10.12.2019
2631 Clouds 1 1024 88 0 1.34 180 21:18 10.12.2019
2632 Clouds 1 1024 87 0 0.89 180 20:54 10.12.2019
2633 Clouds 1 1024 87 0 0.89 180 20:36 10.12.2019
2634 Clouds 1 1024 87 0 0.89 180 20:18 10.12.2019
2635 Clouds 1 1024 87 0 0.89 180 19:42 10.12.2019
2636 Clouds 1 1024 86 0 0.89 180 19:24 10.12.2019
2637 Clouds 1 1025 86 0 0.45 180 18:57 10.12.2019
2638 Clouds 1 1025 85 0 0.89 180 18:38 10.12.2019
2639 Clouds 1 1025 85 0 0.45 180 18:19 10.12.2019
2640 Clouds 2 1025 85 0 0.45 180 17:54 10.12.2019
2641 Clouds 2 1025 85 0 0.45 180 17:36 10.12.2019
2642 Clouds 2 1026 83 0 0.45 180 17:18 10.12.2019
2643 Clouds 2 1025 83 0 0.45 202 16:42 10.12.2019
2644 Clouds 2 1026 82 0 0.45 202 16:20 10.12.2019
2645 Clouds 3 1026 82 0 0.45 202 15:54 10.12.2019
2646 Clouds 4 1026 82 0 0.45 202 15:36 10.12.2019
2647 Clouds 4 1025 81 0 0.45 202 15:18 10.12.2019
2648 Clouds 4 1025 81 0 0.45 202 15:18 10.12.2019
2649 Clouds 4 1025 81 0 0.45 202 15:18 10.12.2019
2650 Clouds 5 1025 80 0 0.45 202 14:54 10.12.2019
2651 Clouds 5 1026 80 0 0.45 225 14:36 10.12.2019
2652 Clear 6 1025 80 0 4.86 261 14:18 10.12.2019
2653 Clear 6 1025 80 0 4.86 261 14:18 10.12.2019
2654 Clear 6 1025 80 0 4.86 261 13:54 10.12.2019
2655 Clear 5 1025 80 0 4.86 261 13:36 10.12.2019
2656 Clouds 5 1025 80 0 5.09 251 13:18 10.12.2019
2657 Clouds 5 1025 80 0 5.09 251 12:38 10.12.2019
2658 Clouds 5 1025 80 0 5.09 251 12:20 10.12.2019
2659 Clouds 4 1025 80 0 0.45 292 11:42 10.12.2019
2660 Clouds 4 1025 81 0 0.45 292 11:23 10.12.2019
2661 Clouds 4 1025 82 0 5.79 309 10:56 10.12.2019
2662 Clouds 3 1025 82 0 5.79 309 10:37 10.12.2019
2663 Clouds 3 1025 82 0 5.79 309 10:19 10.12.2019
2664 Clouds 3 1024 82 0 0.89 315 09:55 10.12.2019
2665 Clouds 3 1024 82 0 0.89 292 09:37 10.12.2019
2666 Clouds 3 1024 82 0 5.79 309 09:19 10.12.2019
2667 Clouds 3 1023 82 0 1.34 315 08:54 10.12.2019
2668 Clouds 3 1023 82 0 5.79 309 08:36 10.12.2019
2669 Clear 3 1022 81 0 0.45 337 08:18 10.12.2019
2670 Clear 3 1022 81 0 0.45 337 08:18 10.12.2019
2671 Clear 3 1021 81 0 10.06 331 07:43 10.12.2019
2672 Clear 3 1021 81 0 0.89 337 07:24 10.12.2019
2673 Clear 3 1020 80 0 10.06 331 06:46 10.12.2019
2674 Clear 4 1019 79 0 10.06 331 06:19 10.12.2019
2675 Clear 4 1018 79 0 0.89 22 05:55 10.12.2019
2676 Clear 4 1017 76 0 0.89 0 04:55 10.12.2019
2677 Clear 4 1015 79 0 0.89 292 03:39 10.12.2019
2678 Clear 4 1013 76 0 1.34 292 02:46 10.12.2019
2679 Clouds 4 1012 77 0 2.24 315 01:45 10.12.2019
2680 Clouds 4 1011 78 0 2.24 315 01:24 10.12.2019
2681 Clouds 4 1010 80 0 2.24 337 00:42 10.12.2019
2682 Clouds 4 1010 80 0 2.68 292 00:22 10.12.2019
2683 Clouds 4 1009 82 0 2.24 315 23:43 09.12.2019
2684 Clouds 4 1008 82 0 2.24 315 23:24 09.12.2019
2685 Clouds 5 1007 82 0 2.24 315 22:58 09.12.2019
2686 Clouds 5 1007 83 0 1.79 315 22:40 09.12.2019
2687 Clouds 5 1006 86 0 0.89 315 22:20 09.12.2019
2688 Clouds 4 1006 88 0 0.45 292 21:57 09.12.2019
2689 Clouds 4 1006 88 0 0.45 292 21:39 09.12.2019
2690 Clouds 5 1005 89 0 0.45 292 21:19 09.12.2019
2691 Clouds 5 1005 89 0 0.89 270 20:57 09.12.2019
2692 Clouds 5 1005 89 0 0.89 270 20:57 09.12.2019
2693 Clouds 5 1004 89 0 0.45 292 20:39 09.12.2019
2694 Rain 5 1004 89 0 0.89 270 20:20 09.12.2019
2695 Rain 5 1004 89 0 0.89 270 20:20 09.12.2019
2696 Rain 6 1004 87 0 0.89 292 19:56 09.12.2019
2697 Rain 6 1004 87 0 1.79 292 19:38 09.12.2019
2698 Rain 6 1003 88 0 1.79 292 19:20 09.12.2019
2699 Rain 6 1003 87 0 0.45 247 18:59 09.12.2019
2700 Rain 6 1002 86 0 7.67 275 18:40 09.12.2019
2701 Rain 6 1002 86 0 0.89 247 18:20 09.12.2019
2702 Rain 6 1002 85 0 0.45 225 17:59 09.12.2019
2703 Rain 6 1002 85 0 0.45 225 17:59 09.12.2019
2704 Rain 6 1002 85 0 1.34 225 17:41 09.12.2019
2705 Clouds 6 1002 85 0 0.89 225 17:21 09.12.2019
2706 Clouds 6 1001 85 0 1.34 225 16:57 09.12.2019
2707 Clouds 6 1001 85 0 0.89 225 16:39 09.12.2019
2708 Clouds 6 1001 85 0 1.34 225 16:21 09.12.2019
2709 Clouds 6 1001 84 0 1.34 225 15:56 09.12.2019
2710 Clouds 7 1001 84 0 0.89 225 15:38 09.12.2019
2711 Clouds 6 1000 84 0 0.89 225 15:19 09.12.2019
2712 Clouds 7 1000 82 0 0.89 225 14:59 09.12.2019
2713 Clouds 7 1000 82 0 0.45 225 14:41 09.12.2019
2714 Clouds 7 1000 82 0 0.45 225 14:41 09.12.2019
2715 Clouds 7 1000 82 0 1.34 225 14:18 09.12.2019
2716 Clouds 8 1000 81 0 0.89 225 13:56 09.12.2019
2717 Clouds 8 1000 82 0 1.34 225 13:37 09.12.2019
2718 Rain 8 1000 82 0 0.89 225 13:19 09.12.2019
2719 Rain 8 999 82 0 1.34 225 12:55 09.12.2019
2720 Rain 8 999 82 0 1.34 225 12:55 09.12.2019
2721 Rain 7 999 82 0 0.89 225 12:37 09.12.2019
2722 Rain 7 999 83 0 1.79 225 12:18 09.12.2019
2723 Rain 7 999 84 0 1.79 225 11:41 09.12.2019
2724 Rain 7 999 84 0 1.34 225 11:22 09.12.2019
2725 Rain 7 999 84 0 1.34 225 11:22 09.12.2019
2726 Rain 7 999 85 0 2.24 225 10:59 09.12.2019
2727 Rain 6 999 85 0 2.24 225 10:39 09.12.2019
2728 Rain 6 999 86 0 0.45 225 10:20 09.12.2019
2729 Rain 6 999 87 0 2.24 225 09:56 09.12.2019
2730 Rain 6 999 87 0 2.24 225 09:37 09.12.2019
2731 Rain 5 999 87 0 1.79 225 09:19 09.12.2019
2732 Rain 5 999 88 0 1.79 225 08:40 09.12.2019
2733 Rain 5 999 88 0 1.79 225 08:22 09.12.2019
2734 Rain 5 998 88 0 2.24 225 07:53 09.12.2019
2735 Rain 5 998 88 0 1.79 225 07:34 09.12.2019
2736 Rain 4 998 88 0 1.79 225 06:59 09.12.2019
2737 Rain 4 998 88 0 1.34 225 06:39 09.12.2019
2738 Rain 4 998 88 0 0.89 225 06:21 09.12.2019
2739 Rain 5 997 87 0 0.89 225 05:26 09.12.2019
2740 Rain 6 997 87 0 1.34 225 04:31 09.12.2019
2741 Rain 6 997 87 0 1.79 225 03:19 09.12.2019
2742 Rain 6 997 87 0 1.79 225 03:19 09.12.2019
2743 Rain 6 997 87 0 1.79 225 02:18 09.12.2019
2744 Rain 6 997 87 0 1.34 225 01:40 09.12.2019
2745 Rain 6 997 87 0 1.34 247 00:45 09.12.2019
2746 Rain 6 997 87 0 1.79 225 00:25 09.12.2019
2747 Rain 6 997 86 0 1.34 225 23:40 08.12.2019
2748 Rain 6 997 86 0 2.24 202 23:22 08.12.2019
2749 Rain 6 997 86 0 0.89 225 22:57 08.12.2019
2750 Rain 6 997 85 0 0.89 225 22:38 08.12.2019
2751 Rain 6 997 85 0 1.34 225 22:19 08.12.2019
2752 Rain 7 997 85 0 1.34 225 21:58 08.12.2019
2753 Rain 7 997 84 0 0.89 247 21:40 08.12.2019
2754 Rain 7 997 84 0 1.34 225 21:19 08.12.2019
2755 Rain 8 997 83 0 12.35 236 20:57 08.12.2019
2756 Rain 8 997 83 0 0.89 292 20:38 08.12.2019
2757 Clouds 8 997 84 0 1.34 247 20:20 08.12.2019
2758 Clouds 8 997 85 0 0.45 270 19:58 08.12.2019
2759 Clouds 8 997 86 0 0.45 315 19:40 08.12.2019
2760 Clouds 8 997 86 0 0.45 315 19:22 08.12.2019
2761 Clouds 9 997 85 0 0.89 202 18:55 08.12.2019
2762 Clouds 9 997 85 0 0.89 202 18:55 08.12.2019
2763 Clouds 9 997 85 0 1.34 225 18:37 08.12.2019
2764 Clouds 9 996 86 0 12.77 249 18:19 08.12.2019
2765 Clouds 9 996 88 0 0.89 225 17:56 08.12.2019
2766 Clouds 9 996 89 0 0.45 270 17:38 08.12.2019
2767 Rain 8 996 89 0 1.79 225 17:19 08.12.2019
2768 Rain 8 996 89 0 1.79 225 16:57 08.12.2019
2769 Rain 8 996 89 0 1.79 225 16:39 08.12.2019
2770 Rain 8 996 89 0 2.24 225 16:20 08.12.2019
2771 Rain 8 997 89 0 2.24 225 15:55 08.12.2019
2772 Rain 8 996 89 0 1.79 247 15:36 08.12.2019
2773 Rain 8 996 89 0 1.79 247 15:36 08.12.2019
2774 Rain 8 997 88 0 2.68 225 15:18 08.12.2019
2775 Rain 8 997 87 0 2.68 225 14:43 08.12.2019
2776 Rain 8 997 87 0 2.68 225 14:24 08.12.2019
2777 Rain 8 997 87 0 2.68 225 13:58 08.12.2019
2778 Rain 8 997 87 0 2.24 225 13:40 08.12.2019
2779 Rain 8 998 87 0 1.34 247 13:21 08.12.2019
2780 Rain 7 998 87 0 2.68 225 12:56 08.12.2019
2781 Rain 7 998 86 0 2.24 225 12:38 08.12.2019
2782 Rain 7 999 86 0 2.68 202 12:18 08.12.2019
2783 Rain 7 999 85 0 2.68 225 11:57 08.12.2019
2784 Rain 8 999 85 0 2.68 225 11:37 08.12.2019
2785 Clouds 8 1000 84 0 2.24 225 11:19 08.12.2019
2786 Clouds 8 1000 84 0 2.68 225 10:40 08.12.2019
2787 Clouds 8 1001 84 0 2.24 225 10:21 08.12.2019
2788 Clouds 7 1001 84 0 2.68 225 09:58 08.12.2019
2789 Clouds 7 1002 85 0 3.13 225 09:39 08.12.2019
2790 Clouds 7 1002 85 0 2.68 225 09:20 08.12.2019
2791 Clouds 7 1002 86 0 2.24 225 08:59 08.12.2019
2792 Clouds 7 1003 86 0 2.24 225 08:41 08.12.2019
2793 Clouds 7 1003 87 0 1.79 202 08:22 08.12.2019
2794 Clouds 7 1003 87 0 2.68 225 07:49 08.12.2019
2795 Clouds 7 1004 88 0 2.24 225 07:21 08.12.2019
2796 Clouds 7 1005 88 0 1.79 225 06:58 08.12.2019
2797 Clouds 7 1005 88 0 1.34 202 06:38 08.12.2019
2798 Clouds 8 1000 85 0 11.57 221 06:18 08.12.2019
2799 Rain 8 1002 86 0 10.51 230 05:22 08.12.2019
2800 Rain 8 1002 86 0 10.51 230 04:20 08.12.2019
2801 Rain 8 1002 86 0 10.51 230 03:38 08.12.2019
2802 Rain 8 1002 86 0 10.51 230 02:41 08.12.2019
2803 Rain 8 1005 87 0 12.66 254 02:19 08.12.2019
2804 Rain 7 1010 92 0 0.89 225 01:34 08.12.2019
2805 Rain 7 1010 92 0 0.89 225 00:52 08.12.2019
2806 Rain 6 1011 92 0 0.89 270 00:23 08.12.2019
2807 Rain 6 1011 92 0 0.89 270 23:57 07.12.2019
2808 Rain 6 1011 92 0 0.89 270 23:37 07.12.2019
2809 Clouds 6 1011 92 0 0.89 292 23:18 07.12.2019
2810 Clouds 6 1011 92 0 10.23 268 22:55 07.12.2019
2811 Clouds 6 1011 92 0 10.23 268 22:36 07.12.2019
2812 Clouds 6 1010 91 0 0.89 270 22:18 07.12.2019
2813 Clouds 6 1010 91 0 0.89 270 21:55 07.12.2019
2814 Clouds 6 1010 90 0 0.45 270 21:37 07.12.2019
2815 Clouds 6 1010 90 0 1.34 315 21:18 07.12.2019
2816 Clouds 6 1011 90 0 0.45 270 20:38 07.12.2019
2817 Clouds 6 1010 90 0 1.79 270 20:20 07.12.2019
2818 Clouds 6 1010 89 0 0.45 292 19:58 07.12.2019
2819 Clouds 6 1010 89 0 0.45 292 19:39 07.12.2019
2820 Clouds 6 1010 89 0 10.77 278 19:21 07.12.2019
2821 Clouds 6 1010 89 0 0.45 270 18:58 07.12.2019
2822 Clouds 6 1010 89 0 0.89 270 18:40 07.12.2019
2823 Clouds 6 1010 89 0 0.89 270 18:40 07.12.2019
2824 Clouds 6 1010 89 0 1.34 292 18:18 07.12.2019
2825 Clouds 6 1010 90 0 0.89 292 17:56 07.12.2019
2826 Clouds 6 1009 90 0 1.34 315 17:37 07.12.2019
2827 Rain 7 1009 89 0 0.89 292 17:19 07.12.2019
2828 Rain 7 1009 87 0 2.24 315 16:56 07.12.2019
2829 Rain 7 1009 88 0 1.34 315 16:36 07.12.2019
2830 Rain 7 1009 88 0 1.34 315 16:36 07.12.2019
2831 Rain 7 1008 85 0 0.89 292 16:18 07.12.2019
2832 Rain 7 1008 85 0 0.89 292 16:18 07.12.2019
2833 Rain 7 1008 85 0 1.79 292 15:41 07.12.2019
2834 Rain 7 1008 85 0 0.89 270 15:23 07.12.2019
2835 Rain 7 1008 85 0 0.89 270 15:23 07.12.2019
2836 Rain 8 1007 84 0 1.34 315 14:56 07.12.2019
2837 Rain 8 1007 84 0 1.34 292 14:38 07.12.2019
2838 Clouds 8 1001 79 0 10.36 276 14:18 07.12.2019
2839 Clouds 8 1001 79 0 10.36 276 13:40 07.12.2019
2840 Clouds 8 1002 78 0 10.69 276 13:20 07.12.2019
2841 Clouds 8 1002 78 0 10.69 276 12:55 07.12.2019
2842 Clouds 8 1002 78 0 10.69 276 12:37 07.12.2019
2843 Clouds 8 1002 78 0 10.69 276 12:19 07.12.2019
2844 Clouds 8 1002 78 0 10.69 276 11:55 07.12.2019
2845 Clouds 8 1002 78 0 10.69 276 11:37 07.12.2019
2846 Rain 9 998 86 0 12.52 287 11:19 07.12.2019
2847 Rain 9 998 86 0 12.52 287 10:37 07.12.2019
2848 Rain 9 998 86 0 12.52 287 10:19 07.12.2019
2849 Rain 9 998 86 0 12.52 287 09:41 07.12.2019
2850 Rain 9 998 86 0 12.52 287 09:22 07.12.2019
2851 Rain 9 998 86 0 12.52 287 08:47 07.12.2019
2852 Rain 9 998 86 0 12.52 287 08:26 07.12.2019
2853 Rain 8 996 89 0 12.06 247 07:58 07.12.2019
2854 Rain 8 996 89 0 12.06 247 07:39 07.12.2019
2855 Rain 8 996 89 0 12.06 247 07:21 07.12.2019
2856 Rain 8 996 89 0 12.06 247 06:45 07.12.2019
2857 Rain 8 996 89 0 12.06 247 06:24 07.12.2019
2858 Rain 8 996 88 0 11.76 232 04:52 07.12.2019
2859 Rain 6 1002 92 0 1.79 225 03:54 07.12.2019
2860 Rain 6 1002 92 0 1.79 225 02:56 07.12.2019
2861 Rain 6 1002 92 0 2.24 225 02:21 07.12.2019
2862 Rain 5 1003 92 0 1.79 225 01:31 07.12.2019
2863 Rain 5 1003 92 0 1.34 225 00:52 07.12.2019
2864 Rain 5 1003 92 0 1.79 202 00:19 07.12.2019
2865 Rain 4 1004 92 0 1.34 225 23:48 06.12.2019
2866 Rain 4 1004 92 0 1.79 225 23:24 06.12.2019
2867 Rain 4 1004 91 0 1.79 225 22:59 06.12.2019
2868 Rain 4 1004 91 0 1.79 225 22:37 06.12.2019
2869 Rain 4 1005 91 0 1.34 225 22:19 06.12.2019
2870 Rain 4 1005 91 0 1.79 225 21:57 06.12.2019
2871 Rain 4 1005 91 0 2.24 247 21:38 06.12.2019
2872 Rain 4 1005 91 0 1.79 225 21:19 06.12.2019
2873 Rain 4 1006 91 0 1.79 225 20:42 06.12.2019
2874 Rain 4 1006 91 0 1.79 225 20:42 06.12.2019
2875 Rain 7 1000 88 0 11.35 219 20:23 06.12.2019
2876 Rain 4 1006 90 0 1.79 225 19:59 06.12.2019
2877 Rain 4 1006 90 0 1.79 225 19:40 06.12.2019
2878 Rain 4 1006 90 0 1.79 225 19:21 06.12.2019
2879 Rain 4 1006 90 0 1.79 225 18:55 06.12.2019
2880 Rain 4 1006 90 0 1.79 225 18:37 06.12.2019
2881 Rain 4 1007 90 0 1.79 202 18:19 06.12.2019
2882 Rain 4 1007 90 0 1.79 225 17:55 06.12.2019
2883 Rain 4 1007 90 0 1.79 225 17:37 06.12.2019
2884 Rain 4 1007 90 0 1.79 247 17:19 06.12.2019
2885 Rain 4 1007 90 0 1.79 202 16:42 06.12.2019
2886 Rain 4 1007 90 0 1.34 225 16:24 06.12.2019
2887 Rain 4 1007 90 0 0.89 225 15:59 06.12.2019
2888 Rain 4 1008 90 0 1.79 225 15:40 06.12.2019
2889 Rain 4 1008 90 0 2.24 225 15:18 06.12.2019
2890 Rain 4 1008 90 0 1.34 225 14:56 06.12.2019
2891 Rain 5 1008 90 0 1.34 225 14:38 06.12.2019
2892 Clouds 5 1009 91 0 1.34 225 14:18 06.12.2019
2893 Clouds 4 1009 90 0 1.34 225 13:43 06.12.2019
2894 Clouds 4 1009 90 0 1.34 225 13:25 06.12.2019
2895 Clouds 4 1009 90 0 2.24 225 12:43 06.12.2019
2896 Clouds 4 1009 90 0 2.24 225 12:23 06.12.2019
2897 Clouds 4 1009 90 0 1.34 225 11:58 06.12.2019
2898 Clouds 4 1010 90 0 1.79 225 11:39 06.12.2019
2899 Rain 4 1010 90 0 1.34 225 11:21 06.12.2019
2900 Rain 4 1010 89 0 1.79 247 10:44 06.12.2019
2901 Rain 4 1010 89 0 1.79 225 10:22 06.12.2019
2902 Rain 4 1010 89 0 2.24 225 09:59 06.12.2019
2903 Rain 4 1010 89 0 0.89 225 09:39 06.12.2019
2904 Rain 4 1010 89 0 1.79 225 09:20 06.12.2019
2905 Rain 4 1010 89 0 1.79 225 08:57 06.12.2019
2906 Rain 4 1010 89 0 2.24 225 08:38 06.12.2019
2907 Rain 4 1010 89 0 2.24 225 08:38 06.12.2019
2908 Rain 4 1010 88 0 3.13 225 08:20 06.12.2019
2909 Rain 3 1010 87 0 1.79 225 07:37 06.12.2019
2910 Rain 3 1010 86 0 2.24 225 07:19 06.12.2019
2911 Rain 3 1010 85 0 1.34 225 06:30 06.12.2019
2912 Rain 3 1010 84 0 1.79 225 05:54 06.12.2019
2913 Rain 3 1010 84 0 2.24 225 05:35 06.12.2019
2914 Clouds 4 1009 79 0 12.77 224 02:19 06.12.2019
2915 Clouds 4 1009 79 0 12.77 224 01:43 06.12.2019
2916 Clouds 4 1009 82 0 12.62 224 00:49 06.12.2019
2917 Clouds 4 1009 82 0 12.62 224 00:22 06.12.2019
2918 Clouds 4 1009 82 0 12.62 224 23:50 05.12.2019
2919 Clouds 3 1015 89 0 1.34 225 23:20 05.12.2019
2920 Clouds 3 1016 89 0 1.79 225 22:58 05.12.2019
2921 Clouds 3 1016 89 0 1.79 225 22:38 05.12.2019
2922 Clouds 3 1016 89 0 1.34 225 22:19 05.12.2019
2923 Clouds 3 1016 89 0 0.89 225 21:55 05.12.2019
2924 Clouds 3 1016 89 0 1.34 225 21:37 05.12.2019
2925 Clouds 3 1017 89 0 2.24 225 21:19 05.12.2019
2926 Clouds 3 1017 89 0 1.34 225 20:55 05.12.2019
2927 Clouds 3 1017 89 0 1.79 225 20:36 05.12.2019
2928 Clouds 4 1013 84 0 10.18 236 20:18 05.12.2019
2929 Clouds 4 1013 85 0 9.73 238 19:40 05.12.2019
2930 Clouds 4 1013 85 0 9.73 238 19:22 05.12.2019
2931 Clouds 4 1013 85 0 9.73 238 18:59 05.12.2019
2932 Clouds 4 1013 85 0 9.73 238 18:39 05.12.2019
2933 Clouds 4 1013 85 0 9.73 238 18:20 05.12.2019
2934 Clouds 4 1013 85 0 9.73 238 17:55 05.12.2019
2935 Clouds 4 1013 85 0 9.73 238 17:37 05.12.2019
2936 Clear 3 1019 86 0 1.79 225 17:18 05.12.2019
2937 Clear 3 1019 86 0 1.34 225 16:40 05.12.2019
2938 Clear 3 1019 86 0 1.34 225 16:40 05.12.2019
2939 Clear 3 1019 86 0 0.89 202 16:22 05.12.2019
2940 Clear 5 1014 80 0 8.98 239 15:59 05.12.2019
2941 Clear 5 1014 80 0 8.98 239 15:40 05.12.2019
2942 Clear 4 1019 84 0 0.89 202 15:21 05.12.2019
2943 Clear 5 1020 84 0 0.45 225 14:57 05.12.2019
2944 Clear 6 1020 85 0 0.45 225 14:38 05.12.2019
2945 Clear 6 1020 85 0 0.89 225 14:20 05.12.2019
2946 Clear 6 1020 85 0 8.29 243 13:58 05.12.2019
2947 Clear 6 1020 86 0 0.45 225 13:40 05.12.2019
2948 Clouds 6 1020 86 0 8.26 238 13:21 05.12.2019
2949 Clouds 5 1020 87 0 0.89 225 12:59 05.12.2019
2950 Clouds 5 1020 88 0 0.45 225 12:40 05.12.2019
2951 Clouds 5 1020 88 0 1.34 225 12:22 05.12.2019
2952 Clouds 4 1021 89 0 0.89 202 11:56 05.12.2019
2953 Clouds 4 1021 89 0 0.89 225 11:37 05.12.2019
2954 Clouds 3 1021 89 0 1.34 202 11:18 05.12.2019
2955 Clouds 3 1022 89 0 0.89 225 10:54 05.12.2019
2956 Clouds 3 1022 89 0 0.89 225 10:54 05.12.2019
2957 Clouds 3 1022 90 0 1.34 225 10:36 05.12.2019
2958 Clouds 3 1023 90 0 0.45 225 10:18 05.12.2019
2959 Clouds 2 1023 89 0 0.45 202 09:42 05.12.2019
2960 Clouds 2 1023 89 0 0.89 180 09:21 05.12.2019
2961 Clouds 1 1023 89 0 0.45 180 08:58 05.12.2019
2962 Clouds 1 1023 89 0 7.75 229 08:37 05.12.2019
2963 Clouds 1 1023 89 0 0.45 180 08:19 05.12.2019
2964 Clouds 2 1023 88 0 0.45 180 07:49 05.12.2019
2965 Clouds 2 1022 88 0 0.45 202 07:31 05.12.2019
2966 Clouds 2 1023 88 0 7.44 248 06:57 05.12.2019
2967 Clouds 2 1023 88 0 7.44 248 06:38 05.12.2019
2968 Clouds 2 1023 88 0 0.45 202 06:18 05.12.2019
2969 Clouds 3 1023 88 0 7.44 248 05:47 05.12.2019
2970 Clouds 3 1023 88 0 7.85 240 05:21 05.12.2019
2971 Clouds 4 1023 88 0 7.85 240 03:59 05.12.2019
2972 Clouds 4 1024 87 0 7.85 240 02:43 05.12.2019
2973 Clouds 4 1023 87 0 7.85 240 02:24 05.12.2019
2974 Clouds 4 1024 87 0 0.45 270 01:52 05.12.2019
2975 Clouds 4 1024 87 0 7.45 233 01:24 05.12.2019
2976 Clouds 4 1024 87 0 7.45 233 00:50 05.12.2019
2977 Clouds 4 1024 87 0 0.89 292 00:31 05.12.2019
2978 Clouds 4 1024 87 0 7.45 233 23:57 04.12.2019
2979 Clouds 4 1024 87 0 0.45 225 23:39 04.12.2019
2980 Clouds 4 1024 87 0 0.89 292 23:21 04.12.2019
2981 Clouds 4 1024 87 0 0.45 270 22:55 04.12.2019
2982 Clouds 4 1024 87 0 7.52 238 22:36 04.12.2019
2983 Clouds 4 1025 87 0 7.52 238 22:18 04.12.2019
2984 Clouds 4 1025 87 0 7.52 238 21:54 04.12.2019
2985 Clouds 4 1025 87 0 0.89 270 21:36 04.12.2019
2986 Clouds 4 1025 87 0 7.52 238 21:18 04.12.2019
2987 Clouds 4 1025 86 0 7.52 238 20:56 04.12.2019
2988 Clouds 4 1025 86 0 0.45 270 20:37 04.12.2019
2989 Clouds 4 1025 86 0 8.05 249 20:19 04.12.2019
2990 Clouds 5 1025 87 0 7.84 247 19:40 04.12.2019
2991 Clouds 5 1025 87 0 0.45 225 19:22 04.12.2019
2992 Clouds 5 1025 88 0 7.84 247 18:58 04.12.2019
2993 Clouds 5 1025 88 0 0.45 225 18:40 04.12.2019
2994 Clouds 5 1025 88 0 0.45 225 18:22 04.12.2019
2995 Clouds 5 1025 88 0 7.84 247 17:57 04.12.2019
2996 Clouds 5 1025 88 0 0.45 270 17:38 04.12.2019
2997 Clouds 5 1025 88 0 8.74 245 17:18 04.12.2019
2998 Clouds 5 1025 88 0 0.89 247 16:40 04.12.2019
2999 Clouds 5 1025 88 0 0.89 247 16:40 04.12.2019
3000 Clouds 5 1025 89 0 0.45 225 16:20 04.12.2019
3001 Clouds 5 1025 89 0 0.89 247 15:58 04.12.2019
3002 Clouds 5 1025 89 0 0.45 225 15:40 04.12.2019
3003 Clouds 6 1025 89 0 0.45 247 15:21 04.12.2019
3004 Clouds 7 1019 85 0 8.74 245 14:59 04.12.2019
3005 Clouds 7 1019 85 0 8.74 245 14:41 04.12.2019
3006 Clouds 7 1020 88 0 9.06 248 14:21 04.12.2019
3007 Clouds 7 1020 88 0 9.06 248 13:56 04.12.2019
3008 Clouds 7 1020 88 0 9.06 248 13:36 04.12.2019
3009 Clouds 7 1020 85 0 9.12 248 13:18 04.12.2019
3010 Clouds 7 1020 85 0 9.12 248 12:41 04.12.2019
3011 Clouds 7 1020 85 0 9.12 248 12:23 04.12.2019
3012 Clouds 7 1020 85 0 9.12 248 11:45 04.12.2019
3013 Clouds 7 1020 85 0 9.12 248 11:26 04.12.2019
3014 Rain 7 1020 87 0 9.4 252 10:59 04.12.2019
3015 Rain 7 1020 87 0 9.4 252 10:40 04.12.2019
3016 Rain 7 1020 87 0 9.4 252 10:22 04.12.2019
3017 Rain 7 1020 87 0 9.4 252 09:45 04.12.2019
3018 Rain 7 1020 87 0 9.4 252 09:25 04.12.2019
3019 Rain 7 1020 87 0 9.4 252 08:59 04.12.2019
3020 Rain 7 1020 87 0 9.4 252 08:38 04.12.2019
3021 Clouds 8 1020 82 0 9.15 267 08:19 04.12.2019
3022 Clouds 8 1020 82 0 9.15 267 07:42 04.12.2019
3023 Clouds 8 1020 82 0 9.15 267 07:23 04.12.2019
3024 Clouds 8 1020 82 0 9.15 267 06:33 04.12.2019
3025 Clouds 8 1020 82 0 9.15 267 05:48 04.12.2019
3026 Clouds 8 1019 86 0 11.28 263 04:58 04.12.2019
3027 Clouds 8 1019 86 0 11.28 263 03:54 04.12.2019
3028 Clouds 8 1020 89 0 11.8 260 02:21 04.12.2019
3029 Rain 8 1021 91 0 11.09 259 00:50 04.12.2019
3030 Rain 8 1021 91 0 11.09 259 00:23 04.12.2019
3031 Rain 8 1021 91 0 11.09 259 23:57 03.12.2019
3032 Rain 8 1021 91 0 11.09 259 23:38 03.12.2019
3033 Rain 8 1019 89 0 12.19 257 23:19 03.12.2019
3034 Rain 8 1019 89 0 12.19 257 22:40 03.12.2019
3035 Rain 8 1019 89 0 12.19 257 22:19 03.12.2019
3036 Rain 8 1019 89 0 12.19 257 21:58 03.12.2019
3037 Rain 8 1019 89 0 12.19 257 21:38 03.12.2019
3038 Rain 8 1019 89 0 12.19 257 21:38 03.12.2019
3039 Rain 8 1019 89 0 12.19 257 21:19 03.12.2019
3040 Rain 8 1019 89 0 12.19 257 20:58 03.12.2019
3041 Rain 8 1019 89 0 12.19 257 20:39 03.12.2019
3042 Rain 7 1021 90 0 11.66 253 20:18 03.12.2019
3043 Rain 7 1021 90 0 11.75 256 19:55 03.12.2019
3044 Rain 7 1021 90 0 11.75 256 19:37 03.12.2019
3045 Rain 7 1021 90 0 11.75 256 19:18 03.12.2019
3046 Rain 7 1021 90 0 11.75 256 18:56 03.12.2019
3047 Rain 7 1021 90 0 11.75 256 18:37 03.12.2019
3048 Rain 7 1021 90 0 11.75 256 18:19 03.12.2019
3049 Rain 7 1021 90 0 11.75 256 18:19 03.12.2019
3050 Rain 7 1021 90 0 11.75 256 17:55 03.12.2019
3051 Rain 7 1021 90 0 11.75 256 17:36 03.12.2019
3052 Rain 6 1021 91 0 9.61 240 17:18 03.12.2019
3053 Rain 6 1021 91 0 9.61 240 16:56 03.12.2019
3054 Rain 6 1021 91 0 9.61 240 16:36 03.12.2019
3055 Rain 6 1021 91 0 9.61 240 16:18 03.12.2019
3056 Rain 6 1021 91 0 9.61 240 15:41 03.12.2019
3057 Rain 6 1021 91 0 9.61 240 15:20 03.12.2019
3058 Rain 6 1021 91 0 9.61 240 14:59 03.12.2019
3059 Rain 6 1021 91 0 9.61 240 14:41 03.12.2019
3060 Clouds 5 1024 82 0 8.49 235 14:19 03.12.2019
3061 Clouds 5 1024 82 0 8.49 235 13:54 03.12.2019
3062 Clouds 5 1024 82 0 8.49 235 13:36 03.12.2019
3063 Clouds 5 1024 82 0 8.49 235 13:18 03.12.2019
3064 Clouds 6 1024 80 0 8.72 231 12:38 03.12.2019
3065 Clouds 6 1024 80 0 8.72 231 12:18 03.12.2019
3066 Clouds 6 1024 80 0 8.72 231 11:58 03.12.2019
3067 Clouds 6 1024 80 0 8.72 231 11:39 03.12.2019
3068 Clouds 5 1024 69 0 5.06 265 11:20 03.12.2019
3069 -273 0 0 0 0 0 10:58 03.12.2019
3070 Clouds 5 1024 69 0 5.06 265 10:40 03.12.2019
3071 Clouds 5 1024 69 0 5.06 265 10:19 03.12.2019
3072 Clouds 5 1024 69 0 5.06 265 09:46 03.12.2019
3073 Clouds 5 1024 69 0 5.06 265 09:25 03.12.2019
3074 Clouds 5 1024 69 0 5.06 265 08:59 03.12.2019
3075 Clouds 5 1024 69 0 5.06 265 08:40 03.12.2019
3076 Clouds 4 1025 63 0 4.26 263 08:22 03.12.2019
3077 Clouds 4 1025 63 0 4.26 263 07:54 03.12.2019
3078 Clouds 4 1025 63 0 4.26 263 07:30 03.12.2019
3079 Clouds 4 1025 63 0 4.26 263 06:59 03.12.2019
3080 Clouds 4 1025 63 0 4.26 263 06:21 03.12.2019
3081 Clouds 4 1025 63 0 4.26 263 05:56 03.12.2019
3082 Clear 4 1023 67 0 3.56 299 04:48 03.12.2019
3083 Clear 4 1023 67 0 3.56 299 03:36 03.12.2019
3084 Clear 4 1023 67 0 3.56 299 03:18 03.12.2019
3085 Clear 4 1023 67 0 3.56 299 02:43 03.12.2019
3086 Clear 4 1023 67 0 3.56 299 02:24 03.12.2019
3087 Clouds 5 1023 63 0 4.39 322 01:41 03.12.2019
3088 Clouds 5 1024 57 0 3.48 314 01:23 03.12.2019
3089 Clouds 5 1024 57 0 3.48 314 00:44 03.12.2019
3090 Clouds 5 1024 57 0 3.48 314 00:44 03.12.2019
3091 Clouds 5 1024 57 0 3.48 314 00:26 03.12.2019
3092 Clouds 5 1024 57 0 3.48 314 23:59 02.12.2019
3093 Clouds 2 1027 86 0 3.48 314 23:41 02.12.2019
3094 Rain 2 1027 86 0 5.53 0 23:19 02.12.2019
3095 Rain 2 1026 86 0 5.53 0 22:41 02.12.2019
3096 Rain 3 1026 86 0 0.45 22 22:22 02.12.2019
3097 Rain 3 1026 87 0 5.53 0 21:58 02.12.2019
3098 Rain 3 1025 87 0 5.53 0 21:37 02.12.2019
3099 Rain 3 1025 88 0 0.45 22 21:18 02.12.2019
3100 Rain 3 1025 88 0 5.53 0 20:56 02.12.2019
3101 Rain 3 1024 89 0 5.53 0 20:38 02.12.2019
3102 Rain 3 1024 89 0 8.57 337 20:19 02.12.2019
3103 Rain 2 1024 88 0 0.45 315 19:43 02.12.2019
3104 Rain 3 1024 87 0 0.89 0 19:23 02.12.2019
3105 Rain 3 1023 88 0 0.45 0 18:59 02.12.2019
3106 Rain 3 1023 88 0 0.45 0 18:59 02.12.2019
3107 Rain 3 1023 88 0 0.45 337 18:41 02.12.2019
3108 Rain 3 1022 88 0 0.45 22 18:19 02.12.2019
3109 Rain 3 1022 87 0 0.89 315 17:58 02.12.2019
3110 Rain 3 1022 88 0 1.34 292 17:40 02.12.2019
3111 Rain 3 1022 88 0 10.79 316 17:20 02.12.2019
3112 Rain 3 1021 87 0 1.34 292 16:42 02.12.2019
3113 Rain 3 1021 87 0 2.68 315 16:19 02.12.2019
3114 Rain 4 1021 84 0 1.34 337 15:59 02.12.2019
3115 Rain 4 1021 84 0 1.79 292 15:40 02.12.2019
3116 Rain 4 1021 85 0 0.45 292 15:22 02.12.2019
3117 Rain 5 1020 84 0 1.79 292 14:59 02.12.2019
3118 Rain 6 1020 85 0 1.34 315 14:39 02.12.2019
3119 Rain 5 1020 86 0 0.89 292 14:20 02.12.2019
3120 Rain 5 1020 86 0 0.89 292 14:20 02.12.2019
3121 Rain 5 1020 86 0 0.89 292 13:58 02.12.2019
3122 Rain 5 1021 88 0 0.89 315 13:39 02.12.2019
3123 Rain 5 1021 88 0 0.89 315 13:20 02.12.2019
3124 Rain 5 1021 88 0 0.89 315 12:57 02.12.2019
3125 Rain 5 1021 88 0 0.89 315 12:38 02.12.2019
3126 Rain 5 1021 88 0 0.89 315 12:20 02.12.2019
3127 Rain 5 1021 88 0 1.79 315 11:56 02.12.2019
3128 Rain 4 1021 93 0 1.34 292 11:37 02.12.2019
3129 Clear 4 1021 93 0 1.34 292 11:18 02.12.2019
3130 Clear 4 1021 93 0 1.34 292 10:55 02.12.2019
3131 Clear 4 1021 93 0 1.34 292 10:37 02.12.2019
3132 Clear 4 1021 93 0 1.34 292 10:18 02.12.2019
3133 Clear 3 1020 93 0 9.97 309 09:41 02.12.2019
3134 Clear 3 1020 93 0 0.89 292 09:19 02.12.2019
3135 Clear 3 1020 93 0 0.89 270 08:57 02.12.2019
3136 Clear 3 1020 93 0 0.45 292 08:38 02.12.2019
3137 Rain 2 1020 93 0 0.89 292 08:20 02.12.2019
3138 Rain 3 1020 93 0 9.85 301 07:44 02.12.2019
3139 Rain 3 1020 93 0 0.45 270 07:21 02.12.2019
3140 Rain 3 1020 93 0 0.45 270 06:56 02.12.2019
3141 Rain 3 1020 93 0 9.85 301 06:37 02.12.2019
3142 Rain 3 1020 93 0 9.85 301 05:32 02.12.2019
3143 Rain 2 1021 92 0 9.87 266 04:26 02.12.2019
3144 Rain 2 1021 92 0 9.87 266 02:53 02.12.2019
3145 Rain 2 1022 92 0 0.45 292 02:31 02.12.2019
3146 Rain 2 1022 92 0 7.53 274 01:26 02.12.2019
3147 Rain 2 1022 92 0 0.89 292 00:58 02.12.2019
3148 Rain 2 1022 92 0 0.89 225 00:25 02.12.2019
3149 Rain 2 1023 92 0 7.76 269 23:55 01.12.2019
3150 Rain 2 1023 92 0 0.45 225 23:37 01.12.2019
3151 Rain 2 1023 92 0 0.45 247 23:19 01.12.2019
3152 Rain 2 1023 92 0 5.55 270 22:55 01.12.2019
3153 Rain 2 1023 92 0 5.55 270 22:37 01.12.2019
3154 Rain 1 1023 92 0 0.89 225 22:18 01.12.2019
3155 Rain 1 1023 92 0 0.45 225 21:54 01.12.2019
3156 Rain 1 1023 91 0 0.45 225 21:36 01.12.2019
3157 Rain 2 1023 92 0 0.45 225 21:18 01.12.2019
3158 Rain 2 1023 92 0 0.45 225 20:55 01.12.2019
3159 Rain 1 1024 92 0 0.45 225 20:37 01.12.2019
3160 Rain 1 1024 92 0 0.45 225 20:19 01.12.2019
3161 Rain 1 1024 91 0 0.89 225 19:54 01.12.2019
3162 Rain 1 1024 91 0 0.89 225 19:36 01.12.2019
3163 Rain 1 1024 91 0 0.45 247 19:18 01.12.2019
3164 Rain 2 1024 91 0 0.45 270 18:54 01.12.2019
3165 Rain 2 1024 91 0 0.45 270 18:36 01.12.2019
3166 Rain 1 1025 91 0 6.58 298 18:18 01.12.2019
3167 Rain 1 1025 91 0 6.58 298 17:55 01.12.2019
3168 Rain 2 1025 91 0 0.45 270 17:37 01.12.2019
3169 Rain 2 1025 91 0 0.45 270 17:37 01.12.2019
3170 Rain 2 1025 91 0 5.85 279 17:19 01.12.2019
3171 Rain 2 1025 91 0 0.45 225 16:42 01.12.2019
3172 Rain 2 1024 91 0 0.45 247 16:23 01.12.2019
3173 Rain 2 1025 91 0 5.85 279 15:51 01.12.2019
3174 Rain 2 1025 91 0 0.45 247 15:33 01.12.2019
3175 Rain 2 1025 91 0 0.45 247 15:33 01.12.2019
3176 Rain 2 1025 91 0 0.45 247 15:33 01.12.2019
3177 Rain 2 1025 91 0 0.89 225 14:58 01.12.2019
3178 Rain 2 1025 91 0 0.89 225 14:58 01.12.2019
3179 Rain 2 1025 91 0 0.89 225 14:58 01.12.2019
3180 Rain 2 1025 91 0 0.89 225 14:37 01.12.2019
3181 Clouds 3 1025 91 0 0.45 225 14:18 01.12.2019
3182 Clouds 3 1025 91 0 0.89 225 13:40 01.12.2019
3183 Clouds 3 1025 91 0 4.86 271 13:21 01.12.2019
3184 Clouds 3 1025 91 0 4.86 271 12:47 01.12.2019
3185 Clouds 3 1026 91 0 0.45 225 12:19 01.12.2019
3186 Clouds 3 1026 91 0 0.45 225 12:19 01.12.2019
3187 Clouds 3 1026 91 0 0.45 225 12:18 01.12.2019
3188 Clouds 3 1026 91 0 0.45 225 12:18 01.12.2019
3189 Clouds 3 1026 91 0 0.45 225 12:18 01.12.2019
3190 Clouds 2 1026 91 0 0.89 225 11:43 01.12.2019
3191 Clouds 2 1026 91 0 0.89 225 11:43 01.12.2019
3192 Clouds 2 1026 91 0 0.89 225 11:43 01.12.2019
3193 Clouds 2 1026 91 0 0.89 225 11:43 01.12.2019
3194 Clouds 2 1026 91 0 4.86 271 11:24 01.12.2019
3195 Clouds 2 1026 91 0 4.59 290 10:55 01.12.2019
3196 Clouds 2 1026 91 0 0.89 225 10:37 01.12.2019
3197 Clouds 1 1026 91 0 0.89 225 10:18 01.12.2019
3198 Clouds 1 1026 91 0 0.45 225 09:40 01.12.2019
3199 Clouds 1 1026 91 0 0.45 225 09:40 01.12.2019
3200 Clouds 1 1026 91 0 0.45 225 09:21 01.12.2019
3201 Clouds 1 1026 91 0 0.45 225 08:49 01.12.2019
3202 Clouds 1 1026 91 0 0.45 225 08:22 01.12.2019
3203 Clouds 1 1026 91 0 5.12 286 07:52 01.12.2019
3204 Clouds 1 1026 90 0 0.45 225 07:32 01.12.2019
3205 Clouds 1 1026 90 0 0.45 225 07:32 01.12.2019
3206 Clouds 1 1026 90 0 5.12 286 06:58 01.12.2019
3207 Clouds 1 1026 90 0 0.45 202 06:36 01.12.2019
3208 Clouds 0 1026 90 0 0.45 202 05:50 01.12.2019
3209 Clouds -1 1026 90 0 0.45 270 04:53 01.12.2019
3210 Clouds -1 1026 90 0 6.23 299 04:21 01.12.2019
3211 Clouds 0 1026 90 0 0.45 270 02:38 01.12.2019
3212 Clouds 0 1026 89 0 0.45 270 02:20 01.12.2019
3213 Clouds 0 1026 89 0 5.26 291 01:52 01.12.2019
3214 Clouds 0 1026 89 0 4.72 284 01:26 01.12.2019
3215 Clouds 0 1026 89 0 4.72 284 00:44 01.12.2019
3216 Clouds 0 1026 89 0 4.72 284 00:26 01.12.2019
3217 Clouds 0 1026 89 0 4.72 284 23:45 30.11.2019
3218 Clouds 0 1026 89 0 4.72 284 23:25 30.11.2019
3219 Clouds 0 1026 89 0 5.21 295 22:59 30.11.2019
3220 Clouds 0 1026 89 0 5.21 295 22:39 30.11.2019
3221 Clouds 0 1025 89 0 5.21 295 22:20 30.11.2019
3222 Clouds 1 1026 89 0 5.21 295 21:47 30.11.2019
3223 Clouds 1 1025 89 0 5.21 295 21:28 30.11.2019
3224 Clouds 1 1025 89 0 5.21 295 20:58 30.11.2019
3225 Clouds 1 1025 89 0 5.21 295 20:40 30.11.2019
3226 Clouds 1 1025 88 0 6.64 305 20:20 30.11.2019
3227 Clouds 1 1025 88 0 6.64 305 19:57 30.11.2019
3228 Clouds 2 1025 88 0 6.64 305 19:39 30.11.2019
3229 Clouds 2 1025 88 0 6.64 305 19:21 30.11.2019
3230 Clouds 1 1025 87 0 6.64 305 18:59 30.11.2019
3231 Clouds 1 1025 86 0 6.64 305 18:39 30.11.2019
3232 Clouds 1 1025 86 0 6.64 305 18:21 30.11.2019
3233 Clouds 1 1025 85 0 6.64 305 17:59 30.11.2019
3234 Clouds 1 1024 85 0 6.64 305 17:41 30.11.2019
3235 Clouds 1 1024 85 0 7.9 301 17:22 30.11.2019
3236 Clouds 2 1024 84 0 7.9 301 16:59 30.11.2019
3237 Clouds 2 1024 84 0 7.9 301 16:59 30.11.2019
3238 Clouds 2 1024 84 0 7.9 301 16:40 30.11.2019
3239 Clouds 2 1024 83 0 7.9 301 16:21 30.11.2019
3240 Clouds 3 1024 82 0 7.9 301 15:54 30.11.2019
3241 Clouds 4 1024 81 0 0.45 292 15:36 30.11.2019
3242 Clouds 4 1023 81 0 0.89 292 15:18 30.11.2019
3243 Clouds 4 1023 80 0 0.45 292 14:55 30.11.2019
3244 Clouds 5 1023 80 0 0.45 315 14:36 30.11.2019
3245 Clouds 6 1023 80 0 1.34 315 14:18 30.11.2019
3246 Clouds 5 1023 83 0 0.45 292 13:42 30.11.2019
3247 Clouds 5 1023 83 0 8.56 305 13:24 30.11.2019
3248 Rain 4 1023 85 0 0.45 292 12:58 30.11.2019
3249 Rain 4 1023 85 0 0.45 292 12:39 30.11.2019
3250 Rain 4 1023 85 0 9.14 300 12:21 30.11.2019
3251 Rain 3 1022 86 0 0.45 292 11:42 30.11.2019
3252 Clouds 3 1022 87 0 0.45 292 11:19 30.11.2019
3253 Clouds 3 1022 87 0 0.45 292 11:19 30.11.2019
3254 Clouds 3 1022 88 0 0.45 270 10:56 30.11.2019
3255 Clouds 3 1022 89 0 0.89 292 10:37 30.11.2019
3256 Clouds 2 1022 90 0 0.45 292 10:19 30.11.2019
3257 Clouds 1 1022 89 0 9.49 301 09:46 30.11.2019
3258 Clouds 1 1021 89 0 0.45 292 09:24 30.11.2019
3259 Clouds 0 1021 88 0 0.45 270 08:44 30.11.2019
3260 Clouds 0 1021 88 0 0.45 270 08:44 30.11.2019
3261 Clear 1 1021 88 0 9.34 292 08:22 30.11.2019
3262 Clear 0 1021 88 0 9.34 292 07:58 30.11.2019
3263 Clear 0 1021 88 0 9.34 292 07:39 30.11.2019
3264 Clear 0 1020 88 0 9.34 292 06:59 30.11.2019
3265 Clear 0 1020 88 0 9.34 292 06:29 30.11.2019
3266 Clear 0 1020 88 0 0.45 292 05:52 30.11.2019
3267 Clear 0 1019 87 0 0.45 270 03:53 30.11.2019
3268 Clear 1 1018 86 0 0.89 292 02:47 30.11.2019
3269 Clear 1 1018 86 0 8.57 301 02:22 30.11.2019
3270 Clear 1 1018 85 0 8.57 301 01:38 30.11.2019
3271 Clear 1 1017 84 0 7.33 308 01:19 30.11.2019
3272 Clear 1 1017 83 0 0.45 292 00:36 30.11.2019
3273 Clear 2 1017 82 0 7.33 308 00:18 30.11.2019
3274 Clear 3 1016 82 0 0.45 292 23:43 29.11.2019
3275 Clear 3 1016 82 0 11.1 330 23:23 29.11.2019
3276 Clear 4 1015 81 0 11.1 330 22:47 29.11.2019
3277 Clear 4 1015 81 0 0.45 22 22:26 29.11.2019
3278 Clear 4 1014 79 0 0.45 45 21:45 29.11.2019
3279 Clear 4 1014 79 0 0.45 22 21:26 29.11.2019
3280 Clear 3 1013 79 0 11.1 330 20:59 29.11.2019
3281 Clear 3 1013 78 0 11.1 330 20:40 29.11.2019
3282 Clouds 3 1013 79 0 1.34 45 20:21 29.11.2019
3283 Clouds 3 1012 79 0 12.86 342 19:58 29.11.2019
3284 Clouds 3 1012 79 0 12.86 342 19:40 29.11.2019
3285 Clouds 3 1011 79 0 0.45 45 19:21 29.11.2019
3286 Clouds 3 1011 79 0 1.34 0 18:58 29.11.2019
3287 Clouds 3 1011 79 0 12.86 342 18:40 29.11.2019
3288 Clouds 3 1010 80 0 0.45 292 18:22 29.11.2019
3289 Clouds 3 1009 81 0 12.86 342 17:46 29.11.2019
3290 Clouds 3 1009 81 0 12.86 342 17:28 29.11.2019
3291 Clouds 4 1008 81 0 2.24 0 16:59 29.11.2019
3292 Clouds 4 1008 81 0 2.24 0 16:59 29.11.2019
3293 Clouds 4 1008 81 0 0.45 0 16:41 29.11.2019
3294 Clouds 4 1007 83 0 0.89 337 16:20 29.11.2019
3295 Clouds 4 1006 86 0 14.34 331 15:43 29.11.2019
3296 Clouds 4 1005 87 0 0.89 337 15:24 29.11.2019
3297 Clouds 4 1004 88 0 0.45 157 14:59 29.11.2019
3298 Clouds 4 1004 88 0 0.89 315 14:40 29.11.2019
3299 Rain 4 1003 88 0 1.79 337 14:21 29.11.2019
3300 Rain 4 1002 87 0 1.79 315 13:56 29.11.2019
3301 Rain 4 1002 87 0 0.45 292 13:37 29.11.2019
3302 Rain 3 1001 87 0 4.47 315 13:19 29.11.2019
3303 Rain 3 1000 88 0 3.13 315 12:42 29.11.2019
3304 Rain 3 1000 88 0 1.34 292 12:23 29.11.2019
3305 Rain 4 1000 86 0 1.34 292 11:56 29.11.2019
3306 Rain 4 999 86 0 2.68 337 11:38 29.11.2019
3307 Rain 4 999 85 0 1.79 292 11:18 29.11.2019
3308 Rain 4 999 85 0 1.34 292 10:57 29.11.2019
3309 Rain 4 998 86 0 0.89 292 10:38 29.11.2019
3310 Rain 4 998 86 0 1.79 270 10:20 29.11.2019
3311 Rain 4 998 88 0 1.79 247 09:57 29.11.2019
3312 Rain 4 998 88 0 1.79 247 09:57 29.11.2019
3313 Rain 4 998 88 0 2.24 292 09:38 29.11.2019
3314 Rain 4 997 88 0 1.79 292 09:20 29.11.2019
3315 Rain 4 997 88 0 2.24 337 08:55 29.11.2019
3316 Rain 4 997 88 0 0.89 270 08:36 29.11.2019
3317 Rain 4 996 88 0 1.79 292 08:18 29.11.2019
3318 Rain 4 996 88 0 0.45 270 07:41 29.11.2019
3319 Rain 4 995 87 0 1.34 292 07:23 29.11.2019
3320 Rain 4 995 84 0 0.45 270 06:47 29.11.2019
3321 Rain 4 995 83 0 14.44 303 06:28 29.11.2019
3322 Rain 5 994 84 0 0.89 225 05:32 29.11.2019
3323 Rain 5 994 84 0 0.89 225 05:32 29.11.2019
3324 Rain 5 994 84 0 0.89 225 05:32 29.11.2019
3325 Rain 6 994 85 0 0.45 247 04:57 29.11.2019
3326 Rain 7 994 89 0 0.45 202 03:41 29.11.2019
3327 Rain 7 994 89 0 0.45 202 03:41 29.11.2019
3328 Rain 7 993 88 0 0.89 247 03:18 29.11.2019
3329 Rain 7 993 88 0 1.79 292 02:25 29.11.2019
3330 Rain 7 992 90 0 1.34 292 01:49 29.11.2019
3331 Rain 8 992 91 0 0.45 337 01:23 29.11.2019
3332 Rain 8 991 92 0 0.45 292 00:41 29.11.2019
3333 Rain 8 991 92 0 2.24 247 00:20 29.11.2019
3334 Rain 8 991 92 0 0.89 292 23:44 28.11.2019
3335 Rain 8 991 92 0 0.89 292 23:21 28.11.2019
3336 Rain 8 990 92 0 0.89 270 22:58 28.11.2019
3337 Rain 8 990 91 0 9.7 279 22:38 28.11.2019
3338 Rain 8 990 91 0 9.7 279 22:20 28.11.2019
3339 Rain 8 990 91 0 0.45 270 21:56 28.11.2019
3340 Rain 8 990 90 0 0.45 270 21:38 28.11.2019
3341 Rain 8 989 89 0 0.45 247 21:19 28.11.2019
3342 Rain 8 989 89 0 0.89 225 20:54 28.11.2019
3343 Rain 8 989 89 0 0.89 225 20:36 28.11.2019
3344 Rain 9 989 89 0 1.79 180 20:18 28.11.2019
3345 Rain 9 989 88 0 1.34 225 19:41 28.11.2019
3346 Rain 9 989 88 0 1.79 225 19:22 28.11.2019
3347 Rain 9 989 88 0 1.79 202 18:59 28.11.2019
3348 Rain 9 989 88 0 1.79 225 18:40 28.11.2019
3349 Rain 9 989 87 0 1.79 202 18:18 28.11.2019
3350 Rain 9 990 86 0 1.79 180 17:59 28.11.2019
3351 Rain 9 990 85 0 1.34 225 17:41 28.11.2019
3352 Rain 9 990 85 0 1.34 225 17:40 28.11.2019
3353 Rain 9 990 85 0 0.89 202 17:21 28.11.2019
3354 Rain 9 990 84 0 1.79 225 16:55 28.11.2019
3355 Rain 9 990 83 0 1.79 225 16:37 28.11.2019
3356 Rain 10 990 82 0 2.24 225 16:18 28.11.2019
3357 Rain 10 990 82 0 1.79 225 15:41 28.11.2019
3358 Rain 10 990 82 0 1.34 225 15:20 28.11.2019
3359 Rain 10 990 83 0 2.24 180 14:58 28.11.2019
3360 Rain 10 990 83 0 2.24 202 14:40 28.11.2019
3361 Rain 10 990 84 0 1.79 202 14:21 28.11.2019
3362 Rain 10 990 85 0 1.79 202 13:56 28.11.2019
3363 Rain 10 991 85 0 1.34 202 13:38 28.11.2019
3364 Rain 10 991 85 0 1.34 202 13:19 28.11.2019
3365 Rain 11 991 84 0 1.79 180 12:42 28.11.2019
3366 Rain 11 991 85 0 2.24 202 12:23 28.11.2019
3367 Rain 10 991 86 0 1.79 225 11:58 28.11.2019
3368 Rain 10 991 86 0 1.79 180 11:39 28.11.2019
3369 Rain 10 991 86 0 2.68 202 11:20 28.11.2019
3370 Rain 10 992 87 0 2.24 180 10:55 28.11.2019
3371 Rain 9 992 87 0 2.24 202 10:37 28.11.2019
3372 Rain 9 992 88 0 1.34 202 10:18 28.11.2019
3373 Rain 9 992 90 0 1.34 225 09:40 28.11.2019
3374 Rain 9 992 90 0 1.34 180 09:22 28.11.2019
3375 Rain 8 992 91 0 1.34 202 08:56 28.11.2019
3376 Rain 8 992 91 0 1.34 202 08:37 28.11.2019
3377 Rain 8 992 91 0 1.34 202 08:18 28.11.2019
3378 Rain 8 992 92 0 1.34 180 07:42 28.11.2019
3379 Rain 8 992 92 0 1.34 202 07:23 28.11.2019
3380 Rain 8 992 92 0 1.34 202 06:50 28.11.2019
3381 Rain 7 992 92 0 1.34 180 06:29 28.11.2019
3382 Rain 7 992 92 0 1.34 180 05:51 28.11.2019
3383 Rain 7 992 92 0 1.34 180 05:18 28.11.2019
3384 Rain 7 994 92 0 1.34 157 02:46 28.11.2019
3385 Clouds 7 994 92 0 0.89 180 01:50 28.11.2019
3386 Clouds 7 995 93 0 1.34 157 00:48 28.11.2019
3387 Clouds 7 995 93 0 1.34 180 00:23 28.11.2019
3388 Clouds 7 995 93 0 1.34 180 23:55 27.11.2019
3389 Clouds 7 996 93 0 1.34 157 23:37 27.11.2019
3390 Clouds 7 996 93 0 1.34 157 23:37 27.11.2019
3391 Rain 7 996 93 0 0.89 157 23:19 27.11.2019
3392 Rain 7 996 92 0 1.34 157 22:39 27.11.2019
3393 Rain 7 996 92 0 0.89 180 22:20 27.11.2019
3394 Rain 7 996 92 0 1.34 157 21:56 27.11.2019
3395 Rain 7 996 92 0 1.34 180 21:38 27.11.2019
3396 Rain 7 996 92 0 1.34 180 21:38 27.11.2019
3397 Rain 7 997 92 0 0.89 157 21:19 27.11.2019
3398 Rain 7 997 92 0 1.34 157 20:59 27.11.2019
3399 Rain 7 997 92 0 0.89 180 20:39 27.11.2019
3400 Rain 7 997 92 0 1.34 180 20:21 27.11.2019
3401 Rain 6 997 92 0 1.34 157 19:58 27.11.2019
3402 Rain 6 997 92 0 0.89 157 19:40 27.11.2019
3403 Rain 6 997 92 0 0.89 157 19:22 27.11.2019
3404 Rain 6 997 92 0 1.34 180 18:59 27.11.2019
3405 Rain 6 997 91 0 1.34 180 18:38 27.11.2019
3406 Rain 6 997 91 0 1.34 157 18:19 27.11.2019
3407 Rain 6 997 91 0 1.34 157 17:58 27.11.2019
3408 Rain 6 998 91 0 1.34 157 17:40 27.11.2019
3409 Rain 6 998 90 0 0.89 157 17:21 27.11.2019
3410 Rain 6 998 90 0 0.89 180 16:57 27.11.2019
3411 Rain 6 998 90 0 1.34 180 16:39 27.11.2019
3412 Rain 6 998 90 0 1.34 180 16:21 27.11.2019
3413 Rain 6 999 90 0 0.89 157 15:57 27.11.2019
3414 Rain 6 999 90 0 1.34 180 15:39 27.11.2019
3415 Rain 6 999 90 0 1.79 135 15:21 27.11.2019
3416 Rain 6 999 90 0 2.24 157 14:57 27.11.2019
3417 Rain 6 999 90 0 1.79 157 14:39 27.11.2019
3418 Rain 6 999 90 0 1.79 157 14:39 27.11.2019
3419 Clouds 7 999 90 0 1.79 157 14:21 27.11.2019
3420 Clouds 7 999 90 0 0.89 135 13:58 27.11.2019
3421 Clouds 7 999 90 0 0.89 135 13:58 27.11.2019
3422 Clouds 7 999 89 0 0.89 135 13:39 27.11.2019
3423 Clouds 7 1000 89 0 1.34 135 13:19 27.11.2019
3424 Clouds 7 1000 89 0 1.34 135 12:57 27.11.2019
3425 Clouds 7 1000 89 0 1.34 135 12:39 27.11.2019
3426 Clouds 7 1001 90 0 0.89 135 12:19 27.11.2019
3427 Clouds 7 1001 90 0 1.34 135 11:38 27.11.2019
3428 Clouds 7 1001 90 0 1.34 135 11:38 27.11.2019
3429 Clouds 7 1001 90 0 1.34 157 11:19 27.11.2019
3430 Clouds 7 1002 90 0 1.34 157 10:59 27.11.2019
3431 Clouds 7 1002 90 0 0.89 135 10:41 27.11.2019
3432 Clouds 7 1002 91 0 0.89 135 10:23 27.11.2019
3433 Clouds 7 1002 91 0 1.34 135 09:45 27.11.2019
3434 Clouds 7 1002 92 0 1.34 135 09:26 27.11.2019
3435 Clouds 6 1002 91 0 0.89 135 08:59 27.11.2019
3436 Clouds 6 1002 91 0 0.89 135 08:41 27.11.2019
3437 Clouds 6 1002 91 0 1.34 135 08:22 27.11.2019
3438 Clouds 6 1003 92 0 1.34 157 07:47 27.11.2019
3439 Clouds 6 1003 92 0 1.34 135 07:28 27.11.2019
3440 Clouds 6 1003 92 0 0.89 135 06:49 27.11.2019
3441 Clouds 6 1004 92 0 0.89 135 06:30 27.11.2019
3442 Clouds 6 1004 92 0 1.34 157 05:45 27.11.2019
3443 Clouds 6 1005 92 0 0.45 157 05:19 27.11.2019
3444 Clouds 6 1005 92 0 0.89 135 04:43 27.11.2019
3445 Clouds 6 1005 92 0 0.45 135 03:55 27.11.2019
3446 Clouds 6 1005 92 0 0.89 135 03:36 27.11.2019
3447 Clouds 6 1005 92 0 0.89 135 03:18 27.11.2019
3448 Clouds 6 1006 92 0 0.89 157 02:20 27.11.2019
3449 Clouds 6 1007 92 0 0.89 135 00:47 27.11.2019
3450 Clouds 6 1007 92 0 0.89 157 00:29 27.11.2019
3451 Clouds 6 1008 92 0 4.86 169 23:54 26.11.2019
3452 Clouds 6 1008 92 0 0.45 135 23:36 26.11.2019
3453 Clouds 6 1008 92 0 0.45 157 23:18 26.11.2019
3454 Clouds 6 1008 92 0 0.45 135 22:39 26.11.2019
3455 Clouds 6 1008 92 0 0.45 180 22:19 26.11.2019
3456 Clouds 6 1009 92 0 0.45 180 21:59 26.11.2019
3457 Clouds 6 1009 92 0 0.45 180 21:38 26.11.2019
3458 Clouds 6 1009 92 0 0.89 180 21:20 26.11.2019
3459 Clouds 6 1009 92 0 0.45 180 20:57 26.11.2019
3460 Clouds 6 1009 92 0 0.45 180 20:37 26.11.2019
3461 Clouds 6 1009 92 0 0.45 180 20:19 26.11.2019
3462 Clouds 6 1009 92 0 0.89 180 19:55 26.11.2019
3463 Clouds 6 1009 92 0 0.89 180 19:37 26.11.2019
3464 Clouds 5 1009 92 0 0.89 157 19:19 26.11.2019
3465 Clouds 5 1009 92 0 0.89 180 18:57 26.11.2019
3466 Clouds 5 1009 92 0 0.89 157 18:39 26.11.2019
3467 Clouds 5 1009 92 0 0.89 180 18:20 26.11.2019
3468 Clouds 5 1010 92 0 0.45 180 17:58 26.11.2019
3469 Clouds 5 1009 92 0 0.89 180 17:39 26.11.2019
3470 Clouds 5 1010 92 0 0.45 180 17:21 26.11.2019
3471 Clouds 5 1010 92 0 0.45 180 16:57 26.11.2019
3472 Clouds 5 1010 92 0 0.45 180 16:37 26.11.2019
3473 Clouds 5 1010 92 0 0.89 180 16:18 26.11.2019
3474 Clouds 5 1010 92 0 0.89 180 16:18 26.11.2019
3475 Clouds 5 1010 92 0 0.89 180 15:58 26.11.2019
3476 Clouds 5 1010 92 0 0.89 225 15:37 26.11.2019
3477 Clouds 5 1010 92 0 0.89 225 15:37 26.11.2019
3478 Clouds 5 1010 92 0 0.89 225 15:37 26.11.2019
3479 Clouds 6 1010 92 0 0.89 180 15:19 26.11.2019
3480 Clouds 6 1010 92 0 0.89 202 14:47 26.11.2019
3481 Clouds 6 1010 92 0 0.45 202 14:26 26.11.2019
3482 Clouds 6 1010 92 0 0.45 202 14:26 26.11.2019
3483 Clouds 6 1010 92 0 0.45 180 13:57 26.11.2019
3484 Clouds 6 1010 92 0 0.89 180 13:38 26.11.2019
3485 Clouds 5 1010 92 0 0.45 180 13:19 26.11.2019
3486 Clouds 5 1010 92 0 0.45 180 12:39 26.11.2019
3487 Clouds 5 1011 92 0 0.89 180 12:20 26.11.2019
3488 Clouds 5 1011 92 0 0.89 135 11:58 26.11.2019
3489 Clouds 5 1011 92 0 0.89 157 11:39 26.11.2019
3490 Clouds 5 1011 92 0 0.45 180 11:20 26.11.2019
3491 Clouds 5 1012 92 0 0.89 157 10:58 26.11.2019
3492 Clouds 5 1012 92 0 1.34 135 10:40 26.11.2019
3493 Clouds 5 1012 92 0 1.34 157 10:20 26.11.2019
3494 Clouds 4 1012 92 0 0.89 135 09:57 26.11.2019
3495 Clouds 4 1012 92 0 0.45 135 09:37 26.11.2019
3496 Clouds 4 1012 92 0 0.45 135 09:18 26.11.2019
3497 Clouds 4 1013 92 0 0.45 157 08:43 26.11.2019
3498 Clouds 4 1013 92 0 0.89 135 08:24 26.11.2019
3499 Clouds 4 1013 92 0 0.45 135 07:46 26.11.2019
3500 Clouds 4 1013 92 0 0.89 135 07:27 26.11.2019
3501 Clouds 4 1013 92 0 0.89 135 06:55 26.11.2019
3502 Clouds 4 1013 92 0 0.45 135 06:35 26.11.2019
3503 Clouds 4 1013 92 0 0.45 135 06:35 26.11.2019
3504 Clouds 4 1013 92 0 0.89 135 05:52 26.11.2019
3505 Clouds 4 1014 92 0 0.89 135 04:46 26.11.2019
3506 Clouds 4 1015 92 0 0.45 135 02:52 26.11.2019
3507 Clouds 4 1016 92 0 0.45 135 01:33 26.11.2019
3508 Clouds 4 1016 92 0 4.3 152 00:53 26.11.2019
3509 Clouds 4 1016 92 0 0.45 135 00:30 26.11.2019
3510 Clouds 4 1016 92 0 0.89 135 23:55 25.11.2019
3511 Clouds 4 1016 92 0 0.45 135 23:36 25.11.2019
3512 Clouds 3 1016 92 0 0.45 135 23:18 25.11.2019
3513 Clouds 3 1016 92 0 0.45 135 22:39 25.11.2019
3514 Clouds 3 1016 92 0 0.89 135 22:19 25.11.2019
3515 Clouds 3 1016 92 0 0.89 135 21:59 25.11.2019
3516 Clouds 3 1016 93 0 0.45 135 21:40 25.11.2019
3517 Clouds 3 1017 93 0 0.89 135 21:21 25.11.2019
3518 Clouds 3 1016 93 0 0.89 135 20:57 25.11.2019
3519 Clouds 3 1017 93 0 0.89 135 20:39 25.11.2019
3520 Clouds 3 1017 93 0 0.89 135 20:20 25.11.2019
3521 Clouds 3 1017 93 0 0.89 135 20:20 25.11.2019
3522 Clouds 3 1017 93 0 0.89 135 19:56 25.11.2019
3523 Clouds 3 1017 93 0 0.89 135 19:38 25.11.2019
3524 Clouds 3 1017 93 0 0.45 135 19:19 25.11.2019
3525 Clouds 3 1017 93 0 0.89 135 18:57 25.11.2019
3526 Clouds 3 1017 93 0 0.89 135 18:39 25.11.2019
3527 Clouds 3 1017 93 0 0.89 135 18:21 25.11.2019
3528 Clouds 3 1017 93 0 1.34 135 17:58 25.11.2019
3529 Clouds 3 1017 93 0 0.89 135 17:39 25.11.2019
3530 Clouds 3 1017 93 0 0.89 135 17:21 25.11.2019
3531 Clouds 3 1017 93 0 0.45 135 16:59 25.11.2019
3532 Clouds 3 1017 93 0 0.89 135 16:40 25.11.2019
3533 Clouds 3 1017 93 0 0.89 135 16:22 25.11.2019
3534 Clouds 3 1017 93 0 0.45 135 15:56 25.11.2019
3535 Clouds 3 1017 93 0 0.45 135 15:37 25.11.2019
3536 Clouds 3 1017 93 0 0.45 135 15:19 25.11.2019
3537 Clouds 3 1017 92 0 0.45 135 14:43 25.11.2019
3538 Clouds 3 1017 92 0 0.45 135 14:25 25.11.2019
3539 Clouds 3 1017 93 0 0.45 135 13:57 25.11.2019
3540 Clouds 3 1017 93 0 0.45 135 13:57 25.11.2019
3541 Clouds 3 1017 93 0 0.45 135 13:57 25.11.2019
3542 Clouds 3 1018 93 0 5.16 125 13:37 25.11.2019
3543 Clouds 3 1018 93 0 5.71 116 13:18 25.11.2019
3544 Clouds 3 1018 93 0 0.45 135 12:58 25.11.2019
3545 Clouds 3 1017 93 0 0.89 135 12:39 25.11.2019
3546 Clouds 3 1018 93 0 0.89 135 12:19 25.11.2019
3547 Clouds 3 1018 93 0 0.89 157 11:40 25.11.2019
3548 Clouds 3 1018 93 0 0.45 135 11:21 25.11.2019
3549 Clouds 3 1018 93 0 0.89 112 10:59 25.11.2019
3550 Clouds 3 1018 92 0 0.45 135 10:41 25.11.2019
3551 Clouds 3 1018 92 0 0.89 135 10:20 25.11.2019
3552 Clouds 3 1018 92 0 0.89 135 10:20 25.11.2019
3553 Clouds 3 1018 92 0 0.89 135 09:44 25.11.2019
3554 Clouds 3 1018 92 0 0.89 135 09:26 25.11.2019
3555 Clouds 3 1018 92 0 0.89 135 08:58 25.11.2019
3556 Clouds 3 1019 92 0 0.45 135 08:39 25.11.2019
3557 Clouds 3 1019 92 0 0.45 135 08:20 25.11.2019
3558 Clouds 3 1018 91 0 0.89 135 07:41 25.11.2019
3559 Clouds 3 1018 91 0 0.89 135 07:19 25.11.2019
3560 Clouds 3 1018 91 0 0.89 135 06:45 25.11.2019
3561 Clouds 3 1018 91 0 0.89 135 06:19 25.11.2019
3562 Clouds 3 1018 91 0 7.04 116 05:38 25.11.2019
3563 Clouds 3 1018 91 0 0.89 135 04:51 25.11.2019
3564 Clouds 4 1018 90 0 0.89 135 02:48 25.11.2019
3565 Clouds 4 1018 90 0 0.45 135 02:19 25.11.2019
3566 Clouds 4 1018 90 0 0.89 135 01:39 25.11.2019
3567 Clouds 4 1018 90 0 0.89 135 01:20 25.11.2019
3568 Clouds 4 1018 90 0 1.34 135 00:22 25.11.2019
3569 Clouds 4 1018 89 0 0.89 135 23:58 24.11.2019
3570 Clouds 4 1018 89 0 0.45 135 23:38 24.11.2019
3571 Clouds 4 1018 89 0 0.89 135 23:19 24.11.2019
3572 Clouds 4 1018 89 0 0.89 135 22:54 24.11.2019
3573 Clouds 4 1018 89 0 1.34 135 22:36 24.11.2019
3574 Clouds 4 1018 89 0 0.89 135 22:18 24.11.2019
3575 Clouds 4 1018 88 0 1.34 135 21:42 24.11.2019
3576 Clouds 4 1018 88 0 1.34 135 21:21 24.11.2019
3577 Clouds 4 1018 88 0 0.89 135 20:59 24.11.2019
3578 Clouds 4 1018 88 0 0.89 135 20:59 24.11.2019
3579 Clouds 4 1018 88 0 0.45 135 20:39 24.11.2019
3580 Clouds 4 1018 88 0 0.45 135 20:19 24.11.2019
3581 Clouds 4 1018 88 0 0.89 135 19:57 24.11.2019
3582 Clouds 4 1018 88 0 0.89 135 19:39 24.11.2019
3583 Clouds 4 1018 87 0 0.89 135 19:21 24.11.2019
3584 Clouds 5 1018 87 0 0.45 135 18:59 24.11.2019
3585 Clouds 5 1018 87 0 0.45 135 18:59 24.11.2019
3586 Clouds 5 1017 87 0 0.45 135 18:38 24.11.2019
3587 Clouds 5 1018 87 0 0.45 135 18:20 24.11.2019
3588 Clouds 5 1018 87 0 0.45 135 17:58 24.11.2019
3589 Clouds 5 1017 87 0 0.45 135 17:40 24.11.2019
3590 Clouds 5 1017 87 0 0.45 112 17:22 24.11.2019
3591 Clouds 5 1017 87 0 0.45 112 16:58 24.11.2019
3592 Clouds 5 1017 87 0 8.18 103 16:39 24.11.2019
3593 Clouds 5 1017 87 0 0.45 112 16:21 24.11.2019
3594 Clouds 5 1017 87 0 0.45 112 16:21 24.11.2019
3595 Clouds 5 1017 86 0 0.45 112 15:55 24.11.2019
3596 Clouds 5 1017 86 0 0.45 112 15:37 24.11.2019
3597 Clouds 5 1017 86 0 0.45 112 15:18 24.11.2019
3598 Clouds 5 1017 86 0 0.45 67 14:39 24.11.2019
3599 Clouds 5 1017 86 0 7.93 104 14:19 24.11.2019
3600 Clouds 5 1017 86 0 7.93 104 13:59 24.11.2019
3601 Clouds 5 1017 86 0 0.45 135 13:38 24.11.2019
3602 Clouds 5 1017 86 0 0.89 135 13:19 24.11.2019
3603 Clouds 5 1017 86 0 8.03 102 12:56 24.11.2019
3604 Clouds 5 1017 86 0 0.89 112 12:38 24.11.2019
3605 Clouds 5 1017 87 0 0.45 135 12:18 24.11.2019
3606 Clouds 4 1018 87 0 0.89 135 11:38 24.11.2019
3607 Clouds 4 1017 88 0 1.34 112 11:19 24.11.2019
3608 Clouds 4 1018 88 0 1.34 135 10:57 24.11.2019
3609 Clouds 4 1018 88 0 1.34 112 10:38 24.11.2019
3610 Clouds 4 1018 89 0 1.34 135 10:20 24.11.2019
3611 Clouds 4 1018 90 0 1.34 135 09:40 24.11.2019
3612 Clouds 3 1017 90 0 1.79 135 09:20 24.11.2019
3613 Clouds 3 1017 90 0 0.89 112 08:59 24.11.2019
3614 Clouds 3 1018 90 0 0.89 112 08:40 24.11.2019
3615 Clear 3 1017 90 0 1.34 135 08:21 24.11.2019
3616 Clear 3 1017 89 0 1.34 135 07:52 24.11.2019
3617 Clear 3 1017 89 0 0.45 112 07:33 24.11.2019
3618 Clear 3 1017 89 0 0.45 135 06:55 24.11.2019
3619 Clear 3 1017 89 0 1.34 135 05:47 24.11.2019
3620 Clear 3 1017 89 0 1.34 135 05:47 24.11.2019
3621 Clear 3 1016 89 0 1.34 135 04:45 24.11.2019
3622 Clear 3 1016 89 0 1.34 135 04:45 24.11.2019
3623 Clear 3 1016 89 0 0.89 135 02:49 24.11.2019
3624 Clear 6 1012 77 0 8.85 110 01:57 24.11.2019
3625 Clear 6 1012 77 0 8.85 110 01:39 24.11.2019
3626 Clear 6 1012 79 0 9.1 105 01:20 24.11.2019
3627 Clear 6 1012 79 0 9.1 105 00:45 24.11.2019
3628 Clear 6 1012 79 0 9.1 105 00:22 24.11.2019
3629 Clear 3 1016 88 0 0.89 135 23:44 23.11.2019
3630 Clear 7 1012 78 0 9.96 108 23:21 23.11.2019
3631 Clear 7 1012 78 0 9.96 108 22:57 23.11.2019
3632 Clear 7 1012 78 0 9.96 108 22:38 23.11.2019
3633 Clear 7 1012 78 0 9.96 108 22:38 23.11.2019
3634 Clear 7 1012 78 0 9.96 108 22:38 23.11.2019
3635 Clear 7 1012 78 0 9.96 108 22:20 23.11.2019
3636 Clear 3 1016 88 0 1.79 135 21:58 23.11.2019
3637 Clear 3 1016 88 0 0.89 135 21:40 23.11.2019
3638 Clear 3 1016 88 0 0.89 135 21:21 23.11.2019
3639 Clear 3 1016 89 0 1.34 135 20:54 23.11.2019
3640 Clear 3 1016 89 0 1.79 135 20:36 23.11.2019
3641 Clear 7 1011 76 0 10.12 111 20:18 23.11.2019
3642 Clear 7 1011 76 0 10.12 111 19:54 23.11.2019
3643 Clear 7 1011 76 0 10.12 111 19:36 23.11.2019
3644 Clear 7 1011 76 0 10.12 111 19:18 23.11.2019
3645 Clear 3 1015 88 0 0.89 135 18:39 23.11.2019
3646 Clear 3 1015 87 0 1.34 135 18:20 23.11.2019
3647 Clear 3 1015 87 0 1.34 135 18:20 23.11.2019
3648 Clear 3 1015 87 0 1.34 135 17:54 23.11.2019
3649 Clear 4 1015 87 0 0.89 135 17:36 23.11.2019
3650 Clear 7 1011 79 0 9.58 115 17:18 23.11.2019
3651 Clear 4 1015 86 0 0.89 135 16:54 23.11.2019
3652 Clear 4 1014 86 0 2.24 135 16:36 23.11.2019
3653 Clear 5 1015 86 0 1.34 135 16:18 23.11.2019
3654 Clear 5 1014 85 0 1.34 135 15:54 23.11.2019
3655 Clear 5 1015 85 0 0.89 135 15:36 23.11.2019
3656 Clear 6 1014 84 0 0.89 135 15:18 23.11.2019
3657 Clear 6 1014 84 0 1.34 135 14:42 23.11.2019
3658 Clear 6 1014 84 0 1.79 135 14:21 23.11.2019
3659 Clear 6 1014 85 0 1.79 135 13:57 23.11.2019
3660 Clear 6 1015 86 0 1.34 135 13:38 23.11.2019
3661 Clear 6 1015 86 0 1.34 112 13:18 23.11.2019
3662 Clear 5 1015 86 0 0.89 135 12:43 23.11.2019
3663 Clear 5 1015 87 0 0.89 135 12:24 23.11.2019
3664 Clear 5 1015 87 0 1.34 135 11:45 23.11.2019
3665 Clear 5 1015 87 0 1.79 135 11:24 23.11.2019
3666 Clear 5 1015 87 0 0.89 135 10:57 23.11.2019
3667 Clear 5 1015 88 0 0.89 135 10:39 23.11.2019
3668 Clear 5 1015 88 0 0.89 135 10:18 23.11.2019
3669 Clear 5 1015 88 0 1.34 135 09:41 23.11.2019
3670 Clear 5 1015 88 0 1.34 135 09:41 23.11.2019
3671 Clear 5 1016 89 0 1.79 135 09:19 23.11.2019
3672 Clear 5 1016 89 0 0.89 135 08:41 23.11.2019
3673 Clear 5 1015 89 0 1.79 157 08:19 23.11.2019
3674 Clear 5 1015 89 0 1.79 135 07:44 23.11.2019
3675 Clear 5 1016 89 0 1.79 135 07:26 23.11.2019
3676 Clear 5 1016 89 0 1.34 135 06:42 23.11.2019
3677 Clear 5 1016 89 0 0.89 135 06:19 23.11.2019
3678 Clear 5 1016 89 0 1.34 135 05:46 23.11.2019
3679 Clear 5 1016 89 0 2.24 135 05:27 23.11.2019
3680 Clouds 6 1016 90 0 1.34 135 04:44 23.11.2019
3681 Clouds 6 1016 90 0 1.34 135 04:26 23.11.2019
3682 Clouds 6 1016 90 0 2.24 135 02:39 23.11.2019
3683 Clouds 6 1016 90 0 1.79 135 01:42 23.11.2019
3684 Clouds 6 1016 91 0 1.79 135 00:57 23.11.2019
3685 Clouds 6 1016 91 0 1.79 135 00:57 23.11.2019
3686 Clouds 6 1017 91 0 1.79 135 00:38 23.11.2019
3687 Clouds 6 1016 91 0 1.79 135 00:18 23.11.2019
3688 Clouds 7 1016 91 0 0.89 135 23:39 22.11.2019
3689 Clouds 7 1017 91 0 0.89 135 23:20 22.11.2019
3690 Clouds 7 1017 90 0 1.34 135 22:57 22.11.2019
3691 Clouds 7 1017 90 0 1.34 135 22:38 22.11.2019
3692 Clouds 7 1017 90 0 1.79 135 22:20 22.11.2019
3693 Clouds 7 1017 90 0 0.89 135 21:58 22.11.2019
3694 Clouds 7 1016 90 0 1.79 135 21:39 22.11.2019
3695 Clouds 8 1016 91 0 1.34 112 21:19 22.11.2019
3696 Clouds 8 1016 92 0 1.34 135 20:43 22.11.2019
3697 Clouds 8 1016 92 0 1.34 135 20:43 22.11.2019
3698 Clouds 8 1016 92 0 1.34 135 20:22 22.11.2019
3699 Clouds 8 1016 92 0 0.89 135 19:56 22.11.2019
3700 Clouds 8 1016 92 0 0.89 135 19:37 22.11.2019
3701 Clouds 8 1016 92 0 0.45 135 19:19 22.11.2019
3702 Clouds 8 1016 92 0 0.89 135 18:39 22.11.2019
3703 Clouds 8 1016 92 0 0.45 135 18:21 22.11.2019
3704 Clouds 8 1016 93 0 0.89 135 17:58 22.11.2019
3705 Clouds 8 1016 93 0 0.89 135 17:40 22.11.2019
3706 Clouds 8 1016 93 0 0.45 135 17:21 22.11.2019
3707 Clouds 9 1015 93 0 0.45 135 16:42 22.11.2019
3708 Clouds 9 1016 93 0 0.45 135 16:24 22.11.2019
3709 Clouds 9 1015 93 0 1.34 135 15:45 22.11.2019
3710 Clouds 9 1015 93 0 0.89 135 15:24 22.11.2019
3711 Clouds 9 1015 93 0 0.89 135 15:24 22.11.2019
3712 Clouds 9 1015 93 0 0.89 135 14:56 22.11.2019
3713 Clouds 9 1015 93 0 0.89 135 14:56 22.11.2019
3714 Clouds 9 1015 93 0 0.89 135 14:56 22.11.2019
3715 Clouds 9 1015 93 0 0.89 157 14:38 22.11.2019
3716 Clouds 9 1015 93 0 0.89 157 14:38 22.11.2019
3717 Clouds 9 1015 93 0 0.89 157 14:19 22.11.2019
3718 -273 0 0 0 0 0 13:59 22.11.2019
3719 Clouds 9 1015 93 0 0.89 157 13:37 22.11.2019
3720 Clouds 9 1015 93 0 0.89 180 13:19 22.11.2019
3721 Clouds 9 1015 94 0 0.89 180 12:57 22.11.2019
3722 Clouds 9 1015 94 0 1.34 180 12:39 22.11.2019
3723 Clouds 9 1015 94 0 0.89 157 12:18 22.11.2019
3724 Clouds 9 1015 94 0 0.45 157 11:55 22.11.2019
3725 Clouds 9 1015 94 0 0.89 135 11:36 22.11.2019
3726 Rain 9 1015 94 0 0.45 157 11:18 22.11.2019
3727 Rain 9 1015 94 0 0.45 157 10:40 22.11.2019
3728 Rain 9 1015 94 0 0.89 157 10:22 22.11.2019
3729 Rain 9 1015 94 0 0.89 157 09:58 22.11.2019
3730 Rain 9 1015 94 0 0.89 157 09:39 22.11.2019
3731 Rain 9 1015 94 0 0.89 157 09:21 22.11.2019
3732 Rain 9 1015 94 0 0.89 157 09:21 22.11.2019
3733 Rain 9 1014 94 0 0.45 135 08:48 22.11.2019
3734 Rain 9 1014 94 0 0.45 135 08:48 22.11.2019
3735 Rain 9 1014 94 0 0.89 135 08:28 22.11.2019
3736 Rain 8 1014 94 0 0.89 135 07:58 22.11.2019
3737 Rain 8 1014 94 0 0.89 135 07:40 22.11.2019
3738 Rain 8 1014 94 0 0.89 135 07:19 22.11.2019
3739 Rain 8 1014 94 0 0.89 135 06:41 22.11.2019
3740 Rain 8 1014 94 0 0.89 135 06:18 22.11.2019
3741 Rain 8 1013 93 0 0.89 135 04:55 22.11.2019
3742 Rain 8 1013 93 0 1.34 135 03:25 22.11.2019
3743 Rain 8 1013 93 0 1.34 135 03:25 22.11.2019
3744 Rain 8 1013 93 0 1.79 135 02:39 22.11.2019
3745 Rain 8 1013 93 0 1.34 135 02:19 22.11.2019
3746 Rain 8 1013 93 0 0.89 135 01:42 22.11.2019
3747 Rain 8 1013 93 0 1.34 135 01:18 22.11.2019
3748 Rain 8 1013 93 0 0.89 157 00:40 22.11.2019
3749 Rain 8 1013 93 0 1.34 135 00:19 22.11.2019
3750 Rain 8 1013 93 0 0.89 135 23:43 21.11.2019
3751 Rain 8 1014 93 0 1.34 135 23:24 21.11.2019
3752 Rain 8 1014 93 0 0.89 135 22:56 21.11.2019
3753 Rain 8 1014 93 0 0.89 135 22:38 21.11.2019
3754 Rain 8 1014 93 0 0.89 135 22:19 21.11.2019
3755 Rain 8 1014 93 0 0.89 135 21:55 21.11.2019
3756 Rain 8 1014 93 0 0.89 135 21:36 21.11.2019
3757 Rain 8 1014 93 0 0.89 135 21:18 21.11.2019
3758 Rain 8 1014 93 0 0.89 112 20:57 21.11.2019
3759 Rain 8 1014 93 0 1.34 135 20:37 21.11.2019
3760 Rain 8 1014 92 0 1.34 135 20:18 21.11.2019
3761 Rain 8 1014 92 0 1.34 112 19:56 21.11.2019
3762 Rain 8 1014 92 0 0.89 135 19:37 21.11.2019
3763 Rain 8 1015 92 0 0.89 112 19:19 21.11.2019
3764 Rain 8 1015 92 0 1.34 135 18:54 21.11.2019
3765 Rain 8 1015 92 0 0.89 112 18:36 21.11.2019
3766 Rain 8 1015 92 0 0.89 112 18:36 21.11.2019
3767 Rain 8 1015 91 0 1.34 135 18:18 21.11.2019
3768 Rain 8 1015 91 0 1.34 112 17:40 21.11.2019
3769 Clouds 9 1015 91 0 1.34 135 17:22 21.11.2019
3770 Clouds 9 1015 92 0 0.89 135 16:58 21.11.2019
3771 Clouds 9 1015 92 0 0.89 135 16:40 21.11.2019
3772 Clouds 9 1015 92 0 0.89 135 16:20 21.11.2019
3773 Clouds 9 1015 92 0 0.89 90 15:56 21.11.2019
3774 Clouds 9 1015 92 0 0.45 67 15:37 21.11.2019
3775 Clouds 9 1016 92 0 1.79 135 15:19 21.11.2019
3776 Clouds 9 1016 92 0 1.34 135 14:39 21.11.2019
3777 Clouds 9 1016 92 0 0.89 112 14:21 21.11.2019
3778 Clouds 9 1016 92 0 0.89 135 13:59 21.11.2019
3779 Clouds 9 1016 92 0 0.89 135 13:38 21.11.2019
3780 Clouds 9 1016 92 0 0.89 135 13:19 21.11.2019
3781 Clouds 9 1016 92 0 0.89 135 13:19 21.11.2019
3782 Clouds 9 1017 92 0 0.89 135 12:54 21.11.2019
3783 Clouds 9 1017 92 0 0.45 112 12:36 21.11.2019
3784 Clouds 9 1017 92 0 0.45 112 12:18 21.11.2019
3785 Clouds 9 1017 93 0 0.89 112 11:40 21.11.2019
3786 Clouds 9 1018 93 0 0.89 135 11:21 21.11.2019
3787 Clouds 9 1018 92 0 0.89 135 10:57 21.11.2019
3788 Clouds 9 1018 92 0 0.89 135 10:57 21.11.2019
3789 Clouds 8 1018 92 0 0.89 135 10:39 21.11.2019
3790 Clouds 8 1018 92 0 0.45 135 10:20 21.11.2019
3791 Clouds 8 1018 92 0 0.45 135 09:43 21.11.2019
3792 Clouds 8 1018 92 0 0.89 135 09:24 21.11.2019
3793 Clouds 8 1019 92 0 0.45 112 08:59 21.11.2019
3794 Clouds 8 1018 92 0 6.33 110 08:40 21.11.2019
3795 Clouds 8 1019 92 0 6.05 100 08:19 21.11.2019
3796 Clouds 7 1019 92 0 5.65 97 07:40 21.11.2019
3797 Clouds 7 1019 91 0 5.65 97 07:18 21.11.2019
3798 Clouds 7 1019 91 0 5.65 97 06:57 21.11.2019
3799 Clouds 7 1019 91 0 5.65 97 06:33 21.11.2019
3800 Clouds 7 1019 91 0 5.65 97 05:32 21.11.2019
3801 Clouds 6 1020 91 0 0.45 112 03:32 21.11.2019
3802 Clouds 6 1021 91 0 0.89 135 02:40 21.11.2019
3803 Clouds 6 1021 91 0 0.45 135 01:54 21.11.2019
3804 Clouds 6 1021 91 0 0.45 135 01:36 21.11.2019
3805 Clouds 6 1021 91 0 0.45 135 00:54 21.11.2019
3806 Clouds 6 1021 91 0 4.08 169 00:21 21.11.2019
3807 Clouds 6 1021 91 0 4.08 169 23:57 20.11.2019
3808 Clouds 6 1021 91 0 4.08 169 23:39 20.11.2019
3809 Rain 6 1022 91 0 7.15 156 23:20 20.11.2019
3810 Rain 7 1022 91 0 7.15 156 22:55 20.11.2019
3811 Rain 7 1021 91 0 7.15 156 22:37 20.11.2019
3812 Rain 7 1021 91 0 7.15 156 22:37 20.11.2019
3813 Rain 6 1022 91 0 7.15 156 22:18 20.11.2019
3814 Rain 6 1022 92 0 7.15 156 21:55 20.11.2019
3815 Rain 6 1021 91 0 0.45 157 21:36 20.11.2019
3816 Rain 6 1022 91 0 7.15 156 21:18 20.11.2019
3817 Rain 6 1021 91 0 7.15 156 20:54 20.11.2019
3818 Rain 6 1021 91 0 0.45 157 20:36 20.11.2019
3819 Rain 6 1021 91 0 6.53 145 20:18 20.11.2019
3820 Rain 6 1021 91 0 5.91 146 19:54 20.11.2019
3821 Rain 6 1021 91 0 0.45 157 19:36 20.11.2019
3822 Rain 6 1021 91 0 0.45 157 19:18 20.11.2019
3823 Rain 7 1021 91 0 5.91 146 18:55 20.11.2019
3824 Rain 7 1021 91 0 5.91 146 18:36 20.11.2019
3825 Rain 7 1021 91 0 5.91 146 18:18 20.11.2019
3826 Rain 7 1021 91 0 5.91 146 17:54 20.11.2019
3827 Rain 7 1021 91 0 0.45 135 17:36 20.11.2019
3828 Rain 7 1021 91 0 6.22 135 17:18 20.11.2019
3829 Rain 7 1021 91 0 6.22 135 16:41 20.11.2019
3830 Rain 7 1021 91 0 6.22 135 16:20 20.11.2019
3831 Rain 7 1021 91 0 6.22 135 15:58 20.11.2019
3832 Rain 7 1021 91 0 6.22 135 15:39 20.11.2019
3833 Rain 7 1021 91 0 6.22 135 15:20 20.11.2019
3834 Rain 7 1017 93 0 6.22 135 14:57 20.11.2019
3835 Rain 7 1021 91 0 6.22 135 14:38 20.11.2019
3836 Rain 7 1021 91 0 6.05 72 14:19 20.11.2019
3837 Rain 7 1021 91 0 6.05 72 13:56 20.11.2019
3838 Rain 7 1021 91 0 6.05 72 13:37 20.11.2019
3839 Rain 7 1022 91 0 0.45 315 13:18 20.11.2019
3840 Rain 7 1022 91 0 0.45 292 12:42 20.11.2019
3841 Rain 7 1022 91 0 0.45 292 12:24 20.11.2019
3842 Rain 7 1022 91 0 5.3 105 11:57 20.11.2019
3843 Rain 7 1022 91 0 0.45 315 11:38 20.11.2019
3844 Rain 7 1022 91 0 6.39 54 11:18 20.11.2019
3845 Rain 7 1022 91 0 6.39 54 10:55 20.11.2019
3846 Rain 7 1023 91 0 6.39 54 10:36 20.11.2019
3847 Rain 7 1023 91 0 6.39 54 10:18 20.11.2019
3848 Rain 6 1023 91 0 6.39 54 09:42 20.11.2019
3849 Rain 6 1023 91 0 6.39 54 09:21 20.11.2019
3850 Rain 6 1023 90 0 6.39 54 08:56 20.11.2019
3851 Rain 6 1023 89 0 6.39 54 08:37 20.11.2019
3852 Rain 6 1023 89 0 3.02 86 08:18 20.11.2019
3853 Rain 6 1024 89 0 3.02 86 07:42 20.11.2019
3854 Rain 6 1024 89 0 3.02 86 07:24 20.11.2019
3855 Rain 6 1024 89 0 3.02 86 06:47 20.11.2019
3856 Rain 6 1024 89 0 3.02 86 06:21 20.11.2019
3857 Clouds 5 1024 88 0 1.83 216 04:52 20.11.2019
3858 Clouds 5 1024 87 0 1.83 216 03:30 20.11.2019
3859 Clouds 6 1024 87 0 4.03 204 02:21 20.11.2019
3860 Clouds 5 1024 87 0 4.03 204 01:33 20.11.2019
3861 Clear 5 1023 87 0 4.1 205 00:41 20.11.2019
3862 Clear 5 1024 86 0 4.1 205 23:55 19.11.2019
3863 Clear 5 1024 86 0 4.1 205 23:26 19.11.2019
3864 Clouds 4 1024 86 0 7.06 216 22:58 19.11.2019
3865 Clouds 4 1024 86 0 7.06 216 22:40 19.11.2019
3866 Clouds 4 1023 86 0 7.06 216 22:19 19.11.2019
3867 Clouds 4 1023 86 0 7.06 216 22:19 19.11.2019
3868 Clouds 4 1023 86 0 7.06 216 22:19 19.11.2019
3869 Clouds 5 1023 85 0 7.06 216 21:57 19.11.2019
3870 Clouds 5 1023 85 0 7.06 216 21:38 19.11.2019
3871 Clouds 5 1023 84 0 0.45 180 21:19 19.11.2019
3872 Clouds 5 1023 84 0 0.45 180 21:19 19.11.2019
3873 Clouds 5 1023 84 0 7.06 216 20:56 19.11.2019
3874 Clouds 6 1023 84 0 7.06 216 20:38 19.11.2019
3875 Clouds 6 1022 84 0 0.45 225 20:19 19.11.2019
3876 Clouds 7 1022 84 0 0.45 225 19:56 19.11.2019
3877 Clouds 7 1022 84 0 0.89 202 19:38 19.11.2019
3878 Clouds 7 1016 83 0 7.71 216 19:19 19.11.2019
3879 Clouds 7 1022 84 0 0.89 180 18:55 19.11.2019
3880 Clouds 7 1022 84 0 0.89 180 18:55 19.11.2019
3881 Clouds 7 1021 84 0 1.34 180 18:36 19.11.2019
3882 Clouds 7 1021 84 0 0.89 180 18:18 19.11.2019
3883 Clouds 7 1021 84 0 0.45 180 17:55 19.11.2019
3884 Clouds 7 1021 84 0 0.45 180 17:37 19.11.2019
3885 Clouds 7 1021 84 0 0.45 180 17:37 19.11.2019
3886 Clouds 7 1021 84 0 0.89 202 17:18 19.11.2019
3887 Clouds 7 1020 84 0 0.89 202 16:45 19.11.2019
3888 Clouds 7 1020 84 0 0.89 180 16:24 19.11.2019
3889 Clouds 7 1020 83 0 0.89 202 15:59 19.11.2019
3890 Clouds 8 1019 83 0 1.34 225 15:39 19.11.2019
3891 Clouds 8 1019 83 0 1.34 225 15:39 19.11.2019
3892 Clouds 8 1019 83 0 1.79 202 15:21 19.11.2019
3893 Clouds 8 1019 84 0 1.79 202 14:56 19.11.2019
3894 Clouds 8 1018 84 0 1.34 225 14:37 19.11.2019
3895 Rain 8 1018 84 0 1.79 225 14:19 19.11.2019
3896 Rain 8 1017 83 0 1.79 225 13:41 19.11.2019
3897 Rain 8 1017 83 0 1.79 225 13:41 19.11.2019
3898 Rain 8 1017 83 0 1.79 225 13:20 19.11.2019
3899 Rain 8 1017 83 0 1.79 225 13:20 19.11.2019
3900 Rain 8 1017 83 0 1.79 225 13:20 19.11.2019
3901 Rain 8 1017 83 0 1.79 225 12:42 19.11.2019
3902 Rain 9 1016 83 0 2.24 225 12:23 19.11.2019
3903 Rain 9 1016 84 0 2.24 225 11:59 19.11.2019
3904 Rain 8 1015 86 0 2.68 202 11:39 19.11.2019
3905 Rain 8 1015 87 0 3.13 225 11:20 19.11.2019
3906 Rain 8 1008 87 0 14.97 209 10:58 19.11.2019
3907 Rain 7 1015 88 0 2.68 202 10:40 19.11.2019
3908 Rain 6 1014 89 0 2.24 202 10:20 19.11.2019
3909 Rain 6 1014 88 0 2.68 202 09:42 19.11.2019
3910 Rain 6 1013 88 0 1.79 202 09:20 19.11.2019
3911 Rain 5 1013 87 0 3.13 202 08:56 19.11.2019
3912 Rain 5 1013 87 0 2.24 180 08:38 19.11.2019
3913 Clouds 5 1012 86 0 2.24 202 08:20 19.11.2019
3914 Clouds 5 1012 84 0 2.68 202 07:42 19.11.2019
3915 Clouds 5 1012 84 0 2.68 180 07:23 19.11.2019
3916 Clouds 5 1012 84 0 2.68 180 06:54 19.11.2019
3917 Clouds 5 1012 84 0 1.79 180 06:35 19.11.2019
3918 Clouds 4 1012 84 0 1.79 180 05:51 19.11.2019
3919 Clouds 4 1012 84 0 0.89 135 04:48 19.11.2019
3920 Clouds 4 1012 83 0 1.34 157 03:35 19.11.2019
3921 Clouds 5 1013 85 0 1.79 157 02:59 19.11.2019
3922 Clouds 4 1013 85 0 1.79 180 02:33 19.11.2019
3923 Clouds 5 1013 86 0 1.34 157 01:47 19.11.2019
3924 Clouds 6 1012 86 0 0.89 157 00:41 19.11.2019
3925 Clouds 6 1012 87 0 1.34 180 00:19 19.11.2019
3926 Clouds 7 1012 87 0 1.34 180 23:38 18.11.2019
3927 Rain 7 1012 89 0 1.79 202 23:19 18.11.2019
3928 Rain 7 1012 89 0 0.45 157 22:46 18.11.2019
3929 Rain 7 1011 88 0 0.89 180 22:24 18.11.2019
3930 Rain 7 1011 88 0 1.34 180 21:57 18.11.2019
3931 Rain 7 1011 88 0 1.34 202 21:39 18.11.2019
3932 Rain 7 1011 88 0 1.34 202 21:20 18.11.2019
3933 Rain 8 1011 88 0 0.89 202 20:57 18.11.2019
3934 Rain 8 1011 87 0 1.79 202 20:39 18.11.2019
3935 Rain 8 1011 88 0 2.68 225 20:18 18.11.2019
3936 Rain 8 1011 88 0 2.24 225 19:56 18.11.2019
3937 Rain 8 1010 89 0 0.89 202 19:38 18.11.2019
3938 Rain 8 1010 89 0 1.34 202 19:19 18.11.2019
3939 Rain 9 1010 89 0 2.24 180 18:56 18.11.2019
3940 Rain 9 1010 89 0 1.79 225 18:38 18.11.2019
3941 Rain 9 1009 89 0 0.89 180 18:19 18.11.2019
3942 Rain 9 1009 89 0 1.79 180 17:55 18.11.2019
3943 Rain 9 1009 89 0 1.34 180 17:36 18.11.2019
3944 Clouds 9 1009 88 0 0.45 135 17:18 18.11.2019
3945 Clouds 9 1009 88 0 0.45 135 17:18 18.11.2019
3946 Clouds 9 1009 88 0 0.89 135 16:42 18.11.2019
3947 Clouds 9 1009 88 0 0.45 135 16:23 18.11.2019
3948 Clouds 9 1009 87 0 0.89 135 15:57 18.11.2019
3949 Clouds 9 1009 87 0 0.45 135 15:39 18.11.2019
3950 Clouds 10 1008 87 0 0.89 135 15:20 18.11.2019
3951 Clouds 10 1009 87 0 0.45 135 14:44 18.11.2019
3952 Clouds 10 1009 87 0 0.45 135 14:24 18.11.2019
3953 Clouds 10 1009 87 0 0.45 135 14:24 18.11.2019
3954 Clouds 9 1009 87 0 0.45 135 14:00 18.11.2019
3955 Clouds 9 1009 87 0 0.45 135 14:00 18.11.2019
3956 Clouds 10 1009 86 0 0.89 135 13:41 18.11.2019
3957 Clouds 10 1009 86 0 1.79 135 13:23 18.11.2019
3958 Clouds 9 1009 88 0 1.79 135 12:40 18.11.2019
3959 Clouds 9 1009 88 0 1.34 135 12:20 18.11.2019
3960 Clouds 9 1009 89 0 1.34 135 11:56 18.11.2019
3961 Clouds 9 1009 89 0 1.34 135 11:38 18.11.2019
3962 Clouds 9 1009 89 0 0.89 135 11:20 18.11.2019
3963 Clouds 9 1010 90 0 1.79 135 10:44 18.11.2019
3964 Clouds 8 1010 91 0 1.34 135 10:25 18.11.2019
3965 Clouds 8 1010 91 0 1.34 135 09:58 18.11.2019
3966 Clouds 8 1010 91 0 0.89 135 09:38 18.11.2019
3967 Clouds 8 1010 91 0 0.45 135 09:20 18.11.2019
3968 Clouds 7 1010 91 0 0.45 135 08:57 18.11.2019
3969 Clouds 7 1010 91 0 0.45 135 08:39 18.11.2019
3970 Clouds 7 1010 91 0 8.9 125 08:19 18.11.2019
3971 Clouds 7 1010 92 0 0.45 135 07:45 18.11.2019
3972 Clouds 8 1010 92 0 0.45 135 07:25 18.11.2019
3973 Clouds 8 1009 92 0 0.45 135 06:49 18.11.2019
3974 Clouds 8 1010 92 0 0.89 135 06:28 18.11.2019
3975 Clouds 8 1010 92 0 0.45 135 05:44 18.11.2019
3976 Clouds 8 1010 93 0 1.34 135 03:59 18.11.2019
3977 Clouds 7 1011 92 0 0.89 135 01:46 18.11.2019
3978 Clouds 7 1011 92 0 0.45 112 01:25 18.11.2019
3979 Clouds 7 1012 91 0 9.6 100 00:20 18.11.2019
3980 Clouds 7 1013 90 0 9.6 100 23:41 17.11.2019
3981 Clouds 7 1012 90 0 10.52 94 23:23 17.11.2019
3982 Clouds 7 1013 90 0 10.52 94 22:58 17.11.2019
3983 Clouds 7 1013 90 0 10.52 94 22:39 17.11.2019
3984 Clouds 7 1013 90 0 0.45 135 22:21 17.11.2019
3985 Clouds 8 1013 90 0 10.52 94 21:57 17.11.2019
3986 Clouds 8 1013 90 0 10.52 94 21:57 17.11.2019
3987 Clouds 8 1014 89 0 10.52 94 21:39 17.11.2019
3988 Clouds 8 1014 89 0 10.52 94 21:18 17.11.2019
3989 Clouds 8 1014 89 0 10.52 94 20:55 17.11.2019
3990 Clouds 8 1014 89 0 10.52 94 20:55 17.11.2019
3991 Clouds 8 1015 89 0 0.45 112 20:37 17.11.2019
3992 Clouds 8 1015 89 0 11.99 78 20:19 17.11.2019
3993 Clouds 8 1015 88 0 11.99 78 19:56 17.11.2019
3994 Clouds 8 1015 88 0 11.99 78 19:37 17.11.2019
3995 Clouds 8 1015 87 0 0.89 135 19:19 17.11.2019
3996 Clouds 8 1016 87 0 0.89 67 18:54 17.11.2019
3997 Clouds 8 1016 87 0 0.45 45 18:36 17.11.2019
3998 Clouds 8 1016 87 0 11.99 78 18:18 17.11.2019
3999 Clouds 8 1016 88 0 0.45 67 17:57 17.11.2019
4000 Clouds 8 1016 88 0 0.45 67 17:38 17.11.2019
4001 Clouds 8 1017 89 0 1.34 45 17:19 17.11.2019
4002 Clouds 7 1017 89 0 0.45 45 16:57 17.11.2019
4003 Clouds 7 1017 89 0 1.34 45 16:38 17.11.2019
4004 Clouds 7 1018 89 0 0.45 67 16:20 17.11.2019
4005 Clouds 7 1018 90 0 8.1 71 15:55 17.11.2019
4006 Clouds 7 1018 90 0 8.1 71 15:36 17.11.2019
4007 Clouds 7 1018 90 0 8.1 71 15:18 17.11.2019
4008 Clouds 7 1018 89 0 8.1 71 14:55 17.11.2019
4009 Clouds 6 1019 89 0 8.1 71 14:37 17.11.2019
4010 Clouds 6 1019 89 0 3.62 114 14:18 17.11.2019
4011 Clouds 6 1019 89 0 3.62 114 13:41 17.11.2019
4012 Clouds 6 1019 89 0 3.44 116 13:22 17.11.2019
4013 Clouds 6 1020 89 0 3.44 116 12:59 17.11.2019
4014 Clouds 5 1020 89 0 3.44 116 12:38 17.11.2019
4015 Clouds 5 1021 89 0 3.44 116 12:19 17.11.2019
4016 Clouds 5 1020 89 0 3.44 116 11:56 17.11.2019
4017 Clouds 4 1021 89 0 3.44 116 11:38 17.11.2019
4018 Clouds 4 1021 90 0 0.45 135 11:19 17.11.2019
4019 Clouds 3 1021 89 0 3.36 180 10:41 17.11.2019
4020 Clouds 3 1021 89 0 3.36 180 10:22 17.11.2019
4021 Clouds 2 1021 89 0 3.36 180 09:43 17.11.2019
4022 Clouds 2 1021 89 0 3.36 180 09:43 17.11.2019
4023 Clouds 2 1021 89 0 3.36 180 09:24 17.11.2019
4024 Clouds 2 1021 89 0 3.36 180 08:58 17.11.2019
4025 Clouds 6 1016 74 0 3.36 180 08:37 17.11.2019
4026 Clouds 1 1021 89 0 0.45 157 08:19 17.11.2019
4027 Clouds 1 1021 89 0 0.45 157 07:45 17.11.2019
4028 Clouds 1 1021 89 0 0.45 157 07:22 17.11.2019
4029 Clouds 1 1020 89 0 0.45 157 06:57 17.11.2019
4030 Clouds 2 1020 88 0 0.45 135 06:31 17.11.2019
4031 Clouds 2 1020 88 0 0.89 135 05:40 17.11.2019
4032 Clouds 2 1019 88 0 0.89 157 04:23 17.11.2019
4033 Clouds 2 1019 87 0 0.45 157 03:43 17.11.2019
4034 Clouds 2 1019 87 0 0.45 180 03:23 17.11.2019
4035 Clouds 3 1018 87 0 0.45 180 02:27 17.11.2019
4036 Clouds 3 1017 87 0 0.89 202 01:25 17.11.2019
4037 Clouds 4 1017 87 0 0.45 225 00:53 17.11.2019
4038 Clouds 4 1017 87 0 0.89 225 00:22 17.11.2019
4039 Clouds 4 1017 87 0 1.34 225 23:44 16.11.2019
4040 Clouds 4 1016 86 0 2.24 202 23:20 16.11.2019
4041 Clouds 4 1016 86 0 1.79 225 22:59 16.11.2019
4042 Clouds 4 1016 86 0 1.79 180 22:40 16.11.2019
4043 Clouds 4 1016 86 0 1.79 180 22:40 16.11.2019
4044 Clouds 5 1015 86 0 1.79 202 22:19 16.11.2019
4045 Clouds 5 1015 85 0 1.34 202 21:56 16.11.2019
4046 Clouds 6 1015 85 0 2.24 225 21:37 16.11.2019
4047 Clouds 6 1015 85 0 1.34 225 21:19 16.11.2019
4048 Clouds 6 1014 85 0 1.79 225 20:41 16.11.2019
4049 Rain 6 1014 85 0 0.89 225 20:21 16.11.2019
4050 Rain 6 1014 85 0 1.79 225 19:58 16.11.2019
4051 Rain 6 1013 85 0 2.24 225 19:40 16.11.2019
4052 Rain 6 1013 85 0 1.79 225 19:21 16.11.2019
4053 Rain 6 1012 85 0 0.89 225 18:47 16.11.2019
4054 Rain 6 1011 85 0 2.24 202 18:29 16.11.2019
4055 Rain 6 1011 86 0 2.24 247 17:57 16.11.2019
4056 Rain 6 1011 86 0 0.89 225 17:38 16.11.2019
4057 Rain 6 1010 87 0 2.24 225 17:19 16.11.2019
4058 Rain 7 1010 87 0 2.68 202 16:48 16.11.2019
4059 Rain 7 1010 88 0 2.24 225 16:30 16.11.2019
4060 Rain 8 1009 89 0 2.68 225 15:59 16.11.2019
4061 Rain 8 1009 89 0 2.68 225 15:41 16.11.2019
4062 Rain 8 1008 89 0 1.79 225 15:21 16.11.2019
4063 Rain 8 1008 89 0 1.79 225 14:58 16.11.2019
4064 Rain 9 1008 89 0 3.13 225 14:39 16.11.2019
4065 Rain 9 1007 90 0 1.79 202 14:21 16.11.2019
4066 Rain 9 1007 91 0 1.79 225 13:56 16.11.2019
4067 Rain 9 1006 91 0 1.34 202 13:38 16.11.2019
4068 Rain 9 1006 91 0 1.34 180 13:18 16.11.2019
4069 Rain 9 1006 91 0 0.89 157 12:54 16.11.2019
4070 Rain 9 1006 91 0 0.89 157 12:36 16.11.2019
4071 Rain 9 1006 92 0 0.45 157 12:18 16.11.2019
4072 Rain 9 1006 92 0 0.89 157 11:41 16.11.2019
4073 Clouds 9 1006 92 0 1.34 157 11:23 16.11.2019
4074 Clouds 8 1006 91 0 1.34 180 10:55 16.11.2019
4075 Clouds 8 1006 91 0 0.45 157 10:37 16.11.2019
4076 Clouds 8 1006 91 0 0.89 135 10:18 16.11.2019
4077 Clouds 8 1007 90 0 0.45 135 09:40 16.11.2019
4078 Clouds 8 1007 90 0 1.34 135 09:20 16.11.2019
4079 Clouds 8 1007 91 0 1.34 135 08:57 16.11.2019
4080 Clouds 8 1007 91 0 0.89 135 08:37 16.11.2019
4081 Clouds 8 1007 91 0 0.89 135 08:18 16.11.2019
4082 Clouds 8 1007 91 0 0.45 112 07:41 16.11.2019
4083 Clouds 8 1007 91 0 0.89 135 07:19 16.11.2019
4084 Clouds 8 1008 91 0 1.34 135 06:44 16.11.2019
4085 Clouds 9 1008 91 0 0.45 112 06:25 16.11.2019
4086 Clouds 9 1008 90 0 7.08 125 04:49 16.11.2019
4087 Clouds 9 1009 91 0 1.34 135 03:27 16.11.2019
4088 Clouds 9 1009 91 0 1.34 135 03:26 16.11.2019
4089 Clouds 9 1009 91 0 0.89 135 02:55 16.11.2019
4090 Clouds 9 1009 91 0 0.89 135 02:55 16.11.2019
4091 Clouds 8 1010 90 0 1.34 112 01:44 16.11.2019
4092 Clouds 8 1010 90 0 0.89 135 01:18 16.11.2019
4093 Clouds 8 1010 90 0 1.34 112 00:41 16.11.2019
4094 Clouds 9 1010 90 0 0.89 135 00:20 16.11.2019
4095 Clouds 9 1011 90 0 1.34 112 23:39 15.11.2019
4096 Clouds 8 1011 90 0 0.89 90 23:20 15.11.2019
4097 Clouds 8 1011 90 0 0.45 112 22:55 15.11.2019
4098 Clouds 8 1011 90 0 9.24 101 22:36 15.11.2019
4099 Clouds 8 1011 90 0 0.45 112 22:18 15.11.2019
4100 Clouds 8 1011 90 0 0.89 112 21:41 15.11.2019
4101 Clouds 8 1011 89 0 9.24 101 21:20 15.11.2019
4102 Clouds 8 1011 89 0 9.24 101 20:59 15.11.2019
4103 Clouds 8 1011 89 0 0.89 135 20:40 15.11.2019
4104 Rain 8 1011 89 0 0.89 112 20:21 15.11.2019
4105 Rain 8 1012 89 0 0.89 112 19:58 15.11.2019
4106 Rain 8 1012 89 0 10.23 110 19:40 15.11.2019
4107 Rain 8 1012 89 0 0.89 135 19:20 15.11.2019
4108 Rain 8 1011 89 0 1.34 135 18:58 15.11.2019
4109 Rain 8 1011 89 0 0.89 112 18:40 15.11.2019
4110 Rain 8 1012 89 0 0.45 112 18:21 15.11.2019
4111 Rain 8 1012 89 0 0.89 112 17:43 15.11.2019
4112 Rain 8 1012 89 0 1.34 112 17:25 15.11.2019
4113 Clouds 8 1012 89 0 0.89 135 16:58 15.11.2019
4114 Clouds 8 1012 89 0 0.45 112 16:39 15.11.2019
4115 Clouds 8 1012 89 0 0.89 135 16:20 15.11.2019
4116 Clouds 8 1012 89 0 1.34 135 15:57 15.11.2019
4117 Clouds 8 1012 89 0 1.79 135 15:36 15.11.2019
4118 Clouds 8 1012 89 0 12.08 101 15:18 15.11.2019
4119 Clouds 8 1012 89 0 1.79 135 14:55 15.11.2019
4120 Clouds 8 1012 89 0 0.89 112 14:36 15.11.2019
4121 Clouds 8 1012 89 0 13.13 99 14:18 15.11.2019
4122 Clouds 8 1012 89 0 1.34 112 13:54 15.11.2019
4123 Clouds 8 1012 88 0 0.45 112 13:36 15.11.2019
4124 Clouds 8 1013 88 0 13.76 94 13:18 15.11.2019
4125 Clouds 8 1013 88 0 0.45 112 12:55 15.11.2019
4126 Clouds 7 1013 88 0 13.76 94 12:36 15.11.2019
4127 Clouds 7 1013 88 0 1.34 112 12:18 15.11.2019
4128 Clouds 7 1013 88 0 13.76 94 11:39 15.11.2019
4129 Clouds 7 1013 88 0 1.34 135 11:21 15.11.2019
4130 Clouds 6 1014 88 0 0.89 112 10:58 15.11.2019
4131 Clouds 6 1014 88 0 0.45 45 10:39 15.11.2019
4132 Clouds 6 1015 87 0 1.79 135 10:20 15.11.2019
4133 Clouds 5 1015 87 0 2.24 135 09:41 15.11.2019
4134 Clouds 5 1015 87 0 1.79 135 09:21 15.11.2019
4135 Clouds 5 1015 87 0 2.24 112 08:58 15.11.2019
4136 Clouds 4 1015 87 0 2.68 135 08:39 15.11.2019
4137 Clouds 4 1015 87 0 1.79 135 08:21 15.11.2019
4138 Clouds 4 1016 87 0 2.24 135 07:44 15.11.2019
4139 Clouds 4 1016 87 0 2.24 135 07:25 15.11.2019
4140 Clouds 4 1016 87 0 0.45 135 06:36 15.11.2019
4141 Clouds 4 1016 87 0 1.34 112 05:57 15.11.2019
4142 Clouds 4 1016 87 0 1.79 135 05:38 15.11.2019
4143 Clouds 4 1016 87 0 1.34 135 04:54 15.11.2019
4144 Clouds 3 1017 89 0 0.45 112 03:43 15.11.2019
4145 Clouds 3 1017 89 0 0.89 135 02:37 15.11.2019
4146 Clouds 3 1018 90 0 2.24 135 01:57 15.11.2019
4147 Clouds 3 1018 90 0 2.24 135 01:57 15.11.2019
4148 Clouds 3 1017 91 0 0.45 135 01:32 15.11.2019
4149 Clouds 3 1018 91 0 0.89 135 00:42 15.11.2019
4150 Clouds 3 1018 91 0 0.89 135 00:24 15.11.2019
4151 Clouds 3 1017 91 0 1.34 135 23:47 14.11.2019
4152 Clouds 3 1017 91 0 0.89 135 23:27 14.11.2019
4153 Clouds 3 1017 91 0 0.89 135 22:55 14.11.2019
4154 Clouds 3 1017 91 0 0.89 135 22:37 14.11.2019
4155 Clouds 3 1017 90 0 1.79 135 22:19 14.11.2019
4156 Clouds 3 1018 90 0 0.89 135 21:42 14.11.2019
4157 Clouds 3 1017 89 0 0.89 135 21:22 14.11.2019
4158 Clouds 3 1017 89 0 0.45 135 20:56 14.11.2019
4159 Clouds 3 1017 89 0 0.89 135 20:37 14.11.2019
4160 Clouds 3 1017 89 0 0.45 135 20:19 14.11.2019
4161 Clouds 3 1018 89 0 0.45 135 19:58 14.11.2019
4162 Clouds 4 1018 89 0 0.89 135 19:40 14.11.2019
4163 Clouds 4 1017 88 0 0.45 135 19:18 14.11.2019
4164 Clouds 4 1017 88 0 0.45 135 18:54 14.11.2019
4165 Clouds 4 1017 88 0 0.45 135 18:36 14.11.2019
4166 Clouds 4 1016 88 0 0.89 135 18:18 14.11.2019
4167 Clouds 4 1016 87 0 0.89 135 17:38 14.11.2019
4168 Clear 5 1016 87 0 0.45 135 17:20 14.11.2019
4169 Clear 5 1016 86 0 0.45 135 16:58 14.11.2019
4170 Clear 5 1016 86 0 0.45 135 16:39 14.11.2019
4171 Clear 6 1016 85 0 0.45 135 16:20 14.11.2019
4172 Clear 6 1016 84 0 0.89 135 15:58 14.11.2019
4173 Clear 7 1016 85 0 0.89 135 15:39 14.11.2019
4174 Clear 8 1015 84 0 0.45 135 15:20 14.11.2019
4175 Clear 8 1015 83 0 0.45 135 14:58 14.11.2019
4176 Clear 8 1015 83 0 0.45 135 14:40 14.11.2019
4177 Clouds 8 1015 84 0 3.73 179 14:22 14.11.2019
4178 Clouds 9 1015 84 0 0.45 135 13:55 14.11.2019
4179 Clouds 9 1015 85 0 3.73 179 13:36 14.11.2019
4180 Clouds 9 1014 86 0 0.89 157 13:18 14.11.2019
4181 Clouds 8 1014 87 0 0.45 180 12:44 14.11.2019
4182 Clouds 8 1014 87 0 0.45 180 12:25 14.11.2019
4183 Clouds 8 1014 89 0 0.89 180 11:58 14.11.2019
4184 Clouds 7 1014 89 0 0.45 225 11:38 14.11.2019
4185 Clouds 7 1014 90 0 0.89 225 11:19 14.11.2019
4186 Clouds 6 1013 90 0 0.45 225 10:57 14.11.2019
4187 Clouds 6 1013 90 0 0.89 180 10:38 14.11.2019
4188 Clouds 5 1013 90 0 0.45 180 10:19 14.11.2019
4189 Clouds 5 1013 90 0 0.89 180 09:56 14.11.2019
4190 Clouds 4 1013 90 0 0.45 180 09:37 14.11.2019
4191 Clouds 6 1008 84 0 5.29 211 09:18 14.11.2019
4192 Clouds 6 1008 84 0 5.29 211 08:46 14.11.2019
4193 Clouds 6 1008 84 0 5.29 211 08:46 14.11.2019
4194 Clouds 6 1008 83 0 5.01 207 08:24 14.11.2019
4195 Clouds 6 1005 87 0 4.31 208 07:43 14.11.2019
4196 Clouds 6 1005 87 0 4.31 208 07:25 14.11.2019
4197 Clouds 6 1005 87 0 4.31 208 06:55 14.11.2019
4198 Clouds 6 1005 87 0 4.31 208 06:37 14.11.2019
4199 Clouds 6 1005 87 0 4.31 208 06:18 14.11.2019
4200 Clouds 6 1004 84 0 4.06 210 04:40 14.11.2019
4201 Clouds 6 1004 84 0 4.06 210 03:59 14.11.2019
4202 Clouds 6 1004 84 0 4.06 210 02:43 14.11.2019
4203 Clouds 5 1003 85 0 4.76 212 01:41 14.11.2019
4204 Clouds 5 1003 83 0 4.63 213 01:20 14.11.2019
4205 Clouds 5 1003 83 0 4.63 213 00:48 14.11.2019
4206 Clouds 5 1003 83 0 4.63 213 00:25 14.11.2019
4207 Clouds 5 1003 83 0 4.63 213 23:41 13.11.2019
4208 Clouds 6 1002 81 0 5.3 213 23:21 13.11.2019
4209 Clouds 6 1002 81 0 5.3 213 22:56 13.11.2019
4210 Clouds 6 1002 81 0 5.3 213 22:38 13.11.2019
4211 Clouds 6 1002 81 0 5.3 213 22:38 13.11.2019
4212 Clouds 3 1006 89 0 5.3 213 22:20 13.11.2019
4213 Clouds 3 1006 89 0 5.3 213 21:55 13.11.2019
4214 Clouds 3 1006 89 0 5.3 213 21:55 13.11.2019
4215 Clouds 3 1006 89 0 5.3 213 21:37 13.11.2019
4216 Clouds 3 1006 89 0 5.3 213 21:19 13.11.2019
4217 Clouds 3 1006 89 0 5.3 213 20:56 13.11.2019
4218 Clouds 3 1006 88 0 5.3 213 20:37 13.11.2019
4219 Clouds 3 1006 88 0 6.6 195 20:19 13.11.2019
4220 Clouds 3 1006 88 0 6.6 195 19:56 13.11.2019
4221 Clouds 3 1006 88 0 6.6 195 19:37 13.11.2019
4222 Clouds 3 1006 88 0 6.6 195 19:18 13.11.2019
4223 Clouds 3 1006 88 0 6.6 195 18:54 13.11.2019
4224 Clouds 4 1006 87 0 6.6 195 18:36 13.11.2019
4225 Clouds 4 1006 87 0 6.6 195 18:18 13.11.2019
4226 Clouds 4 1006 87 0 6.6 195 18:18 13.11.2019
4227 Clouds 4 1006 87 0 6.6 195 17:40 13.11.2019
4228 Clouds 4 1006 87 0 6.58 182 17:22 13.11.2019
4229 Clouds 4 1006 87 0 6.58 182 17:00 13.11.2019
4230 Clouds 5 1006 87 0 0.45 157 16:40 13.11.2019
4231 Clouds 5 1006 87 0 6.58 182 16:22 13.11.2019
4232 Clouds 5 1006 87 0 0.45 157 15:59 13.11.2019
4233 Clouds 6 1005 86 0 0.45 157 15:41 13.11.2019
4234 Clouds 6 1006 87 0 0.45 157 15:23 13.11.2019
4235 Clouds 6 1005 87 0 0.89 180 14:59 13.11.2019
4236 Clouds 6 1005 87 0 0.45 157 14:39 13.11.2019
4237 Clouds 6 1005 87 0 0.89 157 14:20 13.11.2019
4238 Clouds 6 1005 87 0 0.89 157 13:38 13.11.2019
4239 Clouds 6 1006 88 0 0.45 157 13:19 13.11.2019
4240 Clouds 6 1006 88 0 0.45 157 12:58 13.11.2019
4241 Clouds 6 1006 88 0 0.45 180 12:40 13.11.2019
4242 Clouds 6 1006 88 0 0.89 180 12:21 13.11.2019
4243 Clouds 6 1005 89 0 0.45 180 11:55 13.11.2019
4244 Clouds 6 1006 89 0 0.45 180 11:36 13.11.2019
4245 Clouds 6 1006 90 0 0.45 180 11:18 13.11.2019
4246 Clouds 6 1006 90 0 0.89 180 10:55 13.11.2019
4247 Clouds 6 1006 90 0 0.45 180 10:37 13.11.2019
4248 Clouds 4 1006 90 0 0.89 157 10:19 13.11.2019
4249 Clouds 4 1006 90 0 0.45 157 09:42 13.11.2019
4250 Clouds 4 1006 90 0 0.45 180 09:20 13.11.2019
4251 Clouds 3 1007 90 0 0.45 135 08:42 13.11.2019
4252 Clouds 3 1006 90 0 0.45 135 08:23 13.11.2019
4253 Clouds 3 1006 90 0 5.19 171 07:59 13.11.2019
4254 Clouds 3 1007 90 0 0.45 135 07:39 13.11.2019
4255 Clouds 3 1006 90 0 0.45 135 07:18 13.11.2019
4256 Clouds 3 1006 90 0 0.45 135 07:18 13.11.2019
4257 Clouds 3 1006 90 0 0.45 157 06:42 13.11.2019
4258 Clouds 3 1006 90 0 0.45 135 06:19 13.11.2019
4259 Clouds 3 1006 90 0 5.19 171 05:48 13.11.2019
4260 Clouds 3 1006 90 0 0.45 135 05:22 13.11.2019
4261 Clouds 3 1006 90 0 6.36 171 04:19 13.11.2019
4262 Clouds 3 1007 89 0 0.89 135 01:54 13.11.2019
4263 Clouds 3 1007 89 0 0.89 135 01:35 13.11.2019
4264 Clouds 3 1008 89 0 0.89 135 00:43 13.11.2019
4265 Clouds 3 1008 89 0 0.45 157 23:58 12.11.2019
4266 Clouds 3 1008 89 0 0.45 157 23:40 12.11.2019
4267 Clouds 3 1008 89 0 0.45 157 23:40 12.11.2019
4268 Clouds 4 1008 89 0 0.45 157 23:20 12.11.2019
4269 Clouds 4 1008 89 0 0.89 157 22:43 12.11.2019
4270 Clouds 4 1008 89 0 0.45 157 22:20 12.11.2019
4271 Clouds 4 1009 89 0 0.89 157 21:58 12.11.2019
4272 Clouds 4 1008 89 0 0.45 157 21:40 12.11.2019
4273 Clouds 4 1008 89 0 0.45 180 21:22 12.11.2019
4274 Clouds 3 1009 89 0 0.89 157 20:56 12.11.2019
4275 Clouds 3 1009 89 0 0.89 157 20:37 12.11.2019
4276 Clouds 3 1009 89 0 0.89 157 20:37 12.11.2019
4277 Clear 3 1009 88 0 0.45 157 20:18 12.11.2019
4278 Clear 3 1009 88 0 0.89 135 19:57 12.11.2019
4279 Clear 3 1009 88 0 0.89 135 19:38 12.11.2019
4280 Clear 3 1009 87 0 0.89 157 19:19 12.11.2019
4281 Clear 3 1009 87 0 0.89 135 18:58 12.11.2019
4282 Clear 3 1009 87 0 0.89 135 18:39 12.11.2019
4283 Clear 4 1009 86 0 0.89 135 18:21 12.11.2019
4284 Clear 4 1009 86 0 0.45 135 17:56 12.11.2019
4285 Clear 4 1009 86 0 0.45 135 17:56 12.11.2019
4286 Clear 4 1009 86 0 0.45 157 17:37 12.11.2019
4287 Clear 4 1009 86 0 0.89 157 17:19 12.11.2019
4288 Clear 4 1009 85 0 0.89 157 16:44 12.11.2019
4289 Clear 4 1009 86 0 1.34 157 16:26 12.11.2019
4290 Clear 5 1009 85 0 0.89 157 15:58 12.11.2019
4291 Clear 6 1009 84 0 0.45 157 15:40 12.11.2019
4292 Clear 6 1009 83 0 0.89 135 15:21 12.11.2019
4293 Clear 6 1009 83 0 0.45 157 14:56 12.11.2019
4294 Clear 7 1009 83 0 0.89 157 14:36 12.11.2019
4295 Clouds 7 1008 83 0 0.89 157 14:18 12.11.2019
4296 Clouds 7 1008 83 0 1.34 157 13:55 12.11.2019
4297 Clouds 7 1008 83 0 0.89 180 13:36 12.11.2019
4298 Clouds 7 1008 83 0 0.89 180 13:36 12.11.2019
4299 Clouds 6 1009 84 0 1.34 157 13:18 12.11.2019
4300 Clouds 6 1009 84 0 1.34 157 13:18 12.11.2019
4301 Clouds 6 1009 85 0 0.89 180 12:42 12.11.2019
4302 Clouds 6 1009 86 0 1.34 180 12:19 12.11.2019
4303 Clouds 6 1009 87 0 1.79 180 11:58 12.11.2019
4304 Clouds 6 1009 87 0 1.79 180 11:39 12.11.2019
4305 Clouds 5 1009 88 0 2.24 180 11:21 12.11.2019
4306 Clouds 4 1009 88 0 0.89 180 10:56 12.11.2019
4307 Clouds 4 1009 88 0 0.89 180 10:37 12.11.2019
4308 Clouds 3 1009 89 0 1.34 180 10:19 12.11.2019
4309 Clouds 3 1009 89 0 0.89 180 09:40 12.11.2019
4310 Clouds 3 1009 89 0 0.89 157 09:21 12.11.2019
4311 Clouds 3 1009 89 0 0.89 157 09:21 12.11.2019
4312 Clouds 3 1009 89 0 0.89 135 08:52 12.11.2019
4313 Clouds 2 1009 89 0 0.45 157 08:30 12.11.2019
4314 Clouds 2 1009 89 0 0.89 180 07:55 12.11.2019
4315 Clouds 2 1008 89 0 1.79 157 07:36 12.11.2019
4316 Clouds 2 1008 89 0 0.89 180 07:18 12.11.2019
4317 Clouds 2 1008 89 0 0.89 157 06:39 12.11.2019
4318 Clouds 2 1008 89 0 0.89 157 06:21 12.11.2019
4319 Clouds 2 1008 89 0 0.89 180 05:45 12.11.2019
4320 Clouds 2 1008 89 0 0.89 180 04:42 12.11.2019
4321 Clouds 2 1009 89 0 1.34 180 03:30 12.11.2019
4322 Clouds 3 1009 89 0 1.34 157 01:44 12.11.2019
4323 Clouds 3 1009 89 0 1.34 180 01:21 12.11.2019
4324 Clouds 3 1009 89 0 1.34 157 00:47 12.11.2019
4325 Clouds 3 1009 89 0 1.79 135 00:22 12.11.2019
4326 Clouds 3 1010 89 0 1.34 157 23:44 11.11.2019
4327 Clouds 3 1010 89 0 1.34 157 23:44 11.11.2019
4328 Clouds 3 1010 90 0 1.34 157 23:23 11.11.2019
4329 Clouds 3 1010 90 0 0.89 135 22:57 11.11.2019
4330 Clouds 3 1010 90 0 1.79 135 22:36 11.11.2019
4331 Clouds 3 1010 90 0 1.79 135 22:36 11.11.2019
4332 Clouds 3 1010 90 0 2.24 135 22:18 11.11.2019
4333 Clouds 3 1010 90 0 1.34 157 21:56 11.11.2019
4334 Clouds 3 1010 90 0 2.24 135 21:38 11.11.2019
4335 Clouds 3 1010 90 0 1.34 157 21:19 11.11.2019
4336 Clouds 3 1011 90 0 1.34 157 20:42 11.11.2019
4337 Clouds 3 1011 90 0 0.89 157 20:20 11.11.2019
4338 Clouds 3 1011 89 0 0.89 157 19:58 11.11.2019
4339 Clouds 3 1011 89 0 0.89 135 19:40 11.11.2019
4340 Clouds 3 1011 89 0 1.34 135 19:18 11.11.2019
4341 Clouds 3 1011 89 0 1.34 135 18:56 11.11.2019
4342 Clouds 3 1012 89 0 0.89 157 18:37 11.11.2019
4343 Clouds 3 1012 89 0 0.89 135 18:19 11.11.2019
4344 Clouds 3 1012 88 0 1.34 135 17:42 11.11.2019
4345 Clouds 3 1012 88 0 1.34 135 17:24 11.11.2019
4346 Clouds 4 1012 87 0 1.34 135 16:43 11.11.2019
4347 Clouds 4 1012 87 0 1.34 135 16:24 11.11.2019
4348 Clouds 4 1012 87 0 1.34 135 16:24 11.11.2019
4349 Clouds 4 1012 87 0 0.89 157 15:59 11.11.2019
4350 Clouds 7 1008 73 0 8.91 169 15:40 11.11.2019
4351 Clouds 7 1008 73 0 8.91 169 15:20 11.11.2019
4352 Clouds 7 1008 73 0 8.91 169 14:45 11.11.2019
4353 Clouds 7 1008 73 0 8.91 169 14:25 11.11.2019
4354 Clouds 5 1014 91 0 1.34 135 13:59 11.11.2019
4355 Clouds 5 1014 91 0 1.34 135 13:38 11.11.2019
4356 Clouds 5 1014 91 0 1.34 135 13:20 11.11.2019
4357 Clouds 5 1014 91 0 1.34 135 12:58 11.11.2019
4358 Clouds 5 1014 91 0 1.34 135 12:40 11.11.2019
4359 Clouds 5 1015 91 0 0.89 157 12:22 11.11.2019
4360 Clouds 5 1015 92 0 1.34 157 11:55 11.11.2019
4361 Clouds 5 1015 92 0 1.34 157 11:37 11.11.2019
4362 Clear 5 1015 92 0 1.34 157 11:19 11.11.2019
4363 Clear 4 1016 92 0 0.89 157 10:42 11.11.2019
4364 Clear 3 1016 92 0 0.89 180 10:18 11.11.2019
4365 Clear 3 1016 91 0 0.89 157 09:56 11.11.2019
4366 Clear 3 1016 91 0 1.34 180 09:37 11.11.2019
4367 Clear 3 1016 91 0 0.89 157 09:18 11.11.2019
4368 Clear 3 1016 91 0 0.89 157 09:18 11.11.2019
4369 Clear 3 1016 91 0 0.89 157 08:40 11.11.2019
4370 Clear 3 1016 91 0 1.34 180 08:21 11.11.2019
4371 Clear 3 1017 91 0 1.34 180 07:57 11.11.2019
4372 Clear 3 1017 91 0 0.89 180 07:37 11.11.2019
4373 Clear 3 1017 91 0 0.89 157 07:19 11.11.2019
4374 Clear 3 1017 91 0 0.89 157 06:48 11.11.2019
4375 Clear 3 1017 91 0 0.89 180 06:23 11.11.2019
4376 Clear 3 1017 91 0 0.89 180 05:51 11.11.2019
4377 Clear 3 1018 91 0 0.45 180 04:36 11.11.2019
4378 Clear 3 1018 90 0 0.89 180 03:24 11.11.2019
4379 Clear 4 1018 90 0 0.89 180 02:26 11.11.2019
4380 Clear 4 1018 90 0 0.89 202 01:56 11.11.2019
4381 Clear 3 1018 90 0 0.89 180 01:35 11.11.2019
4382 Clear 3 1018 90 0 0.45 180 00:50 11.11.2019
4383 Clear 3 1018 90 0 0.45 180 00:26 11.11.2019
4384 Clear 3 1018 90 0 0.45 225 23:55 10.11.2019
4385 Clear 3 1018 89 0 0.89 225 23:36 10.11.2019
4386 Clear 3 1018 89 0 0.89 225 23:18 10.11.2019
4387 Clear 2 1018 89 0 0.45 225 22:54 10.11.2019
4388 Clear 2 1018 88 0 0.45 225 22:36 10.11.2019
4389 Clear 2 1018 88 0 0.45 202 22:18 10.11.2019
4390 Clear 3 1018 88 0 0.89 225 21:40 10.11.2019
4391 Clear 3 1018 88 0 0.45 270 21:21 10.11.2019
4392 Clear 3 1018 87 0 5.76 212 20:59 10.11.2019
4393 Clear 3 1018 87 0 5.76 212 20:39 10.11.2019
4394 Clouds 3 1018 87 0 4.49 219 20:21 10.11.2019
4395 Clouds 3 1018 87 0 4.49 219 19:55 10.11.2019
4396 Clouds 3 1018 87 0 4.49 219 19:37 10.11.2019
4397 Clouds 3 1018 87 0 0.45 270 19:18 10.11.2019
4398 Clouds 3 1018 87 0 0.45 270 19:18 10.11.2019
4399 Clouds 4 1018 86 0 0.45 270 18:56 10.11.2019
4400 Clouds 4 1018 86 0 0.45 270 18:56 10.11.2019
4401 Clouds 4 1018 86 0 4.49 219 18:38 10.11.2019
4402 Clouds 4 1018 85 0 4.49 219 18:19 10.11.2019
4403 Clouds 4 1018 85 0 0.45 292 17:55 10.11.2019
4404 Clouds 4 1018 85 0 4.49 219 17:37 10.11.2019
4405 Clouds 5 1018 85 0 3.41 256 17:19 10.11.2019
4406 Clouds 5 1018 85 0 3.41 256 16:56 10.11.2019
4407 Clouds 6 1018 84 0 3.41 256 16:37 10.11.2019
4408 Clouds 6 1018 84 0 3.41 256 16:37 10.11.2019
4409 Clouds 7 1017 85 0 3.41 256 16:19 10.11.2019
4410 Clouds 7 1017 85 0 3.41 256 15:54 10.11.2019
4411 Clouds 8 1017 84 0 3.41 256 15:36 10.11.2019
4412 Clouds 8 1017 84 0 3.41 256 15:18 10.11.2019
4413 Clouds 8 1017 83 0 3.41 256 14:40 10.11.2019
4414 Rain 8 1017 83 0 4.95 278 14:22 10.11.2019
4415 Rain 8 1017 83 0 4.95 278 13:58 10.11.2019
4416 Rain 8 1017 85 0 4.95 278 13:40 10.11.2019
4417 Rain 8 1017 85 0 5.56 271 13:20 10.11.2019
4418 Rain 8 1017 86 0 5.56 271 12:43 10.11.2019
4419 Rain 7 1016 88 0 5.56 271 12:20 10.11.2019
4420 Rain 7 1016 89 0 0.45 270 11:57 10.11.2019
4421 Rain 7 1016 89 0 0.45 270 11:39 10.11.2019
4422 Rain 6 1016 90 0 0.45 292 11:20 10.11.2019
4423 Rain 6 1016 90 0 0.45 292 11:20 10.11.2019
4424 Rain 6 1016 91 0 0.45 270 10:59 10.11.2019
4425 Rain 6 1016 91 0 5.83 244 10:40 10.11.2019
4426 Rain 5 1016 91 0 5.83 244 10:20 10.11.2019
4427 Rain 8 1013 80 0 5.83 244 09:43 10.11.2019
4428 Rain 8 1013 80 0 5.83 244 09:23 10.11.2019
4429 Rain 8 1013 80 0 5.83 244 08:56 10.11.2019
4430 Rain 8 1013 80 0 5.83 244 08:36 10.11.2019
4431 Rain 8 1011 79 0 4.73 270 08:18 10.11.2019
4432 Rain 3 1014 89 0 4.73 270 07:42 10.11.2019
4433 Rain 3 1014 89 0 4.73 270 07:23 10.11.2019
4434 Rain 3 1014 89 0 4.73 270 06:33 10.11.2019
4435 Rain 8 1011 79 0 4.73 270 05:33 10.11.2019
4436 Rain 8 1009 80 0 6.11 267 03:22 10.11.2019
4437 Rain 9 1009 79 0 5.91 291 01:53 10.11.2019
4438 Rain 9 1008 78 0 7.01 298 01:19 10.11.2019
4439 Rain 9 1008 78 0 7.01 298 01:19 10.11.2019
4440 Rain 9 1008 78 0 7.01 298 00:41 10.11.2019
4441 Rain 9 1008 78 0 7.01 298 23:58 09.11.2019
4442 Rain 9 1008 78 0 7.01 298 23:37 09.11.2019
4443 Clouds 9 1007 79 0 8.41 300 23:18 09.11.2019
4444 Clouds 9 1007 79 0 8.41 300 22:41 09.11.2019
4445 Clouds 9 1007 79 0 8.41 300 22:21 09.11.2019
4446 Clouds 9 1007 79 0 8.41 300 21:56 09.11.2019
4447 Clouds 9 1007 79 0 8.41 300 21:37 09.11.2019
4448 Clouds 9 1007 79 0 8.41 300 21:19 09.11.2019
4449 Clouds 9 1007 79 0 8.41 300 20:43 09.11.2019
4450 Rain 9 1006 81 0 7.13 317 20:22 09.11.2019
4451 Rain 9 1006 81 0 7.13 317 19:58 09.11.2019
4452 Rain 9 1006 81 0 7.13 317 19:40 09.11.2019
4453 Rain 9 1006 81 0 7.13 317 19:21 09.11.2019
4454 Rain 9 1006 81 0 7.13 317 18:57 09.11.2019
4455 Rain 9 1006 81 0 7.13 317 18:38 09.11.2019
4456 Rain 9 1006 81 0 7.13 317 18:18 09.11.2019
4457 Rain 9 1006 81 0 7.13 317 17:41 09.11.2019
4458 Rain 9 1005 88 0 8.76 337 17:22 09.11.2019
4459 Rain 9 1005 88 0 8.76 337 16:56 09.11.2019
4460 Rain 9 1005 88 0 8.76 337 16:37 09.11.2019
4461 Rain 9 1007 90 0 0.89 315 16:18 09.11.2019
4462 Rain 9 1007 90 0 0.89 315 15:42 09.11.2019
4463 Rain 9 1007 90 0 0.89 315 15:23 09.11.2019
4464 Rain 9 1007 90 0 8.76 337 14:46 09.11.2019
4465 Rain 9 1007 90 0 8.76 337 14:23 09.11.2019
4466 Rain 9 1007 90 0 9.06 352 13:58 09.11.2019
4467 Rain 9 1007 90 0 0.89 315 13:40 09.11.2019
4468 Rain 9 1005 91 0 9.94 343 13:21 09.11.2019
4469 Rain 9 1005 91 0 9.94 343 12:58 09.11.2019
4470 Rain 9 1005 91 0 9.94 343 12:40 09.11.2019
4471 Rain 9 1005 91 0 9.94 343 12:22 09.11.2019
4472 Rain 9 1005 91 0 9.94 343 11:54 09.11.2019
4473 Rain 9 1005 91 0 9.94 343 11:36 09.11.2019
4474 Rain 9 1005 90 0 8.72 9 11:18 09.11.2019
4475 Rain 9 1005 90 0 8.72 9 10:39 09.11.2019
4476 Rain 9 1005 90 0 8.72 9 10:19 09.11.2019
4477 Rain 9 1005 90 0 8.72 9 10:19 09.11.2019
4478 Rain 9 1005 90 0 8.72 9 09:47 09.11.2019
4479 Rain 9 1005 90 0 8.72 9 09:28 09.11.2019
4480 Rain 9 1005 90 0 8.72 9 08:59 09.11.2019
4481 Rain 8 1008 91 0 8.72 9 08:40 09.11.2019
4482 Rain 8 1008 91 0 7.02 15 08:19 09.11.2019
4483 Rain 8 1008 91 0 7.02 15 07:46 09.11.2019
4484 Rain 8 1008 91 0 7.02 15 07:23 09.11.2019
4485 Rain 8 1008 91 0 7.02 15 06:49 09.11.2019
4486 Rain 8 1008 91 0 7.02 15 06:31 09.11.2019
4487 Rain 8 1008 91 0 7.02 15 05:45 09.11.2019
4488 Rain 8 1008 91 0 5.92 44 04:58 09.11.2019
4489 Rain 8 1009 91 0 5.92 44 03:57 09.11.2019
4490 Rain 9 1009 91 0 5.92 44 02:44 09.11.2019
4491 Rain 10 1007 73 0 3.64 67 01:55 09.11.2019
4492 Rain 10 1007 76 0 2.74 46 00:54 09.11.2019
4493 Rain 10 1007 76 0 2.74 46 00:36 09.11.2019
4494 Rain 10 1007 76 0 2.74 46 23:58 08.11.2019
4495 Rain 10 1007 76 0 2.74 46 23:40 08.11.2019
4496 Clouds 9 1008 78 0 3.2 92 23:20 08.11.2019
4497 Clouds 9 1008 78 0 3.2 92 22:49 08.11.2019
4498 Clouds 9 1008 78 0 3.2 92 22:22 08.11.2019
4499 Clouds 9 1008 78 0 3.2 92 21:58 08.11.2019
4500 Clouds 9 1008 78 0 3.2 92 21:40 08.11.2019
4501 Clouds 9 1008 78 0 3.2 92 21:22 08.11.2019
4502 Clouds 9 1008 78 0 3.2 92 20:54 08.11.2019
4503 Clouds 9 1008 78 0 3.2 92 20:36 08.11.2019
4504 Clouds 9 1009 73 0 3.51 63 20:18 08.11.2019
4505 Clouds 9 1009 73 0 3.51 63 19:39 08.11.2019
4506 Clouds 9 1009 73 0 3.51 63 19:19 08.11.2019
4507 Clouds 9 1009 73 0 3.51 63 18:56 08.11.2019
4508 Clouds 9 1009 73 0 3.51 63 18:38 08.11.2019
4509 Clouds 9 1009 73 0 3.51 63 18:20 08.11.2019
4510 Clouds 9 1009 73 0 3.51 63 17:56 08.11.2019
4511 Clouds 9 1009 73 0 3.51 63 17:38 08.11.2019
4512 Clouds 9 1008 73 0 1.12 44 17:20 08.11.2019
4513 Clouds 9 1008 73 0 1.12 44 16:59 08.11.2019
4514 Clouds 9 1008 73 0 1.12 44 16:40 08.11.2019
4515 Clouds 9 1008 73 0 1.12 44 16:40 08.11.2019
4516 Clouds 9 1008 73 0 1.12 44 16:21 08.11.2019
4517 Clouds 9 1008 73 0 1.12 44 15:59 08.11.2019
4518 Clouds 9 1008 73 0 1.12 44 15:40 08.11.2019
4519 Clouds 9 1008 73 0 1.12 44 15:22 08.11.2019
4520 Clouds 9 1008 73 0 1.12 44 15:22 08.11.2019
4521 Clouds 9 1008 73 0 1.12 44 14:57 08.11.2019
4522 Clouds 9 1008 73 0 1.12 44 14:38 08.11.2019
4523 Clouds 9 1009 73 0 2.56 213 14:20 08.11.2019
4524 Clouds 9 1009 73 0 2.56 213 13:58 08.11.2019
4525 Clouds 9 1009 73 0 2.56 213 13:39 08.11.2019
4526 Clouds 9 1009 73 0 2.47 221 13:21 08.11.2019
4527 Clouds 9 1009 73 0 2.47 221 12:45 08.11.2019
4528 Clouds 9 1009 73 0 2.47 221 12:27 08.11.2019
4529 Clouds 9 1009 73 0 2.47 221 11:58 08.11.2019
4530 Clouds 9 1009 73 0 2.47 221 11:40 08.11.2019
4531 Clouds 8 1008 80 0 4.36 214 11:21 08.11.2019
4532 Clouds 8 1008 80 0 4.36 214 10:58 08.11.2019
4533 Clouds 8 1008 80 0 4.36 214 10:40 08.11.2019
4534 Clouds 8 1008 80 0 4.36 214 10:21 08.11.2019
4535 Clouds 8 1008 80 0 4.36 214 09:58 08.11.2019
4536 Clouds 8 1008 80 0 4.36 214 09:37 08.11.2019
4537 Clouds 8 1008 80 0 4.36 214 09:18 08.11.2019
4538 Clouds 8 1008 80 0 4.36 214 08:45 08.11.2019
4539 Clouds 8 1006 84 0 6.34 225 08:21 08.11.2019
4540 Clouds 8 1006 84 0 6.34 225 07:45 08.11.2019
4541 Clouds 8 1006 84 0 6.34 225 07:23 08.11.2019
4542 Clouds 8 1006 84 0 6.34 225 06:57 08.11.2019
4543 Clouds 8 1006 84 0 6.34 225 06:57 08.11.2019
4544 Clouds 8 1006 84 0 6.34 225 06:37 08.11.2019
4545 Clouds 8 1006 84 0 6.34 225 06:19 08.11.2019
4546 Clouds 8 1006 84 0 6.34 225 05:32 08.11.2019
4547 Clouds 8 1004 89 0 7.93 209 04:29 08.11.2019
4548 Clouds 8 1004 89 0 7.93 209 03:42 08.11.2019
4549 Clouds 8 1004 89 0 7.93 209 03:19 08.11.2019
4550 Rain 9 1004 84 0 8.04 172 01:57 08.11.2019
4551 Rain 9 1004 84 0 8.04 172 01:37 08.11.2019
4552 Rain 9 1004 85 0 6.91 179 00:49 08.11.2019
4553 Rain 9 1004 85 0 6.91 179 00:23 08.11.2019
4554 Rain 9 1004 85 0 6.91 179 23:52 07.11.2019
4555 Rain 9 1004 85 0 6.91 179 23:33 07.11.2019
4556 Rain 9 1004 87 0 5.64 152 22:58 07.11.2019
4557 Rain 9 1004 87 0 5.64 152 22:40 07.11.2019
4558 Rain 9 1004 87 0 5.64 152 22:21 07.11.2019
4559 Rain 9 1004 87 0 5.64 152 21:55 07.11.2019
4560 Rain 9 1004 87 0 5.64 152 21:36 07.11.2019
4561 Rain 9 1004 87 0 5.64 152 21:18 07.11.2019
4562 Rain 9 1004 87 0 5.64 152 21:18 07.11.2019
4563 Rain 9 1004 87 0 5.64 152 20:55 07.11.2019
4564 Rain 9 1004 87 0 5.64 152 20:36 07.11.2019
4565 Clouds 10 1004 82 0 5.77 126 20:18 07.11.2019
4566 Clouds 10 1004 82 0 5.77 126 19:41 07.11.2019
4567 Clouds 10 1004 82 0 5.77 126 19:23 07.11.2019
4568 Clouds 10 1004 82 0 5.77 126 18:58 07.11.2019
4569 Clouds 10 1004 82 0 5.77 126 18:39 07.11.2019
4570 Clouds 10 1004 82 0 5.77 126 18:19 07.11.2019
4571 Clouds 10 1004 82 0 5.77 126 17:59 07.11.2019
4572 Clouds 10 1004 82 0 5.77 126 17:39 07.11.2019
4573 Clouds 9 1003 71 0 4.09 133 17:20 07.11.2019
4574 Clouds 9 1003 71 0 4.09 133 16:56 07.11.2019
4575 Clouds 9 1003 71 0 4.09 133 16:38 07.11.2019
4576 Clouds 9 1003 71 0 4.09 133 16:19 07.11.2019
4577 Clouds 9 1003 71 0 4.09 133 15:54 07.11.2019
4578 Clouds 9 1003 71 0 4.09 133 15:36 07.11.2019
4579 Clouds 9 1003 71 0 4.09 133 15:18 07.11.2019
4580 Clouds 9 1003 71 0 4.09 133 14:43 07.11.2019
4581 Clouds 9 1003 71 0 4.09 133 14:25 07.11.2019
4582 Clouds 8 1003 71 0 1.53 165 13:56 07.11.2019
4583 Clouds 8 1003 71 0 1.53 165 13:38 07.11.2019
4584 Clouds 8 1003 70 0 2.33 161 13:20 07.11.2019
4585 Clouds 8 1003 70 0 2.33 161 12:58 07.11.2019
4586 Clouds 8 1003 70 0 2.33 161 12:39 07.11.2019
4587 Clouds 8 1003 70 0 2.33 161 12:20 07.11.2019
4588 Clouds 8 1003 70 0 2.33 161 12:20 07.11.2019
4589 Clouds 8 1003 70 0 2.33 161 11:44 07.11.2019
4590 Clouds 8 1003 70 0 2.33 161 11:24 07.11.2019
4591 Clouds 7 1003 78 0 3.97 204 10:59 07.11.2019
4592 Clouds 7 1003 78 0 3.97 204 10:40 07.11.2019
4593 Clouds 7 1003 78 0 3.97 204 10:19 07.11.2019
4594 Clouds 7 1003 78 0 3.97 204 10:19 07.11.2019
4595 Clouds 7 1003 78 0 3.97 204 09:43 07.11.2019
4596 Clouds 7 1003 78 0 3.97 204 09:22 07.11.2019
4597 Clouds 7 1003 78 0 3.97 204 08:57 07.11.2019
4598 Clouds 7 1003 78 0 3.97 204 08:38 07.11.2019
4599 Rain 7 1003 85 0 3.67 210 08:20 07.11.2019
4600 Rain 7 1003 78 0 5.23 217 07:42 07.11.2019
4601 -273 0 0 0 0 0 07:23 07.11.2019
4602 Rain 7 1003 78 0 5.23 217 07:21 07.11.2019
4603 Rain 7 1003 78 0 5.23 217 06:46 07.11.2019
4604 -273 0 0 0 0 0 06:27 07.11.2019
4605 Rain 7 1003 78 0 5.23 217 06:27 07.11.2019
4606 Rain 7 1003 78 0 5.23 217 05:51 07.11.2019
4607 Rain 7 1003 78 0 5.23 217 05:33 07.11.2019
4608 Rain 7 1003 87 0 5.01 172 04:53 07.11.2019
4609 Rain 7 1003 87 0 5.01 172 04:52 07.11.2019
4610 -273 0 0 0 0 0 04:31 07.11.2019
4611 Rain 7 1003 87 0 5.01 172 04:30 07.11.2019
4612 Rain 7 1003 81 0 3.16 136 01:49 07.11.2019
4613 Clouds 7 1002 79 0 2.23 160 00:46 07.11.2019
4614 -273 0 0 0 0 0 00:19 07.11.2019
4615 Clouds 7 1002 79 0 2.23 160 23:45 06.11.2019
4616 Clouds 7 1002 73 0 0.54 194 23:21 06.11.2019
4617 Clouds 7 1002 73 0 0.54 194 22:55 06.11.2019
4618 Clouds 7 1002 73 0 0.54 194 22:37 06.11.2019
4619 Clouds 7 1002 73 0 0.54 194 22:18 06.11.2019
4620 Clouds 7 1002 73 0 0.54 194 21:42 06.11.2019
4621 Clouds 7 1002 73 0 0.54 194 21:20 06.11.2019
4622 Clouds 7 1002 73 0 0.54 194 20:58 06.11.2019
4623 Clouds 7 1002 73 0 0.54 194 20:40 06.11.2019
4624 Clouds 7 1002 77 0 2.58 328 20:21 06.11.2019
4625 Clouds 7 1002 77 0 2.58 328 19:58 06.11.2019
4626 Clouds 7 1002 77 0 2.58 328 19:39 06.11.2019
4627 Clouds 7 1002 77 0 2.58 328 19:21 06.11.2019
4628 Clouds 7 1002 77 0 2.58 328 18:57 06.11.2019
4629 Clouds 7 1002 77 0 2.58 328 18:38 06.11.2019
4630 Clouds 8 1004 85 0 2.58 328 18:19 06.11.2019
4631 Clouds 8 1004 85 0 2.58 328 17:56 06.11.2019
4632 Clouds 8 1004 85 0 2.58 328 17:56 06.11.2019
4633 Clouds 8 1004 85 0 2.58 328 17:37 06.11.2019
4634 Clouds 8 1004 85 0 2.8 319 17:18 06.11.2019
4635 Clouds 8 1004 85 0 2.8 319 16:55 06.11.2019
4636 Clouds 8 1004 84 0 2.8 319 16:37 06.11.2019
4637 Clouds 8 1004 84 0 2.8 319 16:18 06.11.2019
4638 Clouds 8 1004 84 0 2.8 319 15:54 06.11.2019
4639 Clouds 8 1003 83 0 2.8 319 15:36 06.11.2019
4640 Clouds 8 1003 83 0 2.8 319 15:18 06.11.2019
4641 Clouds 8 1003 83 0 2.8 319 14:55 06.11.2019
4642 Clouds 8 1003 83 0 2.8 319 14:37 06.11.2019
4643 Rain 8 1003 83 0 3.43 344 14:19 06.11.2019
4644 Rain 8 1003 83 0 3.43 344 13:40 06.11.2019
4645 Rain 8 1003 83 0 3.43 344 13:40 06.11.2019
4646 Rain 8 1003 84 0 3.11 359 13:22 06.11.2019
4647 Rain 8 1003 84 0 3.11 359 12:58 06.11.2019
4648 Rain 8 1003 83 0 3.11 359 12:39 06.11.2019
4649 Rain 8 1003 83 0 3.11 359 12:39 06.11.2019
4650 Rain 8 1002 86 0 3.11 359 12:21 06.11.2019
4651 Rain 8 1002 86 0 3.11 359 11:58 06.11.2019
4652 Rain 8 1002 86 0 3.11 359 11:38 06.11.2019
4653 Rain 8 999 85 0 4.8 20 11:18 06.11.2019
4654 Rain 8 999 85 0 4.8 20 10:56 06.11.2019
4655 Rain 8 999 85 0 4.8 20 10:38 06.11.2019
4656 Rain 8 999 85 0 4.8 20 10:19 06.11.2019
4657 Rain 8 999 85 0 4.8 20 09:56 06.11.2019
4658 Rain 8 999 85 0 4.8 20 09:36 06.11.2019
4659 Rain 8 999 85 0 4.8 20 09:18 06.11.2019
4660 Rain 8 999 85 0 4.8 20 08:54 06.11.2019
4661 Rain 8 999 85 0 4.8 20 08:36 06.11.2019
4662 Rain 8 997 83 0 4.4 41 08:18 06.11.2019
4663 Rain 8 997 83 0 4.4 41 08:18 06.11.2019
4664 Rain 8 1000 90 0 0.45 45 07:40 06.11.2019
4665 Rain 8 1000 90 0 0.45 45 07:21 06.11.2019
4666 Rain 8 1000 90 0 0.45 45 06:47 06.11.2019
4667 Rain 8 997 83 0 4.4 41 06:27 06.11.2019
4668 Rain 7 1000 90 0 0.45 45 04:52 06.11.2019
4669 Rain 7 1000 92 0 0.89 45 02:28 06.11.2019
4670 Rain 7 1000 92 0 0.89 45 01:39 06.11.2019
4671 Rain 7 1000 92 0 0.45 45 00:46 06.11.2019
4672 Rain 7 1000 92 0 0.45 45 00:46 06.11.2019
4673 Rain 7 999 92 0 0.45 45 23:58 05.11.2019
4674 Rain 7 1000 92 0 0.45 45 23:39 05.11.2019
4675 Rain 7 999 92 0 1.79 45 23:21 05.11.2019
4676 Rain 8 1000 92 0 0.45 67 22:55 05.11.2019
4677 Rain 8 999 92 0 9.07 58 22:36 05.11.2019
4678 Rain 8 999 92 0 9.07 58 22:18 05.11.2019
4679 Rain 8 999 92 0 1.34 45 21:42 05.11.2019
4680 Rain 8 999 92 0 9.07 58 21:21 05.11.2019
4681 Rain 8 999 92 0 0.45 45 20:59 05.11.2019
4682 Rain 8 999 92 0 9.07 58 20:39 05.11.2019
4683 Rain 8 999 92 0 0.45 45 20:20 05.11.2019
4684 Rain 8 999 92 0 8.73 72 19:58 05.11.2019
4685 Rain 8 999 91 0 0.45 45 19:38 05.11.2019
4686 Rain 8 1000 91 0 0.45 67 19:20 05.11.2019
4687 Rain 8 1000 91 0 8.73 72 18:58 05.11.2019
4688 Rain 8 1000 91 0 0.89 67 18:39 05.11.2019
4689 Rain 8 1000 91 0 0.89 67 18:39 05.11.2019
4690 Rain 8 1000 91 0 0.45 45 18:20 05.11.2019
4691 Rain 8 1000 90 0 8.73 72 17:58 05.11.2019
4692 Rain 8 999 90 0 8.73 72 17:39 05.11.2019
4693 Rain 8 999 90 0 7.68 72 17:19 05.11.2019
4694 Rain 8 999 90 0 7.68 72 17:19 05.11.2019
4695 Rain 8 999 90 0 7.68 72 16:56 05.11.2019
4696 Rain 8 999 90 0 7.68 72 16:38 05.11.2019
4697 Rain 8 999 90 0 7.68 72 16:19 05.11.2019
4698 Rain 8 999 90 0 7.68 72 15:39 05.11.2019
4699 Rain 9 999 90 0 7.68 72 15:20 05.11.2019
4700 Rain 9 999 89 0 7.68 72 14:58 05.11.2019
4701 Rain 9 999 89 0 7.68 72 14:40 05.11.2019
4702 Rain 9 999 89 0 7.98 73 14:21 05.11.2019
4703 Rain 9 999 89 0 7.98 73 13:58 05.11.2019
4704 Rain 9 999 89 0 7.98 73 13:39 05.11.2019
4705 Rain 9 999 89 0 7.98 70 13:21 05.11.2019
4706 Rain 9 999 90 0 7.98 70 12:40 05.11.2019
4707 Rain 9 999 90 0 7.98 70 12:21 05.11.2019
4708 Rain 9 999 90 0 0.89 67 11:56 05.11.2019
4709 Rain 9 999 90 0 7.98 70 11:38 05.11.2019
4710 Rain 9 999 90 0 0.45 45 11:19 05.11.2019
4711 Rain 9 999 90 0 7.52 67 10:48 05.11.2019
4712 Rain 9 999 90 0 7.52 67 10:27 05.11.2019
4713 Rain 9 998 91 0 0.45 45 09:59 05.11.2019
4714 Rain 9 998 91 0 7.52 67 09:41 05.11.2019
4715 Rain 9 998 92 0 7.52 67 09:21 05.11.2019
4716 Rain 9 998 92 0 7.52 67 08:59 05.11.2019
4717 Rain 9 998 92 0 7.52 67 08:59 05.11.2019
4718 Rain 9 998 92 0 7.52 67 08:37 05.11.2019
4719 Rain 9 997 91 0 0.89 67 08:19 05.11.2019
4720 Rain 9 997 92 0 0.45 45 07:55 05.11.2019
4721 Rain 9 997 92 0 8.5 73 07:36 05.11.2019
4722 Rain 9 997 92 0 8.5 73 07:18 05.11.2019
4723 Rain 9 997 92 0 8.5 73 06:40 05.11.2019
4724 Rain 9 997 92 0 8.5 73 05:51 05.11.2019
4725 Rain 9 996 92 0 9.11 70 05:21 05.11.2019
4726 Rain 9 996 92 0 9.11 70 04:23 05.11.2019
4727 Rain 9 996 92 0 9.11 70 03:32 05.11.2019
4728 Rain 9 996 92 0 0.89 67 02:43 05.11.2019
4729 Rain 9 996 92 0 9.99 66 01:57 05.11.2019
4730 Rain 9 995 92 0 10.17 70 00:49 05.11.2019
4731 Rain 9 995 92 0 10.17 70 00:27 05.11.2019
4732 Rain 10 995 92 0 10.17 70 23:43 04.11.2019
4733 Rain 10 994 92 0 6.52 85 23:20 04.11.2019
4734 Rain 9 994 92 0 6.52 85 22:59 04.11.2019
4735 Rain 9 994 92 0 0.45 22 22:40 04.11.2019
4736 Rain 9 994 92 0 6.52 85 22:22 04.11.2019
4737 Rain 9 994 92 0 6.52 85 21:56 04.11.2019
4738 Rain 9 994 92 0 6.52 85 21:37 04.11.2019
4739 Rain 9 994 92 0 6.52 85 21:19 04.11.2019
4740 Rain 9 994 92 0 6.52 85 20:58 04.11.2019
4741 Rain 9 994 92 0 6.52 85 20:39 04.11.2019
4742 Rain 10 994 92 0 8.29 74 20:21 04.11.2019
4743 Rain 10 994 92 0 8.29 74 19:59 04.11.2019
4744 Rain 10 994 92 0 8.29 74 19:40 04.11.2019
4745 Rain 10 993 92 0 8.29 74 19:21 04.11.2019
4746 Rain 10 993 92 0 8.29 74 18:57 04.11.2019
4747 Rain 10 993 92 0 8.29 74 18:38 04.11.2019
4748 Rain 10 993 92 0 8.29 74 18:19 04.11.2019
4749 Rain 10 993 92 0 8.29 74 17:40 04.11.2019
4750 Rain 10 993 92 0 6.35 76 17:21 04.11.2019
4751 Rain 10 993 92 0 6.35 76 16:59 04.11.2019
4752 Rain 10 993 92 0 6.35 76 16:40 04.11.2019
4753 Rain 10 993 92 0 6.35 76 16:22 04.11.2019
4754 Rain 10 993 92 0 6.35 76 15:56 04.11.2019
4755 Rain 10 992 92 0 6.35 76 15:38 04.11.2019
4756 Rain 11 992 92 0 6.35 76 15:19 04.11.2019
4757 Rain 11 992 92 0 6.35 76 14:56 04.11.2019
4758 Rain 11 992 92 0 6.35 76 14:37 04.11.2019
4759 Rain 11 992 92 0 5.69 103 14:18 04.11.2019
4760 Rain 11 992 92 0 0.45 112 13:55 04.11.2019
4761 Rain 11 992 92 0 5.69 103 13:37 04.11.2019
4762 Rain 11 992 92 0 7.68 93 13:19 04.11.2019
4763 Rain 11 992 92 0 7.68 93 12:44 04.11.2019
4764 Rain 11 992 92 0 7.68 93 12:24 04.11.2019
4765 Rain 11 992 92 0 7.68 93 11:58 04.11.2019
4766 Rain 11 993 92 0 0.89 112 11:40 04.11.2019
4767 Rain 11 993 92 0 0.89 135 11:21 04.11.2019
4768 Rain 11 993 92 0 6.73 103 10:47 04.11.2019
4769 Rain 11 993 92 0 6.73 103 10:26 04.11.2019
4770 Rain 11 993 92 0 6.73 103 09:56 04.11.2019
4771 Rain 11 993 92 0 0.89 135 09:38 04.11.2019
4772 Rain 11 993 92 0 6.73 103 09:19 04.11.2019
4773 Rain 11 993 92 0 0.45 112 08:42 04.11.2019
4774 Clouds 10 993 92 0 6.41 107 08:23 04.11.2019
4775 Clouds 10 993 92 0 6.41 107 08:23 04.11.2019
4776 Clouds 10 993 92 0 6.41 107 08:23 04.11.2019
4777 Clouds 10 993 92 0 0.45 135 07:57 04.11.2019
4778 Clouds 10 993 92 0 5.89 102 07:38 04.11.2019
4779 Clouds 10 993 92 0 5.89 102 07:19 04.11.2019
4780 Clouds 10 993 92 0 5.89 102 06:47 04.11.2019
4781 Clouds 10 993 92 0 0.45 135 06:18 04.11.2019
4782 Clouds 10 993 92 0 0.45 135 05:31 04.11.2019
4783 Clouds 9 993 91 0 0.45 112 04:27 04.11.2019
4784 Clouds 9 993 91 0 4.62 99 03:39 04.11.2019
4785 Clouds 10 993 91 0 3.8 119 01:37 04.11.2019
4786 Clouds 10 993 91 0 3.47 99 01:18 04.11.2019
4787 Clouds 10 993 91 0 3.47 99 00:22 04.11.2019
4788 Clouds 10 994 91 0 3.47 99 23:59 03.11.2019
4789 Clouds 10 993 91 0 3.47 99 23:39 03.11.2019
4790 Clouds 10 993 91 0 0.45 135 23:20 03.11.2019
4791 Clouds 10 993 91 0 0.45 135 22:57 03.11.2019
4792 Clouds 10 993 91 0 0.89 135 22:39 03.11.2019
4793 Clouds 10 993 91 0 0.45 135 22:19 03.11.2019
4794 Clouds 10 994 90 0 0.45 135 21:43 03.11.2019
4795 Clouds 10 994 90 0 0.89 135 21:22 03.11.2019
4796 Clouds 10 994 90 0 0.89 135 20:59 03.11.2019
4797 Clouds 10 994 90 0 0.45 135 20:38 03.11.2019
4798 Clouds 10 994 90 0 2.86 161 20:20 03.11.2019
4799 Clouds 10 994 89 0 0.45 135 19:58 03.11.2019
4800 Clouds 10 994 89 0 0.45 135 19:58 03.11.2019
4801 Clouds 11 994 89 0 0.45 135 19:39 03.11.2019
4802 Clouds 11 994 89 0 0.45 135 19:21 03.11.2019
4803 Clouds 11 994 89 0 0.45 135 18:58 03.11.2019
4804 Clouds 11 994 89 0 0.45 135 18:38 03.11.2019
4805 Clouds 11 994 89 0 0.45 135 18:18 03.11.2019
4806 Clouds 11 993 89 0 0.45 157 17:56 03.11.2019
4807 Clouds 11 993 89 0 0.45 157 17:37 03.11.2019
4808 Clouds 11 993 88 0 1.12 172 17:18 03.11.2019
4809 Clouds 11 993 88 0 1.12 172 16:54 03.11.2019
4810 Clouds 12 993 88 0 1.12 172 16:36 03.11.2019
4811 Clouds 12 993 88 0 1.12 172 16:18 03.11.2019
4812 Clouds 12 993 88 0 1.12 172 15:43 03.11.2019
4813 Clouds 13 993 88 0 1.12 172 15:24 03.11.2019
4814 Clouds 13 993 89 0 1.12 172 14:57 03.11.2019
4815 Clouds 13 993 89 0 0.45 180 14:38 03.11.2019
4816 Rain 13 993 90 0 0.45 180 14:18 03.11.2019
4817 Rain 12 993 90 0 0.45 180 13:43 03.11.2019
4818 Rain 12 993 90 0 0.89 180 13:21 03.11.2019
4819 Rain 12 993 90 0 0.89 180 13:20 03.11.2019
4820 Rain 12 993 90 0 0.45 180 12:59 03.11.2019
4821 Rain 12 993 91 0 0.89 180 12:37 03.11.2019
4822 Rain 12 993 91 0 0.89 180 12:19 03.11.2019
4823 Rain 12 994 91 0 0.45 180 11:54 03.11.2019
4824 Rain 12 993 92 0 0.89 180 11:36 03.11.2019
4825 Rain 12 994 92 0 0.89 180 11:18 03.11.2019
4826 Rain 11 994 92 0 0.89 157 10:40 03.11.2019
4827 Rain 11 994 92 0 0.45 180 10:22 03.11.2019
4828 Rain 11 994 92 0 0.45 180 10:22 03.11.2019
4829 Rain 11 994 92 0 0.89 157 09:57 03.11.2019
4830 Rain 11 994 92 0 0.45 157 09:39 03.11.2019
4831 Rain 11 994 91 0 0.89 157 09:21 03.11.2019
4832 Rain 11 994 91 0 0.45 157 08:42 03.11.2019
4833 Rain 10 994 91 0 5.53 187 08:24 03.11.2019
4834 Rain 10 993 91 0 5.6 191 07:46 03.11.2019
4835 Rain 11 993 91 0 5.6 191 07:28 03.11.2019
4836 Rain 11 993 91 0 0.45 157 06:53 03.11.2019
4837 Rain 10 993 91 0 0.45 157 06:34 03.11.2019
4838 Rain 10 993 91 0 0.45 180 05:40 03.11.2019
4839 Rain 10 993 91 0 0.45 180 05:40 03.11.2019
4840 Rain 11 994 91 0 0.45 180 04:58 03.11.2019
4841 Rain 11 994 91 0 0.89 180 04:38 03.11.2019
4842 Rain 10 994 91 0 0.45 157 03:39 03.11.2019
4843 Rain 11 994 91 0 0.45 157 02:45 03.11.2019
4844 Rain 11 994 91 0 5.67 204 02:20 03.11.2019
4845 Rain 11 994 91 0 5.67 204 02:20 03.11.2019
4846 Rain 11 994 91 0 5.67 204 01:43 03.11.2019
4847 Rain 11 994 91 0 0.45 180 01:21 03.11.2019
4848 Rain 11 994 91 0 0.89 157 00:46 03.11.2019
4849 Rain 11 994 91 0 0.89 157 00:27 03.11.2019
4850 Rain 11 995 91 0 0.89 157 23:58 02.11.2019
4851 Rain 10 995 91 0 0.45 180 23:38 02.11.2019
4852 Rain 10 995 91 0 0.45 180 23:19 02.11.2019
4853 Rain 11 995 91 0 0.45 180 22:56 02.11.2019
4854 Rain 11 995 91 0 0.45 180 22:56 02.11.2019
4855 Rain 11 995 91 0 0.45 202 22:38 02.11.2019
4856 Rain 11 995 91 0 0.45 202 22:19 02.11.2019
4857 Rain 11 995 91 0 6.86 210 21:56 02.11.2019
4858 Rain 12 995 92 0 0.45 225 21:38 02.11.2019
4859 Rain 12 994 92 0 0.45 225 21:18 02.11.2019
4860 Rain 12 994 92 0 0.45 225 21:18 02.11.2019
4861 Rain 12 994 92 0 0.45 225 21:18 02.11.2019
4862 Rain 12 995 92 0 0.89 202 20:59 02.11.2019
4863 Rain 12 995 92 0 0.89 225 20:40 02.11.2019
4864 Rain 12 994 92 0 0.89 180 20:20 02.11.2019
4865 Rain 12 994 92 0 0.89 180 19:55 02.11.2019
4866 Rain 12 994 92 0 0.45 202 19:36 02.11.2019
4867 Rain 12 994 92 0 0.45 180 19:18 02.11.2019
4868 Rain 12 994 91 0 0.89 202 18:43 02.11.2019
4869 Rain 12 994 91 0 0.89 202 18:24 02.11.2019
4870 Rain 12 993 91 0 0.89 202 17:59 02.11.2019
4871 Rain 11 994 91 0 0.89 202 17:40 02.11.2019
4872 Rain 11 994 91 0 0.89 202 17:40 02.11.2019
4873 Rain 11 994 91 0 0.45 180 17:22 02.11.2019
4874 Rain 11 994 91 0 0.45 180 17:22 02.11.2019
4875 Rain 12 993 91 0 0.45 202 16:58 02.11.2019
4876 Rain 12 994 91 0 0.45 225 16:39 02.11.2019
4877 Rain 12 993 91 0 0.89 225 16:20 02.11.2019
4878 Rain 11 993 91 0 0.89 202 15:43 02.11.2019
4879 Rain 11 993 91 0 1.34 180 15:21 02.11.2019
4880 Rain 11 993 91 0 0.89 180 14:57 02.11.2019
4881 Rain 11 993 91 0 0.89 180 14:39 02.11.2019
4882 Rain 10 993 91 0 1.34 180 14:21 02.11.2019
4883 Rain 10 993 90 0 0.89 180 13:40 02.11.2019
4884 Rain 10 993 90 0 0.89 180 13:20 02.11.2019
4885 Rain 10 993 90 0 0.89 180 12:59 02.11.2019
4886 Rain 10 994 90 0 0.89 180 12:40 02.11.2019
4887 Rain 10 994 90 0 1.79 180 12:21 02.11.2019
4888 Rain 10 994 91 0 1.34 180 11:55 02.11.2019
4889 Rain 9 994 91 0 1.34 180 11:37 02.11.2019
4890 Rain 9 994 91 0 1.34 180 11:37 02.11.2019
4891 Rain 9 994 91 0 1.34 180 11:19 02.11.2019
4892 Rain 8 994 91 0 1.34 180 10:43 02.11.2019
4893 Rain 8 994 91 0 1.79 180 10:24 02.11.2019
4894 Rain 8 995 91 0 0.89 180 09:43 02.11.2019
4895 Rain 8 995 91 0 0.89 180 09:43 02.11.2019
4896 Rain 8 995 91 0 0.89 180 09:22 02.11.2019
4897 Rain 8 995 91 0 0.89 180 09:22 02.11.2019
4898 Rain 7 995 91 0 0.89 180 08:57 02.11.2019
4899 Rain 7 995 91 0 0.89 157 08:39 02.11.2019
4900 Rain 7 996 91 0 0.89 180 08:19 02.11.2019
4901 Rain 7 996 91 0 0.89 157 07:47 02.11.2019
4902 Rain 7 996 91 0 1.34 180 07:27 02.11.2019
4903 Rain 6 996 91 0 0.45 180 06:52 02.11.2019
4904 Rain 6 997 91 0 0.89 180 06:25 02.11.2019
4905 Rain 6 997 91 0 0.89 157 05:54 02.11.2019
4906 Rain 6 998 90 0 0.89 157 04:51 02.11.2019
4907 Rain 5 998 90 0 0.89 180 04:19 02.11.2019
4908 Rain 5 999 90 0 0.45 180 03:45 02.11.2019
4909 Rain 4 1000 89 0 1.34 180 02:32 02.11.2019
4910 Rain 4 1001 89 0 0.89 180 01:42 02.11.2019
4911 Rain 4 1001 88 0 1.34 157 01:20 02.11.2019
4912 Rain 4 1002 88 0 1.34 180 00:42 02.11.2019
4913 Rain 4 1002 87 0 1.34 180 00:24 02.11.2019
4914 Rain 3 1003 87 0 0.89 157 23:44 01.11.2019
4915 Rain 3 1004 86 0 0.89 157 23:20 01.11.2019
4916 Rain 3 1004 85 0 0.89 157 22:57 01.11.2019
4917 Rain 3 1004 85 0 0.45 157 22:38 01.11.2019
4918 Rain 3 1005 84 0 0.45 157 22:20 01.11.2019
4919 Rain 3 1005 83 0 0.89 180 21:40 01.11.2019
4920 Rain 3 1006 82 0 0.89 157 21:22 01.11.2019
4921 Rain 3 1006 82 0 1.34 135 20:56 01.11.2019
4922 Rain 3 1006 81 0 1.34 135 20:38 01.11.2019
4923 Clouds 7 1005 75 0 9.62 165 20:19 01.11.2019
4924 Clouds 7 1005 75 0 9.62 165 19:55 01.11.2019
4925 Clouds 3 1008 80 0 1.79 157 19:36 01.11.2019
4926 Clouds 3 1009 79 0 1.79 135 19:18 01.11.2019
4927 Clouds 4 1009 79 0 1.79 157 18:39 01.11.2019
4928 Clouds 4 1010 78 0 2.24 157 18:20 01.11.2019
4929 Clouds 4 1010 78 0 0.89 135 17:55 01.11.2019
4930 Clouds 4 1010 77 0 0.89 135 17:37 01.11.2019
4931 Clouds 4 1010 76 0 0.89 157 17:18 01.11.2019
4932 Clouds 5 1011 75 0 0.89 157 16:38 01.11.2019
4933 Clouds 5 1011 75 0 0.89 157 16:38 01.11.2019
4934 Clouds 5 1011 75 0 1.34 157 16:19 01.11.2019
4935 Clouds 6 1012 74 0 0.89 135 15:54 01.11.2019
4936 Clouds 6 1012 74 0 1.79 135 15:36 01.11.2019
4937 Clouds 6 1013 73 0 1.34 135 15:18 01.11.2019
4938 Clouds 6 1013 73 0 2.24 135 14:41 01.11.2019
4939 Clouds 6 1013 73 0 1.79 157 14:23 01.11.2019
4940 Clouds 6 1014 74 0 2.24 157 13:57 01.11.2019
4941 Clouds 6 1015 74 0 1.34 135 13:37 01.11.2019
4942 Clouds 6 1016 75 0 2.24 135 13:19 01.11.2019
4943 Clouds 6 1017 75 0 1.79 180 12:43 01.11.2019
4944 Clouds 6 1017 75 0 2.68 180 12:25 01.11.2019
4945 Clouds 6 1018 77 0 1.34 135 11:56 01.11.2019
4946 Clouds 6 1018 77 0 1.79 157 11:38 01.11.2019
4947 Clouds 5 1019 80 0 1.79 135 11:19 01.11.2019
4948 Clouds 4 1020 81 0 0.89 135 10:41 01.11.2019
4949 Clouds 3 1020 83 0 0.89 135 10:21 01.11.2019
4950 Clouds 3 1021 83 0 1.34 135 09:57 01.11.2019
4951 Clouds 2 1021 84 0 0.89 135 09:38 01.11.2019
4952 Clouds 2 1021 86 0 1.79 135 09:19 01.11.2019
4953 Clouds 2 1021 86 0 1.79 135 09:19 01.11.2019
4954 Clouds 5 1016 67 0 8.38 153 08:42 01.11.2019
4955 Clouds 1 1022 86 0 0.45 135 08:22 01.11.2019
4956 Clouds 1 1022 86 0 0.45 135 08:22 01.11.2019
4957 Clouds 1 1022 86 0 0.45 135 08:22 01.11.2019
4958 Clouds 1 1022 85 0 0.89 135 07:56 01.11.2019
4959 Clouds 0 1022 85 0 0.89 157 07:37 01.11.2019
4960 Clouds 0 1023 85 0 0.89 157 07:18 01.11.2019
4961 Clouds 0 1023 85 0 0.89 135 06:41 01.11.2019
4962 Clouds -1 1023 84 0 0.45 135 06:21 01.11.2019
4963 Clouds -1 1024 84 0 6.61 163 05:43 01.11.2019
4964 Clouds 0 1026 84 0 5.08 178 03:42 01.11.2019
4965 Clouds 0 1026 83 0 5.08 178 02:49 01.11.2019
4966 Clear 0 1027 82 0 4.37 200 01:28 01.11.2019
4967 Clear 1 1027 82 0 4.37 200 00:40 01.11.2019
4968 Clear 1 1028 82 0 4.37 200 00:18 01.11.2019
4969 Clear 1 1028 82 0 4.37 200 23:43 31.10.2019
4970 Clear 6 1024 75 0 4.49 220 23:23 31.10.2019
4971 Clear 1 1028 81 0 4.49 220 22:55 31.10.2019
4972 Clear 1 1029 81 0 4.49 220 22:37 31.10.2019
4973 Clear 1 1029 81 0 4.49 220 22:18 31.10.2019
4974 Clear 1 1029 81 0 4.49 220 21:42 31.10.2019
4975 Clear 2 1029 80 0 4.49 220 21:20 31.10.2019
4976 Clear 2 1029 80 0 4.49 220 20:57 31.10.2019
4977 Clear 2 1029 80 0 4.49 220 20:39 31.10.2019
4978 Clouds 7 1025 73 0 3.46 230 20:20 31.10.2019
4979 Clouds 7 1025 73 0 3.46 230 19:41 31.10.2019
4980 Clouds 2 1029 79 0 3.46 230 19:22 31.10.2019
4981 Clouds 2 1030 78 0 3.46 230 18:57 31.10.2019
4982 Clouds 3 1030 78 0 3.46 230 18:39 31.10.2019
4983 Clouds 3 1030 78 0 3.46 230 18:19 31.10.2019
4984 Clouds 4 1030 77 0 3.46 230 17:42 31.10.2019
4985 Clouds 4 1030 76 0 4.56 258 17:22 31.10.2019
4986 Clouds 4 1030 76 0 4.56 258 16:59 31.10.2019
4987 Clouds 5 1030 75 0 4.56 258 16:40 31.10.2019
4988 Clouds 6 1030 75 0 4.56 258 16:20 31.10.2019
4989 Clouds 6 1030 74 0 4.56 258 15:56 31.10.2019
4990 Clouds 7 1030 73 0 4.56 258 15:38 31.10.2019
4991 Clouds 7 1030 74 0 4.56 258 15:19 31.10.2019
4992 Clouds 7 1025 74 0 4.56 258 14:56 31.10.2019
4993 Clouds 7 1030 73 0 4.56 258 14:38 31.10.2019
4994 Clouds 7 1030 73 0 4.56 258 14:38 31.10.2019
4995 Clouds 7 1030 73 0 0.45 292 14:20 31.10.2019
4996 Clouds 7 1030 72 0 0.45 270 13:56 31.10.2019
4997 Clouds 8 1031 71 0 0.45 270 13:37 31.10.2019
4998 Clouds 8 1031 73 0 0.45 270 13:19 31.10.2019
4999 Clouds 7 1031 75 0 0.45 270 12:44 31.10.2019
5000 Clouds 7 1031 76 0 0.45 292 12:24 31.10.2019
5001 Clouds 7 1032 77 0 0.89 247 11:59 31.10.2019
5002 Clouds 7 1032 78 0 0.45 270 11:41 31.10.2019
5003 Clouds 6 1032 81 0 5.78 247 11:19 31.10.2019
5004 Clouds 6 1032 83 0 5.78 247 10:57 31.10.2019
5005 Clouds 6 1032 83 0 5.78 247 10:57 31.10.2019
5006 Clouds 5 1032 84 0 5.78 247 10:38 31.10.2019
5007 Clouds 4 1032 86 0 5.78 247 10:19 31.10.2019
5008 Clouds 2 1032 86 0 5.78 247 09:43 31.10.2019
5009 Clouds 2 1032 86 0 5.78 247 09:19 31.10.2019
5010 Clouds 7 1027 77 0 5.78 247 08:55 31.10.2019
5011 Clouds 1 1032 85 0 5.78 247 08:36 31.10.2019
5012 Clouds 1 1032 85 0 5.21 247 08:18 31.10.2019
5013 Clouds 0 1032 85 0 5.21 247 07:42 31.10.2019
5014 Clouds 0 1032 85 0 5.21 247 07:42 31.10.2019
5015 Clouds 0 1032 85 0 5.21 247 07:24 31.10.2019
5016 Clouds 0 1032 84 0 5.21 247 06:39 31.10.2019
5017 Clouds 0 1032 84 0 5.21 247 06:20 31.10.2019
5018 Clouds 0 1032 84 0 5.34 237 05:18 31.10.2019
5019 Clouds 0 1033 83 0 5.34 237 02:47 31.10.2019
5020 Clear 0 1033 83 0 4.81 242 02:22 31.10.2019
5021 Clear 0 1033 83 0 4.81 242 02:22 31.10.2019
5022 Clear 1 1033 82 0 5.25 233 00:47 31.10.2019
5023 Clear 1 1033 82 0 5.25 233 00:24 31.10.2019
5024 Clear 1 1033 81 0 5.25 233 23:40 30.10.2019
5025 Clear 7 1029 65 0 4.26 228 23:22 30.10.2019
5026 Clear 7 1029 65 0 4.26 228 22:41 30.10.2019
5027 Clear 7 1029 65 0 4.26 228 22:19 30.10.2019
5028 Clear 1 1034 80 0 4.26 228 21:54 30.10.2019
5029 Clear 2 1034 80 0 4.26 228 21:36 30.10.2019
5030 Clear 2 1034 80 0 4.26 228 21:36 30.10.2019
5031 Clear 2 1034 80 0 4.26 228 21:18 30.10.2019
5032 Clear 2 1034 80 0 4.26 228 20:57 30.10.2019
5033 Clear 2 1034 80 0 4.26 228 20:57 30.10.2019
5034 Clouds 7 1029 66 0 4.62 226 20:37 30.10.2019
5035 Clouds 7 1030 56 0 2.12 227 20:19 30.10.2019
5036 Clouds 3 1034 79 0 2.12 227 19:43 30.10.2019
5037 Clouds 3 1034 79 0 2.12 227 19:24 30.10.2019
5038 Clouds 3 1034 78 0 2.12 227 19:00 30.10.2019
5039 Clouds 4 1034 78 0 2.12 227 18:38 30.10.2019
5040 Clouds 4 1034 78 0 2.12 227 18:38 30.10.2019
5041 Clouds 4 1034 77 0 2.12 227 18:19 30.10.2019
5042 Clouds 4 1034 76 0 2.12 227 17:56 30.10.2019
5043 Clouds 5 1034 76 0 2.12 227 17:37 30.10.2019
5044 Clear 6 1034 75 0 0.59 284 17:18 30.10.2019
5045 Clear 6 1034 75 0 0.59 284 17:18 30.10.2019
5046 Clear 6 1034 74 0 0.59 284 16:54 30.10.2019
5047 Clear 7 1034 73 0 0.59 284 16:36 30.10.2019
5048 Clear 7 1034 73 0 0.59 284 16:18 30.10.2019
5049 Clear 8 1034 72 0 0.59 284 15:41 30.10.2019
5050 Clear 8 1034 71 0 0.59 284 15:21 30.10.2019
5051 Clear 8 1034 71 0 0.59 284 15:21 30.10.2019
5052 Clear 8 1034 70 0 0.59 284 14:59 30.10.2019
5053 Clear 8 1034 69 0 0.59 284 14:41 30.10.2019
5054 Clear 9 1035 67 0 0.43 190 14:22 30.10.2019
5055 Clear 9 1035 68 0 0.43 190 13:57 30.10.2019
5056 Clear 8 1035 70 0 0.43 190 13:39 30.10.2019
5057 Clear 8 1035 71 0 1.41 210 13:19 30.10.2019
5058 Clear 8 1035 70 0 1.41 210 12:56 30.10.2019
5059 Clear 9 1035 70 0 1.41 210 12:37 30.10.2019
5060 Clear 8 1036 71 0 1.41 210 12:18 30.10.2019
5061 Clear 9 1036 75 0 1.41 210 11:41 30.10.2019
5062 Clear 8 1036 80 0 0.26 107 11:21 30.10.2019
5063 Clear 7 1036 85 0 0.26 107 10:45 30.10.2019
5064 Clear 7 1036 86 0 0.26 107 10:24 30.10.2019
5065 Clear 6 1035 87 0 0.26 107 09:57 30.10.2019
5066 Clear 4 1035 87 0 0.26 107 09:39 30.10.2019
5067 Clear 7 1031 54 0 0.26 107 09:19 30.10.2019
5068 Clear 7 1031 54 0 0.26 107 08:41 30.10.2019
5069 Clear 7 1031 53 0 1.3 30 08:22 30.10.2019
5070 Clear 7 1031 53 0 1.3 30 07:51 30.10.2019
5071 Clear 7 1031 53 0 1.3 30 07:33 30.10.2019
5072 Clear 7 1031 53 0 1.3 30 06:43 30.10.2019
5073 Clear 7 1031 53 0 1.3 30 06:25 30.10.2019
5074 Clear 7 1031 53 0 1.3 30 05:54 30.10.2019
5075 Clear 7 1031 53 0 1.3 30 05:54 30.10.2019
5076 Clear 7 1031 53 0 1.3 30 05:35 30.10.2019
5077 Clear 2 1034 84 0 2.03 24 03:48 30.10.2019
5078 Clear 3 1034 84 0 2.03 24 03:21 30.10.2019
5079 Clear 3 1034 84 0 2.03 24 02:39 30.10.2019
5080 Clear 7 1030 57 0 3.33 31 01:42 30.10.2019
5081 Clear 3 1034 82 0 2.81 27 00:36 30.10.2019
5082 Clear 3 1034 81 0 2.81 27 00:18 30.10.2019
5083 Clear 3 1034 82 0 2.81 27 23:38 29.10.2019
5084 Clear 8 1029 60 0 4.49 22 23:18 29.10.2019
5085 Clear 4 1033 81 0 4.49 22 22:41 29.10.2019
5086 Clear 4 1033 80 0 4.49 22 22:19 29.10.2019
5087 Clear 4 1033 80 0 4.49 22 21:55 29.10.2019
5088 Clear 4 1033 79 0 4.49 22 21:36 29.10.2019
5089 Clear 4 1033 79 0 4.49 22 21:18 29.10.2019
5090 Clear 4 1033 78 0 4.49 22 20:42 29.10.2019
5091 Clear 5 1032 77 0 6.14 9 20:23 29.10.2019
5092 Clear 6 1032 74 0 6.14 9 19:59 29.10.2019
5093 Clear 7 1032 74 0 6.14 9 19:40 29.10.2019
5094 Clear 7 1032 71 0 6.14 9 19:21 29.10.2019
5095 Clear 7 1032 71 0 6.14 9 18:58 29.10.2019
5096 Clear 7 1032 71 0 0.45 22 18:40 29.10.2019
5097 Clear 6 1032 70 0 6.14 9 18:20 29.10.2019
5098 Clear 6 1032 70 0 6.14 9 17:57 29.10.2019
5099 Clear 7 1032 70 0 6.14 9 17:38 29.10.2019
5100 Clear 7 1031 68 0 0.45 22 17:20 29.10.2019
5101 Clear 7 1031 68 0 6.3 355 16:57 29.10.2019
5102 Clear 7 1031 68 0 6.3 355 16:38 29.10.2019
5103 Clear 8 1031 66 0 0.45 22 16:18 29.10.2019
5104 Clear 8 1030 66 0 0.89 45 15:42 29.10.2019
5105 Clear 9 1030 64 0 6.3 355 15:21 29.10.2019
5106 Clear 9 1030 65 0 6.3 355 14:58 29.10.2019
5107 Clear 9 1030 65 0 6.3 355 14:39 29.10.2019
5108 Clear 9 1030 65 0 5.75 6 14:21 29.10.2019
5109 Clear 9 1030 66 0 5.75 6 13:57 29.10.2019
5110 Clear 9 1030 67 0 0.45 45 13:38 29.10.2019
5111 Clear 9 1030 67 0 0.45 22 13:20 29.10.2019
5112 Clear 9 1030 67 0 0.89 22 12:42 29.10.2019
5113 Clear 9 1030 66 0 5.52 8 12:24 29.10.2019
5114 Clear 9 1029 68 0 0.45 45 11:55 29.10.2019
5115 Clear 9 1029 69 0 5.52 8 11:37 29.10.2019
5116 Clear 9 1029 70 0 0.45 22 11:18 29.10.2019
5117 Clear 9 1029 69 0 0.89 45 10:56 29.10.2019
5118 Clear 9 1028 69 0 1.34 0 10:38 29.10.2019
5119 Clear 9 1028 71 0 0.89 22 10:19 29.10.2019
5120 Clear 8 1028 70 0 0.45 67 09:42 29.10.2019
5121 Clear 8 1027 71 0 0.89 45 09:23 29.10.2019
5122 Clear 8 1027 73 0 6.68 23 08:57 29.10.2019
5123 Clear 8 1027 74 0 0.89 22 08:38 29.10.2019
5124 Rain 8 1027 76 0 0.89 22 08:20 29.10.2019
5125 Rain 8 1026 82 0 0.89 22 07:48 29.10.2019
5126 Rain 7 1025 86 0 0.45 45 07:20 29.10.2019
5127 Rain 7 1025 86 0 0.45 22 06:54 29.10.2019
5128 Rain 7 1025 85 0 0.45 45 06:31 29.10.2019
5129 Rain 7 1024 87 0 0.89 22 05:56 29.10.2019
5130 Rain 7 1024 88 0 0.45 22 05:38 29.10.2019
5131 Rain 6 1024 89 0 7.33 43 04:41 29.10.2019
5132 Rain 6 1024 89 0 0.45 292 03:23 29.10.2019
5133 Rain 6 1023 88 0 6.33 322 01:57 29.10.2019
5134 Rain 6 1023 88 0 6.33 322 01:36 29.10.2019
5135 Rain 6 1023 88 0 5.37 332 00:54 29.10.2019
5136 Rain 6 1023 88 0 0.45 292 00:26 29.10.2019
5137 Rain 6 1022 88 0 0.45 292 23:40 28.10.2019
5138 Rain 6 1023 87 0 8.19 320 23:20 28.10.2019
5139 Rain 6 1022 87 0 8.19 320 22:57 28.10.2019
5140 Rain 6 1022 87 0 8.19 320 22:36 28.10.2019
5141 Rain 7 1022 87 0 8.19 320 22:18 28.10.2019
5142 Rain 7 1022 87 0 8.19 320 21:54 28.10.2019
5143 Rain 7 1022 86 0 0.45 292 21:36 28.10.2019
5144 Rain 10 1018 75 0 8.19 320 21:18 28.10.2019
5145 Rain 7 1022 85 0 8.19 320 20:41 28.10.2019
5146 Rain 7 1022 85 0 2.19 286 20:23 28.10.2019
5147 Rain 7 1022 85 0 2.19 286 19:55 28.10.2019
5148 Rain 7 1022 84 0 2.19 286 19:37 28.10.2019
5149 Rain 7 1022 84 0 0.45 292 19:19 28.10.2019
5150 Rain 7 1022 84 0 2.19 286 18:58 28.10.2019
5151 Rain 7 1022 84 0 2.19 286 18:58 28.10.2019
5152 Rain 7 1022 82 0 2.19 286 18:38 28.10.2019
5153 Rain 7 1022 81 0 2.19 286 18:20 28.10.2019
5154 Rain 7 1022 81 0 2.19 286 17:56 28.10.2019
5155 Rain 7 1022 79 0 2.19 286 17:38 28.10.2019
5156 Rain 8 1022 79 0 5.45 267 17:18 28.10.2019
5157 Rain 8 1022 78 0 5.45 267 16:55 28.10.2019
5158 Rain 9 1022 77 0 5.45 267 16:37 28.10.2019
5159 Rain 9 1022 76 0 5.45 267 16:19 28.10.2019
5160 Rain 10 1022 75 0 0.45 247 15:56 28.10.2019
5161 Rain 11 1022 70 0 0.89 292 15:37 28.10.2019
5162 Rain 11 1022 69 0 0.45 292 15:18 28.10.2019
5163 Rain 11 1022 70 0 1.34 315 14:55 28.10.2019
5164 Rain 12 1021 68 0 1.34 337 14:37 28.10.2019
5165 Clouds 12 1021 69 0 0.89 292 14:18 28.10.2019
5166 Clouds 12 1022 70 0 0.89 292 13:54 28.10.2019
5167 Clouds 12 1021 71 0 1.34 292 13:36 28.10.2019
5168 Clouds 11 1021 73 0 1.34 315 13:18 28.10.2019
5169 Clouds 11 1021 75 0 7.4 291 12:40 28.10.2019
5170 Clouds 11 1021 75 0 0.45 292 12:20 28.10.2019
5171 Clouds 11 1021 77 0 0.89 292 11:39 28.10.2019
5172 Clouds 11 1021 78 0 0.89 315 11:20 28.10.2019
5173 Clouds 11 1021 79 0 1.79 315 10:56 28.10.2019
5174 Clouds 11 1021 80 0 2.24 315 10:38 28.10.2019
5175 Clouds 10 1020 82 0 2.24 315 10:19 28.10.2019
5176 Clouds 9 1020 83 0 1.34 292 09:55 28.10.2019
5177 Clouds 9 1020 85 0 2.24 292 09:36 28.10.2019
5178 Clouds 9 1020 86 0 1.34 292 09:18 28.10.2019
5179 Clouds 8 1020 87 0 2.24 270 08:56 28.10.2019
5180 Clouds 8 1020 90 0 0.45 292 08:37 28.10.2019
5181 Rain 8 1019 90 0 0.45 247 08:18 28.10.2019
5182 Rain 7 1019 90 0 0.89 292 07:47 28.10.2019
5183 Rain 7 1019 90 0 0.89 292 07:23 28.10.2019
5184 Rain 7 1019 90 0 0.89 292 07:23 28.10.2019
5185 Rain 7 1018 90 0 0.45 270 06:59 28.10.2019
5186 Rain 7 1018 90 0 0.45 292 06:39 28.10.2019
5187 Rain 7 1017 88 0 0.45 292 05:19 28.10.2019
5188 Rain 7 1017 86 0 0.89 202 03:44 28.10.2019
5189 Rain 7 1017 86 0 0.89 225 02:46 28.10.2019
5190 Rain 7 1018 85 0 1.34 315 01:52 28.10.2019
5191 Rain 7 1018 85 0 1.34 315 01:52 28.10.2019
5192 Rain 7 1018 85 0 0.89 247 00:47 28.10.2019
5193 Rain 7 1018 84 0 0.89 225 00:26 28.10.2019
5194 Rain 7 1018 84 0 0.45 225 23:45 27.10.2019
5195 Rain 7 1018 84 0 0.89 225 23:22 27.10.2019
5196 Rain 8 1018 84 0 0.45 225 22:57 27.10.2019
5197 Rain 8 1018 84 0 0.45 225 22:57 27.10.2019
5198 Rain 8 1018 84 0 0.45 315 22:39 27.10.2019
5199 Rain 8 1018 84 0 0.45 225 22:20 27.10.2019
5200 Rain 8 1018 84 0 13.44 266 21:57 27.10.2019
5201 Rain 8 1019 84 0 0.45 202 21:39 27.10.2019
5202 Rain 8 1019 83 0 1.34 247 21:20 27.10.2019
5203 Rain 8 1019 83 0 0.45 225 20:55 27.10.2019
5204 Rain 8 1019 84 0 0.45 202 20:37 27.10.2019
5205 Rain 8 1018 84 0 1.34 315 20:19 27.10.2019
5206 Rain 8 1019 84 0 12.65 269 19:40 27.10.2019
5207 Rain 9 1019 84 0 12.65 269 19:21 27.10.2019
5208 Rain 9 1019 84 0 12.65 269 18:58 27.10.2019
5209 Rain 9 1019 83 0 0.45 292 18:40 27.10.2019
5210 Rain 9 1019 81 0 12.65 269 18:22 27.10.2019
5211 Rain 9 1019 80 0 0.45 247 17:58 27.10.2019
5212 Rain 9 1019 79 0 0.89 270 17:39 27.10.2019
5213 Rain 9 1019 79 0 0.89 270 17:39 27.10.2019
5214 Rain 9 1019 77 0 12.66 265 17:19 27.10.2019
5215 Rain 10 1019 76 0 0.45 292 16:57 27.10.2019
5216 Rain 11 1019 75 0 0.89 225 16:39 27.10.2019
5217 Rain 11 1019 75 0 12.66 265 16:20 27.10.2019
5218 Rain 11 1019 73 0 1.34 225 15:56 27.10.2019
5219 Rain 12 1018 73 0 12.66 265 15:37 27.10.2019
5220 Rain 11 1018 72 0 12.66 265 15:19 27.10.2019
5221 Rain 12 1018 70 0 0.89 292 14:42 27.10.2019
5222 Rain 12 1018 70 0 0.89 292 14:42 27.10.2019
5223 Clouds 12 1018 69 0 1.79 270 14:20 27.10.2019
5224 Clouds 12 1018 70 0 13.08 273 13:58 27.10.2019
5225 Clouds 12 1018 69 0 1.34 292 13:38 27.10.2019
5226 Clouds 12 1018 67 0 1.79 270 13:20 27.10.2019
5227 Clouds 12 1018 67 0 1.34 315 12:55 27.10.2019
5228 Clouds 12 1017 66 0 1.34 315 12:37 27.10.2019
5229 Clouds 12 1017 69 0 0.89 315 12:19 27.10.2019
5230 Clouds 11 1017 71 0 1.34 270 11:41 27.10.2019
5231 Clouds 11 1017 69 0 1.34 292 11:21 27.10.2019
5232 Clouds 11 1016 73 0 2.68 292 10:44 27.10.2019
5233 Clouds 11 1016 73 0 1.79 315 10:25 27.10.2019
5234 Clouds 11 1015 76 0 0.45 270 09:58 27.10.2019
5235 Clouds 11 1015 76 0 2.24 292 09:39 27.10.2019
5236 Clouds 11 1014 79 0 0.89 270 09:18 27.10.2019
5237 Clouds 11 1014 81 0 2.24 292 08:56 27.10.2019
5238 Clouds 11 1013 85 0 1.79 292 08:37 27.10.2019
5239 Rain 11 1013 86 0 1.34 315 08:18 27.10.2019
5240 Rain 11 1012 86 0 3.13 315 07:44 27.10.2019
5241 Rain 12 1012 86 0 2.68 315 07:24 27.10.2019
5242 Rain 13 1010 85 0 3.58 337 06:51 27.10.2019
5243 Rain 14 1010 83 0 3.13 292 06:27 27.10.2019
5244 Rain 14 1009 79 0 1.79 225 05:41 27.10.2019
5245 Rain 15 1009 76 0 1.79 225 04:54 27.10.2019
5246 Rain 14 1009 75 0 1.79 225 03:24 27.10.2019
5247 Clouds 15 1010 75 0 1.79 225 02:21 27.10.2019
5248 Rain 14 1010 76 0 1.79 225 01:51 27.10.2019
5249 Rain 14 1011 76 0 1.79 225 01:23 27.10.2019
5250 Rain 14 1011 76 0 1.79 225 00:48 27.10.2019
5251 Rain 14 1011 76 0 1.34 180 00:28 27.10.2019
5252 Clouds 14 1011 77 0 1.79 225 23:57 26.10.2019
5253 Clouds 14 1011 78 0 0.89 225 23:38 26.10.2019
5254 Clouds 14 1012 79 0 1.34 225 23:20 26.10.2019
5255 Clouds 14 1012 80 0 1.34 202 22:56 26.10.2019
5256 Clouds 14 1012 81 0 0.89 202 22:37 26.10.2019
5257 Clouds 14 1012 81 0 0.89 202 22:18 26.10.2019
5258 Clouds 14 1012 81 0 0.89 225 21:43 26.10.2019
5259 Clouds 14 1012 81 0 0.89 180 21:22 26.10.2019
5260 Clouds 14 1013 81 0 1.79 225 20:58 26.10.2019
5261 Clouds 14 1013 81 0 1.79 225 20:38 26.10.2019
5262 Clouds 14 1013 81 0 1.34 225 20:18 26.10.2019
5263 Clouds 14 1013 81 0 0.89 202 19:42 26.10.2019
5264 Clouds 14 1013 80 0 0.89 202 19:20 26.10.2019
5265 Clouds 14 1013 80 0 0.89 180 18:57 26.10.2019
5266 Clouds 14 1013 80 0 0.89 225 18:39 26.10.2019
5267 Clouds 14 1013 79 0 1.79 202 18:19 26.10.2019
5268 Clouds 15 1013 79 0 1.34 225 17:57 26.10.2019
5269 Clouds 16 1014 78 0 1.34 225 17:38 26.10.2019
5270 Clouds 16 1014 78 0 0.89 225 17:20 26.10.2019
5271 Clouds 16 1013 77 0 1.34 225 16:44 26.10.2019
5272 Clouds 17 1014 77 0 0.89 225 16:25 26.10.2019
5273 Clouds 17 1014 76 0 1.34 225 15:59 26.10.2019
5274 Clouds 17 1014 76 0 0.89 225 15:39 26.10.2019
5275 Clouds 18 1014 75 0 1.34 202 15:18 26.10.2019
5276 Clouds 18 1014 75 0 1.34 247 14:39 26.10.2019
5277 Clouds 18 1014 75 0 1.34 247 14:19 26.10.2019
5278 Clouds 15 1010 79 0 11.32 226 13:56 26.10.2019
5279 Clouds 15 1010 79 0 11.32 226 13:56 26.10.2019
5280 Clouds 15 1010 79 0 11.32 226 13:37 26.10.2019
5281 Clouds 17 1015 77 0 0.45 225 13:18 26.10.2019
5282 Clouds 16 1016 77 0 11.32 226 12:43 26.10.2019
5283 Clouds 15 1016 80 0 1.34 225 12:21 26.10.2019
5284 Clouds 15 1016 80 0 1.34 225 11:47 26.10.2019
5285 Clouds 15 1016 81 0 1.79 225 11:25 26.10.2019
5286 Clouds 15 1010 81 0 12.35 220 10:47 26.10.2019
5287 Clouds 15 1010 81 0 12.35 220 10:27 26.10.2019
5288 Clouds 14 1011 81 0 11.9 222 09:50 26.10.2019
5289 Clouds 14 1011 81 0 11.9 222 09:30 26.10.2019
5290 Clouds 13 1012 83 0 11.96 224 08:57 26.10.2019
5291 Clouds 13 1012 83 0 11.96 224 08:39 26.10.2019
5292 Clouds 13 1012 83 0 11.96 224 08:21 26.10.2019
5293 Clouds 13 1012 83 0 11.96 224 07:43 26.10.2019
5294 Clouds 13 1012 83 0 11.96 224 07:23 26.10.2019
5295 Clouds 13 1012 83 0 11.96 224 06:41 26.10.2019
5296 Clouds 13 1012 79 0 12.19 213 05:59 26.10.2019
5297 Clouds 13 1012 79 0 12.19 213 05:19 26.10.2019
5298 Clouds 13 1012 79 0 12.19 213 04:23 26.10.2019
5299 Clouds 11 1019 84 0 1.34 180 02:37 26.10.2019
5300 Clouds 11 1019 85 0 1.34 180 01:48 26.10.2019
5301 Clouds 11 1020 86 0 0.89 180 00:58 26.10.2019
5302 Clouds 11 1020 85 0 1.34 180 00:23 26.10.2019
5303 Clouds 11 1021 85 0 0.89 202 23:41 25.10.2019
5304 Clouds 11 1021 85 0 0.45 180 23:20 25.10.2019
5305 Clouds 11 1021 84 0 0.89 202 22:40 25.10.2019
5306 Clouds 11 1021 84 0 0.89 202 22:22 25.10.2019
5307 Clouds 11 1021 85 0 1.79 202 21:57 25.10.2019
5308 Clouds 11 1022 85 0 0.89 225 21:39 25.10.2019
5309 Clouds 11 1022 85 0 0.45 202 21:19 25.10.2019
5310 Clouds 11 1022 85 0 0.45 202 21:19 25.10.2019
5311 Clouds 11 1022 85 0 0.45 180 20:55 25.10.2019
5312 Clouds 11 1022 84 0 0.89 202 20:37 25.10.2019
5313 Clouds 11 1022 84 0 0.45 202 20:18 25.10.2019
5314 Clouds 11 1022 84 0 0.89 202 19:43 25.10.2019
5315 Clouds 11 1022 83 0 0.89 180 19:23 25.10.2019
5316 Clouds 12 1022 82 0 0.45 202 18:44 25.10.2019
5317 Clouds 12 1022 81 0 0.45 225 18:22 25.10.2019
5318 Clouds 13 1022 80 0 0.45 225 17:41 25.10.2019
5319 Clouds 13 1022 79 0 8.26 243 17:21 25.10.2019
5320 Clouds 14 1021 79 0 8.26 243 16:56 25.10.2019
5321 Clouds 14 1021 77 0 0.45 292 16:37 25.10.2019
5322 Clouds 14 1021 77 0 0.45 270 16:19 25.10.2019
5323 Clouds 14 1021 77 0 0.45 225 15:40 25.10.2019
5324 Rain 14 1021 76 0 0.45 270 15:22 25.10.2019
5325 Rain 15 1021 76 0 0.89 315 14:58 25.10.2019
5326 Rain 15 1021 75 0 0.45 292 14:39 25.10.2019
5327 Rain 15 1020 77 0 10.52 250 14:20 25.10.2019
5328 Rain 15 1020 77 0 1.79 292 13:44 25.10.2019
5329 Rain 15 1020 80 0 10.52 250 13:24 25.10.2019
5330 Rain 15 1019 80 0 1.34 247 12:57 25.10.2019
5331 Rain 15 1019 80 0 0.45 202 12:39 25.10.2019
5332 Rain 15 1019 82 0 9.14 238 12:19 25.10.2019
5333 Rain 15 1019 82 0 0.45 292 11:41 25.10.2019
5334 Rain 14 1018 86 0 0.45 247 11:23 25.10.2019
5335 Rain 14 1018 88 0 0.45 225 10:59 25.10.2019
5336 Rain 14 1018 89 0 0.89 225 10:39 25.10.2019
5337 Rain 13 1018 90 0 0.89 225 10:21 25.10.2019
5338 Rain 13 1018 90 0 0.89 225 09:57 25.10.2019
5339 Clouds 13 1017 91 0 0.45 225 09:38 25.10.2019
5340 Clouds 12 1017 91 0 8.72 233 09:19 25.10.2019
5341 Clouds 12 1017 91 0 0.45 225 08:44 25.10.2019
5342 Clouds 12 1017 91 0 0.45 225 08:24 25.10.2019
5343 Clouds 12 1016 91 0 0.89 202 07:52 25.10.2019
5344 Clouds 12 1016 91 0 0.45 202 07:34 25.10.2019
5345 Clouds 12 1016 91 0 0.45 225 06:41 25.10.2019
5346 Clouds 12 1015 92 0 0.45 202 05:51 25.10.2019
5347 Clouds 12 1015 92 0 0.45 202 05:32 25.10.2019
5348 Clouds 12 1015 92 0 0.45 225 04:42 25.10.2019
5349 Clouds 11 1015 91 0 0.89 225 03:29 25.10.2019
5350 Clouds 11 1014 91 0 0.89 225 01:53 25.10.2019
5351 Clouds 12 1014 91 0 0.45 202 00:47 25.10.2019
5352 Clear 12 1014 91 0 5.95 217 00:20 25.10.2019
5353 Clear 12 1013 91 0 5.95 217 23:40 24.10.2019
5354 Clear 13 1014 91 0 0.45 180 23:22 24.10.2019
5355 Clear 13 1014 91 0 0.45 202 22:54 24.10.2019
5356 Clear 13 1013 91 0 0.45 180 22:36 24.10.2019
5357 Clear 13 1013 91 0 0.45 180 22:18 24.10.2019
5358 Clear 13 1013 91 0 0.45 180 22:18 24.10.2019
5359 Clear 13 1013 91 0 0.45 157 21:56 24.10.2019
5360 Clear 13 1013 91 0 0.45 157 21:37 24.10.2019
5361 Clear 13 1013 91 0 0.45 157 21:37 24.10.2019
5362 Clear 13 1013 91 0 0.45 157 21:18 24.10.2019
5363 Clear 13 1013 91 0 0.45 157 21:18 24.10.2019
5364 Clear 13 1013 91 0 0.45 157 20:56 24.10.2019
5365 Clear 13 1013 91 0 0.45 180 20:37 24.10.2019
5366 Clear 13 1012 91 0 0.89 157 20:19 24.10.2019
5367 Clear 13 1012 91 0 0.45 180 19:43 24.10.2019
5368 Clear 13 1012 91 0 0.45 157 19:23 24.10.2019
5369 Clear 13 1012 91 0 0.45 157 18:58 24.10.2019
5370 Clear 13 1013 92 0 0.45 157 18:39 24.10.2019
5371 Clouds 13 1013 92 0 1.34 157 18:21 24.10.2019
5372 Clouds 13 1013 92 0 0.89 202 17:57 24.10.2019
5373 Clouds 13 1013 92 0 0.45 180 17:38 24.10.2019
5374 Clouds 13 1013 92 0 0.89 180 17:19 24.10.2019
5375 Clouds 13 1012 92 0 0.89 180 16:54 24.10.2019
5376 Clouds 13 1012 92 0 0.89 180 16:54 24.10.2019
5377 Clouds 13 1012 92 0 0.89 180 16:36 24.10.2019
5378 Clouds 13 1012 92 0 0.89 180 16:18 24.10.2019
5379 Clouds 13 1012 92 0 0.89 157 15:54 24.10.2019
5380 Clouds 13 1012 92 0 1.34 135 15:36 24.10.2019
5381 Clouds 13 1012 92 0 0.89 157 15:18 24.10.2019
5382 Clouds 13 1013 92 0 0.89 157 14:42 24.10.2019
5383 Clouds 13 1012 92 0 0.89 157 14:23 24.10.2019
5384 Clouds 13 1013 92 0 0.89 157 13:58 24.10.2019
5385 Clouds 12 1013 92 0 0.89 135 13:37 24.10.2019
5386 Clouds 12 1014 92 0 1.34 157 13:18 24.10.2019
5387 Clouds 12 1013 92 0 0.89 157 12:56 24.10.2019
5388 Clouds 12 1014 92 0 0.89 180 12:37 24.10.2019
5389 Clouds 12 1014 92 0 0.89 157 12:18 24.10.2019
5390 Clouds 12 1014 92 0 1.34 135 11:54 24.10.2019
5391 Clouds 12 1014 92 0 1.34 157 11:36 24.10.2019
5392 Clouds 12 1014 92 0 1.34 135 11:18 24.10.2019
5393 Clouds 12 1015 92 0 0.89 157 10:42 24.10.2019
5394 Clouds 12 1015 92 0 0.89 157 10:23 24.10.2019
5395 Clouds 11 1015 92 0 0.89 135 09:40 24.10.2019
5396 Clouds 11 1015 92 0 0.89 135 09:40 24.10.2019
5397 Clouds 11 1015 92 0 0.89 157 09:19 24.10.2019
5398 Clouds 11 1015 92 0 0.89 157 08:58 24.10.2019
5399 Clouds 11 1015 92 0 1.34 135 08:39 24.10.2019
5400 Clouds 11 1015 92 0 0.45 157 08:20 24.10.2019
5401 Clouds 10 1015 92 0 0.89 157 07:47 24.10.2019
5402 Clouds 10 1015 92 0 0.45 135 07:23 24.10.2019
5403 Clouds 10 1015 92 0 6.86 130 06:54 24.10.2019
5404 Clouds 10 1015 92 0 1.34 157 06:36 24.10.2019
5405 Clouds 10 1016 92 0 1.34 135 05:55 24.10.2019
5406 Clouds 10 1016 92 0 1.34 135 05:31 24.10.2019
5407 Clouds 10 1016 92 0 1.34 135 05:31 24.10.2019
5408 Clouds 10 1016 91 0 0.89 135 04:22 24.10.2019
5409 Clouds 10 1016 91 0 0.89 135 04:22 24.10.2019
5410 Clouds 10 1017 90 0 0.89 135 03:33 24.10.2019
5411 Clouds 10 1017 90 0 0.89 135 02:39 24.10.2019
5412 Clouds 10 1017 90 0 0.45 135 02:19 24.10.2019
5413 Clouds 11 1018 89 0 5.51 132 01:31 24.10.2019
5414 Clouds 11 1017 89 0 0.45 135 00:55 24.10.2019
5415 Clouds 11 1018 89 0 0.89 135 00:27 24.10.2019
5416 Clouds 11 1018 88 0 1.34 135 23:57 23.10.2019
5417 Clouds 11 1019 88 0 0.89 135 23:38 23.10.2019
5418 Clouds 11 1019 88 0 0.89 135 23:18 23.10.2019
5419 Clouds 11 1019 88 0 1.79 135 22:54 23.10.2019
5420 Clouds 11 1019 88 0 0.89 135 22:36 23.10.2019
5421 Clouds 11 1020 88 0 0.89 135 22:18 23.10.2019
5422 Clouds 11 1020 88 0 0.45 135 21:55 23.10.2019
5423 Clouds 12 1020 88 0 0.45 135 21:36 23.10.2019
5424 Clouds 11 1020 87 0 0.89 135 21:18 23.10.2019
5425 Clouds 12 1020 87 0 0.45 135 20:54 23.10.2019
5426 Clouds 12 1020 87 0 0.45 135 20:54 23.10.2019
5427 Clouds 12 1020 86 0 0.45 135 20:36 23.10.2019
5428 Clouds 12 1021 86 0 0.45 135 20:18 23.10.2019
5429 Clouds 12 1021 85 0 0.45 112 19:42 23.10.2019
5430 Clouds 12 1021 84 0 5.51 133 19:19 23.10.2019
5431 Clouds 12 1021 84 0 5.51 133 18:57 23.10.2019
5432 Clouds 13 1021 83 0 5.51 133 18:39 23.10.2019
5433 Clouds 13 1022 82 0 2.81 126 18:19 23.10.2019
5434 Clouds 13 1021 82 0 2.81 126 17:55 23.10.2019
5435 Clouds 13 1021 82 0 2.81 126 17:55 23.10.2019
5436 Clouds 13 1022 81 0 2.81 126 17:36 23.10.2019
5437 Clouds 13 1022 81 0 2.81 126 17:36 23.10.2019
5438 Clouds 13 1022 80 0 0.45 135 17:18 23.10.2019
5439 Clouds 14 1022 79 0 2.81 126 16:40 23.10.2019
5440 Clouds 14 1022 78 0 0.45 157 16:21 23.10.2019
5441 Clouds 15 1022 78 0 2.81 126 15:57 23.10.2019
5442 Clouds 15 1023 78 0 0.45 157 15:39 23.10.2019
5443 Clouds 16 1023 77 0 3.27 169 15:20 23.10.2019
5444 Clouds 16 1023 77 0 3.27 169 14:56 23.10.2019
5445 Clouds 16 1023 79 0 1.95 169 14:37 23.10.2019
5446 Clouds 16 1024 79 0 0.45 157 14:18 23.10.2019
5447 Clouds 16 1024 80 0 0.45 202 13:43 23.10.2019
5448 Clouds 16 1024 81 0 0.45 157 13:25 23.10.2019
5449 Clouds 15 1025 83 0 0.45 202 12:57 23.10.2019
5450 Clouds 15 1025 85 0 0.45 157 12:38 23.10.2019
5451 Clouds 14 1025 87 0 0.45 180 12:19 23.10.2019
5452 Clouds 14 1026 87 0 0.89 180 11:58 23.10.2019
5453 Clouds 14 1026 89 0 0.45 180 11:39 23.10.2019
5454 Clouds 13 1026 90 0 4 206 11:21 23.10.2019
5455 Clouds 12 1026 90 0 4 206 10:56 23.10.2019
5456 Clouds 11 1026 90 0 4 206 10:38 23.10.2019
5457 Clouds 11 1026 89 0 4 206 10:18 23.10.2019
5458 Clouds 9 1026 89 0 3.84 228 09:40 23.10.2019
5459 Clouds 9 1026 89 0 0.45 202 09:22 23.10.2019
5460 Clouds 9 1027 89 0 4.93 215 08:55 23.10.2019
5461 Clouds 9 1027 89 0 4.93 215 08:37 23.10.2019
5462 Clouds 9 1026 89 0 4.93 215 08:18 23.10.2019
5463 Clouds 8 1026 89 0 4.93 215 07:44 23.10.2019
5464 Clouds 8 1026 89 0 4.93 215 07:20 23.10.2019
5465 Clouds 8 1026 88 0 4.93 215 06:43 23.10.2019
5466 Clouds 7 1026 88 0 4.78 246 06:19 23.10.2019
5467 Clouds 8 1026 88 0 4.78 246 05:20 23.10.2019
5468 Clouds 8 1026 88 0 4.78 246 03:58 23.10.2019
5469 Clouds 9 1027 88 0 5.86 262 02:44 23.10.2019
5470 Clouds 9 1027 87 0 6.32 259 01:43 23.10.2019
5471 Clouds 9 1027 87 0 6.32 259 01:19 23.10.2019
5472 Clouds 9 1027 87 0 6.32 259 00:35 23.10.2019
5473 Clouds 9 1027 86 0 7.22 259 23:57 22.10.2019
5474 Clouds 10 1027 85 0 7.22 259 23:37 22.10.2019
5475 Clouds 10 1027 85 0 7.22 259 23:18 22.10.2019
5476 Clouds 10 1027 85 0 7.22 259 23:18 22.10.2019
5477 Clouds 10 1027 85 0 7.22 259 22:54 22.10.2019
5478 Clouds 11 1027 84 0 7.22 259 22:36 22.10.2019
5479 Clouds 11 1027 84 0 7.22 259 22:18 22.10.2019
5480 Clouds 11 1027 84 0 7.22 259 21:55 22.10.2019
5481 Clouds 12 1026 84 0 7.38 254 21:36 22.10.2019
5482 Clouds 12 1026 84 0 7.31 257 21:18 22.10.2019
5483 Clouds 12 1026 83 0 7.31 257 20:42 22.10.2019
5484 Clouds 12 1026 83 0 7.31 257 20:23 22.10.2019
5485 Clouds 12 1026 82 0 7.31 257 19:59 22.10.2019
5486 Clouds 12 1026 82 0 7.31 257 19:41 22.10.2019
5487 Clouds 12 1026 81 0 7.31 257 19:23 22.10.2019
5488 Clouds 13 1026 81 0 7.31 257 18:57 22.10.2019
5489 Clouds 13 1026 81 0 7.31 257 18:39 22.10.2019
5490 Clouds 13 1026 81 0 9.46 262 18:20 22.10.2019
5491 Clouds 13 1026 80 0 9.46 262 17:56 22.10.2019
5492 Clouds 13 1026 78 0 9.46 262 17:37 22.10.2019
5493 Clouds 13 1026 78 0 9.46 262 17:18 22.10.2019
5494 Clouds 13 1026 77 0 9.46 262 16:56 22.10.2019
5495 Clouds 14 1026 78 0 9.46 262 16:37 22.10.2019
5496 Clouds 14 1026 78 0 9.46 262 16:18 22.10.2019
5497 Clouds 14 1025 77 0 9.46 262 15:43 22.10.2019
5498 Clouds 15 1025 77 0 7.98 251 15:20 22.10.2019
5499 Clouds 15 1026 75 0 1.34 315 14:50 22.10.2019
5500 Clear 16 1026 75 0 0.45 337 14:23 22.10.2019
5501 Clear 16 1026 76 0 0.89 225 13:59 22.10.2019
5502 Clear 15 1026 76 0 0.45 247 13:41 22.10.2019
5503 Clear 15 1026 79 0 0.45 270 13:19 22.10.2019
5504 Clear 15 1026 80 0 1.34 225 12:56 22.10.2019
5505 Clear 14 1026 81 0 0.89 247 12:38 22.10.2019
5506 Clear 14 1027 83 0 8.42 240 12:19 22.10.2019
5507 Clear 14 1026 86 0 0.89 225 11:41 22.10.2019
5508 Clear 13 1027 89 0 0.45 225 11:22 22.10.2019
5509 Clear 13 1026 90 0 0.89 225 10:59 22.10.2019
5510 Clear 12 1026 91 0 0.45 270 10:38 22.10.2019
5511 Clear 12 1026 92 0 8.42 240 10:19 22.10.2019
5512 Clear 12 1026 92 0 8.42 240 09:59 22.10.2019
5513 Clear 11 1025 92 0 8.43 240 09:41 22.10.2019
5514 Clouds 11 1025 92 0 0.45 270 09:21 22.10.2019
5515 Clouds 11 1025 92 0 0.45 270 08:57 22.10.2019
5516 Clouds 10 1025 92 0 7.02 234 08:39 22.10.2019
5517 Clouds 10 1025 91 0 7.02 234 08:19 22.10.2019
5518 Clouds 10 1025 92 0 7.02 234 07:44 22.10.2019
5519 Clouds 11 1025 92 0 7.02 234 07:24 22.10.2019
5520 Clouds 11 1025 92 0 7.02 234 06:44 22.10.2019
5521 Clouds 11 1024 92 0 7.02 234 06:25 22.10.2019
5522 Clouds 11 1024 91 0 6.45 227 05:40 22.10.2019
5523 Clouds 11 1024 91 0 0.45 247 04:50 22.10.2019
5524 Clouds 10 1024 91 0 4.97 225 02:31 22.10.2019
5525 Clouds 11 1024 90 0 4.97 225 01:39 22.10.2019
5526 Clouds 11 1024 90 0 4.97 225 01:19 22.10.2019
5527 Clouds 11 1024 90 0 4.97 225 00:56 22.10.2019
5528 Clouds 11 1024 90 0 4.97 225 00:38 22.10.2019
5529 Clouds 11 1024 90 0 5.06 249 00:19 22.10.2019
5530 Clouds 11 1024 90 0 5.06 249 23:39 21.10.2019
5531 Clouds 11 1023 90 0 5.06 249 23:19 21.10.2019
5532 Clouds 11 1023 90 0 5.06 249 23:19 21.10.2019
5533 Clouds 12 1023 90 0 5.06 249 22:59 21.10.2019
5534 Clouds 12 1024 90 0 5.06 249 22:40 21.10.2019
5535 Clouds 13 1023 90 0 5.06 249 22:20 21.10.2019
5536 Clouds 13 1023 90 0 5.06 249 21:58 21.10.2019
5537 Clouds 13 1023 90 0 5.06 249 21:39 21.10.2019
5538 Clouds 13 1023 90 0 4.07 253 21:20 21.10.2019
5539 Clouds 13 1023 90 0 0.89 292 20:58 21.10.2019
5540 Clouds 13 1023 90 0 0.89 292 20:39 21.10.2019
5541 Clouds 13 1023 89 0 4.07 253 20:20 21.10.2019
5542 Clouds 13 1023 89 0 4.07 253 20:20 21.10.2019
5543 Clouds 14 1023 89 0 4.07 253 19:57 21.10.2019
5544 Clouds 14 1022 89 0 4.07 253 19:39 21.10.2019
5545 Clouds 14 1022 88 0 4.07 253 19:21 21.10.2019
5546 Clouds 14 1022 88 0 4.07 253 18:55 21.10.2019
5547 Clouds 14 1022 88 0 4.07 253 18:37 21.10.2019
5548 Clouds 14 1022 88 0 0.45 180 18:18 21.10.2019
5549 Clouds 14 1022 88 0 5.02 161 17:55 21.10.2019
5550 Clouds 14 1021 87 0 0.45 180 17:37 21.10.2019
5551 Clouds 15 1021 87 0 0.45 157 17:18 21.10.2019
5552 Clouds 15 1021 87 0 0.45 135 16:55 21.10.2019
5553 Clouds 16 1021 86 0 5.02 161 16:37 21.10.2019
5554 Clouds 16 1021 86 0 5.02 161 16:18 21.10.2019
5555 Clouds 16 1022 86 0 5.02 161 15:42 21.10.2019
5556 Clouds 16 1022 86 0 5.02 161 15:42 21.10.2019
5557 Rain 16 1022 86 0 7.09 89 15:23 21.10.2019
5558 Rain 16 1022 86 0 7.09 89 14:57 21.10.2019
5559 Clouds 16 1022 87 0 6.92 93 14:38 21.10.2019
5560 Clouds 16 1021 86 0 6.92 93 14:19 21.10.2019
5561 -273 0 0 0 0 0 13:55 21.10.2019
5562 Clouds 16 1022 87 0 0.45 135 13:37 21.10.2019
5563 Clouds 15 1022 87 0 6.92 93 13:18 21.10.2019
5564 Clouds 14 1021 88 0 0.89 135 12:41 21.10.2019
5565 Clouds 14 1021 89 0 0.89 135 12:22 21.10.2019
5566 Clouds 14 1021 89 0 0.45 135 11:55 21.10.2019
5567 Clouds 14 1022 89 0 8.47 82.192 11:37 21.10.2019
5568 Clouds 14 1021 89 0 8.47 82.192 11:19 21.10.2019
5569 Clouds 14 1021 89 0 8.47 82.192 10:56 21.10.2019
5570 Clouds 14 1021 89 0 8.47 82.192 10:56 21.10.2019
5571 Clouds 13 1021 90 0 8.47 82.192 10:37 21.10.2019
5572 Clouds 13 1021 90 0 8.47 82.192 10:18 21.10.2019
5573 Clouds 13 1021 90 0 8.47 82.192 09:44 21.10.2019
5574 Clouds 13 1020 91 0 0.89 135 09:25 21.10.2019
5575 Rain 13 1020 90 0 8.05 87.564 08:44 21.10.2019
5576 Rain 13 1020 90 0 8.05 87.564 08:24 21.10.2019
5577 Rain 13 1020 90 0 8.05 87.564 08:24 21.10.2019
5578 Rain 13 1020 90 0 8.05 87.564 07:59 21.10.2019
5579 Rain 12 1019 90 0 8.05 87.564 07:38 21.10.2019
5580 Rain 12 1020 90 0 8.05 87.564 07:19 21.10.2019
5581 Rain 12 1020 90 0 8.05 87.564 06:53 21.10.2019
5582 Rain 12 1019 90 0 8.05 87.564 06:35 21.10.2019
5583 Rain 12 1019 89 0 0.89 45 05:55 21.10.2019
5584 Rain 12 1019 89 0 0.45 45 04:45 21.10.2019
5585 Rain 12 1019 91 0 0.45 45 03:26 21.10.2019
5586 Rain 12 1018 92 0 6.78 52.081 02:24 21.10.2019
5587 Rain 12 1018 92 0 6.78 52.081 01:59 21.10.2019
5588 Rain 12 1017 92 0 0.45 45 01:23 21.10.2019
5589 Rain 12 1017 91 0 0.89 45 00:48 21.10.2019
5590 Rain 12 1017 91 0 0.45 45 00:26 21.10.2019
5591 Rain 12 1017 92 0 0.89 45 23:43 20.10.2019
5592 Rain 12 1018 91 0 5.22 65.642 23:22 20.10.2019
5593 Rain 12 1018 91 0 5.22 65.642 22:57 20.10.2019
5594 Rain 12 1017 91 0 5.22 65.642 22:39 20.10.2019
5595 Rain 12 1017 90 0 0.89 22 22:19 20.10.2019
5596 Rain 12 1017 90 0 5.22 65.642 21:59 20.10.2019
5597 Rain 12 1017 90 0 5.22 65.642 21:39 20.10.2019
5598 Rain 13 1017 90 0 1.73 6.824 21:21 20.10.2019
5599 Rain 13 1017 90 0 3.69 32.295 20:42 20.10.2019
5600 Rain 13 1016 88 0 3.69 32.295 20:20 20.10.2019
5601 Rain 13 1017 88 0 3.69 32.295 19:57 20.10.2019
5602 Rain 13 1017 88 0 3.69 32.295 19:39 20.10.2019
5603 Rain 13 1017 88 0 3.69 32.295 19:39 20.10.2019
5604 Rain 13 1016 88 0 3.69 32.295 19:20 20.10.2019
5605 Rain 13 1016 88 0 3.69 32.295 18:58 20.10.2019
5606 Rain 13 1016 87 0 3.69 32.295 18:40 20.10.2019
5607 Rain 13 1016 87 0 2.31 116.998 18:20 20.10.2019
5608 -273 0 0 0 0 0 17:56 20.10.2019
5609 Rain 13 1016 87 0 2.31 116.998 17:37 20.10.2019
5610 Rain 13 1016 87 0 2.31 116.998 17:19 20.10.2019
5611 Rain 13 1015 86 0 2.31 116.998 16:42 20.10.2019
5612 Rain 13 1015 87 0 2.31 116.998 16:24 20.10.2019
5613 Rain 14 1015 86 0 2.31 116.998 15:59 20.10.2019
5614 Rain 14 1015 86 0 0.45 22 15:38 20.10.2019
5615 Rain 14 1015 85 0 1.6 203.222 15:20 20.10.2019
5616 Rain 14 1015 84 0 1.6 203.222 14:58 20.10.2019
5617 Rain 14 1015 84 0 1.6 203.222 14:38 20.10.2019
5618 Rain 14 1015 85 0 1.6 203.222 14:19 20.10.2019
5619 Rain 15 1015 86 0 1.6 203.222 13:56 20.10.2019
5620 Rain 15 1015 87 0 1.6 203.222 13:37 20.10.2019
5621 Rain 15 1015 88 0 2.49 194.796 13:18 20.10.2019
5622 Rain 15 1015 88 0 2.49 194.796 13:18 20.10.2019
5623 Rain 15 1015 88 0 2.49 194.796 12:56 20.10.2019
5624 Rain 14 1015 89 0 2.49 194.796 12:38 20.10.2019
5625 Rain 14 1015 89 0 3.16 206.654 12:20 20.10.2019
5626 Rain 14 1015 89 0 3.16 206.654 11:55 20.10.2019
5627 Rain 13 1015 90 0 3.16 206.654 11:37 20.10.2019
5628 Rain 13 1015 90 0 3.16 206.654 11:19 20.10.2019
5629 Rain 12 1015 90 0 3.16 206.654 10:41 20.10.2019
5630 Rain 12 1014 89 0 3.16 206.654 10:22 20.10.2019
5631 Rain 12 1014 89 0 3.16 206.654 09:59 20.10.2019
5632 Rain 12 1014 89 0 3.16 206.654 09:41 20.10.2019
5633 Clouds 12 1014 89 0 0.45 157 09:21 20.10.2019
5634 Clouds 11 1013 89 0 4.01 212.347 08:49 20.10.2019
5635 -273 0 0 0 0 0 08:24 20.10.2019
5636 Clouds 11 1013 89 0 4.01 212.347 08:24 20.10.2019
5637 Clouds 11 1013 89 0 0.45 157 07:51 20.10.2019
5638 Clouds 11 1013 89 0 0.45 157 07:31 20.10.2019
5639 Clouds 11 1013 89 0 4.01 212.347 06:59 20.10.2019
5640 Clouds 11 1012 89 0 5.39 219.592 06:21 20.10.2019
5641 Clouds 11 1012 89 0 5.39 219.592 04:28 20.10.2019
5642 Clouds 11 1012 89 0 0.45 180 03:47 20.10.2019
5643 Rain 11 1012 88 0 0.45 180 03:20 20.10.2019
5644 Rain 11 1012 88 0 0.45 180 02:44 20.10.2019
5645 Rain 12 1012 88 0 0.45 180 01:59 20.10.2019
5646 Rain 12 1012 88 0 0.89 180 01:24 20.10.2019
5647 Rain 12 1012 88 0 0.45 180 00:58 20.10.2019
5648 Rain 12 1012 88 0 0.89 180 00:39 20.10.2019
5649 Rain 12 1012 88 0 0.89 135 00:20 20.10.2019
5650 Rain 12 1012 88 0 0.89 157 23:42 19.10.2019
5651 Rain 12 1012 88 0 1.34 157 23:23 19.10.2019
5652 Rain 12 1012 88 0 0.89 157 22:57 19.10.2019
5653 Rain 12 1012 88 0 0.89 157 22:39 19.10.2019
5654 Rain 12 1012 88 0 0.89 157 22:20 19.10.2019
5655 Rain 12 1012 87 0 0.89 157 21:46 19.10.2019
5656 Rain 12 1012 87 0 0.89 157 21:46 19.10.2019
5657 Rain 12 1012 87 0 0.89 157 21:25 19.10.2019
5658 Rain 12 1012 87 0 1.79 157 20:57 19.10.2019
5659 Rain 12 1012 87 0 1.34 157 20:39 19.10.2019
5660 Rain 12 1012 87 0 0.89 135 20:20 19.10.2019
5661 Rain 12 1012 86 0 0.89 157 19:41 19.10.2019
5662 Rain 12 1012 85 0 0.89 157 19:23 19.10.2019
5663 Rain 12 1012 84 0 1.34 157 18:54 19.10.2019
5664 Rain 12 1012 84 0 1.34 157 18:54 19.10.2019
5665 Rain 12 1012 83 0 0.45 157 18:36 19.10.2019
5666 Clouds 13 1012 82 0 0.89 157 18:18 19.10.2019
5667 Clouds 13 1012 82 0 0.89 157 18:18 19.10.2019
5668 Clouds 13 1012 82 0 0.89 157 18:18 19.10.2019
5669 Clouds 13 1012 81 0 0.45 157 17:41 19.10.2019
5670 Clouds 14 1012 79 0 0.89 157 17:21 19.10.2019
5671 Clouds 14 1012 79 0 0.89 157 17:21 19.10.2019
5672 Clouds 14 1011 79 0 0.89 135 16:56 19.10.2019
5673 Clouds 14 1012 78 0 0.89 180 16:37 19.10.2019
5674 Clouds 14 1012 77 0 0.89 157 16:18 19.10.2019
5675 Clouds 14 1012 77 0 1.34 180 15:41 19.10.2019
5676 Clouds 15 1012 75 0 0.89 180 15:23 19.10.2019
5677 Clouds 15 1012 76 0 1.34 180 14:39 19.10.2019
5678 Clouds 15 1012 77 0 0.89 180 14:20 19.10.2019
5679 Clouds 14 1012 78 0 1.79 180 13:58 19.10.2019
5680 Clouds 14 1013 79 0 1.34 180 13:39 19.10.2019
5681 Clouds 13 1013 82 0 1.79 180 13:19 19.10.2019
5682 Clouds 13 1013 82 0 1.34 180 12:57 19.10.2019
5683 Clouds 13 1013 83 0 1.34 180 12:37 19.10.2019
5684 Clouds 13 1013 84 0 1.79 180 12:18 19.10.2019
5685 Clouds 12 1013 85 0 0.89 180 11:41 19.10.2019
5686 Clouds 11 1013 86 0 0.89 180 11:23 19.10.2019
5687 Clouds 11 1013 86 0 1.34 180 10:56 19.10.2019
5688 Clouds 10 1013 87 0 0.89 180 10:38 19.10.2019
5689 Clouds 10 1013 87 0 0.89 180 10:20 19.10.2019
5690 Clouds 9 1013 87 0 1.34 180 09:43 19.10.2019
5691 Clouds 9 1013 87 0 0.45 180 09:25 19.10.2019
5692 Clouds 9 1013 87 0 0.45 157 08:59 19.10.2019
5693 Clouds 9 1013 88 0 0.45 180 08:40 19.10.2019
5694 Clouds 9 1013 88 0 0.45 180 08:40 19.10.2019
5695 Clouds 8 1013 87 0 0.89 180 08:21 19.10.2019
5696 Clouds 8 1013 87 0 0.89 180 07:44 19.10.2019
5697 Clouds 8 1013 86 0 0.89 180 07:25 19.10.2019
5698 Clouds 9 1013 86 0 0.45 180 06:48 19.10.2019
5699 Clouds 9 1013 86 0 0.45 180 06:48 19.10.2019
5700 Clouds 9 1013 86 0 0.45 180 06:28 19.10.2019
5701 Clouds 9 1013 86 0 0.45 180 06:28 19.10.2019
5702 Clouds 9 1013 87 0 0.89 202 05:34 19.10.2019
5703 Clouds 9 1013 87 0 0.89 202 04:26 19.10.2019
5704 Clouds 9 1013 86 0 0.45 180 02:49 19.10.2019
5705 Clouds 9 1012 85 0 0.45 225 01:54 19.10.2019
5706 Clouds 9 1012 85 0 0.45 202 01:36 19.10.2019
5707 Clouds 9 1012 85 0 0.45 202 00:49 19.10.2019
5708 Clouds 10 1012 85 0 0.45 202 00:28 19.10.2019
5709 Clouds 10 1012 85 0 0.45 202 23:56 18.10.2019
5710 Clouds 11 1012 84 0 0.45 225 23:37 18.10.2019
5711 Clouds 11 1011 84 0 10.85 235.733 23:19 18.10.2019
5712 Clouds 11 1011 83 0 0.45 225 22:43 18.10.2019
5713 Clouds 11 1011 84 0 0.89 225 22:21 18.10.2019
5714 Clouds 12 1010 84 0 0.45 225 21:59 18.10.2019
5715 Clouds 12 1010 85 0 0.89 225 21:39 18.10.2019
5716 Rain 12 1010 86 0 0.89 225 21:20 18.10.2019
5717 Rain 12 1010 86 0 0.45 225 20:59 18.10.2019
5718 Rain 12 1010 85 0 0.89 180 20:41 18.10.2019
5719 Rain 12 1010 84 0 9.96 213.832 20:22 18.10.2019
5720 Rain 12 1010 82 0 0.89 247 19:58 18.10.2019
5721 Rain 14 1010 79 0 0.45 0 19:40 18.10.2019
5722 Rain 15 1008 85 0 1.79 157 19:21 18.10.2019
5723 Rain 15 1008 85 0 1.34 180 18:58 18.10.2019
5724 Rain 15 1009 85 0 0.89 157 18:39 18.10.2019
5725 Rain 15 1009 84 0 0.45 157 18:21 18.10.2019
5726 Rain 16 1009 84 0 0.45 157 17:40 18.10.2019
5727 Rain 16 1009 85 0 0.89 180 17:21 18.10.2019
5728 Rain 16 1009 86 0 0.89 135 16:59 18.10.2019
5729 Rain 16 1009 85 0 0.89 180 16:38 18.10.2019
5730 Rain 16 1009 85 0 1.34 157 16:20 18.10.2019
5731 Rain 16 1010 85 0 1.34 157 15:55 18.10.2019
5732 Rain 16 1010 85 0 0.89 135 15:37 18.10.2019
5733 Rain 16 1010 85 0 0.89 135 15:37 18.10.2019
5734 Clouds 16 1010 85 0 0.89 180 15:18 18.10.2019
5735 Clouds 16 1010 84 0 1.34 180 14:56 18.10.2019
5736 Clouds 17 1010 85 0 1.34 202 14:38 18.10.2019
5737 Clouds 17 1011 86 0 1.79 180 14:18 18.10.2019
5738 Clouds 16 1011 87 0 1.34 157 13:55 18.10.2019
5739 Clouds 16 1011 88 0 0.89 157 13:36 18.10.2019
5740 Clouds 16 1011 89 0 0.45 180 13:18 18.10.2019
5741 -273 0 0 0 0 0 12:54 18.10.2019
5742 Clouds 15 1012 90 0 0.89 180 12:36 18.10.2019
5743 Clouds 15 1012 91 0 1.34 157 12:18 18.10.2019
5744 Clouds 14 1012 92 0 0.89 157 11:41 18.10.2019
5745 Clouds 14 1013 91 0 0.45 225 11:20 18.10.2019
5746 Clouds 14 1013 91 0 0.45 202 10:57 18.10.2019
5747 Clouds 14 1013 91 0 0.45 202 10:57 18.10.2019
5748 Clouds 13 1013 92 0 0.89 225 10:39 18.10.2019
5749 Clouds 13 1013 92 0 0.45 180 10:19 18.10.2019
5750 Clouds 13 1013 92 0 0.89 225 09:57 18.10.2019
5751 Clouds 13 1013 92 0 0.45 180 09:39 18.10.2019
5752 Rain 13 1013 92 0 0.45 180 09:19 18.10.2019
5753 Rain 13 1013 92 0 0.45 180 09:19 18.10.2019
5754 Rain 13 1013 91 0 0.89 180 08:44 18.10.2019
5755 -273 0 0 0 0 0 08:25 18.10.2019
5756 Rain 12 1013 91 0 0.89 180 07:53 18.10.2019
5757 Rain 12 1013 91 0 0.89 180 07:35 18.10.2019
5758 Rain 12 1013 91 0 0.45 157 06:56 18.10.2019
5759 Rain 12 1013 90 0 0.89 157 06:36 18.10.2019
5760 Rain 12 1013 90 0 0.89 135 06:18 18.10.2019
5761 Rain 13 1013 90 0 0.45 135 05:52 18.10.2019
5762 Rain 13 1014 90 0 5.02 164.138 05:19 18.10.2019
5763 Rain 13 1014 90 0 0.45 157 03:38 18.10.2019
5764 Clouds 13 1014 89 0 0.45 135 02:54 18.10.2019
5765 Clouds 13 1014 89 0 0.45 157 02:32 18.10.2019
5766 Clouds 13 1015 89 0 0.45 157 01:40 18.10.2019
5767 Rain 13 1015 89 0 3.43 185.977 01:21 18.10.2019
5768 Rain 13 1015 88 0 3.43 185.977 00:43 18.10.2019
5769 Rain 13 1015 88 0 3.05 230.912 00:20 18.10.2019
5770 Rain 13 1015 88 0 3.05 230.912 23:40 17.10.2019
5771 Rain 13 1015 88 0 3.05 230.912 23:21 17.10.2019
5772 Rain 13 1015 88 0 3.05 230.912 22:57 17.10.2019
5773 Rain 14 1015 88 0 0.45 180 22:39 17.10.2019
5774 Rain 14 1015 88 0 0.45 180 22:39 17.10.2019
5775 Rain 14 1015 88 0 0.45 180 22:19 17.10.2019
5776 Rain 14 1015 88 0 0.45 180 21:58 17.10.2019
5777 Rain 14 1015 88 0 3.05 230.912 21:39 17.10.2019
5778 Rain 14 1015 87 0 5.04 204.805 21:20 17.10.2019
5779 Clouds 14 1015 87 0 0.45 180 20:58 17.10.2019
5780 Clouds 14 1015 87 0 0.45 180 20:39 17.10.2019
5781 Clouds 14 1015 87 0 0.45 180 20:19 17.10.2019
5782 Clouds 14 1015 86 0 0.45 180 19:59 17.10.2019
5783 Clouds 14 1015 86 0 0.45 180 19:39 17.10.2019
5784 Clouds 14 1015 86 0 0.45 225 19:19 17.10.2019
5785 Clouds 14 1015 85 0 0.89 202 18:58 17.10.2019
5786 Clouds 15 1015 85 0 0.45 202 18:38 17.10.2019
5787 Rain 15 1015 85 0 0.45 202 18:20 17.10.2019
5788 Rain 15 1015 84 0 0.45 225 17:42 17.10.2019
5789 Rain 16 1015 84 0 5.962 229 17:23 17.10.2019
5790 Rain 16 1014 83 0 0.45 225 16:57 17.10.2019
5791 -273 0 0 0 0 0 16:39 17.10.2019
5792 Rain 16 1014 83 0 5.962 229 16:18 17.10.2019
5793 -273 0 0 0 0 0 15:56 17.10.2019
5794 Rain 16 1014 83 0 0.89 225 15:38 17.10.2019
5795 Rain 16 1014 84 0 0.89 225 15:19 17.10.2019
5796 Rain 16 1014 83 0 0.89 225 14:54 17.10.2019
5797 Clouds 16 1014 83 0 0.89 225 14:36 17.10.2019
5798 Clouds 16 1014 83 0 0.45 225 14:18 17.10.2019
5799 Clouds 17 1014 84 0 1.34 225 13:39 17.10.2019
5800 Clouds 16 1014 86 0 6.586 211 13:19 17.10.2019
5801 Clouds 16 1014 87 0 1.34 225 12:55 17.10.2019
5802 Clouds 16 1014 87 0 1.34 225 12:55 17.10.2019
5803 Clouds 16 1014 89 0 1.34 225 12:36 17.10.2019
5804 Rain 15 1014 90 0 1.34 180 12:18 17.10.2019
5805 Rain 14 1014 92 0 0.45 202 11:41 17.10.2019
5806 Rain 14 1014 92 0 0.89 180 11:22 17.10.2019
5807 Rain 13 1014 92 0 1.34 180 10:58 17.10.2019
5808 Rain 13 1014 93 0 0.89 180 10:39 17.10.2019
5809 Rain 13 1014 93 0 0.89 180 10:19 17.10.2019
5810 Rain 12 1014 92 0 1.34 180 09:56 17.10.2019
5811 Rain 12 1014 92 0 1.34 180 09:37 17.10.2019
5812 Rain 12 1014 92 0 1.34 180 09:19 17.10.2019
5813 Rain 11 1014 92 0 0.45 180 08:48 17.10.2019
5814 Rain 11 1013 92 0 0.89 180 08:27 17.10.2019
5815 Rain 11 1013 92 0 0.89 180 07:59 17.10.2019
5816 Rain 11 1013 92 0 0.89 180 07:41 17.10.2019
5817 Rain 11 1013 92 0 0.45 180 07:21 17.10.2019
5818 Rain 11 1013 92 0 0.45 180 07:21 17.10.2019
5819 Rain 11 1013 92 0 0.89 180 06:43 17.10.2019
5820 Rain 11 1013 92 0 0.89 180 06:24 17.10.2019
5821 Clear 10 1013 92 0 0.45 180 05:59 17.10.2019
5822 Clear 10 1013 92 0 0.45 180 05:37 17.10.2019
5823 Clear 10 1013 92 0 0.45 180 05:19 17.10.2019
5824 Clear 9 1013 91 0 0.45 180 04:45 17.10.2019
5825 Clear 9 1013 91 0 0.45 202 03:45 17.10.2019
5826 Clouds 10 1013 91 0 5.601 226 01:56 17.10.2019
5827 Clouds 10 1013 91 0 5.601 226 01:56 17.10.2019
5828 Clouds 11 1013 91 0 5.601 226 00:42 17.10.2019
5829 Rain 11 1013 92 0 9.244 254 00:20 17.10.2019
5830 Rain 11 1013 92 0 9.244 254 23:58 16.10.2019
5831 Rain 11 1013 92 0 9.244 254 23:39 16.10.2019
5832 Rain 12 1013 92 0 9.244 254 23:18 16.10.2019
5833 Rain 12 1012 92 0 0.89 247 22:54 16.10.2019
5834 Rain 12 1012 92 0 9.244 254 22:36 16.10.2019
5835 Rain 12 1012 93 0 0.89 292 22:18 16.10.2019
5836 Rain 12 1012 92 0 9.244 254 21:54 16.10.2019
5837 Rain 12 1012 92 0 9.244 254 21:54 16.10.2019
5838 Rain 12 1012 92 0 0.89 270 21:36 16.10.2019
5839 Rain 12 1012 92 0 0.45 247 21:18 16.10.2019
5840 -273 0 0 0 0 0 20:56 16.10.2019
5841 Rain 12 1011 92 0 0.45 247 20:37 16.10.2019
5842 Rain 12 1011 92 0 0.45 247 20:37 16.10.2019
5843 Rain 12 1011 92 0 0.45 247 20:37 16.10.2019
5844 Rain 12 1011 92 0 0.89 292 20:19 16.10.2019
5845 Rain 13 1011 93 0 0.45 270 19:41 16.10.2019
5846 Rain 13 1011 93 0 0.45 270 19:40 16.10.2019
5847 Rain 13 1011 93 0 0.89 292 19:21 16.10.2019
5848 Rain 13 1010 93 0 1.34 292 18:58 16.10.2019
5849 Rain 13 1010 93 0 1.34 292 18:39 16.10.2019
5850 Rain 13 1010 93 0 0.45 292 18:19 16.10.2019
5851 Rain 13 1010 93 0 0.45 292 18:19 16.10.2019
5852 Rain 13 1010 93 0 0.89 292 17:56 16.10.2019
5853 Rain 13 1010 93 0 0.89 292 17:37 16.10.2019
5854 Rain 13 1009 93 0 0.45 292 17:19 16.10.2019
5855 Rain 13 1009 93 0 0.45 292 16:57 16.10.2019
5856 Rain 12 1009 92 0 0.45 292 16:38 16.10.2019
5857 Rain 12 1009 92 0 0.45 292 16:20 16.10.2019
5858 -273 0 0 0 0 0 15:54 16.10.2019
5859 Rain 12 1009 92 0 0.45 292 15:54 16.10.2019
5860 Rain 12 1009 92 0 0.45 292 15:54 16.10.2019
5861 Rain 12 1009 92 0 0.45 292 15:54 16.10.2019
5862 Rain 12 1009 92 0 10.348 288 15:36 16.10.2019
5863 Clouds 12 1009 92 0 0.45 292 15:18 16.10.2019
5864 Clouds 12 1009 92 0 0.45 270 14:55 16.10.2019
5865 Clouds 12 1009 92 0 4.349 325 14:36 16.10.2019
5866 Clouds 12 1009 92 0 4.349 325 14:18 16.10.2019
5867 Clouds 12 1008 92 0 0.45 0 13:42 16.10.2019
5868 Clouds 12 1009 92 0 0.45 315 13:23 16.10.2019
5869 Clouds 12 1009 92 0 0.45 315 12:57 16.10.2019
5870 Clouds 12 1009 92 0 0.89 315 12:39 16.10.2019
5871 Clouds 12 1008 92 0 0.45 292 12:18 16.10.2019
5872 Clouds 12 1008 92 0 0.45 315 11:42 16.10.2019
5873 -273 0 0 0 0 0 11:42 16.10.2019
5874 Clouds 12 1008 92 0 1.34 315 11:18 16.10.2019
5875 Clouds 12 1008 92 0 1.34 315 11:18 16.10.2019
5876 Clouds 12 1008 92 0 1.34 315 11:18 16.10.2019
5877 Clouds 12 1008 92 0 0.89 292 10:38 16.10.2019
5878 Clouds 12 1007 92 0 0.89 292 10:20 16.10.2019
5879 Clouds 12 1008 92 0 0.45 315 09:55 16.10.2019
5880 Clouds 12 1007 92 0 0.45 292 09:37 16.10.2019
5881 Clouds 12 1008 92 0 0.45 292 09:19 16.10.2019
5882 Clouds 11 1007 92 0 0.699 244 08:42 16.10.2019
5883 Clouds 11 1007 91 0 0.45 292 08:24 16.10.2019
5884 Clouds 11 1007 91 0 0.45 292 07:45 16.10.2019
5885 Clouds 11 1007 91 0 0.45 292 07:45 16.10.2019
5886 Clouds 11 1007 91 0 0.45 292 07:25 16.10.2019
5887 Clouds 11 1007 90 0 0.699 244 06:58 16.10.2019
5888 Clouds 11 1007 90 0 0.699 244 06:39 16.10.2019
5889 Clouds 10 1008 89 0 1.171 97 05:48 16.10.2019
5890 Clouds 10 1008 88 0 1.171 97 03:26 16.10.2019
5891 Clouds 10 1008 88 0 1.477 51 02:49 16.10.2019
5892 Clouds 11 1008 88 0 2.631 75 01:19 16.10.2019
5893 Clouds 11 1008 87 0 2.631 75 00:50 16.10.2019
5894 Clouds 11 1008 88 0 2.631 75 00:28 16.10.2019
5895 Clouds 12 1009 87 0 1.252 119 23:41 15.10.2019
5896 Clouds 12 1009 87 0 1.252 119 23:22 15.10.2019
5897 Clouds 12 1009 87 0 1.252 119 22:56 15.10.2019
5898 Clouds 12 1009 87 0 1.252 119 22:56 15.10.2019
5899 Clouds 12 1010 87 0 1.252 119 22:38 15.10.2019
5900 Clouds 12 1010 87 0 1.252 119 22:38 15.10.2019
5901 Clouds 12 1010 87 0 1.252 119 22:20 15.10.2019
5902 -273 0 0 0 0 0 21:56 15.10.2019
5903 Clouds 12 1010 87 0 1.252 119 21:56 15.10.2019
5904 Clouds 13 1010 86 0 0.94 158 21:38 15.10.2019
5905 Clouds 13 1010 86 0 3.066 129 21:20 15.10.2019
5906 Clouds 13 1010 86 0 3.066 129 20:57 15.10.2019
5907 Clouds 13 1009 85 0 3.066 129 20:39 15.10.2019
5908 Clouds 13 1009 85 0 3.066 129 20:39 15.10.2019
5909 Clouds 13 1009 85 0 3.066 129 20:20 15.10.2019
5910 Clouds 13 1009 85 0 3.066 129 19:58 15.10.2019
5911 Clouds 14 1009 85 0 3.066 129 19:40 15.10.2019
5912 Clouds 14 1010 85 0 3.066 129 19:20 15.10.2019
5913 Clouds 15 1009 84 0 3.066 129 18:47 15.10.2019
5914 Clouds 16 1009 84 0 3.066 129 18:29 15.10.2019
5915 Clouds 16 1009 83 0 3.872 120 17:59 15.10.2019
5916 Clouds 16 1009 82 0 3.872 120 17:41 15.10.2019
5917 Clouds 16 1009 82 0 3.872 120 17:41 15.10.2019
5918 Clouds 16 1009 82 0 3.872 120 17:20 15.10.2019
5919 Clouds 18 1009 79 0 3.872 120 16:57 15.10.2019
5920 Clouds 18 1009 79 0 3.872 120 16:38 15.10.2019
5921 Clouds 18 1009 78 0 3.872 120 16:20 15.10.2019
5922 Clouds 19 1010 79 0 3.872 120 15:55 15.10.2019
5923 Clouds 19 1010 79 0 3.872 120 15:55 15.10.2019
5924 Clouds 19 1010 78 0 3.872 120 15:36 15.10.2019
5925 Clouds 19 1010 79 0 4.088 123 15:18 15.10.2019
5926 Clouds 18 1010 79 0 3.293 134 14:38 15.10.2019
5927 Clouds 18 1010 79 0 0.45 135 14:20 15.10.2019
5928 Clouds 18 1010 80 0 3.293 134 13:58 15.10.2019
5929 Clouds 18 1010 81 0 0.45 135 13:40 15.10.2019
5930 Clouds 17 1010 80 0 0.45 135 13:19 15.10.2019
5931 Clouds 17 1011 81 0 0.45 135 12:44 15.10.2019
5932 Clouds 17 1011 82 0 0.45 135 12:22 15.10.2019
5933 Clouds 16 1011 82 0 0.45 135 11:58 15.10.2019
5934 Clouds 16 1012 83 0 0.45 135 11:40 15.10.2019
5935 Clouds 16 1012 83 0 0.45 135 11:19 15.10.2019
5936 Clouds 14 1012 85 0 0.89 135 10:46 15.10.2019
5937 Clouds 14 1012 86 0 0.89 112 10:23 15.10.2019
5938 Clouds 13 1013 88 0 0.89 135 09:59 15.10.2019
5939 Clouds 12 1013 87 0 0.45 135 09:40 15.10.2019
5940 Clouds 12 1013 88 0 9.01 115.877 09:21 15.10.2019
5941 Clouds 11 1013 88 0 0.45 112 08:57 15.10.2019
5942 Clouds 11 1013 88 0 9.03 115.367 08:39 15.10.2019
5943 Clouds 11 1013 88 0 9.03 115.367 08:19 15.10.2019
5944 Clouds 11 1013 87 0 9.03 115.367 07:43 15.10.2019
5945 Clouds 11 1013 87 0 9.03 115.367 07:43 15.10.2019
5946 Clouds 11 1013 87 0 9.03 115.367 07:22 15.10.2019
5947 Clouds 11 1013 88 0 0.45 135 06:56 15.10.2019
5948 Clouds 11 1013 88 0 0.45 135 06:37 15.10.2019
5949 Clouds 12 1014 88 0 0.89 135 05:56 15.10.2019
5950 Clouds 12 1014 88 0 0.45 135 05:36 15.10.2019
5951 Clouds 12 1015 88 0 0.45 135 04:48 15.10.2019
5952 Clouds 12 1015 88 0 9.96 108.671 03:59 15.10.2019
5953 Clouds 12 1015 88 0 0.45 135 03:34 15.10.2019
5954 Rain 12 1016 88 0 0.45 135 01:52 15.10.2019
5955 Rain 12 1017 87 0 0.45 112 01:31 15.10.2019
5956 Rain 12 1017 87 0 0.89 157 00:59 15.10.2019
5957 Rain 12 1017 86 0 8.52 103.227 00:25 15.10.2019
5958 Clouds 12 1017 85 0 0.45 112 23:58 14.10.2019
5959 Clouds 12 1018 85 0 6.51 98.326 23:37 14.10.2019
5960 Clouds 12 1018 85 0 6.51 98.326 23:18 14.10.2019
5961 Clouds 12 1018 84 0 0.45 135 22:39 14.10.2019
5962 Clouds 12 1018 84 0 0.45 135 22:21 14.10.2019
5963 Clouds 12 1018 85 0 6.51 98.326 21:58 14.10.2019
5964 Clouds 12 1019 84 0 6.51 98.326 21:40 14.10.2019
5965 Clouds 12 1019 84 0 4.84 80.647 21:21 14.10.2019
5966 Clouds 12 1019 84 0 4.67 90.969 20:58 14.10.2019
5967 Clouds 12 1019 84 0 4.67 90.969 20:38 14.10.2019
5968 Clouds 12 1019 84 0 4.67 90.969 20:19 14.10.2019
5969 Clouds 12 1019 81 0 4.67 90.969 19:55 14.10.2019
5970 Clouds 12 1019 81 0 4.672 90 19:37 14.10.2019
5971 Clouds 12 1019 81 0 4.672 90 19:19 14.10.2019
5972 Clouds 13 1019 79 0 4.67 90.969 18:57 14.10.2019
5973 Clouds 13 1019 79 0 4.67 90.969 18:37 14.10.2019
5974 Clouds 13 1019 78 0 2.72 345.447 18:18 14.10.2019
5975 Clouds 15 1018 74 0 0.45 45 17:41 14.10.2019
5976 Clouds 15 1018 74 0 0.45 45 17:23 14.10.2019
5977 Clouds 16 1019 74 0 2.72 345.447 16:54 14.10.2019
5978 Clouds 16 1019 74 0 2.72 345.447 16:36 14.10.2019
5979 Clouds 16 1019 74 0 2.72 345.447 16:18 14.10.2019
5980 Clouds 16 1019 72 0 2.72 345.447 15:41 14.10.2019
5981 Clouds 17 1019 72 0 0.89 337 15:21 14.10.2019
5982 Clouds 17 1019 70 0 0.89 292 14:44 14.10.2019
5983 Clouds 17 1019 69 0 0.45 315 14:26 14.10.2019
5984 Clouds 17 1019 69 0 0.89 337 13:59 14.10.2019
5985 Clouds 17 1019 69 0 0.45 292 13:40 14.10.2019
5986 Clouds 18 1019 67 0 1.79 292 13:21 14.10.2019
5987 Clouds 18 1019 70 0 0.45 292 12:42 14.10.2019
5988 Clouds 17 1019 70 0 2.24 292 12:21 14.10.2019
5989 Clouds 17 1019 70 0 2.24 292 12:21 14.10.2019
5990 Clouds 16 1018 74 0 2.24 315 11:59 14.10.2019
5991 Clouds 16 1018 76 0 1.34 292 11:41 14.10.2019
5992 Clouds 16 1018 78 0 0.89 292 11:22 14.10.2019
5993 Clouds 15 1018 77 0 0.45 315 10:55 14.10.2019
5994 Clouds 15 1017 77 0 1.34 270 10:37 14.10.2019
5995 Clouds 15 1017 78 0 0.89 315 10:18 14.10.2019
5996 Clouds 14 1017 80 0 9.77 268.962 09:41 14.10.2019
5997 Clouds 14 1016 80 0 0.89 292 09:21 14.10.2019
5998 Clouds 14 1016 81 0 1.79 292 08:50 14.10.2019
5999 Clouds 14 1016 81 0 1.79 292 08:50 14.10.2019
6000 Clouds 14 1015 80 0 11.89 252.456 08:23 14.10.2019
6001 Clouds 14 1015 80 0 1.34 247 07:47 14.10.2019
6002 Clouds 14 1014 79 0 1.79 292 07:25 14.10.2019
6003 Clouds 15 1014 80 0 0.89 270 06:59 14.10.2019
6004 Clouds 16 1014 81 0 0.45 315 06:28 14.10.2019
6005 Clouds 16 1013 81 0 11.21 246.484 05:57 14.10.2019
6006 Clouds 17 1013 79 0 0.45 292 05:27 14.10.2019
6007 Clouds 17 1012 83 0 11.21 246.484 03:51 14.10.2019
6008 Clouds 17 1011 82 0 0.45 225 03:26 14.10.2019
6009 Clouds 18 1011 82 0 0.89 225 02:32 14.10.2019
6010 Rain 18 1011 83 0 0.89 225 01:21 14.10.2019
6011 Rain 18 1011 84 0 0.89 225 00:44 14.10.2019
6012 Rain 18 1011 85 0 1.34 202 00:19 14.10.2019
6013 Rain 17 1011 86 0 0.89 225 23:43 13.10.2019
6014 Rain 17 1011 87 0 0.89 225 23:20 13.10.2019
6015 Rain 17 1011 88 0 1.34 180 22:58 13.10.2019
6016 Rain 17 1011 88 0 1.34 180 22:58 13.10.2019
6017 Rain 17 1011 89 0 1.79 180 22:40 13.10.2019
6018 Rain 17 1011 89 0 0.89 202 22:21 13.10.2019
6019 Rain 17 1011 89 0 1.34 180 21:58 13.10.2019
6020 Rain 17 1011 89 0 1.34 180 21:37 13.10.2019
6021 Rain 17 1011 89 0 1.34 180 21:37 13.10.2019
6022 Rain 17 1011 89 0 1.34 180 21:18 13.10.2019
6023 Rain 17 1011 89 0 1.34 180 21:18 13.10.2019
6024 Rain 17 1011 89 0 1.34 180 21:18 13.10.2019
6025 Rain 17 1011 90 0 1.79 157 20:57 13.10.2019
6026 Rain 17 1011 90 0 1.79 157 20:57 13.10.2019
6027 Rain 17 1011 90 0 1.79 157 20:57 13.10.2019
6028 Rain 17 1011 90 0 1.79 202 20:38 13.10.2019
6029 Rain 17 1011 91 0 0.89 157 20:19 13.10.2019
6030 Rain 16 1011 91 0 1.34 135 19:57 13.10.2019
6031 Rain 16 1011 91 0 0.89 157 19:39 13.10.2019
6032 Rain 16 1011 91 0 0.89 157 19:39 13.10.2019
6033 Rain 16 1011 91 0 0.89 157 19:39 13.10.2019
6034 Rain 16 1012 91 0 0.89 135 19:21 13.10.2019
6035 Rain 16 1012 91 0 0.89 157 18:56 13.10.2019
6036 Rain 16 1012 91 0 0.89 157 18:56 13.10.2019
6037 Rain 16 1013 90 0 1.34 180 18:36 13.10.2019
6038 Rain 16 1013 90 0 1.34 157 18:18 13.10.2019
6039 Rain 16 1013 89 0 0.45 157 17:57 13.10.2019
6040 Rain 16 1013 88 0 0.45 157 17:38 13.10.2019
6041 Rain 16 1013 88 0 0.45 135 17:20 13.10.2019
6042 Rain 16 1014 86 0 0.89 135 16:41 13.10.2019
6043 Rain 17 1014 85 0 0.89 135 16:18 13.10.2019
6044 Rain 17 1014 86 0 0.89 135 15:57 13.10.2019
6045 Rain 17 1015 86 0 0.89 135 15:38 13.10.2019
6046 Clouds 17 1015 85 0 0.89 135 15:19 13.10.2019
6047 -273 0 0 0 0 0 14:57 13.10.2019
6048 Clouds 17 1015 85 0 0.45 157 14:38 13.10.2019
6049 Clouds 17 1015 85 0 0.45 157 14:19 13.10.2019
6050 Clouds 16 1015 85 0 0.45 135 13:42 13.10.2019
6051 Clouds 16 1015 85 0 0.45 135 13:42 13.10.2019
6052 Rain 16 1015 85 0 0.45 135 13:23 13.10.2019
6053 Rain 15 1016 86 0 0.45 135 12:59 13.10.2019
6054 Rain 14 1016 86 0 0.45 135 12:39 13.10.2019
6055 Rain 14 1016 87 0 1.34 135 12:21 13.10.2019
6056 Rain 13 1016 89 0 0.89 135 11:59 13.10.2019
6057 Rain 13 1016 89 0 1.67 85.47 11:39 13.10.2019
6058 Rain 12 1016 89 0 1.67 85.47 11:21 13.10.2019
6059 Rain 12 1016 90 0 0.45 157 10:59 13.10.2019
6060 Rain 12 1016 89 0 1.67 85.47 10:40 13.10.2019
6061 Rain 12 1016 89 0 0.45 157 10:22 13.10.2019
6062 Rain 11 1016 89 0 1.67 85.47 09:39 13.10.2019
6063 Rain 11 1016 89 0 3.53 190.02 09:21 13.10.2019
6064 Rain 11 1016 89 0 3.34 191.995 08:55 13.10.2019
6065 Rain 11 1016 89 0 3.34 191.995 08:27 13.10.2019
6066 Rain 11 1016 89 0 3.34 191.995 07:56 13.10.2019
6067 Rain 11 1016 89 0 3.34 191.995 07:38 13.10.2019
6068 Rain 11 1016 89 0 3.34 191.995 06:55 13.10.2019
6069 Rain 11 1015 89 0 3.34 191.995 06:26 13.10.2019
6070 Rain 11 1015 89 0 3.99 250.765 05:34 13.10.2019
6071 Rain 11 1015 89 0 3.99 250.765 04:38 13.10.2019
6072 Rain 11 1015 89 0 3.99 250.765 03:37 13.10.2019
6073 Rain 11 1015 89 0 6.49 247.638 02:35 13.10.2019
6074 Rain 11 1016 89 0 6.49 247.638 01:51 13.10.2019
6075 Rain 12 1016 89 0 6.93 248.943 01:22 13.10.2019
6076 Rain 12 1015 89 0 6.93 248.943 00:44 13.10.2019
6077 Rain 12 1015 89 0 8.68 252.056 00:20 13.10.2019
6078 Rain 12 1015 89 0 0.45 202 23:55 12.10.2019
6079 Rain 12 1015 89 0 0.45 202 23:36 12.10.2019
6080 Rain 12 1014 89 0 0.45 225 23:18 12.10.2019
6081 Rain 12 1014 89 0 0.45 225 22:55 12.10.2019
6082 Rain 12 1014 89 0 0.45 225 22:36 12.10.2019
6083 Rain 12 1015 89 0 8.68 252.056 22:18 12.10.2019
6084 Rain 12 1014 89 0 8.68 252.056 21:41 12.10.2019
6085 Clouds 12 1014 89 0 9.2 256.604 21:23 12.10.2019
6086 Clouds 12 1014 89 0 9.2 256.604 20:56 12.10.2019
6087 Rain 12 1014 89 0 9.14 250.653 20:38 12.10.2019
6088 Rain 12 1014 90 0 9.14 250.653 20:20 12.10.2019
6089 Rain 12 1014 90 0 9.14 250.653 19:37 12.10.2019
6090 Rain 12 1014 90 0 9.14 250.653 19:19 12.10.2019
6091 Rain 12 1013 90 0 9.14 250.653 18:56 12.10.2019
6092 Rain 13 1013 90 0 9.14 250.653 18:36 12.10.2019
6093 Clouds 13 1013 90 0 0.45 292 18:18 12.10.2019
6094 Clouds 13 1013 90 0 10.34 250.37 17:42 12.10.2019
6095 Clouds 13 1013 89 0 10.34 250.37 17:19 12.10.2019
6096 Clouds 13 1013 89 0 10.34 250.37 16:54 12.10.2019
6097 Clouds 13 1012 89 0 10.34 250.37 16:36 12.10.2019
6098 Clouds 13 1012 89 0 10.34 250.37 16:18 12.10.2019
6099 Clouds 14 1012 89 0 10.34 250.37 15:40 12.10.2019
6100 Rain 14 1012 89 0 10.04 248.355 15:21 12.10.2019
6101 Rain 13 1011 90 0 10.04 248.355 14:41 12.10.2019
6102 Rain 13 1011 90 0 10.04 248.355 14:22 12.10.2019
6103 Rain 13 1011 90 0 10.04 248.355 13:57 12.10.2019
6104 Rain 13 1011 90 0 10.04 248.355 13:38 12.10.2019
6105 Rain 13 1011 90 0 8.17 240.304 13:20 12.10.2019
6106 Rain 13 1011 90 0 8.17 240.304 12:39 12.10.2019
6107 Rain 12 1011 90 0 6.8 263.781 12:21 12.10.2019
6108 Rain 12 1011 90 0 6.8 263.781 11:58 12.10.2019
6109 Rain 12 1011 90 0 6.8 263.781 11:38 12.10.2019
6110 Rain 12 1011 90 0 6.8 263.781 11:19 12.10.2019
6111 Rain 11 1010 90 0 6.8 263.781 10:41 12.10.2019
6112 Rain 11 1010 90 0 6.8 263.781 10:23 12.10.2019
6113 Rain 11 1010 90 0 0.89 292 09:58 12.10.2019
6114 Rain 11 1010 89 0 0.89 270 09:39 12.10.2019
6115 Rain 11 1009 89 0 0.89 292 09:21 12.10.2019
6116 Rain 12 1009 90 0 0.89 292 08:57 12.10.2019
6117 Rain 12 1009 90 0 0.89 292 08:57 12.10.2019
6118 Rain 12 1009 90 0 0.89 292 08:57 12.10.2019
6119 Rain 12 1009 90 0 0.89 292 08:57 12.10.2019
6120 Rain 12 1009 90 0 0.89 270 08:38 12.10.2019
6121 Rain 12 1008 90 0 9.7 262.117 08:18 12.10.2019
6122 Rain 12 1008 89 0 9.7 262.117 07:34 12.10.2019
6123 Rain 13 1008 87 0 1.34 270 06:51 12.10.2019
6124 Rain 14 1007 81 0 0.45 225 05:47 12.10.2019
6125 Rain 14 1007 81 0 0.45 225 05:23 12.10.2019
6126 Rain 14 1007 81 0 0.89 247 04:24 12.10.2019
6127 Rain 14 1007 81 0 0.45 225 03:31 12.10.2019
6128 Rain 14 1007 82 0 0.89 225 01:45 12.10.2019
6129 Rain 14 1007 82 0 0.45 247 01:21 12.10.2019
6130 Rain 14 1007 82 0 0.45 247 01:21 12.10.2019
6131 Rain 14 1007 81 0 1.34 247 00:42 12.10.2019
6132 Rain 14 1008 81 0 13.86 228.298 23:59 11.10.2019
6133 Rain 14 1008 81 0 1.34 225 23:40 11.10.2019
6134 Rain 14 1008 81 0 1.79 225 23:20 11.10.2019
6135 Rain 14 1008 81 0 1.79 202 22:41 11.10.2019
6136 Rain 14 1008 80 0 2.24 225 22:21 11.10.2019
6137 Rain 14 1008 81 0 1.79 225 21:58 11.10.2019
6138 Rain 14 1008 81 0 1.79 225 21:39 11.10.2019
6139 Rain 13 1008 81 0 2.24 225 21:21 11.10.2019
6140 Rain 13 1008 81 0 1.79 225 20:45 11.10.2019
6141 Rain 13 1008 82 0 1.79 225 20:27 11.10.2019
6142 Rain 13 1009 82 0 1.34 225 19:58 11.10.2019
6143 Rain 13 1009 83 0 2.24 247 19:39 11.10.2019
6144 Rain 13 1009 83 0 2.24 247 19:39 11.10.2019
6145 Rain 13 1009 84 0 1.79 202 19:18 11.10.2019
6146 Rain 13 1009 84 0 1.79 202 19:18 11.10.2019
6147 Rain 13 1009 84 0 1.79 202 19:18 11.10.2019
6148 Rain 13 1009 84 0 1.79 202 19:18 11.10.2019
6149 Rain 13 1009 84 0 1.34 225 18:59 11.10.2019
6150 Rain 13 1009 84 0 1.34 225 18:59 11.10.2019
6151 Rain 13 1009 85 0 1.34 225 18:38 11.10.2019
6152 Rain 13 1010 85 0 1.79 225 18:19 11.10.2019
6153 Rain 13 1010 85 0 2.24 225 17:59 11.10.2019
6154 Rain 13 1010 85 0 2.24 225 17:59 11.10.2019
6155 Rain 13 1010 85 0 1.79 225 17:38 11.10.2019
6156 Rain 14 1010 84 0 1.34 225 17:19 11.10.2019
6157 Rain 14 1010 84 0 1.79 225 16:59 11.10.2019
6158 Rain 14 1010 84 0 0.89 225 16:39 11.10.2019
6159 Rain 14 1010 84 0 1.34 202 16:19 11.10.2019
6160 Rain 14 1010 83 0 0.89 225 15:55 11.10.2019
6161 Rain 14 1011 83 0 1.79 202 15:36 11.10.2019
6162 Clouds 14 1011 83 0 0.89 225 15:18 11.10.2019
6163 Clouds 14 1011 84 0 0.89 225 14:41 11.10.2019
6164 Clouds 13 1012 84 0 1.34 225 14:21 11.10.2019
6165 Clouds 13 1012 84 0 0.89 225 13:46 11.10.2019
6166 Clouds 13 1012 85 0 1.34 225 13:26 11.10.2019
6167 Clouds 13 1012 86 0 0.89 225 12:58 11.10.2019
6168 Clouds 12 1012 86 0 11.62 227.505 12:40 11.10.2019
6169 Rain 12 1012 86 0 1.34 247 12:21 11.10.2019
6170 Rain 12 1012 87 0 2.24 225 11:59 11.10.2019
6171 Rain 12 1012 87 0 0.89 225 11:39 11.10.2019
6172 Rain 12 1012 87 0 1.34 225 11:21 11.10.2019
6173 Rain 11 1012 87 0 1.34 247 10:56 11.10.2019
6174 Rain 11 1012 86 0 14.29 231.278 10:38 11.10.2019
6175 Rain 11 1012 85 0 1.79 247 10:19 11.10.2019
6176 Rain 11 1012 84 0 1.34 225 09:43 11.10.2019
6177 Rain 11 1012 85 0 1.34 225 09:22 11.10.2019
6178 Rain 11 1012 86 0 1.34 225 08:59 11.10.2019
6179 Rain 11 1012 86 0 0.89 202 08:39 11.10.2019
6180 Rain 11 1012 86 0 0.89 225 08:21 11.10.2019
6181 Rain 10 1012 87 0 1.79 225 07:58 11.10.2019
6182 Rain 10 1012 87 0 1.34 202 07:40 11.10.2019
6183 Rain 9 1012 87 0 1.34 202 07:20 11.10.2019
6184 Rain 9 1013 87 0 0.89 202 06:43 11.10.2019
6185 Clouds 9 1013 87 0 1.34 202 06:21 11.10.2019
6186 Clouds 9 1014 87 0 0.89 225 05:32 11.10.2019
6187 Clouds 9 1014 87 0 0.45 225 04:59 11.10.2019
6188 Clouds 9 1014 87 0 0.45 225 04:24 11.10.2019
6189 Rain 9 1014 85 0 0.45 247 01:58 11.10.2019
6190 Rain 9 1014 85 0 12.15 244.955 00:42 11.10.2019
6191 Rain 9 1014 85 0 12.28 247.812 00:23 11.10.2019
6192 Rain 9 1014 85 0 12.28 247.812 23:42 10.10.2019
6193 Rain 9 1014 84 0 0.45 225 23:21 10.10.2019
6194 Rain 9 1014 83 0 12.28 247.812 22:57 10.10.2019
6195 Rain 9 1014 83 0 12.28 247.812 22:38 10.10.2019
6196 Rain 9 1014 83 0 0.45 225 22:20 10.10.2019
6197 Rain 9 1014 82 0 12.28 247.812 21:56 10.10.2019
6198 Rain 9 1014 82 0 12.28 247.812 21:56 10.10.2019
6199 Rain 9 1014 82 0 12.28 247.812 21:56 10.10.2019
6200 Rain 9 1013 82 0 12.28 247.812 21:38 10.10.2019
6201 Rain 10 1013 82 0 11.84 249.802 21:20 10.10.2019
6202 Rain 11 1013 81 0 11.35 248.13 20:42 10.10.2019
6203 Rain 11 1013 81 0 11.35 248.13 20:21 10.10.2019
6204 Rain 11 1013 80 0 11.35 248.13 19:58 10.10.2019
6205 Rain 11 1013 79 0 11.35 248.13 19:40 10.10.2019
6206 Rain 11 1012 78 0 0.45 225 19:20 10.10.2019
6207 Rain 11 1012 77 0 11.35 248.13 18:57 10.10.2019
6208 Rain 12 1012 76 0 11.35 248.13 18:39 10.10.2019
6209 -273 0 0 0 0 0 18:20 10.10.2019
6210 -273 0 0 0 0 0 17:54 10.10.2019
6211 Rain 13 1012 73 0 10.39 253.172 17:36 10.10.2019
6212 Rain 13 1011 73 0 0.45 247 17:18 10.10.2019
6213 Rain 13 1011 73 0 0.45 247 17:18 10.10.2019
6214 Rain 13 1011 74 0 10.39 253.172 16:44 10.10.2019
6215 Rain 13 1011 75 0 0.45 247 16:26 10.10.2019
6216 Rain 14 1011 73 0 0.45 247 15:54 10.10.2019
6217 Rain 14 1011 73 0 0.89 225 15:36 10.10.2019
6218 Rain 14 1011 73 0 0.89 225 15:36 10.10.2019
6219 Rain 14 1011 71 0 0.45 202 15:18 10.10.2019
6220 Rain 14 1011 74 0 11.33 258.718 14:54 10.10.2019
6221 Rain 13 1011 73 0 0.45 225 14:36 10.10.2019
6222 Rain 13 1011 73 0 11.33 258.718 14:18 10.10.2019
6223 Rain 13 1010 77 0 11.33 258.718 13:41 10.10.2019
6224 Rain 13 1010 77 0 11.33 258.718 13:41 10.10.2019
6225 Clouds 13 1010 78 0 11.52 253.171 13:23 10.10.2019
6226 Clouds 12 1010 80 0 11.52 253.171 12:57 10.10.2019
6227 Clouds 11 1010 80 0 11.52 253.171 12:39 10.10.2019
6228 Rain 11 1010 80 0 10.98 253.944 12:20 10.10.2019
6229 Rain 11 1010 81 0 0.45 270 11:55 10.10.2019
6230 Rain 11 1010 82 0 10.98 253.944 11:37 10.10.2019
6231 Rain 11 1010 83 0 0.45 247 11:18 10.10.2019
6232 Rain 11 1009 83 0 0.89 315 10:44 10.10.2019
6233 Rain 11 1009 84 0 10.98 253.944 10:26 10.10.2019
6234 Rain 10 1009 84 0 0.45 292 09:56 10.10.2019
6235 Rain 10 1009 85 0 0.45 202 09:38 10.10.2019
6236 Rain 9 1008 86 0 0.45 292 09:19 10.10.2019
6237 Rain 9 1008 87 0 10.55 256.11 08:56 10.10.2019
6238 Rain 9 1008 87 0 10.55 256.11 08:37 10.10.2019
6239 Rain 9 1007 87 0 10.55 256.11 08:18 10.10.2019
6240 Rain 9 1007 87 0 0.45 292 07:42 10.10.2019
6241 Rain 9 1007 87 0 10.55 256.11 07:20 10.10.2019
6242 Rain 9 1007 86 0 10.55 256.11 06:46 10.10.2019
6243 Rain 9 1007 87 0 10.55 256.11 06:26 10.10.2019
6244 Rain 9 1006 86 0 9.2 258.967 05:25 10.10.2019
6245 Rain 9 1006 87 0 0.45 292 04:37 10.10.2019
6246 Rain 9 1006 88 0 9.2 258.967 03:42 10.10.2019
6247 Rain 10 1006 87 0 6.84 238.089 01:43 10.10.2019
6248 Rain 10 1006 87 0 7.17 244.092 01:24 10.10.2019
6249 Rain 10 1005 86 0 7.17 244.092 00:53 10.10.2019
6250 Rain 10 1006 85 0 6.62 224.676 00:22 10.10.2019
6251 Rain 10 1006 85 0 6.62 224.676 23:40 09.10.2019
6252 Rain 10 1006 85 0 6.62 224.676 23:20 09.10.2019
6253 Rain 11 1006 85 0 0.45 202 22:56 09.10.2019
6254 Rain 11 1006 85 0 6.62 224.676 22:37 09.10.2019
6255 Rain 11 1006 85 0 6.62 224.676 22:19 09.10.2019
6256 Rain 11 1006 84 0 0.45 202 21:40 09.10.2019
6257 Rain 11 1006 84 0 0.45 202 21:21 09.10.2019
6258 Rain 11 1006 84 0 6.1 220.288 20:56 09.10.2019
6259 Rain 11 1006 84 0 0.45 202 20:38 09.10.2019
6260 Rain 11 1007 84 0 0.45 202 20:19 09.10.2019
6261 Rain 11 1007 83 0 0.45 180 19:58 09.10.2019
6262 Rain 11 1007 83 0 0.45 180 19:40 09.10.2019
6263 Rain 11 1007 83 0 0.45 180 19:21 09.10.2019
6264 Rain 12 1007 81 0 0.45 180 18:38 09.10.2019
6265 Rain 12 1007 81 0 4.84 223.971 18:20 09.10.2019
6266 Rain 13 1008 79 0 4.84 223.971 17:57 09.10.2019
6267 Rain 14 1008 77 0 4.84 223.971 17:37 09.10.2019
6268 Rain 14 1008 77 0 4.84 223.971 17:19 09.10.2019
6269 Rain 14 1008 75 0 0.45 225 16:56 09.10.2019
6270 Rain 14 1008 75 0 0.45 225 16:37 09.10.2019
6271 Rain 14 1008 74 0 4.84 223.971 16:18 09.10.2019
6272 Rain 14 1008 74 0 4.84 223.971 16:18 09.10.2019
6273 Rain 14 1008 75 0 0.45 292 15:55 09.10.2019
6274 Rain 15 1008 74 0 4.84 223.971 15:36 09.10.2019
6275 Rain 15 1008 73 0 0.45 292 15:18 09.10.2019
6276 Rain 16 1008 72 0 7.78 241.854 14:44 09.10.2019
6277 Rain 15 1008 73 0 7.78 241.854 14:19 09.10.2019
6278 Rain 14 1009 77 0 7.78 241.854 13:59 09.10.2019
6279 Rain 14 1009 78 0 7.78 241.854 13:37 09.10.2019
6280 Rain 14 1009 79 0 7.54 234.485 13:18 09.10.2019
6281 Rain 13 1009 80 0 7.54 234.485 12:43 09.10.2019
6282 Rain 13 1009 81 0 9.65 243.613 12:23 09.10.2019
6283 Rain 13 1009 83 0 0.45 270 11:58 09.10.2019
6284 Rain 13 1009 83 0 9.65 243.613 11:40 09.10.2019
6285 Rain 12 1009 84 0 9.65 243.613 11:20 09.10.2019
6286 Rain 12 1009 86 0 9.65 243.613 10:58 09.10.2019
6287 Rain 12 1009 87 0 9.65 243.613 10:40 09.10.2019
6288 Rain 12 1009 87 0 9.65 243.613 10:18 09.10.2019
6289 Rain 11 1009 89 0 0.45 270 09:43 09.10.2019
6290 Rain 11 1008 89 0 1.34 292 09:20 09.10.2019
6291 Rain 11 1008 90 0 0.45 270 08:57 09.10.2019
6292 Rain 10 1008 89 0 0.45 225 08:38 09.10.2019
6293 Rain 10 1008 90 0 10.53 237.28 08:19 09.10.2019
6294 Rain 10 1008 90 0 10.53 237.28 07:47 09.10.2019
6295 Rain 10 1008 90 0 0.45 225 07:24 09.10.2019
6296 Rain 10 1008 90 0 10.53 237.28 06:57 09.10.2019
6297 Rain 10 1007 90 0 10.53 237.28 06:34 09.10.2019
6298 Rain 9 1007 90 0 0.45 225 05:52 09.10.2019
6299 Rain 9 1007 89 0 0.45 225 04:50 09.10.2019
6300 Rain 9 1006 89 0 9.7 240.254 03:47 09.10.2019
6301 Rain 9 1007 88 0 8.86 247.623 02:27 09.10.2019
6302 Rain 9 1006 88 0 8.86 247.623 01:39 09.10.2019
6303 Rain 9 1006 88 0 9.86 244.001 01:18 09.10.2019
6304 Rain 10 1006 88 0 9.86 244.001 00:41 09.10.2019
6305 Rain 11 1006 88 0 0.45 225 00:23 09.10.2019
6306 Rain 11 1006 89 0 8.73 238.72 23:58 08.10.2019
6307 Rain 11 1006 88 0 8.73 238.72 23:38 08.10.2019
6308 Rain 11 1006 88 0 0.45 202 23:18 08.10.2019
6309 Rain 11 1006 88 0 0.45 202 23:18 08.10.2019
6310 Rain 11 1006 88 0 0.45 247 22:55 08.10.2019
6311 Rain 11 1006 88 0 8.73 238.72 22:36 08.10.2019
6312 Rain 11 1006 87 0 8.73 238.72 22:18 08.10.2019
6313 Rain 11 1006 87 0 8.73 238.72 21:55 08.10.2019
6314 Rain 11 1006 87 0 8.73 238.72 21:36 08.10.2019
6315 Rain 11 1006 87 0 7.49 242.391 21:18 08.10.2019
6316 Rain 11 1006 88 0 7.49 242.391 20:54 08.10.2019
6317 Rain 11 1006 88 0 7.84 240.152 20:36 08.10.2019
6318 Rain 12 1006 89 0 7.84 240.152 20:18 08.10.2019
6319 Rain 12 1006 89 0 7.84 240.152 19:41 08.10.2019
6320 Rain 12 1006 89 0 7.84 240.152 19:23 08.10.2019
6321 Rain 12 1006 88 0 7.84 240.152 18:59 08.10.2019
6322 Rain 12 1006 88 0 7.84 240.152 18:40 08.10.2019
6323 Clouds 12 1006 88 0 9.54 259.849 18:22 08.10.2019
6324 Clouds 12 1005 88 0 9.54 259.849 17:57 08.10.2019
6325 Clouds 12 1005 88 0 9.54 259.849 17:39 08.10.2019
6326 Clouds 12 1005 89 0 9.54 259.849 17:18 08.10.2019
6327 Clouds 12 1005 89 0 9.54 259.849 16:55 08.10.2019
6328 Clouds 12 1005 89 0 9.54 259.849 16:37 08.10.2019
6329 Clouds 12 1005 90 0 9.54 259.849 16:18 08.10.2019
6330 Clouds 12 1005 90 0 9.54 259.849 15:38 08.10.2019
6331 Rain 12 1005 90 0 10.95 250.915 15:19 08.10.2019
6332 Rain 11 1005 90 0 10.95 250.915 14:55 08.10.2019
6333 Rain 11 1005 91 0 10.95 250.915 14:37 08.10.2019
6334 Rain 11 1005 91 0 10.95 250.915 14:19 08.10.2019
6335 Rain 10 1005 89 0 10.95 250.915 13:54 08.10.2019
6336 Rain 10 1005 89 0 10.95 250.915 13:54 08.10.2019
6337 Rain 10 1005 89 0 0.89 247 13:36 08.10.2019
6338 Rain 9 1006 90 0 0.89 202 13:18 08.10.2019
6339 Rain 9 1006 90 0 0.89 202 13:18 08.10.2019
6340 Rain 9 1006 90 0 1.34 225 12:40 08.10.2019
6341 Rain 9 1006 90 0 1.34 180 12:20 08.10.2019
6342 Rain 8 1006 89 0 1.34 202 11:57 08.10.2019
6343 Rain 8 1006 89 0 1.79 180 11:38 08.10.2019
6344 Rain 8 1007 89 0 1.79 202 11:20 08.10.2019
6345 Rain 7 1008 88 0 1.79 180 10:42 08.10.2019
6346 Rain 7 1008 88 0 1.34 180 10:23 08.10.2019
6347 Rain 7 1008 87 0 2.24 157 09:59 08.10.2019
6348 Rain 6 1009 86 0 1.79 180 09:40 08.10.2019
6349 Rain 6 1009 85 0 1.79 180 09:22 08.10.2019
6350 Rain 6 1010 83 0 0.89 180 08:45 08.10.2019
6351 Rain 6 1011 82 0 0.89 180 08:25 08.10.2019
6352 Rain 6 1011 81 0 1.79 180 07:57 08.10.2019
6353 Rain 6 1011 80 0 1.34 157 07:38 08.10.2019
6354 Rain 6 1012 80 0 0.89 180 07:19 08.10.2019
6355 Rain 6 1012 81 0 0.89 180 06:45 08.10.2019
6356 Clouds 6 1013 81 0 1.34 157 06:21 08.10.2019
6357 Clouds 6 1014 81 0 1.34 180 05:43 08.10.2019
6358 Clouds 6 1014 81 0 1.34 157 05:19 08.10.2019
6359 Clouds 6 1017 83 0 0.89 157 03:31 08.10.2019
6360 Clouds 6 1017 82 0 0.45 157 02:43 08.10.2019
6361 Clouds 6 1017 82 0 0.45 157 02:25 08.10.2019
6362 Clouds 5 1018 81 0 0.89 157 01:41 08.10.2019
6363 Clouds 5 1019 80 0 0.45 135 00:56 08.10.2019
6364 Clouds 5 1020 80 0 0.45 135 00:25 08.10.2019
6365 Clouds 5 1020 80 0 3.96 184.647 23:58 07.10.2019
6366 Clouds 6 1021 79 0 3.96 184.647 23:38 07.10.2019
6367 Clouds 6 1021 79 0 3.96 184.647 23:19 07.10.2019
6368 Clouds 6 1021 79 0 3.96 184.647 22:55 07.10.2019
6369 Clouds 6 1021 78 0 3.96 184.647 22:37 07.10.2019
6370 Clouds 6 1021 78 0 3.96 184.647 22:18 07.10.2019
6371 Clouds 6 1022 77 0 3.96 184.647 21:54 07.10.2019
6372 Clouds 6 1022 77 0 3.96 184.647 21:36 07.10.2019
6373 Clouds 6 1022 75 0 1.17 325.209 21:18 07.10.2019
6374 Clouds 6 1022 74 0 1.37 340.078 20:55 07.10.2019
6375 Clouds 7 1022 74 0 1.37 340.078 20:37 07.10.2019
6376 Clouds 7 1022 73 0 1.37 340.078 20:18 07.10.2019
6377 Clouds 7 1022 73 0 1.37 340.078 19:42 07.10.2019
6378 Clouds 7 1022 73 0 1.37 340.078 19:42 07.10.2019
6379 Clouds 7 1023 73 0 1.37 340.078 19:21 07.10.2019
6380 Clouds 8 1023 73 0 1.37 340.078 19:00 07.10.2019
6381 Clouds 8 1023 73 0 1.37 340.078 18:41 07.10.2019
6382 Clouds 8 1023 73 0 0.45 0 18:19 07.10.2019
6383 Clouds 8 1023 72 0 3.07 318.898 17:58 07.10.2019
6384 Clouds 9 1023 70 0 3.07 318.898 17:40 07.10.2019
6385 Clouds 9 1023 70 0 3.07 318.898 17:40 07.10.2019
6386 Clouds 9 1023 70 0 3.07 318.898 17:19 07.10.2019
6387 Clouds 9 1023 70 0 3.07 318.898 16:46 07.10.2019
6388 Clouds 9 1023 70 0 3.07 318.898 16:46 07.10.2019
6389 Clouds 9 1023 69 0 3.07 318.898 16:28 07.10.2019
6390 Clouds 10 1023 69 0 3.07 318.898 15:58 07.10.2019
6391 Clouds 9 1023 68 0 3.07 318.898 15:40 07.10.2019
6392 Clouds 9 1023 68 0 2.91 328.091 15:21 07.10.2019
6393 Clouds 9 1024 68 0 2.91 328.091 14:42 07.10.2019
6394 Clouds 10 1024 68 0 2.91 328.091 14:23 07.10.2019
6395 Clouds 9 1024 69 0 2.91 328.091 13:45 07.10.2019
6396 Clouds 9 1025 69 0 2.97 328.726 13:21 07.10.2019
6397 Clouds 9 1025 68 0 2.97 328.726 12:59 07.10.2019
6398 Clouds 9 1025 69 0 2.97 328.726 12:41 07.10.2019
6399 Clouds 9 1025 68 0 0.45 292 12:21 07.10.2019
6400 Clouds 9 1025 67 0 4.24 332.873 11:59 07.10.2019
6401 Clouds 9 1025 67 0 0.45 292 11:41 07.10.2019
6402 Clouds 9 1025 68 0 0.89 292 11:22 07.10.2019
6403 Clouds 9 1025 67 0 4.24 332.873 10:58 07.10.2019
6404 Clouds 9 1025 67 0 4.24 332.873 10:58 07.10.2019
6405 Clouds 8 1025 68 0 4.24 332.873 10:39 07.10.2019
6406 Clouds 8 1025 70 0 0.45 45 10:20 07.10.2019
6407 Clouds 8 1025 74 0 0.45 22 09:40 07.10.2019
6408 Clouds 8 1025 76 0 0.45 22 09:22 07.10.2019
6409 Clouds 7 1025 85 0 3.97 1.471 08:55 07.10.2019
6410 Clouds 7 1025 85 0 3.53 0.633 08:37 07.10.2019
6411 Clouds 6 1024 85 0 3.53 0.633 08:18 07.10.2019
6412 Clouds 6 1024 84 0 3.53 0.633 07:40 07.10.2019
6413 Clouds 6 1024 84 0 3.53 0.633 07:20 07.10.2019
6414 Clouds 6 1024 84 0 3.53 0.633 06:48 07.10.2019
6415 Clouds 6 1024 84 0 3.53 0.633 06:27 07.10.2019
6416 Clouds 7 1024 84 0 3.45 38.224 05:42 07.10.2019
6417 Clouds 7 1024 84 0 3.45 38.224 05:21 07.10.2019
6418 Clouds 7 1024 84 0 3.45 38.224 04:24 07.10.2019
6419 Clouds 7 1024 83 0 3.45 38.224 03:44 07.10.2019
6420 Clouds 7 1024 83 0 3.45 38.224 03:44 07.10.2019
6421 Clouds 7 1024 83 0 3.45 38.224 03:44 07.10.2019
6422 Rain 7 1024 83 0 5.44 52.926 03:20 07.10.2019
6423 Rain 7 1024 83 0 5.44 52.926 03:20 07.10.2019
6424 Rain 7 1024 82 0 5.44 52.926 02:21 07.10.2019
6425 Rain 7 1024 82 0 5.44 52.926 02:21 07.10.2019
6426 Rain 7 1024 82 0 5.44 52.926 01:50 07.10.2019
6427 Rain 6 1024 82 0 4.85 57.008 01:21 07.10.2019
6428 Rain 6 1024 82 0 4.85 57.008 00:39 07.10.2019
6429 Rain 6 1024 82 0 5.67 85.547 00:20 07.10.2019
6430 Rain 6 1024 81 0 5.67 85.547 23:42 06.10.2019
6431 Rain 6 1024 81 0 5.67 85.547 23:22 06.10.2019
6432 Rain 9 1020 74 0 5.67 85.547 22:59 06.10.2019
6433 Rain 9 1020 74 0 5.67 85.547 22:41 06.10.2019
6434 Rain 6 1024 81 0 5.67 85.547 22:22 06.10.2019
6435 Rain 6 1024 80 0 5.67 85.547 21:58 06.10.2019
6436 Rain 6 1024 78 0 5.67 85.547 21:38 06.10.2019
6437 Rain 7 1024 78 0 5.81 94.788 21:19 06.10.2019
6438 Rain 7 1024 78 0 5.81 94.788 20:58 06.10.2019
6439 Rain 7 1024 78 0 6.85 94.993 20:40 06.10.2019
6440 Rain 7 1024 77 0 6.85 94.993 20:21 06.10.2019
6441 Rain 7 1024 76 0 6.85 94.993 19:58 06.10.2019
6442 Rain 8 1024 76 0 6.85 94.993 19:38 06.10.2019
6443 Rain 8 1024 75 0 6.85 94.993 19:20 06.10.2019
6444 Rain 8 1024 75 0 6.85 94.993 19:20 06.10.2019
6445 Rain 9 1024 73 0 6.85 94.993 18:57 06.10.2019
6446 Rain 9 1024 71 0 6.85 94.993 18:39 06.10.2019
6447 Clouds 10 1024 70 0 4.57 97.364 18:20 06.10.2019
6448 Clouds 11 1024 68 0 4.57 97.364 17:59 06.10.2019
6449 Clouds 11 1024 67 0 4.57 97.364 17:39 06.10.2019
6450 Clouds 12 1024 66 0 4.57 97.364 17:19 06.10.2019
6451 Clouds 12 1024 67 0 0.45 135 16:54 06.10.2019
6452 Clouds 12 1024 67 0 4.57 97.364 16:36 06.10.2019
6453 Clouds 12 1024 67 0 4.57 97.364 16:18 06.10.2019
6454 Clouds 11 1020 60 0 4.57 97.364 15:42 06.10.2019
6455 Rain 12 1025 67 0 3.14 99.534 15:19 06.10.2019
6456 Rain 13 1025 65 0 0.89 135 14:44 06.10.2019
6457 Rain 12 1025 66 0 3.14 99.534 14:25 06.10.2019
6458 Rain 12 1025 68 0 3.14 99.534 13:58 06.10.2019
6459 Rain 12 1025 67 0 3.14 99.534 13:39 06.10.2019
6460 Clear 12 1026 66 0 0.45 45 13:21 06.10.2019
6461 Clear 12 1026 67 0 0.45 45 12:57 06.10.2019
6462 Clear 13 1026 68 0 0.45 45 12:39 06.10.2019
6463 Clear 13 1026 68 0 0.45 45 12:39 06.10.2019
6464 Clouds 13 1026 71 0 2.05 183.186 12:21 06.10.2019
6465 Clouds 12 1026 74 0 0.89 135 11:58 06.10.2019
6466 Clouds 11 1026 76 0 0.45 135 11:39 06.10.2019
6467 Clouds 11 1026 78 0 0.45 135 11:20 06.10.2019
6468 Clouds 11 1026 78 0 0.45 135 11:20 06.10.2019
6469 Clouds 9 1027 85 0 2.05 183.186 10:45 06.10.2019
6470 Clouds 9 1027 85 0 2.05 183.186 10:26 06.10.2019
6471 Clouds 8 1027 86 0 2.05 183.186 09:58 06.10.2019
6472 Clouds 8 1027 86 0 2.05 183.186 09:40 06.10.2019
6473 Clouds 7 1027 87 0 3.41 147.215 09:19 06.10.2019
6474 Clouds 7 1027 87 0 3.41 147.215 09:19 06.10.2019
6475 Clouds 6 1026 86 0 3.41 147.215 08:47 06.10.2019
6476 Clear 6 1026 86 0 4.58 107.24 08:21 06.10.2019
6477 Clear 6 1026 86 0 4.58 107.24 07:57 06.10.2019
6478 Clear 6 1026 86 0 4.58 107.24 07:38 06.10.2019
6479 Clear 7 1026 87 0 4.58 107.24 06:39 06.10.2019
6480 Clouds 6 1026 86 0 0.45 135 05:36 06.10.2019
6481 Clouds 6 1026 85 0 5.3 84.895 04:29 06.10.2019
6482 Rain 7 1027 84 0 5.64 81.743 02:48 06.10.2019
6483 Rain 7 1027 82 0 5.64 81.743 02:28 06.10.2019
6484 Rain 7 1026 81 0 5.64 81.743 01:46 06.10.2019
6485 Rain 7 1026 81 0 6.19 85.438 01:27 06.10.2019
6486 Rain 7 1026 81 0 6.19 85.438 01:27 06.10.2019
6487 Rain 7 1026 82 0 6.19 85.438 00:59 06.10.2019
6488 Rain 7 1026 82 0 6.19 85.438 00:59 06.10.2019
6489 Rain 7 1026 81 0 0.45 112 00:31 06.10.2019
6490 Clouds 7 1026 80 0 6.76 68.424 23:54 05.10.2019
6491 Clouds 7 1026 80 0 6.76 68.424 23:36 05.10.2019
6492 Clouds 8 1026 81 0 6.76 68.424 23:18 05.10.2019
6493 Clouds 8 1026 81 0 6.76 68.424 22:54 05.10.2019
6494 Clouds 8 1026 81 0 6.76 68.424 22:54 05.10.2019
6495 Clouds 8 1026 79 0 6.76 68.424 22:36 05.10.2019
6496 Clouds 8 1026 77 0 6.76 68.424 22:18 05.10.2019
6497 Clouds 8 1026 77 0 0.89 135 21:40 05.10.2019
6498 Rain 8 1026 75 0 0.45 90 21:22 05.10.2019
6499 Rain 9 1025 75 0 0.45 45 20:57 05.10.2019
6500 Clouds 9 1025 75 0 8.51 51.755 20:39 05.10.2019
6501 Clouds 9 1025 75 0 0.45 67 20:19 05.10.2019
6502 Clouds 9 1025 74 0 8.51 51.755 19:55 05.10.2019
6503 Clouds 9 1025 75 0 0.45 45 19:36 05.10.2019
6504 Clouds 9 1024 74 0 0.45 22 19:18 05.10.2019
6505 Clouds 9 1024 74 0 1.34 22 18:54 05.10.2019
6506 Clouds 9 1024 74 0 0.89 22 18:36 05.10.2019
6507 Rain 9 1023 75 0 0.89 45 18:18 05.10.2019
6508 Rain 10 1023 76 0 0.45 45 17:40 05.10.2019
6509 Rain 10 1023 77 0 0.45 67 17:21 05.10.2019
6510 Rain 10 1022 73 0 0.89 45 16:55 05.10.2019
6511 Rain 10 1022 72 0 2.24 45 16:36 05.10.2019
6512 Rain 11 1022 72 0 0.89 22 16:18 05.10.2019
6513 Rain 11 1022 72 0 0.89 45 15:55 05.10.2019
6514 Rain 11 1022 72 0 0.89 45 15:55 05.10.2019
6515 Rain 11 1022 73 0 0.45 22 15:36 05.10.2019
6516 Rain 11 1022 73 0 0.89 45 15:18 05.10.2019
6517 Rain 11 1021 75 0 0.89 45 14:41 05.10.2019
6518 Rain 10 1021 77 0 9.69 61.446 14:22 05.10.2019
6519 Rain 9 1021 84 0 9.69 61.446 13:43 05.10.2019
6520 Rain 9 1021 84 0 0.45 157 13:25 05.10.2019
6521 Rain 8 1020 84 0 9.52 58.686 12:58 05.10.2019
6522 Rain 8 1020 84 0 0.89 135 12:40 05.10.2019
6523 Rain 8 1020 84 0 8.33 81.325 12:18 05.10.2019
6524 Rain 9 1020 84 0 8.33 81.325 11:39 05.10.2019
6525 Rain 9 1020 83 0 8.33 81.325 11:20 05.10.2019
6526 Rain 9 1019 82 0 8.33 81.325 10:57 05.10.2019
6527 Rain 9 1019 82 0 0.45 112 10:38 05.10.2019
6528 Rain 9 1019 82 0 0.45 112 10:38 05.10.2019
6529 Rain 9 1019 81 0 8.33 81.325 10:19 05.10.2019
6530 Rain 9 1019 81 0 8.33 81.325 10:19 05.10.2019
6531 Rain 9 1018 79 0 8.33 81.325 09:40 05.10.2019
6532 Rain 9 1017 80 0 13.73 60.744 09:22 05.10.2019
6533 Rain 9 1017 82 0 1.34 22 08:42 05.10.2019
6534 Rain 8 1016 83 0 13.49 59.981 08:23 05.10.2019
6535 Rain 9 1016 80 0 13.49 59.981 07:59 05.10.2019
6536 Rain 9 1016 80 0 13.49 59.981 07:40 05.10.2019
6537 Rain 8 1015 80 0 13.49 59.981 07:21 05.10.2019
6538 Rain 8 1015 80 0 13.49 59.981 06:52 05.10.2019
6539 Rain 8 1015 80 0 9.56 74.249 06:21 05.10.2019
6540 Rain 8 1014 78 0 9.56 74.249 05:20 05.10.2019
6541 Rain 9 1014 75 0 9.56 74.249 03:32 05.10.2019
6542 Rain 9 1013 76 0 9.2 78.267 02:29 05.10.2019
6543 Rain 9 1014 79 0 9.75 78.652 01:27 05.10.2019
6544 Rain 9 1013 80 0 9.75 78.652 00:49 05.10.2019
6545 Rain 9 1013 80 0 9.75 78.652 00:27 05.10.2019
6546 Rain 9 1013 80 0 0.89 135 23:58 04.10.2019
6547 Rain 9 1013 80 0 10.65 85.476 23:40 04.10.2019
6548 Rain 9 1013 79 0 10.65 85.476 23:21 04.10.2019
6549 Rain 9 1013 79 0 0.45 135 22:56 04.10.2019
6550 Rain 9 1013 79 0 0.89 135 22:37 04.10.2019
6551 Rain 9 1013 80 0 0.45 135 22:19 04.10.2019
6552 Rain 9 1013 79 0 0.45 135 21:40 04.10.2019
6553 Clouds 9 1013 79 0 8.05 99.849 21:22 04.10.2019
6554 Clouds 9 1013 77 0 8.05 99.849 20:59 04.10.2019
6555 Clouds 9 1013 77 0 8.05 99.849 20:59 04.10.2019
6556 Clouds 9 1013 78 0 8.78 92.017 20:41 04.10.2019
6557 Clouds 9 1013 77 0 8.78 92.017 20:22 04.10.2019
6558 Clouds 9 1013 76 0 8.78 92.017 19:56 04.10.2019
6559 Clouds 9 1013 76 0 8.78 92.017 19:37 04.10.2019
6560 Clouds 9 1013 75 0 8.78 92.017 19:19 04.10.2019
6561 Clouds 10 1013 74 0 8.78 92.017 18:55 04.10.2019
6562 Clouds 10 1013 74 0 8.78 92.017 18:36 04.10.2019
6563 Clouds 11 1013 73 0 6.89 112.727 18:18 04.10.2019
6564 Clouds 11 1013 72 0 6.89 112.727 17:40 04.10.2019
6565 Clouds 11 1013 71 0 6.89 112.727 17:22 04.10.2019
6566 Clouds 12 1013 71 0 6.89 112.727 16:58 04.10.2019
6567 Clouds 12 1013 70 0 6.89 112.727 16:39 04.10.2019
6568 Clouds 12 1013 70 0 6.89 112.727 16:39 04.10.2019
6569 Clouds 12 1013 70 0 6.89 112.727 16:18 04.10.2019
6570 Clouds 12 1013 70 0 6.89 112.727 16:18 04.10.2019
6571 Clouds 12 1013 69 0 6.89 112.727 15:56 04.10.2019
6572 Clouds 12 1013 69 0 0.89 135 15:38 04.10.2019
6573 Clouds 12 1013 69 0 0.89 135 15:38 04.10.2019
6574 Clouds 13 1013 69 0 0.89 135 15:19 04.10.2019
6575 Clouds 12 1013 67 0 0.89 135 14:55 04.10.2019
6576 Clouds 12 1014 69 0 1.34 135 14:37 04.10.2019
6577 Clouds 12 1014 68 0 0.89 135 14:19 04.10.2019
6578 Clouds 13 1014 66 0 0.89 157 13:44 04.10.2019
6579 Clouds 13 1014 66 0 1.34 135 13:22 04.10.2019
6580 Clouds 14 1014 65 0 0.45 157 12:54 04.10.2019
6581 Clouds 14 1014 65 0 0.45 157 12:36 04.10.2019
6582 Clouds 13 1015 68 0 0.45 135 12:18 04.10.2019
6583 Clouds 13 1015 70 0 0.45 135 11:42 04.10.2019
6584 Clouds 12 1015 73 0 0.89 135 11:21 04.10.2019
6585 Clouds 11 1015 80 0 0.45 180 10:41 04.10.2019
6586 Clouds 11 1016 82 0 0.45 180 10:21 04.10.2019
6587 Clouds 9 1016 85 0 3.96 152.412 09:58 04.10.2019
6588 Clouds 9 1016 85 0 3.96 152.412 09:58 04.10.2019
6589 Clouds 9 1016 85 0 0.45 202 09:40 04.10.2019
6590 Clouds 9 1016 85 0 2.78 184.68 09:22 04.10.2019
6591 Clouds 7 1016 84 0 2.78 184.68 08:43 04.10.2019
6592 Clouds 7 1016 84 0 2.78 184.68 08:43 04.10.2019
6593 Clouds 7 1016 84 0 2.78 184.68 08:25 04.10.2019
6594 Clouds 7 1016 84 0 2.78 184.68 07:47 04.10.2019
6595 Clouds 7 1016 84 0 2.78 184.68 07:24 04.10.2019
6596 Clouds 8 1016 84 0 2.78 184.68 06:56 04.10.2019
6597 Clouds 8 1016 84 0 2.78 184.68 06:56 04.10.2019
6598 Clouds 8 1016 84 0 2.78 184.68 06:37 04.10.2019
6599 Clouds 8 1016 84 0 3.54 221.254 06:18 04.10.2019
6600 Clouds 8 1016 84 0 3.54 221.254 06:18 04.10.2019
6601 Clouds 8 1017 84 0 3.54 221.254 05:19 04.10.2019
6602 Clouds 8 1017 83 0 3.54 221.254 04:37 04.10.2019
6603 Clouds 8 1017 83 0 1.37 237.159 02:56 04.10.2019
6604 Clouds 8 1017 83 0 1.37 237.159 02:56 04.10.2019
6605 Clouds 8 1017 83 0 1.37 237.159 02:37 04.10.2019
6606 Clouds 8 1017 83 0 1.37 237.159 01:53 04.10.2019
6607 Clouds 9 1017 82 0 1.4 237.956 01:26 04.10.2019
6608 Clouds 9 1017 82 0 1.4 237.956 00:32 04.10.2019
6609 Clouds 10 1014 63 0 1.83 317.239 23:39 03.10.2019
6610 Clouds 9 1018 82 0 1.83 317.239 23:21 03.10.2019
6611 Clouds 9 1018 81 0 1.83 317.239 22:57 03.10.2019
6612 Clouds 9 1018 81 0 1.83 317.239 22:39 03.10.2019
6613 Clouds 9 1018 81 0 1.83 317.239 22:39 03.10.2019
6614 Clouds 9 1018 81 0 1.83 317.239 22:39 03.10.2019
6615 Clouds 9 1018 81 0 1.83 317.239 22:21 03.10.2019
6616 Clouds 9 1018 81 0 1.83 317.239 21:58 03.10.2019
6617 Clouds 9 1018 80 0 0.45 292 21:39 03.10.2019
6618 Clouds 9 1018 79 0 3.88 354.954 21:19 03.10.2019
6619 Clouds 9 1018 77 0 3.88 354.954 20:58 03.10.2019
6620 Clouds 9 1018 77 0 3.88 354.954 20:58 03.10.2019
6621 Clouds 9 1018 74 0 3.42 357.133 20:39 03.10.2019
6622 Clouds 9 1018 71 0 3.42 357.133 20:20 03.10.2019
6623 Clouds 10 1017 69 0 0.45 0 19:56 03.10.2019
6624 Clouds 10 1017 69 0 3.42 357.133 19:38 03.10.2019
6625 Clouds 10 1017 69 0 3.42 357.133 19:19 03.10.2019
6626 Clouds 10 1017 72 0 3.42 357.133 18:56 03.10.2019
6627 Clouds 10 1017 71 0 3.42 357.133 18:37 03.10.2019
6628 Clouds 10 1017 70 0 0.45 0 18:18 03.10.2019
6629 Clouds 11 1017 72 0 0.45 0 17:42 03.10.2019
6630 Clouds 11 1017 72 0 4.48 349.39 17:22 03.10.2019
6631 Clouds 11 1017 72 0 0.45 22 16:58 03.10.2019
6632 Clouds 11 1017 72 0 4.48 349.39 16:39 03.10.2019
6633 Clouds 11 1017 72 0 0.45 22 16:21 03.10.2019
6634 Clouds 10 1013 70 0 4.48 349.39 15:45 03.10.2019
6635 Clouds 10 1013 70 0 4.48 349.39 15:24 03.10.2019
6636 Clouds 12 1017 71 0 0.45 0 14:59 03.10.2019
6637 Clouds 11 1016 72 0 0.89 0 14:37 03.10.2019
6638 Clouds 11 1016 73 0 0.45 45 14:19 03.10.2019
6639 Clouds 11 1016 75 0 0.89 45 13:44 03.10.2019
6640 Clouds 11 1016 76 0 1.34 22 13:26 03.10.2019
6641 Clouds 12 1016 74 0 0.89 22 12:59 03.10.2019
6642 Clouds 12 1015 74 0 0.89 22 12:40 03.10.2019
6643 Clouds 12 1015 74 0 0.45 45 12:20 03.10.2019
6644 Clouds 12 1015 74 0 0.45 45 12:20 03.10.2019
6645 Clouds 11 1015 77 0 0.45 22 11:59 03.10.2019
6646 Clouds 10 1012 81 0 7.17 9.937 11:40 03.10.2019
6647 Clouds 12 1014 77 0 0.89 337 11:21 03.10.2019
6648 Clouds 12 1014 80 0 7.17 9.937 10:58 03.10.2019
6649 Clouds 11 1014 81 0 7.17 9.937 10:39 03.10.2019
6650 Clouds 11 1014 81 0 1.79 0 10:18 03.10.2019
6651 Clouds 11 1014 81 0 1.79 0 10:18 03.10.2019
6652 Clouds 11 1014 80 0 0.89 22 09:56 03.10.2019
6653 Clouds 11 1013 81 0 0.89 22 09:38 03.10.2019
6654 Rain 11 1013 82 0 0.45 0 09:19 03.10.2019
6655 Rain 9 1013 85 0 8.32 9.21 08:43 03.10.2019
6656 Rain 9 1012 85 0 8.32 9.21 08:25 03.10.2019
6657 Rain 9 1012 84 0 8.32 9.21 07:55 03.10.2019
6658 Rain 9 1012 84 0 0.45 22 07:37 03.10.2019
6659 Rain 9 1012 84 0 0.89 45 07:19 03.10.2019
6660 Rain 9 1011 87 0 1.79 45 06:27 03.10.2019
6661 Rain 9 1011 88 0 7.24 21.519 05:50 03.10.2019
6662 Rain 9 1010 87 0 7.24 21.519 05:31 03.10.2019
6663 Rain 9 1010 87 0 7.24 21.519 04:47 03.10.2019
6664 Rain 8 1009 87 0 7.24 21.519 04:18 03.10.2019
6665 Rain 8 1009 87 0 0.45 135 03:19 03.10.2019
6666 Rain 8 1009 86 0 0.89 157 02:33 03.10.2019
6667 Rain 8 1010 86 0 0.89 157 01:42 03.10.2019
6668 Rain 8 1009 86 0 0.45 157 01:20 03.10.2019
6669 Rain 8 1010 84 0 0.45 180 00:41 03.10.2019
6670 Rain 9 1010 83 0 2.91 258.358 23:58 02.10.2019
6671 Rain 8 1010 82 0 0.45 225 23:38 02.10.2019
6672 Rain 8 1010 82 0 2.91 258.358 23:20 02.10.2019
6673 Rain 8 1010 81 0 2.91 258.358 22:43 02.10.2019
6674 Rain 8 1010 81 0 2.91 258.358 22:43 02.10.2019
6675 Rain 8 1010 80 0 0.45 225 22:21 02.10.2019
6676 Rain 8 1009 80 0 2.91 258.358 21:56 02.10.2019
6677 Rain 8 1009 80 0 2.91 258.358 21:38 02.10.2019
6678 Rain 8 1009 79 0 8.98 252.266 21:19 02.10.2019
6679 Rain 9 1009 79 0 8.37 272.041 20:56 02.10.2019
6680 Rain 9 1009 78 0 8.37 272.041 20:38 02.10.2019
6681 Rain 9 1009 78 0 8.37 272.041 20:20 02.10.2019
6682 Rain 9 1009 77 0 8.37 272.041 19:54 02.10.2019
6683 Rain 9 1009 75 0 8.37 272.041 19:36 02.10.2019
6684 Rain 9 1009 75 0 8.37 272.041 19:36 02.10.2019
6685 Rain 10 1009 73 0 8.37 272.041 19:18 02.10.2019
6686 Rain 11 1009 72 0 8.37 272.041 18:55 02.10.2019
6687 Rain 11 1009 71 0 8.37 272.041 18:36 02.10.2019
6688 Clear 12 1009 68 0 0.45 270 18:18 02.10.2019
6689 Clear 13 1009 67 0 0.89 292 17:42 02.10.2019
6690 Clear 13 1008 66 0 1.79 292 17:21 02.10.2019
6691 Clear 13 1008 66 0 1.79 292 17:21 02.10.2019
6692 Clear 13 1008 65 0 0.89 315 16:58 02.10.2019
6693 Clear 14 1008 65 0 0.89 225 16:39 02.10.2019
6694 Clear 14 1008 67 0 0.45 315 16:20 02.10.2019
6695 Clear 14 1008 68 0 0.89 315 15:56 02.10.2019
6696 Clear 13 1008 67 0 1.79 292 15:37 02.10.2019
6697 Clouds 14 1008 64 0 0.89 292 15:18 02.10.2019
6698 Clouds 14 1008 64 0 0.89 292 15:18 02.10.2019
6699 Clouds 13 1007 64 0 1.79 292 14:45 02.10.2019
6700 Clouds 13 1007 65 0 1.34 292 14:27 02.10.2019
6701 Clouds 13 1007 66 0 0.89 337 13:59 02.10.2019
6702 Clouds 12 1007 69 0 0.45 337 13:40 02.10.2019
6703 Clouds 12 1007 68 0 1.34 315 13:22 02.10.2019
6704 Clouds 13 1007 66 0 1.79 292 12:54 02.10.2019
6705 Clouds 13 1007 67 0 1.79 292 12:36 02.10.2019
6706 Clouds 11 1006 69 0 1.34 315 12:18 02.10.2019
6707 Clouds 12 1006 73 0 1.79 292 11:42 02.10.2019
6708 Clouds 12 1006 75 0 2.24 292 11:21 02.10.2019
6709 Clouds 10 1005 80 0 1.34 292 10:41 02.10.2019
6710 Clouds 9 1005 80 0 0.89 292 10:19 02.10.2019
6711 Clouds 9 1005 84 0 0.45 292 09:42 02.10.2019
6712 Clouds 9 1005 85 0 0.45 292 09:21 02.10.2019
6713 Clouds 9 1004 87 0 0.45 292 08:59 02.10.2019
6714 Clouds 8 1004 87 0 0.89 292 08:41 02.10.2019
6715 Clouds 8 1004 87 0 6.85 300.987 08:22 02.10.2019
6716 Clouds 8 1004 87 0 6.85 300.987 07:55 02.10.2019
6717 Clouds 8 1003 88 0 6.85 300.987 07:37 02.10.2019
6718 Clouds 8 1003 88 0 6.85 300.987 07:18 02.10.2019
6719 Clouds 8 1003 88 0 6.85 300.987 07:18 02.10.2019
6720 Clouds 8 1003 88 0 0.45 292 06:29 02.10.2019
6721 Clouds 8 1003 89 0 7.09 302.623 05:51 02.10.2019
6722 Clouds 8 1003 89 0 0.45 292 05:22 02.10.2019
6723 Clouds 8 1003 89 0 7.09 302.623 04:41 02.10.2019
6724 Clouds 8 1003 89 0 7.09 302.623 03:51 02.10.2019
6725 Clouds 8 1003 89 0 6.47 299.179 02:39 02.10.2019
6726 Clouds 8 1003 89 0 6.47 299.179 02:20 02.10.2019
6727 Clouds 8 1003 88 0 6.42 293.418 01:19 02.10.2019
6728 Clouds 9 1003 89 0 6.42 293.418 00:42 02.10.2019
6729 Clouds 9 1003 89 0 0.89 292 00:23 02.10.2019
6730 Clouds 9 1003 89 0 5.36 315.045 23:42 01.10.2019
6731 Clouds 9 1003 89 0 5.36 315.045 23:24 01.10.2019
6732 Clouds 9 1003 89 0 5.36 315.045 22:58 01.10.2019
6733 Clouds 9 1003 88 0 5.36 315.045 22:39 01.10.2019
6734 Clouds 10 1003 87 0 0.45 315 22:18 01.10.2019
6735 Clouds 10 1003 87 0 5.36 315.045 21:55 01.10.2019
6736 Clouds 10 1002 88 0 5.36 315.045 21:36 01.10.2019
6737 Rain 10 1002 88 0 5.07 329.944 21:18 01.10.2019
6738 Rain 10 1002 88 0 5.07 329.944 20:54 01.10.2019
6739 Rain 10 1002 88 0 0.45 22 20:36 01.10.2019
6740 Rain 10 1001 89 0 5.07 357.118 20:18 01.10.2019
6741 Rain 10 1001 90 0 0.45 22 19:41 01.10.2019
6742 Rain 9 1001 90 0 0.89 45 19:23 01.10.2019
6743 Rain 9 1001 90 0 0.89 22 18:58 01.10.2019
6744 Rain 10 1001 91 0 1.34 45 18:39 01.10.2019
6745 Rain 11 1000 91 0 0.45 22 18:21 01.10.2019
6746 Rain 11 996 89 0 7.42 21.922 17:55 01.10.2019
6747 Rain 11 996 89 0 7.42 21.922 17:36 01.10.2019
6748 Rain 12 999 91 0 0.89 22 17:18 01.10.2019
6749 Rain 12 999 91 0 7.42 21.922 16:54 01.10.2019
6750 Rain 12 999 90 0 0.45 22 16:36 01.10.2019
6751 Rain 12 999 90 0 0.45 45 16:18 01.10.2019
6752 Rain 12 999 90 0 7.42 21.922 15:42 01.10.2019
6753 Rain 12 1000 90 0 3.56 54.343 15:21 01.10.2019
6754 Rain 12 1000 90 0 0.45 135 14:41 01.10.2019
6755 Rain 12 1000 89 0 0.45 135 14:20 01.10.2019
6756 Rain 12 1001 89 0 3.56 54.343 13:57 01.10.2019
6757 Rain 12 1001 89 0 3.56 54.343 13:38 01.10.2019
6758 Rain 12 1002 89 0 3.17 53.987 13:19 01.10.2019
6759 Rain 12 1002 89 0 0.45 180 12:57 01.10.2019
6760 Rain 12 1002 89 0 0.45 180 12:57 01.10.2019
6761 Rain 12 1002 89 0 0.45 180 12:38 01.10.2019
6762 Rain 12 1003 89 0 0.89 180 12:18 01.10.2019
6763 Rain 12 1003 89 0 0.89 180 12:18 01.10.2019
6764 Rain 12 1003 90 0 0.89 180 11:57 01.10.2019
6765 Rain 12 1003 90 0 0.45 202 11:37 01.10.2019
6766 Rain 12 1003 89 0 0.45 180 11:18 01.10.2019
6767 Rain 12 1004 89 0 0.89 180 10:48 01.10.2019
6768 Rain 11 1004 89 0 0.89 180 10:29 01.10.2019
6769 Rain 11 1005 89 0 0.45 180 09:47 01.10.2019
6770 Rain 11 1005 88 0 0.89 180 09:27 01.10.2019
6771 Rain 11 1005 88 0 0.45 202 08:57 01.10.2019
6772 Rain 11 1005 88 0 0.45 202 08:39 01.10.2019
6773 Rain 11 1005 88 0 0.89 202 08:20 01.10.2019
6774 Rain 10 1006 88 0 0.45 202 07:42 01.10.2019
6775 Rain 11 1006 88 0 0.45 202 07:22 01.10.2019
6776 Rain 11 1006 88 0 0.45 247 06:45 01.10.2019
6777 Rain 11 1007 88 0 0.45 270 06:18 01.10.2019
6778 Rain 11 1007 88 0 0.45 270 06:18 01.10.2019
6779 Rain 11 1007 88 0 6.24 291.749 05:45 01.10.2019
6780 Rain 11 1007 87 0 6.24 291.749 04:50 01.10.2019
6781 Rain 11 1008 87 0 6.24 291.749 04:26 01.10.2019
6782 Rain 10 1009 86 0 0.45 292 02:26 01.10.2019
6783 Rain 10 1009 86 0 9.38 286.892 01:58 01.10.2019
6784 Rain 9 1009 82 0 9.67 290.638 00:53 01.10.2019
6785 Rain 10 1009 81 0 9.67 290.638 00:27 01.10.2019
6786 Clouds 10 1009 80 0 12.39 288.473 23:56 30.09.2019
6787 Clouds 11 1008 80 0 12.39 288.473 23:38 30.09.2019
6788 Clouds 11 1008 81 0 0.89 292 23:19 30.09.2019
6789 Clouds 11 1008 79 0 12.39 288.473 22:43 30.09.2019
6790 Clouds 11 1008 78 0 12.39 288.473 22:24 30.09.2019
6791 Clouds 11 1008 78 0 0.45 292 21:57 30.09.2019
6792 Clouds 11 1008 78 0 1.34 247 21:38 30.09.2019
6793 Clouds 11 1008 77 0 0.45 247 21:19 30.09.2019
6794 Clouds 11 1008 77 0 0.45 247 21:19 30.09.2019
6795 Clouds 12 1007 76 0 1.34 292 20:57 30.09.2019
6796 Clouds 12 1007 75 0 1.79 292 20:38 30.09.2019
6797 Clouds 12 1007 75 0 0.89 270 20:20 30.09.2019
6798 Clouds 12 1007 74 0 1.79 0 19:56 30.09.2019
6799 Clouds 12 1007 74 0 1.79 0 19:56 30.09.2019
6800 Clouds 12 1006 73 0 1.79 292 19:38 30.09.2019
6801 Clouds 12 1006 71 0 1.79 315 19:19 30.09.2019
6802 Clouds 13 1006 71 0 2.68 292 18:57 30.09.2019
6803 Clouds 13 1005 71 0 2.24 292 18:37 30.09.2019
6804 Clouds 14 1005 69 0 2.68 292 18:19 30.09.2019
6805 Clouds 14 1004 73 0 2.68 315 17:42 30.09.2019
6806 Clouds 14 1004 74 0 3.13 292 17:22 30.09.2019
6807 Clouds 15 1003 73 0 3.13 292 16:57 30.09.2019
6808 Clouds 15 1003 75 0 3.13 292 16:39 30.09.2019
6809 Clouds 15 1003 77 0 2.68 292 16:19 30.09.2019
6810 Clouds 14 1002 78 0 2.68 292 15:58 30.09.2019
6811 Clouds 15 1002 79 0 2.24 292 15:38 30.09.2019
6812 Rain 14 1002 79 0 2.24 315 15:19 30.09.2019
6813 Rain 14 1001 81 0 3.58 292 14:57 30.09.2019
6814 Rain 14 1001 79 0 2.24 292 14:37 30.09.2019
6815 Rain 14 1000 83 0 2.68 315 14:19 30.09.2019
6816 Rain 14 1000 83 0 3.58 292 13:57 30.09.2019
6817 Rain 14 999 84 0 1.79 315 13:38 30.09.2019
6818 Rain 13 999 85 0 3.13 315 13:20 30.09.2019
6819 Rain 13 998 88 0 2.68 292 12:43 30.09.2019
6820 Rain 13 997 88 0 1.34 315 12:22 30.09.2019
6821 Rain 13 996 89 0 2.68 292 11:57 30.09.2019
6822 Rain 13 995 90 0 1.79 22 11:38 30.09.2019
6823 Rain 13 994 91 0 1.79 270 11:19 30.09.2019
6824 Rain 13 990 87 0 20.04 317.479 10:54 30.09.2019
6825 Rain 14 991 92 0 0.45 315 10:36 30.09.2019
6826 Rain 15 991 91 0 0.45 292 10:18 30.09.2019
6827 Rain 15 991 92 0 20.04 317.479 09:40 30.09.2019
6828 Rain 15